<?xml version="1.0" encoding="UTF-8" standalone="no" ?>
<gpx xmlns="http://www.topografix.com/GPX/1/1" xmlns:xsi="http://www.w3.org/2001/XMLSchema-instance" xsi:schemaLocation="http://www.topografix.com/GPX/1/1 http://www.topografix.com/GPX/1/1/gpx.xsd" version="1.1" creator="VisuGPX - https://www.visugpx.com">
  <metadata>
    <name>Trail des reculees 2022  La Diane version 31 août</name>
  </metadata>
  <wpt lat="46.67259" lon="5.55939">
    <ele>259.7</ele>
    <name><![CDATA[Begin]]></name>
    <desc><![CDATA[Auto-generated]]></desc>
    <type><![CDATA[Begin]]></type>
  </wpt>
  <wpt lat="46.67276" lon="5.55967">
    <ele>259.1</ele>
    <name><![CDATA[End]]></name>
    <desc><![CDATA[Auto-generated]]></desc>
    <type><![CDATA[End]]></type>
  </wpt>
  <trk>
    <name><![CDATA[Trail des reculees 2022  La Diane sur TraceDeTrail.fr]]></name>
    <extensions>
      <line xmlns="http://www.topografix.com/GPX/gpx_style/0/2">
        <color>0000FF</color>
        <width>4</width>
      </line>
    </extensions>
    <trkseg>
      <trkpt lat="46.67441" lon="5.55327">
        <ele>254</ele>
        <time>2000-01-01T01:39:06.000Z</time>
        <extensions>
          <visugpx:TrkExtension xmlns:visugpx="https://www.visugpx.com/editgpx/">
            <visugpx:node>4</visugpx:node>
            </visugpx:TrkExtension>
        </extensions>
      </trkpt>
      <trkpt lat="46.67457" lon="5.55347">
        <ele>254</ele>
        <time>2000-01-01T01:39:16.000Z</time>
      </trkpt>
      <trkpt lat="46.67471" lon="5.55357">
        <ele>255</ele>
        <time>2000-01-01T01:39:26.000Z</time>
      </trkpt>
      <trkpt lat="46.6749" lon="5.55366">
        <ele>254</ele>
        <time>2000-01-01T01:39:36.000Z</time>
      </trkpt>
      <trkpt lat="46.6751" lon="5.5538">
        <ele>254</ele>
        <time>2000-01-01T01:39:46.000Z</time>
      </trkpt>
      <trkpt lat="46.67532" lon="5.55393">
        <ele>255</ele>
        <time>2000-01-01T01:39:56.000Z</time>
      </trkpt>
      <trkpt lat="46.67526" lon="5.55422">
        <ele>255</ele>
        <time>2000-01-01T01:40:06.000Z</time>
      </trkpt>
      <trkpt lat="46.67517" lon="5.55455">
        <ele>256</ele>
        <time>2000-01-01T01:40:16.000Z</time>
      </trkpt>
      <trkpt lat="46.67509" lon="5.55479">
        <ele>256</ele>
        <time>2000-01-01T01:40:26.000Z</time>
      </trkpt>
      <trkpt lat="46.67506" lon="5.55492">
        <ele>256</ele>
        <time>2000-01-01T01:40:36.000Z</time>
      </trkpt>
      <trkpt lat="46.67502" lon="5.55523">
        <ele>256</ele>
        <time>2018-07-17T05:26:10.000Z</time>
      </trkpt>
      <trkpt lat="46.67492" lon="5.55545">
        <ele>257</ele>
        <time>2018-07-17T05:26:20.000Z</time>
      </trkpt>
      <trkpt lat="46.67465" lon="5.55532">
        <ele>256</ele>
        <time>2018-07-17T05:26:30.000Z</time>
      </trkpt>
      <trkpt lat="46.67451" lon="5.55521">
        <ele>256.8</ele>
        <time>2018-07-17T05:26:40.000Z</time>
      </trkpt>
      <trkpt lat="46.67436" lon="5.55514">
        <ele>256</ele>
        <time>2018-07-17T05:27:00.000Z</time>
      </trkpt>
      <trkpt lat="46.6743" lon="5.55513">
        <ele>256.7</ele>
        <time>2018-07-17T05:27:10.000Z</time>
      </trkpt>
      <trkpt lat="46.6741" lon="5.55499">
        <ele>256</ele>
        <time>2018-07-17T05:27:20.000Z</time>
      </trkpt>
      <trkpt lat="46.67386" lon="5.55492">
        <ele>256</ele>
        <time>2018-07-17T05:27:30.000Z</time>
      </trkpt>
      <trkpt lat="46.6736" lon="5.55485">
        <ele>256</ele>
        <time>2018-07-17T05:27:40.000Z</time>
      </trkpt>
      <trkpt lat="46.67349" lon="5.55489">
        <ele>256.3</ele>
        <time>2018-07-17T05:27:50.000Z</time>
      </trkpt>
      <trkpt lat="46.67314" lon="5.55474">
        <ele>256</ele>
        <time>2018-07-17T05:28:20.000Z</time>
      </trkpt>
      <trkpt lat="46.67302" lon="5.55474">
        <ele>256</ele>
        <time>2018-07-17T05:28:30.000Z</time>
      </trkpt>
      <trkpt lat="46.6726" lon="5.55465">
        <ele>256</ele>
        <time>2018-07-17T05:28:40.000Z</time>
      </trkpt>
      <trkpt lat="46.67257" lon="5.55486">
        <ele>256.5</ele>
        <time>2018-07-17T05:28:50.000Z</time>
      </trkpt>
      <trkpt lat="46.67255" lon="5.55515">
        <ele>256</ele>
        <time>2018-07-17T05:29:10.000Z</time>
      </trkpt>
      <trkpt lat="46.67252" lon="5.5553">
        <ele>256.1</ele>
        <time>2018-07-17T05:29:20.000Z</time>
      </trkpt>
      <trkpt lat="46.67251" lon="5.55547">
        <ele>255</ele>
        <time>2018-07-17T05:28:30.000Z</time>
      </trkpt>
      <trkpt lat="46.67255" lon="5.55577">
        <ele>255</ele>
        <time>2018-07-17T05:28:33.000Z</time>
      </trkpt>
      <trkpt lat="46.67259" lon="5.55593">
        <ele>256</ele>
        <time>2018-07-17T05:28:43.000Z</time>
      </trkpt>
      <trkpt lat="46.67261" lon="5.55606">
        <ele>256</ele>
        <time>2018-07-17T05:28:42.000Z</time>
      </trkpt>
      <trkpt lat="46.67268" lon="5.55634">
        <ele>256</ele>
        <time>2018-07-17T05:28:51.000Z</time>
      </trkpt>
      <trkpt lat="46.67271" lon="5.5565">
        <ele>256.4</ele>
        <time>2018-07-17T05:29:01.000Z</time>
      </trkpt>
      <trkpt lat="46.67281" lon="5.55696">
        <ele>256</ele>
        <time>2018-07-17T05:29:11.000Z</time>
      </trkpt>
      <trkpt lat="46.6728" lon="5.55713">
        <ele>257.1</ele>
        <time>2018-07-17T05:29:21.000Z</time>
      </trkpt>
      <trkpt lat="46.67283" lon="5.55757">
        <ele>257</ele>
        <time>2018-07-17T05:29:29.000Z</time>
      </trkpt>
      <trkpt lat="46.67283" lon="5.5577">
        <ele>257.8</ele>
        <time>2018-07-17T05:29:39.000Z</time>
      </trkpt>
      <trkpt lat="46.67284" lon="5.55785">
        <ele>257</ele>
        <time>2018-07-17T05:29:38.000Z</time>
      </trkpt>
      <trkpt lat="46.67283" lon="5.55803">
        <ele>258</ele>
        <time>2018-07-17T05:29:48.000Z</time>
      </trkpt>
      <trkpt lat="46.67284" lon="5.55816">
        <ele>257</ele>
        <time>2018-07-17T05:29:47.000Z</time>
      </trkpt>
      <trkpt lat="46.67284" lon="5.55842">
        <ele>258.5</ele>
        <time>2018-07-17T05:29:57.000Z</time>
      </trkpt>
      <trkpt lat="46.67285" lon="5.55855">
        <ele>258</ele>
        <time>2018-07-17T05:29:59.000Z</time>
      </trkpt>
      <trkpt lat="46.67281" lon="5.55871">
        <ele>259.3</ele>
        <time>2018-07-17T05:30:09.000Z</time>
      </trkpt>
      <trkpt lat="46.67275" lon="5.55883">
        <ele>259</ele>
        <time>2018-07-17T05:30:08.000Z</time>
      </trkpt>
      <trkpt lat="46.67266" lon="5.55905">
        <ele>260</ele>
        <time>2018-07-17T05:30:18.000Z</time>
      </trkpt>
      <trkpt lat="46.67259" lon="5.55917">
        <ele>259</ele>
        <time>2018-07-17T05:30:19.000Z</time>
        <extensions>
          <visugpx:TrkExtension xmlns:visugpx="https://www.visugpx.com/editgpx/">
            <visugpx:node>5</visugpx:node>
            </visugpx:TrkExtension>
        </extensions>
      </trkpt>
      <trkpt lat="46.67259" lon="5.55922">
        <ele>259.9</ele>
      </trkpt>
      <trkpt lat="46.6726" lon="5.55926">
        <ele>259.9</ele>
      </trkpt>
      <trkpt lat="46.67259" lon="5.55928">
        <ele>259.9</ele>
      </trkpt>
      <trkpt lat="46.67259" lon="5.55931">
        <ele>259.8</ele>
        <extensions>
          <visugpx:TrkExtension xmlns:visugpx="https://www.visugpx.com/editgpx/">
            <visugpx:node>6</visugpx:node>
            </visugpx:TrkExtension>
        </extensions>
      </trkpt>
      <trkpt lat="46.67259" lon="5.55939">
        <ele>259.7</ele>
      </trkpt>
      <trkpt lat="46.6726" lon="5.55939">
        <ele>259.7</ele>
      </trkpt>
      <trkpt lat="46.67261" lon="5.55944">
        <ele>259.6</ele>
      </trkpt>
      <trkpt lat="46.67263" lon="5.55953">
        <ele>259.5</ele>
      </trkpt>
      <trkpt lat="46.67263" lon="5.55958">
        <ele>259.5</ele>
      </trkpt>
      <trkpt lat="46.67263" lon="5.55963">
        <ele>264.2</ele>
      </trkpt>
      <trkpt lat="46.67262" lon="5.55968">
        <ele>264</ele>
      </trkpt>
      <trkpt lat="46.67261" lon="5.55972">
        <ele>263.7</ele>
      </trkpt>
      <trkpt lat="46.6726" lon="5.55977">
        <ele>263.6</ele>
      </trkpt>
      <trkpt lat="46.67259" lon="5.55981">
        <ele>263.3</ele>
      </trkpt>
      <trkpt lat="46.67259" lon="5.55984">
        <ele>263.2</ele>
      </trkpt>
      <trkpt lat="46.67257" lon="5.55988">
        <ele>263</ele>
      </trkpt>
      <trkpt lat="46.67255" lon="5.5599">
        <ele>262.7</ele>
      </trkpt>
      <trkpt lat="46.67254" lon="5.55992">
        <ele>262.6</ele>
      </trkpt>
      <trkpt lat="46.67252" lon="5.55995">
        <ele>262.6</ele>
      </trkpt>
      <trkpt lat="46.6725" lon="5.55998">
        <ele>262.3</ele>
      </trkpt>
      <trkpt lat="46.67249" lon="5.56">
        <ele>262.2</ele>
      </trkpt>
      <trkpt lat="46.67246" lon="5.56002">
        <ele>262.2</ele>
      </trkpt>
      <trkpt lat="46.67244" lon="5.56005">
        <ele>262</ele>
      </trkpt>
      <trkpt lat="46.67242" lon="5.56008">
        <ele>261.7</ele>
      </trkpt>
      <trkpt lat="46.67242" lon="5.56011">
        <ele>261.7</ele>
      </trkpt>
      <trkpt lat="46.67239" lon="5.56014">
        <ele>261.6</ele>
      </trkpt>
      <trkpt lat="46.67237" lon="5.56018">
        <ele>261.3</ele>
      </trkpt>
      <trkpt lat="46.67235" lon="5.56023">
        <ele>261.2</ele>
      </trkpt>
      <trkpt lat="46.67234" lon="5.56025">
        <ele>261</ele>
      </trkpt>
      <trkpt lat="46.67233" lon="5.5603">
        <ele>260.7</ele>
      </trkpt>
      <trkpt lat="46.67235" lon="5.56035">
        <ele>260.6</ele>
      </trkpt>
      <trkpt lat="46.67236" lon="5.56039">
        <ele>260.6</ele>
      </trkpt>
      <trkpt lat="46.67235" lon="5.56042">
        <ele>260.3</ele>
      </trkpt>
      <trkpt lat="46.67234" lon="5.56046">
        <ele>260.3</ele>
      </trkpt>
      <trkpt lat="46.67234" lon="5.5605">
        <ele>260.2</ele>
      </trkpt>
      <trkpt lat="46.67233" lon="5.56054">
        <ele>260.2</ele>
      </trkpt>
      <trkpt lat="46.67232" lon="5.56058">
        <ele>260.2</ele>
      </trkpt>
      <trkpt lat="46.67231" lon="5.5606">
        <ele>260.2</ele>
      </trkpt>
      <trkpt lat="46.6723" lon="5.56064">
        <ele>260</ele>
      </trkpt>
      <trkpt lat="46.67229" lon="5.56067">
        <ele>260</ele>
      </trkpt>
      <trkpt lat="46.67227" lon="5.56071">
        <ele>260</ele>
      </trkpt>
      <trkpt lat="46.67226" lon="5.56074">
        <ele>259.7</ele>
      </trkpt>
      <trkpt lat="46.67226" lon="5.56077">
        <ele>259.7</ele>
      </trkpt>
      <trkpt lat="46.67224" lon="5.56081">
        <ele>259.6</ele>
      </trkpt>
      <trkpt lat="46.67223" lon="5.56084">
        <ele>259.6</ele>
      </trkpt>
      <trkpt lat="46.6722" lon="5.56088">
        <ele>259.6</ele>
      </trkpt>
      <trkpt lat="46.67219" lon="5.56091">
        <ele>259.6</ele>
      </trkpt>
      <trkpt lat="46.67218" lon="5.56094">
        <ele>259.6</ele>
      </trkpt>
      <trkpt lat="46.67216" lon="5.56098">
        <ele>259.6</ele>
      </trkpt>
      <trkpt lat="46.67215" lon="5.56101">
        <ele>259.6</ele>
      </trkpt>
      <trkpt lat="46.67213" lon="5.56105">
        <ele>259.6</ele>
      </trkpt>
      <trkpt lat="46.6721" lon="5.56106">
        <ele>259.6</ele>
      </trkpt>
      <trkpt lat="46.67207" lon="5.56106">
        <ele>259.6</ele>
      </trkpt>
      <trkpt lat="46.67206" lon="5.56107">
        <ele>259.6</ele>
      </trkpt>
      <trkpt lat="46.67202" lon="5.56108">
        <ele>259.3</ele>
      </trkpt>
      <trkpt lat="46.67201" lon="5.56109">
        <ele>259.3</ele>
      </trkpt>
      <trkpt lat="46.67199" lon="5.5611">
        <ele>259.3</ele>
      </trkpt>
      <trkpt lat="46.67197" lon="5.56112">
        <ele>259.2</ele>
      </trkpt>
      <trkpt lat="46.67195" lon="5.56114">
        <ele>259.2</ele>
      </trkpt>
      <trkpt lat="46.67195" lon="5.56117">
        <ele>259.2</ele>
      </trkpt>
      <trkpt lat="46.67194" lon="5.5612">
        <ele>259</ele>
      </trkpt>
      <trkpt lat="46.67193" lon="5.56125">
        <ele>258.7</ele>
      </trkpt>
      <trkpt lat="46.67192" lon="5.56128">
        <ele>258.6</ele>
      </trkpt>
      <trkpt lat="46.67192" lon="5.56131">
        <ele>258.6</ele>
      </trkpt>
      <trkpt lat="46.67193" lon="5.56134">
        <ele>258.3</ele>
      </trkpt>
      <trkpt lat="46.67193" lon="5.56138">
        <ele>258.2</ele>
      </trkpt>
      <trkpt lat="46.67193" lon="5.56142">
        <ele>258</ele>
      </trkpt>
      <trkpt lat="46.67193" lon="5.56147">
        <ele>257.7</ele>
      </trkpt>
      <trkpt lat="46.67193" lon="5.56151">
        <ele>257.6</ele>
      </trkpt>
      <trkpt lat="46.67194" lon="5.56156">
        <ele>257.3</ele>
      </trkpt>
      <trkpt lat="46.67194" lon="5.56161">
        <ele>257.3</ele>
      </trkpt>
      <trkpt lat="46.67194" lon="5.56166">
        <ele>257.2</ele>
      </trkpt>
      <trkpt lat="46.67194" lon="5.56171">
        <ele>257</ele>
      </trkpt>
      <trkpt lat="46.67193" lon="5.56175">
        <ele>257</ele>
      </trkpt>
      <trkpt lat="46.67193" lon="5.56179">
        <ele>257</ele>
      </trkpt>
      <trkpt lat="46.67192" lon="5.56183">
        <ele>256.7</ele>
      </trkpt>
      <trkpt lat="46.67191" lon="5.56187">
        <ele>256.7</ele>
      </trkpt>
      <trkpt lat="46.67191" lon="5.56192">
        <ele>256.7</ele>
      </trkpt>
      <trkpt lat="46.67191" lon="5.56196">
        <ele>256.7</ele>
      </trkpt>
      <trkpt lat="46.6719" lon="5.562">
        <ele>256.7</ele>
      </trkpt>
      <trkpt lat="46.67189" lon="5.56204">
        <ele>256.7</ele>
      </trkpt>
      <trkpt lat="46.67189" lon="5.56209">
        <ele>256.7</ele>
      </trkpt>
      <trkpt lat="46.67189" lon="5.56213">
        <ele>256.7</ele>
      </trkpt>
      <trkpt lat="46.67188" lon="5.56217">
        <ele>256.7</ele>
      </trkpt>
      <trkpt lat="46.67186" lon="5.56219">
        <ele>256.7</ele>
      </trkpt>
      <trkpt lat="46.67184" lon="5.56222">
        <ele>257</ele>
      </trkpt>
      <trkpt lat="46.67181" lon="5.56224">
        <ele>257</ele>
      </trkpt>
      <trkpt lat="46.67178" lon="5.56225">
        <ele>257</ele>
      </trkpt>
      <trkpt lat="46.67176" lon="5.56227">
        <ele>257</ele>
      </trkpt>
      <trkpt lat="46.67174" lon="5.56227">
        <ele>257</ele>
      </trkpt>
      <trkpt lat="46.67172" lon="5.56228">
        <ele>257</ele>
      </trkpt>
      <trkpt lat="46.6717" lon="5.56229">
        <ele>257.2</ele>
      </trkpt>
      <trkpt lat="46.67168" lon="5.56229">
        <ele>257.2</ele>
      </trkpt>
      <trkpt lat="46.67164" lon="5.56232">
        <ele>257.2</ele>
      </trkpt>
      <trkpt lat="46.67162" lon="5.56234">
        <ele>257.2</ele>
      </trkpt>
      <trkpt lat="46.6716" lon="5.56235">
        <ele>257.2</ele>
      </trkpt>
      <trkpt lat="46.67159" lon="5.56237">
        <ele>257.2</ele>
      </trkpt>
      <trkpt lat="46.67157" lon="5.56239">
        <ele>257.2</ele>
      </trkpt>
      <trkpt lat="46.67156" lon="5.56242">
        <ele>257.2</ele>
      </trkpt>
      <trkpt lat="46.67154" lon="5.56246">
        <ele>257.2</ele>
      </trkpt>
      <trkpt lat="46.67152" lon="5.56249">
        <ele>257.3</ele>
      </trkpt>
      <trkpt lat="46.67151" lon="5.56253">
        <ele>257.3</ele>
      </trkpt>
      <trkpt lat="46.67149" lon="5.56257">
        <ele>257.3</ele>
      </trkpt>
      <trkpt lat="46.67147" lon="5.56262">
        <ele>257.6</ele>
      </trkpt>
      <trkpt lat="46.67146" lon="5.56268">
        <ele>257.6</ele>
      </trkpt>
      <trkpt lat="46.67144" lon="5.56272">
        <ele>257.6</ele>
      </trkpt>
      <trkpt lat="46.67143" lon="5.56276">
        <ele>257.6</ele>
      </trkpt>
      <trkpt lat="46.67142" lon="5.56281">
        <ele>257.6</ele>
      </trkpt>
      <trkpt lat="46.67141" lon="5.56285">
        <ele>257.7</ele>
      </trkpt>
      <trkpt lat="46.67141" lon="5.5629">
        <ele>257.7</ele>
      </trkpt>
      <trkpt lat="46.67139" lon="5.56294">
        <ele>257.7</ele>
      </trkpt>
      <trkpt lat="46.67138" lon="5.56298">
        <ele>257.7</ele>
      </trkpt>
      <trkpt lat="46.67137" lon="5.56302">
        <ele>258</ele>
      </trkpt>
      <trkpt lat="46.67136" lon="5.56307">
        <ele>258</ele>
      </trkpt>
      <trkpt lat="46.67136" lon="5.56311">
        <ele>258</ele>
      </trkpt>
      <trkpt lat="46.67136" lon="5.56316">
        <ele>258</ele>
      </trkpt>
      <trkpt lat="46.67136" lon="5.5632">
        <ele>258</ele>
      </trkpt>
      <trkpt lat="46.67136" lon="5.56323">
        <ele>258</ele>
      </trkpt>
      <trkpt lat="46.67135" lon="5.56325">
        <ele>258.2</ele>
      </trkpt>
      <trkpt lat="46.67133" lon="5.56327">
        <ele>258.2</ele>
      </trkpt>
      <trkpt lat="46.67132" lon="5.56331">
        <ele>258.2</ele>
      </trkpt>
      <trkpt lat="46.6713" lon="5.56335">
        <ele>258.3</ele>
      </trkpt>
      <trkpt lat="46.67129" lon="5.56337">
        <ele>258.3</ele>
      </trkpt>
      <trkpt lat="46.67128" lon="5.5634">
        <ele>258.3</ele>
      </trkpt>
      <trkpt lat="46.67126" lon="5.56346">
        <ele>258.6</ele>
      </trkpt>
      <trkpt lat="46.67126" lon="5.56349">
        <ele>258.6</ele>
      </trkpt>
      <trkpt lat="46.67125" lon="5.56351">
        <ele>258.6</ele>
      </trkpt>
      <trkpt lat="46.67125" lon="5.56354">
        <ele>258.7</ele>
      </trkpt>
      <trkpt lat="46.67123" lon="5.56356">
        <ele>258.7</ele>
      </trkpt>
      <trkpt lat="46.67123" lon="5.56359">
        <ele>259</ele>
      </trkpt>
      <trkpt lat="46.67122" lon="5.56362">
        <ele>259.2</ele>
      </trkpt>
      <trkpt lat="46.67122" lon="5.56365">
        <ele>259.2</ele>
      </trkpt>
      <trkpt lat="46.67122" lon="5.56368">
        <ele>259.3</ele>
      </trkpt>
      <trkpt lat="46.67121" lon="5.56372">
        <ele>259.3</ele>
      </trkpt>
      <trkpt lat="46.6712" lon="5.56376">
        <ele>259.6</ele>
      </trkpt>
      <trkpt lat="46.6712" lon="5.56381">
        <ele>259.6</ele>
      </trkpt>
      <trkpt lat="46.67119" lon="5.56384">
        <ele>259.7</ele>
      </trkpt>
      <trkpt lat="46.67119" lon="5.56389">
        <ele>259.7</ele>
      </trkpt>
      <trkpt lat="46.67119" lon="5.56393">
        <ele>259.7</ele>
      </trkpt>
      <trkpt lat="46.67118" lon="5.56396">
        <ele>259.7</ele>
      </trkpt>
      <trkpt lat="46.67118" lon="5.564">
        <ele>259.7</ele>
      </trkpt>
      <trkpt lat="46.67118" lon="5.56403">
        <ele>259.7</ele>
      </trkpt>
      <trkpt lat="46.67118" lon="5.56407">
        <ele>259.7</ele>
      </trkpt>
      <trkpt lat="46.67119" lon="5.5641">
        <ele>259.7</ele>
      </trkpt>
      <trkpt lat="46.67119" lon="5.56414">
        <ele>259.7</ele>
      </trkpt>
      <trkpt lat="46.67119" lon="5.56418">
        <ele>259.7</ele>
      </trkpt>
      <trkpt lat="46.67119" lon="5.56422">
        <ele>259.7</ele>
      </trkpt>
      <trkpt lat="46.67117" lon="5.56425">
        <ele>259.7</ele>
      </trkpt>
      <trkpt lat="46.67117" lon="5.56429">
        <ele>259.6</ele>
      </trkpt>
      <trkpt lat="46.67117" lon="5.56433">
        <ele>259.6</ele>
      </trkpt>
      <trkpt lat="46.67116" lon="5.56438">
        <ele>259.6</ele>
      </trkpt>
      <trkpt lat="46.67115" lon="5.56441">
        <ele>259.6</ele>
      </trkpt>
      <trkpt lat="46.67114" lon="5.56446">
        <ele>259.6</ele>
      </trkpt>
      <trkpt lat="46.67114" lon="5.5645">
        <ele>259.3</ele>
      </trkpt>
      <trkpt lat="46.67114" lon="5.56455">
        <ele>259.3</ele>
      </trkpt>
      <trkpt lat="46.67112" lon="5.56459">
        <ele>259.3</ele>
      </trkpt>
      <trkpt lat="46.67112" lon="5.56464">
        <ele>259.3</ele>
      </trkpt>
      <trkpt lat="46.67112" lon="5.56469">
        <ele>259.3</ele>
      </trkpt>
      <trkpt lat="46.67112" lon="5.56472">
        <ele>259.3</ele>
      </trkpt>
      <trkpt lat="46.6711" lon="5.56476">
        <ele>259.3</ele>
      </trkpt>
      <trkpt lat="46.6711" lon="5.56479">
        <ele>259.2</ele>
      </trkpt>
      <trkpt lat="46.67109" lon="5.56482">
        <ele>259.2</ele>
      </trkpt>
      <trkpt lat="46.67108" lon="5.56486">
        <ele>259.2</ele>
      </trkpt>
      <trkpt lat="46.67108" lon="5.56489">
        <ele>259.2</ele>
      </trkpt>
      <trkpt lat="46.67109" lon="5.56494">
        <ele>259.2</ele>
      </trkpt>
      <trkpt lat="46.67109" lon="5.56498">
        <ele>259.3</ele>
      </trkpt>
      <trkpt lat="46.67108" lon="5.56502">
        <ele>259.3</ele>
      </trkpt>
      <trkpt lat="46.67108" lon="5.56507">
        <ele>259.3</ele>
      </trkpt>
      <trkpt lat="46.67107" lon="5.56511">
        <ele>259.3</ele>
      </trkpt>
      <trkpt lat="46.67106" lon="5.56514">
        <ele>259.3</ele>
      </trkpt>
      <trkpt lat="46.67106" lon="5.56518">
        <ele>259.3</ele>
      </trkpt>
      <trkpt lat="46.67105" lon="5.56522">
        <ele>259.3</ele>
      </trkpt>
      <trkpt lat="46.67104" lon="5.56525">
        <ele>259.3</ele>
      </trkpt>
      <trkpt lat="46.67104" lon="5.56528">
        <ele>259.3</ele>
      </trkpt>
      <trkpt lat="46.67102" lon="5.56532">
        <ele>259.3</ele>
      </trkpt>
      <trkpt lat="46.671" lon="5.56536">
        <ele>259.3</ele>
      </trkpt>
      <trkpt lat="46.67099" lon="5.5654">
        <ele>259.3</ele>
      </trkpt>
      <trkpt lat="46.67098" lon="5.56544">
        <ele>259.3</ele>
      </trkpt>
      <trkpt lat="46.67098" lon="5.56547">
        <ele>259.3</ele>
      </trkpt>
      <trkpt lat="46.67096" lon="5.56549">
        <ele>259.3</ele>
      </trkpt>
      <trkpt lat="46.67094" lon="5.56551">
        <ele>259.3</ele>
      </trkpt>
      <trkpt lat="46.67094" lon="5.56554">
        <ele>259.6</ele>
      </trkpt>
      <trkpt lat="46.67091" lon="5.56556">
        <ele>259.6</ele>
      </trkpt>
      <trkpt lat="46.67088" lon="5.56559">
        <ele>259.6</ele>
      </trkpt>
      <trkpt lat="46.67086" lon="5.56561">
        <ele>259.6</ele>
      </trkpt>
      <trkpt lat="46.67083" lon="5.56563">
        <ele>259.6</ele>
      </trkpt>
      <trkpt lat="46.67082" lon="5.56565">
        <ele>259.6</ele>
      </trkpt>
      <trkpt lat="46.6708" lon="5.56567">
        <ele>259.6</ele>
      </trkpt>
      <trkpt lat="46.67078" lon="5.56569">
        <ele>259.6</ele>
      </trkpt>
      <trkpt lat="46.67078" lon="5.56572">
        <ele>259.6</ele>
      </trkpt>
      <trkpt lat="46.67075" lon="5.56575">
        <ele>259.6</ele>
      </trkpt>
      <trkpt lat="46.67075" lon="5.56578">
        <ele>259.6</ele>
      </trkpt>
      <trkpt lat="46.67074" lon="5.56581">
        <ele>259.6</ele>
      </trkpt>
      <trkpt lat="46.67073" lon="5.56584">
        <ele>259.3</ele>
      </trkpt>
      <trkpt lat="46.67073" lon="5.56587">
        <ele>259.3</ele>
      </trkpt>
      <trkpt lat="46.6707" lon="5.5659">
        <ele>259.3</ele>
      </trkpt>
      <trkpt lat="46.67069" lon="5.56594">
        <ele>259.3</ele>
      </trkpt>
      <trkpt lat="46.67067" lon="5.56598">
        <ele>259.6</ele>
      </trkpt>
      <trkpt lat="46.67065" lon="5.56602">
        <ele>259.6</ele>
      </trkpt>
      <trkpt lat="46.67064" lon="5.56605">
        <ele>259.6</ele>
      </trkpt>
      <trkpt lat="46.67062" lon="5.56609">
        <ele>259.6</ele>
      </trkpt>
      <trkpt lat="46.67061" lon="5.56614">
        <ele>259.6</ele>
      </trkpt>
      <trkpt lat="46.67061" lon="5.56618">
        <ele>259.6</ele>
      </trkpt>
      <trkpt lat="46.67061" lon="5.56622">
        <ele>259.7</ele>
      </trkpt>
      <trkpt lat="46.67059" lon="5.56626">
        <ele>259.7</ele>
      </trkpt>
      <trkpt lat="46.67059" lon="5.5663">
        <ele>260</ele>
      </trkpt>
      <trkpt lat="46.67057" lon="5.56634">
        <ele>260</ele>
      </trkpt>
      <trkpt lat="46.67056" lon="5.56637">
        <ele>260.2</ele>
      </trkpt>
      <trkpt lat="46.67054" lon="5.56641">
        <ele>260.2</ele>
      </trkpt>
      <trkpt lat="46.67054" lon="5.56645">
        <ele>260.2</ele>
      </trkpt>
      <trkpt lat="46.67052" lon="5.56648">
        <ele>260.3</ele>
      </trkpt>
      <trkpt lat="46.6705" lon="5.56652">
        <ele>260.6</ele>
      </trkpt>
      <trkpt lat="46.67048" lon="5.56656">
        <ele>260.7</ele>
      </trkpt>
      <trkpt lat="46.67046" lon="5.56659">
        <ele>260.7</ele>
      </trkpt>
      <trkpt lat="46.67044" lon="5.56662">
        <ele>261</ele>
      </trkpt>
      <trkpt lat="46.67044" lon="5.56665">
        <ele>261</ele>
      </trkpt>
      <trkpt lat="46.67045" lon="5.56669">
        <ele>261.2</ele>
      </trkpt>
      <trkpt lat="46.67044" lon="5.56673">
        <ele>261.3</ele>
      </trkpt>
      <trkpt lat="46.67043" lon="5.56676">
        <ele>261.3</ele>
      </trkpt>
      <trkpt lat="46.67043" lon="5.56679">
        <ele>261.6</ele>
      </trkpt>
      <trkpt lat="46.67042" lon="5.56683">
        <ele>261.7</ele>
      </trkpt>
      <trkpt lat="46.67041" lon="5.56687">
        <ele>261.7</ele>
      </trkpt>
      <trkpt lat="46.67039" lon="5.5669">
        <ele>262</ele>
      </trkpt>
      <trkpt lat="46.67036" lon="5.56693">
        <ele>262</ele>
      </trkpt>
      <trkpt lat="46.67034" lon="5.56696">
        <ele>262.2</ele>
      </trkpt>
      <trkpt lat="46.67033" lon="5.56699">
        <ele>262.2</ele>
      </trkpt>
      <trkpt lat="46.6703" lon="5.56702">
        <ele>262.3</ele>
      </trkpt>
      <trkpt lat="46.67028" lon="5.56706">
        <ele>262.3</ele>
      </trkpt>
      <trkpt lat="46.67027" lon="5.5671">
        <ele>262.6</ele>
      </trkpt>
      <trkpt lat="46.67025" lon="5.56713">
        <ele>262.6</ele>
      </trkpt>
      <trkpt lat="46.67024" lon="5.56716">
        <ele>262.6</ele>
      </trkpt>
      <trkpt lat="46.67023" lon="5.5672">
        <ele>262.6</ele>
      </trkpt>
      <trkpt lat="46.67023" lon="5.56723">
        <ele>262.6</ele>
      </trkpt>
      <trkpt lat="46.67022" lon="5.56726">
        <ele>262.7</ele>
      </trkpt>
      <trkpt lat="46.67022" lon="5.5673">
        <ele>262.7</ele>
      </trkpt>
      <trkpt lat="46.67022" lon="5.56734">
        <ele>262.7</ele>
      </trkpt>
      <trkpt lat="46.67022" lon="5.56737">
        <ele>262.7</ele>
      </trkpt>
      <trkpt lat="46.67023" lon="5.5674">
        <ele>262.7</ele>
      </trkpt>
      <trkpt lat="46.67024" lon="5.56743">
        <ele>263</ele>
      </trkpt>
      <trkpt lat="46.67024" lon="5.56745">
        <ele>263</ele>
      </trkpt>
      <trkpt lat="46.67025" lon="5.56748">
        <ele>263</ele>
      </trkpt>
      <trkpt lat="46.67027" lon="5.56751">
        <ele>263</ele>
      </trkpt>
      <trkpt lat="46.67028" lon="5.56754">
        <ele>263</ele>
      </trkpt>
      <trkpt lat="46.6703" lon="5.56757">
        <ele>263</ele>
      </trkpt>
      <trkpt lat="46.67033" lon="5.56761">
        <ele>262.7</ele>
      </trkpt>
      <trkpt lat="46.67035" lon="5.56764">
        <ele>262.7</ele>
      </trkpt>
      <trkpt lat="46.67036" lon="5.56767">
        <ele>262.7</ele>
      </trkpt>
      <trkpt lat="46.67037" lon="5.56771">
        <ele>262.6</ele>
      </trkpt>
      <trkpt lat="46.67037" lon="5.56775">
        <ele>262.6</ele>
      </trkpt>
      <trkpt lat="46.67037" lon="5.56778">
        <ele>262.6</ele>
      </trkpt>
      <trkpt lat="46.67036" lon="5.56781">
        <ele>262.3</ele>
      </trkpt>
      <trkpt lat="46.67035" lon="5.56783">
        <ele>262.3</ele>
      </trkpt>
      <trkpt lat="46.67033" lon="5.56785">
        <ele>262.3</ele>
      </trkpt>
      <trkpt lat="46.67032" lon="5.56787">
        <ele>262.3</ele>
      </trkpt>
      <trkpt lat="46.6703" lon="5.56789">
        <ele>262.3</ele>
      </trkpt>
      <trkpt lat="46.67028" lon="5.56792">
        <ele>262.3</ele>
      </trkpt>
      <trkpt lat="46.67024" lon="5.56795">
        <ele>262.3</ele>
      </trkpt>
      <trkpt lat="46.67022" lon="5.56797">
        <ele>262.3</ele>
      </trkpt>
      <trkpt lat="46.67019" lon="5.568">
        <ele>262.3</ele>
      </trkpt>
      <trkpt lat="46.67017" lon="5.56804">
        <ele>262.2</ele>
      </trkpt>
      <trkpt lat="46.67014" lon="5.56807">
        <ele>262.2</ele>
      </trkpt>
      <trkpt lat="46.67012" lon="5.56809">
        <ele>262.2</ele>
      </trkpt>
      <trkpt lat="46.67011" lon="5.5681">
        <ele>262.2</ele>
      </trkpt>
      <trkpt lat="46.67009" lon="5.56811">
        <ele>262.2</ele>
      </trkpt>
      <trkpt lat="46.67007" lon="5.56812">
        <ele>262.2</ele>
      </trkpt>
      <trkpt lat="46.67004" lon="5.56812">
        <ele>262.2</ele>
      </trkpt>
      <trkpt lat="46.67001" lon="5.5681">
        <ele>262</ele>
      </trkpt>
      <trkpt lat="46.66998" lon="5.56809">
        <ele>262</ele>
      </trkpt>
      <trkpt lat="46.66996" lon="5.56807">
        <ele>262.2</ele>
      </trkpt>
      <trkpt lat="46.66994" lon="5.56805">
        <ele>262.2</ele>
      </trkpt>
      <trkpt lat="46.66993" lon="5.56803">
        <ele>262.2</ele>
      </trkpt>
      <trkpt lat="46.66991" lon="5.568">
        <ele>262.2</ele>
      </trkpt>
      <trkpt lat="46.66991" lon="5.56797">
        <ele>262.2</ele>
      </trkpt>
      <trkpt lat="46.66989" lon="5.56794">
        <ele>262.2</ele>
      </trkpt>
      <trkpt lat="46.66988" lon="5.56791">
        <ele>262.2</ele>
      </trkpt>
      <trkpt lat="46.66987" lon="5.56788">
        <ele>262.3</ele>
      </trkpt>
      <trkpt lat="46.66985" lon="5.56785">
        <ele>262.3</ele>
      </trkpt>
      <trkpt lat="46.66984" lon="5.56782">
        <ele>262.3</ele>
      </trkpt>
      <trkpt lat="46.66982" lon="5.56779">
        <ele>262.3</ele>
      </trkpt>
      <trkpt lat="46.66982" lon="5.56776">
        <ele>262.3</ele>
      </trkpt>
      <trkpt lat="46.66979" lon="5.56773">
        <ele>262.6</ele>
      </trkpt>
      <trkpt lat="46.66977" lon="5.5677">
        <ele>262.6</ele>
      </trkpt>
      <trkpt lat="46.66976" lon="5.56767">
        <ele>262.6</ele>
      </trkpt>
      <trkpt lat="46.66973" lon="5.56764">
        <ele>262.3</ele>
      </trkpt>
      <trkpt lat="46.6697" lon="5.56762">
        <ele>262.3</ele>
      </trkpt>
      <trkpt lat="46.66967" lon="5.56759">
        <ele>262.3</ele>
      </trkpt>
      <trkpt lat="46.66966" lon="5.56755">
        <ele>262.2</ele>
      </trkpt>
      <trkpt lat="46.66963" lon="5.56752">
        <ele>262.2</ele>
      </trkpt>
      <trkpt lat="46.66962" lon="5.5675">
        <ele>262.2</ele>
      </trkpt>
      <trkpt lat="46.66959" lon="5.56747">
        <ele>262.2</ele>
      </trkpt>
      <trkpt lat="46.66957" lon="5.56746">
        <ele>262.2</ele>
      </trkpt>
      <trkpt lat="46.66954" lon="5.56746">
        <ele>262</ele>
      </trkpt>
      <trkpt lat="46.66951" lon="5.56745">
        <ele>262</ele>
      </trkpt>
      <trkpt lat="46.66948" lon="5.56745">
        <ele>262</ele>
      </trkpt>
      <trkpt lat="46.66943" lon="5.56746">
        <ele>262</ele>
      </trkpt>
      <trkpt lat="46.66941" lon="5.56746">
        <ele>262</ele>
      </trkpt>
      <trkpt lat="46.66939" lon="5.56746">
        <ele>262</ele>
      </trkpt>
      <trkpt lat="46.66936" lon="5.56747">
        <ele>262.2</ele>
      </trkpt>
      <trkpt lat="46.66933" lon="5.56746">
        <ele>262.2</ele>
      </trkpt>
      <trkpt lat="46.66931" lon="5.56746">
        <ele>262.2</ele>
      </trkpt>
      <trkpt lat="46.66929" lon="5.56746">
        <ele>262.3</ele>
      </trkpt>
      <trkpt lat="46.66927" lon="5.56746">
        <ele>262.3</ele>
      </trkpt>
      <trkpt lat="46.66924" lon="5.56746">
        <ele>262.3</ele>
      </trkpt>
      <trkpt lat="46.66922" lon="5.56745">
        <ele>262.6</ele>
      </trkpt>
      <trkpt lat="46.66919" lon="5.56744">
        <ele>262.6</ele>
      </trkpt>
      <trkpt lat="46.66917" lon="5.56743">
        <ele>262.6</ele>
      </trkpt>
      <trkpt lat="46.66914" lon="5.56743">
        <ele>262.6</ele>
      </trkpt>
      <trkpt lat="46.66911" lon="5.56743">
        <ele>262.6</ele>
      </trkpt>
      <trkpt lat="46.66909" lon="5.56743">
        <ele>262.6</ele>
      </trkpt>
      <trkpt lat="46.66906" lon="5.56743">
        <ele>262.6</ele>
      </trkpt>
      <trkpt lat="46.66904" lon="5.56743">
        <ele>262.7</ele>
      </trkpt>
      <trkpt lat="46.66901" lon="5.56743">
        <ele>262.7</ele>
      </trkpt>
      <trkpt lat="46.66899" lon="5.56742">
        <ele>262.7</ele>
      </trkpt>
      <trkpt lat="46.66896" lon="5.5674">
        <ele>262.7</ele>
      </trkpt>
      <trkpt lat="46.66894" lon="5.56738">
        <ele>263</ele>
      </trkpt>
      <trkpt lat="46.66892" lon="5.56735">
        <ele>263</ele>
      </trkpt>
      <trkpt lat="46.6689" lon="5.56732">
        <ele>263</ele>
      </trkpt>
      <trkpt lat="46.66889" lon="5.56729">
        <ele>263</ele>
      </trkpt>
      <trkpt lat="46.66887" lon="5.56726">
        <ele>263.2</ele>
      </trkpt>
      <trkpt lat="46.66886" lon="5.56723">
        <ele>263</ele>
      </trkpt>
      <trkpt lat="46.66884" lon="5.5672">
        <ele>263</ele>
      </trkpt>
      <trkpt lat="46.66882" lon="5.56716">
        <ele>263</ele>
      </trkpt>
      <trkpt lat="46.6688" lon="5.56714">
        <ele>263</ele>
      </trkpt>
      <trkpt lat="46.66878" lon="5.56711">
        <ele>263</ele>
      </trkpt>
      <trkpt lat="46.66877" lon="5.56708">
        <ele>262.7</ele>
      </trkpt>
      <trkpt lat="46.66876" lon="5.56705">
        <ele>262.7</ele>
      </trkpt>
      <trkpt lat="46.66874" lon="5.56702">
        <ele>262.7</ele>
      </trkpt>
      <trkpt lat="46.66819" lon="5.5673">
        <ele>262.7</ele>
      </trkpt>
      <trkpt lat="46.66813" lon="5.56734">
        <ele>262.7</ele>
      </trkpt>
      <trkpt lat="46.66815" lon="5.56728">
        <ele>262.7</ele>
      </trkpt>
      <trkpt lat="46.6681" lon="5.56727">
        <ele>262.7</ele>
      </trkpt>
      <trkpt lat="46.66806" lon="5.56729">
        <ele>262.7</ele>
      </trkpt>
      <trkpt lat="46.66805" lon="5.56732">
        <ele>262.7</ele>
      </trkpt>
      <trkpt lat="46.66801" lon="5.56735">
        <ele>262.7</ele>
      </trkpt>
      <trkpt lat="46.66799" lon="5.56737">
        <ele>262.7</ele>
      </trkpt>
      <trkpt lat="46.66795" lon="5.56738">
        <ele>263</ele>
      </trkpt>
      <trkpt lat="46.66793" lon="5.56739">
        <ele>263</ele>
      </trkpt>
      <trkpt lat="46.6679" lon="5.5674">
        <ele>263</ele>
      </trkpt>
      <trkpt lat="46.66787" lon="5.5674">
        <ele>263</ele>
      </trkpt>
      <trkpt lat="46.66785" lon="5.56739">
        <ele>263</ele>
      </trkpt>
      <trkpt lat="46.66782" lon="5.56738">
        <ele>263.2</ele>
      </trkpt>
      <trkpt lat="46.66779" lon="5.56737">
        <ele>263.3</ele>
      </trkpt>
      <trkpt lat="46.66777" lon="5.56737">
        <ele>263.3</ele>
      </trkpt>
      <trkpt lat="46.66773" lon="5.56735">
        <ele>263.6</ele>
      </trkpt>
      <trkpt lat="46.6677" lon="5.56734">
        <ele>263.6</ele>
      </trkpt>
      <trkpt lat="46.66766" lon="5.56735">
        <ele>263.7</ele>
      </trkpt>
      <trkpt lat="46.66764" lon="5.56734">
        <ele>263.7</ele>
      </trkpt>
      <trkpt lat="46.66761" lon="5.56733">
        <ele>264</ele>
      </trkpt>
      <trkpt lat="46.66759" lon="5.56732">
        <ele>264</ele>
      </trkpt>
      <trkpt lat="46.66757" lon="5.5673">
        <ele>264</ele>
      </trkpt>
      <trkpt lat="46.66756" lon="5.56727">
        <ele>264.2</ele>
      </trkpt>
      <trkpt lat="46.66753" lon="5.56724">
        <ele>264.2</ele>
      </trkpt>
      <trkpt lat="46.66752" lon="5.56722">
        <ele>264.2</ele>
      </trkpt>
      <trkpt lat="46.6675" lon="5.56719">
        <ele>264.3</ele>
      </trkpt>
      <trkpt lat="46.66749" lon="5.56716">
        <ele>264.3</ele>
      </trkpt>
      <trkpt lat="46.66747" lon="5.56712">
        <ele>264.3</ele>
      </trkpt>
      <trkpt lat="46.66747" lon="5.56709">
        <ele>264.3</ele>
      </trkpt>
      <trkpt lat="46.66745" lon="5.56706">
        <ele>264.3</ele>
      </trkpt>
      <trkpt lat="46.66745" lon="5.56702">
        <ele>264.3</ele>
      </trkpt>
      <trkpt lat="46.66744" lon="5.56699">
        <ele>264.3</ele>
      </trkpt>
      <trkpt lat="46.66742" lon="5.56695">
        <ele>264.3</ele>
      </trkpt>
      <trkpt lat="46.66741" lon="5.56691">
        <ele>264.3</ele>
      </trkpt>
      <trkpt lat="46.66739" lon="5.56688">
        <ele>264.3</ele>
      </trkpt>
      <trkpt lat="46.66739" lon="5.56685">
        <ele>264.3</ele>
      </trkpt>
      <trkpt lat="46.66737" lon="5.56683">
        <ele>264.3</ele>
      </trkpt>
      <trkpt lat="46.66734" lon="5.56681">
        <ele>264.2</ele>
      </trkpt>
      <trkpt lat="46.66731" lon="5.5668">
        <ele>264.2</ele>
      </trkpt>
      <trkpt lat="46.66729" lon="5.56679">
        <ele>264.2</ele>
      </trkpt>
      <trkpt lat="46.66725" lon="5.56679">
        <ele>264.2</ele>
      </trkpt>
      <trkpt lat="46.66723" lon="5.56677">
        <ele>264.2</ele>
      </trkpt>
      <trkpt lat="46.66721" lon="5.56676">
        <ele>264.2</ele>
      </trkpt>
      <trkpt lat="46.66718" lon="5.56676">
        <ele>264.2</ele>
      </trkpt>
      <trkpt lat="46.66716" lon="5.56675">
        <ele>264</ele>
      </trkpt>
      <trkpt lat="46.66715" lon="5.56674">
        <ele>264</ele>
      </trkpt>
      <trkpt lat="46.66713" lon="5.56672">
        <ele>264</ele>
      </trkpt>
      <trkpt lat="46.66711" lon="5.56669">
        <ele>264</ele>
      </trkpt>
      <trkpt lat="46.6671" lon="5.56666">
        <ele>264</ele>
      </trkpt>
      <trkpt lat="46.66708" lon="5.56664">
        <ele>264</ele>
      </trkpt>
      <trkpt lat="46.66707" lon="5.56659">
        <ele>263.7</ele>
      </trkpt>
      <trkpt lat="46.66707" lon="5.56656">
        <ele>263.7</ele>
      </trkpt>
      <trkpt lat="46.66707" lon="5.56653">
        <ele>263.7</ele>
      </trkpt>
      <trkpt lat="46.66707" lon="5.5665">
        <ele>263.7</ele>
      </trkpt>
      <trkpt lat="46.66707" lon="5.56647">
        <ele>263.7</ele>
      </trkpt>
      <trkpt lat="46.66707" lon="5.56643">
        <ele>263.7</ele>
      </trkpt>
      <trkpt lat="46.66707" lon="5.5664">
        <ele>263.7</ele>
      </trkpt>
      <trkpt lat="46.66707" lon="5.56636">
        <ele>263.7</ele>
      </trkpt>
      <trkpt lat="46.66705" lon="5.56633">
        <ele>263.7</ele>
      </trkpt>
      <trkpt lat="46.66704" lon="5.5663">
        <ele>263.7</ele>
      </trkpt>
      <trkpt lat="46.66703" lon="5.56627">
        <ele>263.7</ele>
      </trkpt>
      <trkpt lat="46.66701" lon="5.56625">
        <ele>263.7</ele>
      </trkpt>
      <trkpt lat="46.66699" lon="5.56624">
        <ele>263.7</ele>
      </trkpt>
      <trkpt lat="46.66697" lon="5.56621">
        <ele>263.6</ele>
      </trkpt>
      <trkpt lat="46.66697" lon="5.56619">
        <ele>263.6</ele>
      </trkpt>
      <trkpt lat="46.66694" lon="5.56617">
        <ele>263.6</ele>
      </trkpt>
      <trkpt lat="46.66693" lon="5.56616">
        <ele>263.6</ele>
      </trkpt>
      <trkpt lat="46.6669" lon="5.56614">
        <ele>263.6</ele>
      </trkpt>
      <trkpt lat="46.66688" lon="5.56613">
        <ele>263.6</ele>
      </trkpt>
      <trkpt lat="46.66687" lon="5.56612">
        <ele>263.6</ele>
      </trkpt>
      <trkpt lat="46.66684" lon="5.56611">
        <ele>263.6</ele>
      </trkpt>
      <trkpt lat="46.6668" lon="5.56609">
        <ele>263.6</ele>
      </trkpt>
      <trkpt lat="46.66678" lon="5.56609">
        <ele>263.6</ele>
      </trkpt>
      <trkpt lat="46.66675" lon="5.56609">
        <ele>263.7</ele>
      </trkpt>
      <trkpt lat="46.66671" lon="5.56608">
        <ele>263.7</ele>
      </trkpt>
      <trkpt lat="46.66668" lon="5.56607">
        <ele>263.7</ele>
      </trkpt>
      <trkpt lat="46.66666" lon="5.56606">
        <ele>263.7</ele>
      </trkpt>
      <trkpt lat="46.66664" lon="5.56605">
        <ele>264</ele>
      </trkpt>
      <trkpt lat="46.66662" lon="5.56604">
        <ele>264</ele>
      </trkpt>
      <trkpt lat="46.6666" lon="5.56603">
        <ele>264.2</ele>
      </trkpt>
      <trkpt lat="46.66655" lon="5.56603">
        <ele>264.2</ele>
      </trkpt>
      <trkpt lat="46.66653" lon="5.56603">
        <ele>264.2</ele>
      </trkpt>
      <trkpt lat="46.66651" lon="5.56603">
        <ele>264.3</ele>
      </trkpt>
      <trkpt lat="46.66648" lon="5.56602">
        <ele>264.3</ele>
      </trkpt>
      <trkpt lat="46.66645" lon="5.566">
        <ele>264.3</ele>
      </trkpt>
      <trkpt lat="46.66642" lon="5.566">
        <ele>264.6</ele>
      </trkpt>
      <trkpt lat="46.66639" lon="5.56599">
        <ele>264.6</ele>
      </trkpt>
      <trkpt lat="46.66637" lon="5.56598">
        <ele>264.7</ele>
      </trkpt>
      <trkpt lat="46.66635" lon="5.56597">
        <ele>265</ele>
      </trkpt>
      <trkpt lat="46.66633" lon="5.56595">
        <ele>265</ele>
      </trkpt>
      <trkpt lat="46.66631" lon="5.56592">
        <ele>265.2</ele>
      </trkpt>
      <trkpt lat="46.66629" lon="5.56589">
        <ele>265.3</ele>
      </trkpt>
      <trkpt lat="46.66627" lon="5.56587">
        <ele>265.3</ele>
      </trkpt>
      <trkpt lat="46.66624" lon="5.56586">
        <ele>265.6</ele>
      </trkpt>
      <trkpt lat="46.6662" lon="5.56584">
        <ele>265.6</ele>
      </trkpt>
      <trkpt lat="46.66617" lon="5.56582">
        <ele>265.7</ele>
      </trkpt>
      <trkpt lat="46.66614" lon="5.56582">
        <ele>265.7</ele>
      </trkpt>
      <trkpt lat="46.66611" lon="5.56581">
        <ele>266</ele>
      </trkpt>
      <trkpt lat="46.66609" lon="5.56581">
        <ele>266</ele>
      </trkpt>
      <trkpt lat="46.66607" lon="5.56581">
        <ele>266.2</ele>
      </trkpt>
      <trkpt lat="46.66604" lon="5.56581">
        <ele>266.2</ele>
      </trkpt>
      <trkpt lat="46.66602" lon="5.5658">
        <ele>266.3</ele>
      </trkpt>
      <trkpt lat="46.666" lon="5.56577">
        <ele>266.6</ele>
      </trkpt>
      <trkpt lat="46.66597" lon="5.56574">
        <ele>266.6</ele>
      </trkpt>
      <trkpt lat="46.66596" lon="5.56571">
        <ele>266.7</ele>
      </trkpt>
      <trkpt lat="46.66594" lon="5.56568">
        <ele>267</ele>
      </trkpt>
      <trkpt lat="46.66592" lon="5.56565">
        <ele>267</ele>
      </trkpt>
      <trkpt lat="46.66591" lon="5.56561">
        <ele>267.2</ele>
      </trkpt>
      <trkpt lat="46.66589" lon="5.56557">
        <ele>267.3</ele>
      </trkpt>
      <trkpt lat="46.66588" lon="5.56554">
        <ele>267.6</ele>
      </trkpt>
      <trkpt lat="46.66587" lon="5.56551">
        <ele>267.6</ele>
      </trkpt>
      <trkpt lat="46.66586" lon="5.56548">
        <ele>267.7</ele>
      </trkpt>
      <trkpt lat="46.66584" lon="5.56546">
        <ele>268</ele>
      </trkpt>
      <trkpt lat="46.66582" lon="5.56545">
        <ele>268</ele>
      </trkpt>
      <trkpt lat="46.6658" lon="5.56544">
        <ele>268.2</ele>
      </trkpt>
      <trkpt lat="46.66577" lon="5.56544">
        <ele>268.3</ele>
      </trkpt>
      <trkpt lat="46.66574" lon="5.56544">
        <ele>268.3</ele>
      </trkpt>
      <trkpt lat="46.66571" lon="5.56545">
        <ele>268.6</ele>
      </trkpt>
      <trkpt lat="46.66569" lon="5.56546">
        <ele>268.6</ele>
      </trkpt>
      <trkpt lat="46.66566" lon="5.56548">
        <ele>268.7</ele>
      </trkpt>
      <trkpt lat="46.66564" lon="5.56551">
        <ele>269</ele>
      </trkpt>
      <trkpt lat="46.66563" lon="5.56552">
        <ele>269.2</ele>
      </trkpt>
      <trkpt lat="46.6656" lon="5.56556">
        <ele>269.6</ele>
      </trkpt>
      <trkpt lat="46.66558" lon="5.56558">
        <ele>269.7</ele>
      </trkpt>
      <trkpt lat="46.66556" lon="5.5656">
        <ele>270</ele>
      </trkpt>
      <trkpt lat="46.66554" lon="5.56561">
        <ele>270.2</ele>
      </trkpt>
      <trkpt lat="46.66552" lon="5.56563">
        <ele>270.2</ele>
      </trkpt>
      <trkpt lat="46.66551" lon="5.56565">
        <ele>270.3</ele>
      </trkpt>
      <trkpt lat="46.6655" lon="5.5657">
        <ele>270.7</ele>
      </trkpt>
      <trkpt lat="46.66549" lon="5.56572">
        <ele>271</ele>
      </trkpt>
      <trkpt lat="46.66547" lon="5.56575">
        <ele>271.2</ele>
      </trkpt>
      <trkpt lat="46.66545" lon="5.56577">
        <ele>271.3</ele>
      </trkpt>
      <trkpt lat="46.66544" lon="5.56579">
        <ele>271.6</ele>
      </trkpt>
      <trkpt lat="46.66543" lon="5.56583">
        <ele>272</ele>
      </trkpt>
      <trkpt lat="46.66543" lon="5.56588">
        <ele>272.6</ele>
      </trkpt>
      <trkpt lat="46.66542" lon="5.56591">
        <ele>272.7</ele>
      </trkpt>
      <trkpt lat="46.66539" lon="5.56594">
        <ele>273</ele>
      </trkpt>
      <trkpt lat="46.66536" lon="5.56598">
        <ele>273.2</ele>
      </trkpt>
      <trkpt lat="46.66535" lon="5.56601">
        <ele>273.6</ele>
      </trkpt>
      <trkpt lat="46.66534" lon="5.56605">
        <ele>273.7</ele>
      </trkpt>
      <trkpt lat="46.66532" lon="5.56608">
        <ele>274.2</ele>
      </trkpt>
      <trkpt lat="46.66531" lon="5.56611">
        <ele>274.3</ele>
      </trkpt>
      <trkpt lat="46.66529" lon="5.56615">
        <ele>274.6</ele>
      </trkpt>
      <trkpt lat="46.66528" lon="5.56618">
        <ele>275</ele>
      </trkpt>
      <trkpt lat="46.66528" lon="5.56622">
        <ele>275.2</ele>
      </trkpt>
      <trkpt lat="46.66526" lon="5.56626">
        <ele>275.6</ele>
      </trkpt>
      <trkpt lat="46.66526" lon="5.56629">
        <ele>275.7</ele>
      </trkpt>
      <trkpt lat="46.66525" lon="5.56632">
        <ele>276</ele>
      </trkpt>
      <trkpt lat="46.66523" lon="5.56635">
        <ele>276.3</ele>
      </trkpt>
      <trkpt lat="46.66523" lon="5.56639">
        <ele>276.6</ele>
      </trkpt>
      <trkpt lat="46.66523" lon="5.56643">
        <ele>277</ele>
      </trkpt>
      <trkpt lat="46.66522" lon="5.56647">
        <ele>277.2</ele>
      </trkpt>
      <trkpt lat="46.6652" lon="5.5665">
        <ele>277.3</ele>
      </trkpt>
      <trkpt lat="46.66518" lon="5.56653">
        <ele>277.7</ele>
      </trkpt>
      <trkpt lat="46.66517" lon="5.56657">
        <ele>278</ele>
      </trkpt>
      <trkpt lat="46.66515" lon="5.5666">
        <ele>278.2</ele>
      </trkpt>
      <trkpt lat="46.66513" lon="5.56664">
        <ele>278.3</ele>
      </trkpt>
      <trkpt lat="46.66512" lon="5.56667">
        <ele>278.6</ele>
      </trkpt>
      <trkpt lat="46.66511" lon="5.5667">
        <ele>278.7</ele>
      </trkpt>
      <trkpt lat="46.6651" lon="5.56673">
        <ele>279</ele>
      </trkpt>
      <trkpt lat="46.66509" lon="5.56677">
        <ele>279.2</ele>
      </trkpt>
      <trkpt lat="46.66507" lon="5.5668">
        <ele>279.3</ele>
      </trkpt>
      <trkpt lat="46.66507" lon="5.56683">
        <ele>279.3</ele>
      </trkpt>
      <trkpt lat="46.66505" lon="5.56687">
        <ele>279.6</ele>
      </trkpt>
      <trkpt lat="46.66504" lon="5.5669">
        <ele>279.7</ele>
      </trkpt>
      <trkpt lat="46.66503" lon="5.56693">
        <ele>280</ele>
      </trkpt>
      <trkpt lat="46.66502" lon="5.56696">
        <ele>280.2</ele>
      </trkpt>
      <trkpt lat="46.66502" lon="5.56699">
        <ele>280.2</ele>
      </trkpt>
      <trkpt lat="46.665" lon="5.56702">
        <ele>280.3</ele>
      </trkpt>
      <trkpt lat="46.66499" lon="5.56705">
        <ele>280.6</ele>
      </trkpt>
      <trkpt lat="46.66498" lon="5.56708">
        <ele>280.7</ele>
      </trkpt>
      <trkpt lat="46.66498" lon="5.56711">
        <ele>281</ele>
      </trkpt>
      <trkpt lat="46.66497" lon="5.56715">
        <ele>281</ele>
      </trkpt>
      <trkpt lat="46.66497" lon="5.56718">
        <ele>281.2</ele>
      </trkpt>
      <trkpt lat="46.66496" lon="5.56722">
        <ele>281.2</ele>
      </trkpt>
      <trkpt lat="46.66495" lon="5.56726">
        <ele>281.3</ele>
      </trkpt>
      <trkpt lat="46.66494" lon="5.5673">
        <ele>281.3</ele>
      </trkpt>
      <trkpt lat="46.66493" lon="5.56734">
        <ele>281.6</ele>
      </trkpt>
      <trkpt lat="46.66493" lon="5.56738">
        <ele>281.6</ele>
      </trkpt>
      <trkpt lat="46.66492" lon="5.56742">
        <ele>281.7</ele>
      </trkpt>
      <trkpt lat="46.66492" lon="5.56745">
        <ele>281.7</ele>
      </trkpt>
      <trkpt lat="46.66493" lon="5.56748">
        <ele>282</ele>
      </trkpt>
      <trkpt lat="46.66494" lon="5.56752">
        <ele>282</ele>
      </trkpt>
      <trkpt lat="46.66495" lon="5.56754">
        <ele>282.2</ele>
      </trkpt>
      <trkpt lat="46.66496" lon="5.56758">
        <ele>282.3</ele>
      </trkpt>
      <trkpt lat="46.66496" lon="5.56761">
        <ele>282.3</ele>
      </trkpt>
      <trkpt lat="46.66496" lon="5.56765">
        <ele>282.3</ele>
      </trkpt>
      <trkpt lat="46.66497" lon="5.56768">
        <ele>282.6</ele>
      </trkpt>
      <trkpt lat="46.66498" lon="5.56772">
        <ele>282.6</ele>
      </trkpt>
      <trkpt lat="46.66497" lon="5.56775">
        <ele>282.7</ele>
      </trkpt>
      <trkpt lat="46.66497" lon="5.56778">
        <ele>282.7</ele>
      </trkpt>
      <trkpt lat="46.66496" lon="5.56781">
        <ele>282.7</ele>
      </trkpt>
      <trkpt lat="46.66496" lon="5.56784">
        <ele>283</ele>
      </trkpt>
      <trkpt lat="46.66495" lon="5.56788">
        <ele>283.2</ele>
      </trkpt>
      <trkpt lat="46.66494" lon="5.56792">
        <ele>283.2</ele>
      </trkpt>
      <trkpt lat="46.66493" lon="5.56796">
        <ele>283.2</ele>
      </trkpt>
      <trkpt lat="46.66491" lon="5.56799">
        <ele>283.3</ele>
      </trkpt>
      <trkpt lat="46.6649" lon="5.56802">
        <ele>283.3</ele>
      </trkpt>
      <trkpt lat="46.66489" lon="5.56806">
        <ele>283.3</ele>
      </trkpt>
      <trkpt lat="46.66489" lon="5.56808">
        <ele>283.3</ele>
      </trkpt>
      <trkpt lat="46.66489" lon="5.56812">
        <ele>283.3</ele>
      </trkpt>
      <trkpt lat="46.66489" lon="5.56815">
        <ele>283.3</ele>
      </trkpt>
      <trkpt lat="46.66487" lon="5.56819">
        <ele>283.6</ele>
      </trkpt>
      <trkpt lat="46.66486" lon="5.56822">
        <ele>283.6</ele>
      </trkpt>
      <trkpt lat="46.66486" lon="5.56826">
        <ele>283.7</ele>
      </trkpt>
      <trkpt lat="46.66486" lon="5.5683">
        <ele>284</ele>
      </trkpt>
      <trkpt lat="46.66485" lon="5.56833">
        <ele>284</ele>
      </trkpt>
      <trkpt lat="46.66485" lon="5.56837">
        <ele>284.2</ele>
      </trkpt>
      <trkpt lat="46.66485" lon="5.56841">
        <ele>284.2</ele>
      </trkpt>
      <trkpt lat="46.66482" lon="5.56844">
        <ele>284.3</ele>
      </trkpt>
      <trkpt lat="46.6648" lon="5.56847">
        <ele>284.6</ele>
      </trkpt>
      <trkpt lat="46.66479" lon="5.56851">
        <ele>284.6</ele>
      </trkpt>
      <trkpt lat="46.66478" lon="5.56854">
        <ele>284.7</ele>
      </trkpt>
      <trkpt lat="46.66478" lon="5.56858">
        <ele>284.7</ele>
      </trkpt>
      <trkpt lat="46.66478" lon="5.56861">
        <ele>285</ele>
      </trkpt>
      <trkpt lat="46.66478" lon="5.56864">
        <ele>285</ele>
      </trkpt>
      <trkpt lat="46.66478" lon="5.56867">
        <ele>285.2</ele>
      </trkpt>
      <trkpt lat="46.66478" lon="5.56871">
        <ele>285.2</ele>
      </trkpt>
      <trkpt lat="46.66478" lon="5.56875">
        <ele>285.3</ele>
      </trkpt>
      <trkpt lat="46.66478" lon="5.56878">
        <ele>285.3</ele>
      </trkpt>
      <trkpt lat="46.66478" lon="5.56882">
        <ele>285.6</ele>
      </trkpt>
      <trkpt lat="46.66478" lon="5.56886">
        <ele>285.6</ele>
      </trkpt>
      <trkpt lat="46.66478" lon="5.56889">
        <ele>285.6</ele>
      </trkpt>
      <trkpt lat="46.66478" lon="5.56894">
        <ele>285.6</ele>
      </trkpt>
      <trkpt lat="46.66476" lon="5.56897">
        <ele>285.7</ele>
      </trkpt>
      <trkpt lat="46.66475" lon="5.56899">
        <ele>285.7</ele>
      </trkpt>
      <trkpt lat="46.66471" lon="5.56903">
        <ele>286</ele>
      </trkpt>
      <trkpt lat="46.66469" lon="5.56904">
        <ele>286</ele>
      </trkpt>
      <trkpt lat="46.66465" lon="5.56906">
        <ele>286.3</ele>
      </trkpt>
      <trkpt lat="46.66462" lon="5.56907">
        <ele>286.6</ele>
      </trkpt>
      <trkpt lat="46.66459" lon="5.56908">
        <ele>286.6</ele>
      </trkpt>
      <trkpt lat="46.66457" lon="5.56908">
        <ele>286.7</ele>
      </trkpt>
      <trkpt lat="46.66454" lon="5.5691">
        <ele>287</ele>
      </trkpt>
      <trkpt lat="46.66452" lon="5.5691">
        <ele>287</ele>
      </trkpt>
      <trkpt lat="46.6645" lon="5.5691">
        <ele>287.2</ele>
      </trkpt>
      <trkpt lat="46.66447" lon="5.5691">
        <ele>287.3</ele>
      </trkpt>
      <trkpt lat="46.66445" lon="5.5691">
        <ele>287.3</ele>
      </trkpt>
      <trkpt lat="46.66443" lon="5.5691">
        <ele>287.6</ele>
      </trkpt>
      <trkpt lat="46.66439" lon="5.56911">
        <ele>287.7</ele>
      </trkpt>
      <trkpt lat="46.66436" lon="5.56912">
        <ele>287.7</ele>
      </trkpt>
      <trkpt lat="46.66434" lon="5.56912">
        <ele>288</ele>
      </trkpt>
      <trkpt lat="46.66433" lon="5.56911">
        <ele>288.2</ele>
      </trkpt>
      <trkpt lat="46.66431" lon="5.5691">
        <ele>288.2</ele>
      </trkpt>
      <trkpt lat="46.66428" lon="5.56909">
        <ele>288.3</ele>
      </trkpt>
      <trkpt lat="46.66425" lon="5.56907">
        <ele>288.6</ele>
      </trkpt>
      <trkpt lat="46.66423" lon="5.56906">
        <ele>288.6</ele>
      </trkpt>
      <trkpt lat="46.6642" lon="5.56904">
        <ele>288.7</ele>
      </trkpt>
      <trkpt lat="46.66417" lon="5.56902">
        <ele>288.7</ele>
      </trkpt>
      <trkpt lat="46.66415" lon="5.56901">
        <ele>289</ele>
      </trkpt>
      <trkpt lat="46.66413" lon="5.569">
        <ele>289</ele>
      </trkpt>
      <trkpt lat="46.66411" lon="5.56899">
        <ele>289.2</ele>
      </trkpt>
      <trkpt lat="46.66409" lon="5.56898">
        <ele>289.2</ele>
      </trkpt>
      <trkpt lat="46.66407" lon="5.56896">
        <ele>289.2</ele>
      </trkpt>
      <trkpt lat="46.66405" lon="5.56894">
        <ele>289.3</ele>
      </trkpt>
      <trkpt lat="46.66403" lon="5.56892">
        <ele>289.3</ele>
      </trkpt>
      <trkpt lat="46.66401" lon="5.56888">
        <ele>289.3</ele>
      </trkpt>
      <trkpt lat="46.66399" lon="5.56886">
        <ele>289.6</ele>
      </trkpt>
      <trkpt lat="46.66397" lon="5.56883">
        <ele>289.6</ele>
      </trkpt>
      <trkpt lat="46.66394" lon="5.5688">
        <ele>289.7</ele>
      </trkpt>
      <trkpt lat="46.66393" lon="5.56877">
        <ele>289.7</ele>
      </trkpt>
      <trkpt lat="46.66393" lon="5.56874">
        <ele>290</ele>
      </trkpt>
      <trkpt lat="46.66391" lon="5.56871">
        <ele>290</ele>
      </trkpt>
      <trkpt lat="46.6639" lon="5.56868">
        <ele>290</ele>
      </trkpt>
      <trkpt lat="46.66388" lon="5.56865">
        <ele>290</ele>
      </trkpt>
      <trkpt lat="46.66387" lon="5.56861">
        <ele>290</ele>
      </trkpt>
      <trkpt lat="46.66385" lon="5.56858">
        <ele>290</ele>
      </trkpt>
      <trkpt lat="46.66383" lon="5.56855">
        <ele>290</ele>
      </trkpt>
      <trkpt lat="46.6638" lon="5.56851">
        <ele>290.2</ele>
      </trkpt>
      <trkpt lat="46.66377" lon="5.56849">
        <ele>290.2</ele>
      </trkpt>
      <trkpt lat="46.66375" lon="5.56847">
        <ele>290.2</ele>
      </trkpt>
      <trkpt lat="46.66373" lon="5.56845">
        <ele>290.2</ele>
      </trkpt>
      <trkpt lat="46.6637" lon="5.56845">
        <ele>290.2</ele>
      </trkpt>
      <trkpt lat="46.66368" lon="5.56845">
        <ele>290.3</ele>
      </trkpt>
      <trkpt lat="46.66365" lon="5.56845">
        <ele>290.3</ele>
      </trkpt>
      <trkpt lat="46.66362" lon="5.56845">
        <ele>290.3</ele>
      </trkpt>
      <trkpt lat="46.6636" lon="5.56845">
        <ele>290.6</ele>
      </trkpt>
      <trkpt lat="46.66358" lon="5.56846">
        <ele>290.7</ele>
      </trkpt>
      <trkpt lat="46.66355" lon="5.56847">
        <ele>291</ele>
      </trkpt>
      <trkpt lat="46.66352" lon="5.56847">
        <ele>291.3</ele>
      </trkpt>
      <trkpt lat="46.6635" lon="5.56847">
        <ele>291.6</ele>
      </trkpt>
      <trkpt lat="46.66347" lon="5.56847">
        <ele>292</ele>
      </trkpt>
      <trkpt lat="46.66345" lon="5.56847">
        <ele>292.2</ele>
      </trkpt>
      <trkpt lat="46.66341" lon="5.56847">
        <ele>292.3</ele>
      </trkpt>
      <trkpt lat="46.66339" lon="5.56846">
        <ele>292.6</ele>
      </trkpt>
      <trkpt lat="46.66336" lon="5.56845">
        <ele>292.6</ele>
      </trkpt>
      <trkpt lat="46.66333" lon="5.56845">
        <ele>292.7</ele>
      </trkpt>
      <trkpt lat="46.66332" lon="5.56843">
        <ele>293</ele>
      </trkpt>
      <trkpt lat="46.66328" lon="5.56842">
        <ele>293.3</ele>
      </trkpt>
      <trkpt lat="46.66325" lon="5.56842">
        <ele>293.7</ele>
      </trkpt>
      <trkpt lat="46.66322" lon="5.56842">
        <ele>294</ele>
      </trkpt>
      <trkpt lat="46.6632" lon="5.56839">
        <ele>294.2</ele>
      </trkpt>
      <trkpt lat="46.66317" lon="5.56837">
        <ele>294.6</ele>
      </trkpt>
      <trkpt lat="46.66316" lon="5.56836">
        <ele>294.7</ele>
      </trkpt>
      <trkpt lat="46.66313" lon="5.56835">
        <ele>295</ele>
      </trkpt>
      <trkpt lat="46.66311" lon="5.56834">
        <ele>295.2</ele>
      </trkpt>
      <trkpt lat="46.66308" lon="5.56833">
        <ele>295.3</ele>
      </trkpt>
      <trkpt lat="46.66306" lon="5.56832">
        <ele>295.6</ele>
      </trkpt>
      <trkpt lat="46.66304" lon="5.56831">
        <ele>295.7</ele>
      </trkpt>
      <trkpt lat="46.66301" lon="5.56831">
        <ele>296</ele>
      </trkpt>
      <trkpt lat="46.66298" lon="5.5683">
        <ele>296.3</ele>
      </trkpt>
      <trkpt lat="46.66295" lon="5.56828">
        <ele>296.6</ele>
      </trkpt>
      <trkpt lat="46.66291" lon="5.56828">
        <ele>296.7</ele>
      </trkpt>
      <trkpt lat="46.66289" lon="5.56827">
        <ele>297</ele>
      </trkpt>
      <trkpt lat="46.66286" lon="5.56827">
        <ele>297.3</ele>
      </trkpt>
      <trkpt lat="46.66283" lon="5.56827">
        <ele>297.6</ele>
      </trkpt>
      <trkpt lat="46.66282" lon="5.56827">
        <ele>297.7</ele>
      </trkpt>
      <trkpt lat="46.66278" lon="5.56825">
        <ele>298.3</ele>
      </trkpt>
      <trkpt lat="46.66276" lon="5.56824">
        <ele>298.6</ele>
      </trkpt>
      <trkpt lat="46.66275" lon="5.56822">
        <ele>299</ele>
      </trkpt>
      <trkpt lat="46.66272" lon="5.5682">
        <ele>299.6</ele>
      </trkpt>
      <trkpt lat="46.6627" lon="5.56819">
        <ele>299.7</ele>
      </trkpt>
      <trkpt lat="46.66267" lon="5.56816">
        <ele>300.3</ele>
      </trkpt>
      <trkpt lat="46.66264" lon="5.56814">
        <ele>301</ele>
      </trkpt>
      <trkpt lat="46.66262" lon="5.56812">
        <ele>301.2</ele>
      </trkpt>
      <trkpt lat="46.6626" lon="5.5681">
        <ele>301.6</ele>
      </trkpt>
      <trkpt lat="46.66258" lon="5.56809">
        <ele>302</ele>
      </trkpt>
      <trkpt lat="46.66256" lon="5.56807">
        <ele>302.2</ele>
      </trkpt>
      <trkpt lat="46.66254" lon="5.56804">
        <ele>302.6</ele>
      </trkpt>
      <trkpt lat="46.66248" lon="5.56801">
        <ele>303.2</ele>
      </trkpt>
      <trkpt lat="46.66246" lon="5.568">
        <ele>303.3</ele>
      </trkpt>
      <trkpt lat="46.66244" lon="5.56802">
        <ele>303.7</ele>
      </trkpt>
      <trkpt lat="46.66241" lon="5.568">
        <ele>304.2</ele>
      </trkpt>
      <trkpt lat="46.66238" lon="5.568">
        <ele>304.3</ele>
      </trkpt>
      <trkpt lat="46.66236" lon="5.568">
        <ele>305</ele>
      </trkpt>
      <trkpt lat="46.66235" lon="5.56797">
        <ele>305.2</ele>
      </trkpt>
      <trkpt lat="46.66233" lon="5.56794">
        <ele>305.7</ele>
      </trkpt>
      <trkpt lat="46.6623" lon="5.56796">
        <ele>306.3</ele>
      </trkpt>
      <trkpt lat="46.66229" lon="5.56794">
        <ele>307</ele>
      </trkpt>
      <trkpt lat="46.66227" lon="5.56792">
        <ele>307.2</ele>
      </trkpt>
      <trkpt lat="46.66225" lon="5.56789">
        <ele>307.3</ele>
      </trkpt>
      <trkpt lat="46.66227" lon="5.56787">
        <ele>307.6</ele>
      </trkpt>
      <trkpt lat="46.66227" lon="5.56784">
        <ele>308.2</ele>
      </trkpt>
      <trkpt lat="46.66225" lon="5.56781">
        <ele>309.2</ele>
      </trkpt>
      <trkpt lat="46.66225" lon="5.56778">
        <ele>309.7</ele>
      </trkpt>
      <trkpt lat="46.66225" lon="5.56774">
        <ele>310.3</ele>
      </trkpt>
      <trkpt lat="46.66224" lon="5.56771">
        <ele>311</ele>
      </trkpt>
      <trkpt lat="46.66222" lon="5.56767">
        <ele>311.3</ele>
      </trkpt>
      <trkpt lat="46.66221" lon="5.56765">
        <ele>311.7</ele>
      </trkpt>
      <trkpt lat="46.6622" lon="5.5676">
        <ele>312.3</ele>
      </trkpt>
      <trkpt lat="46.66219" lon="5.56755">
        <ele>312.7</ele>
      </trkpt>
      <trkpt lat="46.66217" lon="5.56752">
        <ele>313</ele>
      </trkpt>
      <trkpt lat="46.66216" lon="5.56749">
        <ele>313.2</ele>
      </trkpt>
      <trkpt lat="46.66216" lon="5.56746">
        <ele>313.6</ele>
      </trkpt>
      <trkpt lat="46.66216" lon="5.56742">
        <ele>314</ele>
      </trkpt>
      <trkpt lat="46.66214" lon="5.56739">
        <ele>314.3</ele>
      </trkpt>
      <trkpt lat="46.66214" lon="5.56736">
        <ele>314.6</ele>
      </trkpt>
      <trkpt lat="46.66215" lon="5.56731">
        <ele>315.2</ele>
      </trkpt>
      <trkpt lat="46.66216" lon="5.56726">
        <ele>315.6</ele>
      </trkpt>
      <trkpt lat="46.66216" lon="5.56722">
        <ele>316.2</ele>
      </trkpt>
      <trkpt lat="46.66217" lon="5.56719">
        <ele>316.6</ele>
      </trkpt>
      <trkpt lat="46.66217" lon="5.56715">
        <ele>317</ele>
      </trkpt>
      <trkpt lat="46.66218" lon="5.56712">
        <ele>317</ele>
      </trkpt>
      <trkpt lat="46.66219" lon="5.56709">
        <ele>317.3</ele>
      </trkpt>
      <trkpt lat="46.66219" lon="5.56706">
        <ele>317.7</ele>
      </trkpt>
      <trkpt lat="46.6622" lon="5.56703">
        <ele>318.2</ele>
      </trkpt>
      <trkpt lat="46.66221" lon="5.567">
        <ele>318.6</ele>
      </trkpt>
      <trkpt lat="46.66221" lon="5.56697">
        <ele>319</ele>
      </trkpt>
      <trkpt lat="46.66219" lon="5.56694">
        <ele>319.6</ele>
      </trkpt>
      <trkpt lat="46.66219" lon="5.56691">
        <ele>320</ele>
      </trkpt>
      <trkpt lat="46.66219" lon="5.56688">
        <ele>320.3</ele>
      </trkpt>
      <trkpt lat="46.6622" lon="5.56685">
        <ele>321</ele>
      </trkpt>
      <trkpt lat="46.6622" lon="5.56682">
        <ele>321.6</ele>
      </trkpt>
      <trkpt lat="46.66218" lon="5.56677">
        <ele>322</ele>
      </trkpt>
      <trkpt lat="46.66217" lon="5.56674">
        <ele>322.3</ele>
      </trkpt>
      <trkpt lat="46.66217" lon="5.56672">
        <ele>322.6</ele>
      </trkpt>
      <trkpt lat="46.66217" lon="5.56669">
        <ele>323.2</ele>
      </trkpt>
      <trkpt lat="46.66214" lon="5.56667">
        <ele>323.7</ele>
      </trkpt>
      <trkpt lat="46.66213" lon="5.56665">
        <ele>324.3</ele>
      </trkpt>
      <trkpt lat="46.6621" lon="5.56664">
        <ele>324.7</ele>
      </trkpt>
      <trkpt lat="46.6621" lon="5.56661">
        <ele>325.3</ele>
      </trkpt>
      <trkpt lat="46.66208" lon="5.5666">
        <ele>325.6</ele>
      </trkpt>
      <trkpt lat="46.66205" lon="5.56659">
        <ele>326</ele>
      </trkpt>
      <trkpt lat="46.66204" lon="5.56657">
        <ele>326.6</ele>
      </trkpt>
      <trkpt lat="46.66202" lon="5.56655">
        <ele>327.2</ele>
      </trkpt>
      <trkpt lat="46.66201" lon="5.56654">
        <ele>327.6</ele>
      </trkpt>
      <trkpt lat="46.66198" lon="5.56652">
        <ele>328</ele>
      </trkpt>
      <trkpt lat="46.66196" lon="5.56652">
        <ele>328.3</ele>
      </trkpt>
      <trkpt lat="46.66193" lon="5.56652">
        <ele>329</ele>
      </trkpt>
      <trkpt lat="46.66191" lon="5.56652">
        <ele>329.3</ele>
      </trkpt>
      <trkpt lat="46.66189" lon="5.56651">
        <ele>329.7</ele>
      </trkpt>
      <trkpt lat="46.66187" lon="5.56649">
        <ele>330.6</ele>
      </trkpt>
      <trkpt lat="46.66185" lon="5.56649">
        <ele>332</ele>
      </trkpt>
      <trkpt lat="46.66182" lon="5.56649">
        <ele>334</ele>
      </trkpt>
      <trkpt lat="46.66179" lon="5.56649">
        <ele>334.6</ele>
      </trkpt>
      <trkpt lat="46.66177" lon="5.56649">
        <ele>335.2</ele>
      </trkpt>
      <trkpt lat="46.66173" lon="5.56649">
        <ele>335.7</ele>
      </trkpt>
      <trkpt lat="46.66172" lon="5.56649">
        <ele>336.2</ele>
      </trkpt>
      <trkpt lat="46.66169" lon="5.56649">
        <ele>336.6</ele>
      </trkpt>
      <trkpt lat="46.66167" lon="5.5665">
        <ele>337.3</ele>
      </trkpt>
      <trkpt lat="46.66164" lon="5.56648">
        <ele>338</ele>
      </trkpt>
      <trkpt lat="46.66163" lon="5.56647">
        <ele>338.3</ele>
      </trkpt>
      <trkpt lat="46.6616" lon="5.56647">
        <ele>338.7</ele>
      </trkpt>
      <trkpt lat="46.66157" lon="5.56647">
        <ele>339.3</ele>
      </trkpt>
      <trkpt lat="46.66155" lon="5.56647">
        <ele>340.2</ele>
      </trkpt>
      <trkpt lat="46.66151" lon="5.56645">
        <ele>340.6</ele>
      </trkpt>
      <trkpt lat="46.66149" lon="5.56645">
        <ele>341.2</ele>
      </trkpt>
      <trkpt lat="46.66148" lon="5.56645">
        <ele>341.3</ele>
      </trkpt>
      <trkpt lat="46.66145" lon="5.56644">
        <ele>341.6</ele>
      </trkpt>
      <trkpt lat="46.66143" lon="5.56643">
        <ele>342.3</ele>
      </trkpt>
      <trkpt lat="46.66142" lon="5.56641">
        <ele>343</ele>
      </trkpt>
      <trkpt lat="46.66139" lon="5.56638">
        <ele>344</ele>
      </trkpt>
      <trkpt lat="46.66137" lon="5.56637">
        <ele>344.3</ele>
      </trkpt>
      <trkpt lat="46.66135" lon="5.56636">
        <ele>344.6</ele>
      </trkpt>
      <trkpt lat="46.66132" lon="5.56635">
        <ele>345</ele>
      </trkpt>
      <trkpt lat="46.6613" lon="5.56635">
        <ele>345.2</ele>
      </trkpt>
      <trkpt lat="46.66129" lon="5.56635">
        <ele>345.3</ele>
      </trkpt>
      <trkpt lat="46.66127" lon="5.56634">
        <ele>346.3</ele>
      </trkpt>
      <trkpt lat="46.66124" lon="5.56632">
        <ele>347.2</ele>
      </trkpt>
      <trkpt lat="46.66121" lon="5.5663">
        <ele>347.6</ele>
      </trkpt>
      <trkpt lat="46.66119" lon="5.56629">
        <ele>348.2</ele>
      </trkpt>
      <trkpt lat="46.66116" lon="5.56627">
        <ele>349</ele>
      </trkpt>
      <trkpt lat="46.66113" lon="5.56626">
        <ele>349.2</ele>
      </trkpt>
      <trkpt lat="46.66111" lon="5.56626">
        <ele>349.3</ele>
      </trkpt>
      <trkpt lat="46.66108" lon="5.56625">
        <ele>349.6</ele>
      </trkpt>
      <trkpt lat="46.66108" lon="5.56621">
        <ele>350.2</ele>
      </trkpt>
      <trkpt lat="46.66106" lon="5.56617">
        <ele>350.6</ele>
      </trkpt>
      <trkpt lat="46.66105" lon="5.56612">
        <ele>351</ele>
      </trkpt>
      <trkpt lat="46.66105" lon="5.56609">
        <ele>351.2</ele>
      </trkpt>
      <trkpt lat="46.66105" lon="5.56605">
        <ele>351.7</ele>
      </trkpt>
      <trkpt lat="46.66105" lon="5.566">
        <ele>352.3</ele>
      </trkpt>
      <trkpt lat="46.66105" lon="5.56596">
        <ele>353</ele>
      </trkpt>
      <trkpt lat="46.66105" lon="5.56591">
        <ele>353.6</ele>
      </trkpt>
      <trkpt lat="46.66106" lon="5.56586">
        <ele>354</ele>
      </trkpt>
      <trkpt lat="46.66107" lon="5.56582">
        <ele>354.3</ele>
      </trkpt>
      <trkpt lat="46.66107" lon="5.56579">
        <ele>354.6</ele>
      </trkpt>
      <trkpt lat="46.66107" lon="5.56575">
        <ele>354.7</ele>
      </trkpt>
      <trkpt lat="46.66108" lon="5.56571">
        <ele>355</ele>
      </trkpt>
      <trkpt lat="46.66108" lon="5.56567">
        <ele>355.2</ele>
      </trkpt>
      <trkpt lat="46.66108" lon="5.56563">
        <ele>355.6</ele>
      </trkpt>
      <trkpt lat="46.66108" lon="5.5656">
        <ele>355.7</ele>
      </trkpt>
      <trkpt lat="46.66108" lon="5.56556">
        <ele>356</ele>
      </trkpt>
      <trkpt lat="46.66108" lon="5.56553">
        <ele>356.2</ele>
      </trkpt>
      <trkpt lat="46.66108" lon="5.56549">
        <ele>356.6</ele>
      </trkpt>
      <trkpt lat="46.66108" lon="5.56545">
        <ele>356.7</ele>
      </trkpt>
      <trkpt lat="46.6611" lon="5.56541">
        <ele>357</ele>
      </trkpt>
      <trkpt lat="46.6611" lon="5.56537">
        <ele>357.2</ele>
      </trkpt>
      <trkpt lat="46.66109" lon="5.56533">
        <ele>357.3</ele>
      </trkpt>
      <trkpt lat="46.66108" lon="5.5653">
        <ele>357.7</ele>
      </trkpt>
      <trkpt lat="46.66107" lon="5.56526">
        <ele>358.2</ele>
      </trkpt>
      <trkpt lat="46.66105" lon="5.56526">
        <ele>358.3</ele>
      </trkpt>
      <trkpt lat="46.66103" lon="5.56526">
        <ele>358.6</ele>
      </trkpt>
      <trkpt lat="46.66101" lon="5.56525">
        <ele>359.2</ele>
      </trkpt>
      <trkpt lat="46.66099" lon="5.56525">
        <ele>359.7</ele>
      </trkpt>
      <trkpt lat="46.66097" lon="5.56526">
        <ele>360.2</ele>
      </trkpt>
      <trkpt lat="46.66093" lon="5.56527">
        <ele>360.6</ele>
      </trkpt>
      <trkpt lat="46.66092" lon="5.56529">
        <ele>361</ele>
      </trkpt>
      <trkpt lat="46.66089" lon="5.56533">
        <ele>361.3</ele>
      </trkpt>
      <trkpt lat="46.66087" lon="5.56535">
        <ele>361.6</ele>
      </trkpt>
      <trkpt lat="46.66085" lon="5.56538">
        <ele>361.7</ele>
      </trkpt>
      <trkpt lat="46.66085" lon="5.56541">
        <ele>362</ele>
      </trkpt>
      <trkpt lat="46.66083" lon="5.56542">
        <ele>362.2</ele>
      </trkpt>
      <trkpt lat="46.66082" lon="5.56544">
        <ele>362.6</ele>
      </trkpt>
      <trkpt lat="46.66079" lon="5.56547">
        <ele>363.2</ele>
      </trkpt>
      <trkpt lat="46.66079" lon="5.56549">
        <ele>363.7</ele>
      </trkpt>
      <trkpt lat="46.66077" lon="5.56552">
        <ele>364.2</ele>
      </trkpt>
      <trkpt lat="46.66077" lon="5.56556">
        <ele>364.7</ele>
      </trkpt>
      <trkpt lat="46.66074" lon="5.56559">
        <ele>365.3</ele>
      </trkpt>
      <trkpt lat="46.66074" lon="5.56563">
        <ele>365.7</ele>
      </trkpt>
      <trkpt lat="46.66075" lon="5.56568">
        <ele>366.3</ele>
      </trkpt>
      <trkpt lat="46.66075" lon="5.56574">
        <ele>367</ele>
      </trkpt>
      <trkpt lat="46.66074" lon="5.56576">
        <ele>367.3</ele>
      </trkpt>
      <trkpt lat="46.66072" lon="5.56578">
        <ele>367.6</ele>
      </trkpt>
      <trkpt lat="46.66069" lon="5.5658">
        <ele>368</ele>
      </trkpt>
      <trkpt lat="46.66068" lon="5.56581">
        <ele>368.3</ele>
      </trkpt>
      <trkpt lat="46.66066" lon="5.56584">
        <ele>368.7</ele>
      </trkpt>
      <trkpt lat="46.66064" lon="5.56588">
        <ele>369.3</ele>
      </trkpt>
      <trkpt lat="46.66061" lon="5.56591">
        <ele>369.7</ele>
      </trkpt>
      <trkpt lat="46.66059" lon="5.56593">
        <ele>370</ele>
      </trkpt>
      <trkpt lat="46.66056" lon="5.56596">
        <ele>370.2</ele>
      </trkpt>
      <trkpt lat="46.66054" lon="5.56598">
        <ele>370.3</ele>
      </trkpt>
      <trkpt lat="46.66052" lon="5.566">
        <ele>370.6</ele>
      </trkpt>
      <trkpt lat="46.6605" lon="5.56603">
        <ele>370.7</ele>
      </trkpt>
      <trkpt lat="46.6605" lon="5.56608">
        <ele>371.2</ele>
      </trkpt>
      <trkpt lat="46.66049" lon="5.56611">
        <ele>371.3</ele>
      </trkpt>
      <trkpt lat="46.66048" lon="5.56613">
        <ele>371.6</ele>
      </trkpt>
      <trkpt lat="46.66047" lon="5.56617">
        <ele>372</ele>
      </trkpt>
      <trkpt lat="46.66045" lon="5.56621">
        <ele>372.6</ele>
      </trkpt>
      <trkpt lat="46.66045" lon="5.56625">
        <ele>373</ele>
      </trkpt>
      <trkpt lat="46.66044" lon="5.56627">
        <ele>373.2</ele>
      </trkpt>
      <trkpt lat="46.66042" lon="5.56632">
        <ele>373.6</ele>
      </trkpt>
      <trkpt lat="46.6604" lon="5.56636">
        <ele>374.2</ele>
      </trkpt>
      <trkpt lat="46.66037" lon="5.56638">
        <ele>374.3</ele>
      </trkpt>
      <trkpt lat="46.66035" lon="5.56641">
        <ele>374.7</ele>
      </trkpt>
      <trkpt lat="46.66034" lon="5.56643">
        <ele>375</ele>
      </trkpt>
      <trkpt lat="46.66032" lon="5.56645">
        <ele>375.3</ele>
      </trkpt>
      <trkpt lat="46.66032" lon="5.56648">
        <ele>375.6</ele>
      </trkpt>
      <trkpt lat="46.6603" lon="5.56651">
        <ele>376</ele>
      </trkpt>
      <trkpt lat="46.66029" lon="5.56653">
        <ele>376.2</ele>
      </trkpt>
      <trkpt lat="46.66028" lon="5.56655">
        <ele>376.6</ele>
      </trkpt>
      <trkpt lat="46.66026" lon="5.56658">
        <ele>376.7</ele>
      </trkpt>
      <trkpt lat="46.66025" lon="5.56661">
        <ele>377</ele>
      </trkpt>
      <trkpt lat="46.66024" lon="5.56664">
        <ele>377.3</ele>
      </trkpt>
      <trkpt lat="46.66023" lon="5.56667">
        <ele>377.6</ele>
      </trkpt>
      <trkpt lat="46.66022" lon="5.5667">
        <ele>377.7</ele>
      </trkpt>
      <trkpt lat="46.66019" lon="5.56673">
        <ele>378.2</ele>
      </trkpt>
      <trkpt lat="46.66018" lon="5.56677">
        <ele>378.3</ele>
      </trkpt>
      <trkpt lat="46.66018" lon="5.56681">
        <ele>378.6</ele>
      </trkpt>
      <trkpt lat="46.66018" lon="5.56683">
        <ele>379</ele>
      </trkpt>
      <trkpt lat="46.66016" lon="5.56687">
        <ele>379.2</ele>
      </trkpt>
      <trkpt lat="46.66016" lon="5.56689">
        <ele>379.3</ele>
      </trkpt>
      <trkpt lat="46.66016" lon="5.56695">
        <ele>380</ele>
      </trkpt>
      <trkpt lat="46.66016" lon="5.56697">
        <ele>380.3</ele>
      </trkpt>
      <trkpt lat="46.66016" lon="5.567">
        <ele>380.6</ele>
      </trkpt>
      <trkpt lat="46.66016" lon="5.56703">
        <ele>381</ele>
      </trkpt>
      <trkpt lat="46.66016" lon="5.56706">
        <ele>381.2</ele>
      </trkpt>
      <trkpt lat="46.66016" lon="5.56708">
        <ele>381.3</ele>
      </trkpt>
      <trkpt lat="46.66016" lon="5.56711">
        <ele>381.6</ele>
      </trkpt>
      <trkpt lat="46.66016" lon="5.56714">
        <ele>382</ele>
      </trkpt>
      <trkpt lat="46.66015" lon="5.56716">
        <ele>382.2</ele>
      </trkpt>
      <trkpt lat="46.66015" lon="5.56719">
        <ele>382.3</ele>
      </trkpt>
      <trkpt lat="46.66016" lon="5.56721">
        <ele>382.6</ele>
      </trkpt>
      <trkpt lat="46.66014" lon="5.56724">
        <ele>382.7</ele>
      </trkpt>
      <trkpt lat="46.66014" lon="5.56727">
        <ele>383</ele>
      </trkpt>
      <trkpt lat="46.66014" lon="5.56731">
        <ele>383.6</ele>
      </trkpt>
      <trkpt lat="46.66011" lon="5.56735">
        <ele>384</ele>
      </trkpt>
      <trkpt lat="46.66011" lon="5.56738">
        <ele>384.2</ele>
      </trkpt>
      <trkpt lat="46.6601" lon="5.56742">
        <ele>384.7</ele>
      </trkpt>
      <trkpt lat="46.66008" lon="5.56746">
        <ele>385.3</ele>
      </trkpt>
      <trkpt lat="46.66008" lon="5.5675">
        <ele>386</ele>
      </trkpt>
      <trkpt lat="46.66008" lon="5.56753">
        <ele>386.6</ele>
      </trkpt>
      <trkpt lat="46.66008" lon="5.56756">
        <ele>387.3</ele>
      </trkpt>
      <trkpt lat="46.66007" lon="5.56758">
        <ele>388</ele>
      </trkpt>
      <trkpt lat="46.66007" lon="5.56762">
        <ele>388.6</ele>
      </trkpt>
      <trkpt lat="46.66006" lon="5.56768">
        <ele>389.2</ele>
      </trkpt>
      <trkpt lat="46.66006" lon="5.56773">
        <ele>389.6</ele>
      </trkpt>
      <trkpt lat="46.66005" lon="5.56779">
        <ele>389.7</ele>
      </trkpt>
      <trkpt lat="46.66003" lon="5.56786">
        <ele>390</ele>
      </trkpt>
      <trkpt lat="46.65998" lon="5.56792">
        <ele>390.3</ele>
      </trkpt>
      <trkpt lat="46.65995" lon="5.56797">
        <ele>390.6</ele>
      </trkpt>
      <trkpt lat="46.6599" lon="5.568">
        <ele>391</ele>
      </trkpt>
      <trkpt lat="46.65987" lon="5.568">
        <ele>391.2</ele>
      </trkpt>
      <trkpt lat="46.65982" lon="5.568">
        <ele>391.3</ele>
      </trkpt>
      <trkpt lat="46.65981" lon="5.56804">
        <ele>391.6</ele>
      </trkpt>
      <trkpt lat="46.65979" lon="5.56806">
        <ele>391.7</ele>
      </trkpt>
      <trkpt lat="46.65975" lon="5.5681">
        <ele>392.2</ele>
      </trkpt>
      <trkpt lat="46.65976" lon="5.56813">
        <ele>393.6</ele>
      </trkpt>
      <trkpt lat="46.65978" lon="5.56818">
        <ele>394.2</ele>
      </trkpt>
      <trkpt lat="46.65979" lon="5.5682">
        <ele>394.3</ele>
      </trkpt>
      <trkpt lat="46.65979" lon="5.56823">
        <ele>394.6</ele>
      </trkpt>
      <trkpt lat="46.65981" lon="5.56825">
        <ele>395</ele>
      </trkpt>
      <trkpt lat="46.65982" lon="5.56829">
        <ele>395.2</ele>
      </trkpt>
      <trkpt lat="46.65982" lon="5.56832">
        <ele>395.3</ele>
      </trkpt>
      <trkpt lat="46.65984" lon="5.56835">
        <ele>395.6</ele>
      </trkpt>
      <trkpt lat="46.65987" lon="5.56838">
        <ele>395.7</ele>
      </trkpt>
      <trkpt lat="46.6599" lon="5.5684">
        <ele>395.7</ele>
      </trkpt>
      <trkpt lat="46.65992" lon="5.56842">
        <ele>396</ele>
      </trkpt>
      <trkpt lat="46.65994" lon="5.56845">
        <ele>396.2</ele>
      </trkpt>
      <trkpt lat="46.65995" lon="5.56849">
        <ele>396.3</ele>
      </trkpt>
      <trkpt lat="46.65995" lon="5.56852">
        <ele>396.6</ele>
      </trkpt>
      <trkpt lat="46.65997" lon="5.56857">
        <ele>396.6</ele>
      </trkpt>
      <trkpt lat="46.65998" lon="5.56859">
        <ele>396.7</ele>
      </trkpt>
      <trkpt lat="46.65999" lon="5.56862">
        <ele>396.7</ele>
      </trkpt>
      <trkpt lat="46.65999" lon="5.56864">
        <ele>397</ele>
      </trkpt>
      <trkpt lat="46.65999" lon="5.56869">
        <ele>397.2</ele>
      </trkpt>
      <trkpt lat="46.65999" lon="5.56873">
        <ele>397.2</ele>
      </trkpt>
      <trkpt lat="46.65997" lon="5.56879">
        <ele>397.3</ele>
      </trkpt>
      <trkpt lat="46.65997" lon="5.56881">
        <ele>397.6</ele>
      </trkpt>
      <trkpt lat="46.65997" lon="5.56884">
        <ele>397.6</ele>
      </trkpt>
      <trkpt lat="46.65997" lon="5.56886">
        <ele>397.6</ele>
      </trkpt>
      <trkpt lat="46.65997" lon="5.56889">
        <ele>397.7</ele>
      </trkpt>
      <trkpt lat="46.65997" lon="5.56893">
        <ele>397.7</ele>
      </trkpt>
      <trkpt lat="46.65997" lon="5.56897">
        <ele>398</ele>
      </trkpt>
      <trkpt lat="46.65997" lon="5.56902">
        <ele>398</ele>
      </trkpt>
      <trkpt lat="46.65997" lon="5.56905">
        <ele>398.2</ele>
      </trkpt>
      <trkpt lat="46.65997" lon="5.56908">
        <ele>398.2</ele>
      </trkpt>
      <trkpt lat="46.65997" lon="5.56912">
        <ele>398.3</ele>
      </trkpt>
      <trkpt lat="46.65997" lon="5.56914">
        <ele>398.6</ele>
      </trkpt>
      <trkpt lat="46.65992" lon="5.56916">
        <ele>398.7</ele>
      </trkpt>
      <trkpt lat="46.6599" lon="5.56916">
        <ele>399</ele>
      </trkpt>
      <trkpt lat="46.65987" lon="5.56915">
        <ele>399.3</ele>
      </trkpt>
      <trkpt lat="46.65984" lon="5.56915">
        <ele>399.6</ele>
      </trkpt>
      <trkpt lat="46.65982" lon="5.56915">
        <ele>399.7</ele>
      </trkpt>
      <trkpt lat="46.65981" lon="5.56919">
        <ele>400.2</ele>
      </trkpt>
      <trkpt lat="46.65979" lon="5.56921">
        <ele>400.3</ele>
      </trkpt>
      <trkpt lat="46.65978" lon="5.56923">
        <ele>400.6</ele>
      </trkpt>
      <trkpt lat="46.65976" lon="5.56925">
        <ele>400.6</ele>
      </trkpt>
      <trkpt lat="46.65974" lon="5.56927">
        <ele>400.7</ele>
      </trkpt>
      <trkpt lat="46.65972" lon="5.56925">
        <ele>401.2</ele>
      </trkpt>
      <trkpt lat="46.65971" lon="5.56923">
        <ele>401.3</ele>
      </trkpt>
      <trkpt lat="46.65969" lon="5.56921">
        <ele>401.6</ele>
      </trkpt>
      <trkpt lat="46.65966" lon="5.56919">
        <ele>401.7</ele>
      </trkpt>
      <trkpt lat="46.65965" lon="5.56917">
        <ele>402</ele>
      </trkpt>
      <trkpt lat="46.65963" lon="5.56915">
        <ele>402.2</ele>
      </trkpt>
      <trkpt lat="46.65962" lon="5.56913">
        <ele>402.3</ele>
      </trkpt>
      <trkpt lat="46.6596" lon="5.5691">
        <ele>402.6</ele>
      </trkpt>
      <trkpt lat="46.65958" lon="5.56908">
        <ele>402.7</ele>
      </trkpt>
      <trkpt lat="46.65956" lon="5.56906">
        <ele>403</ele>
      </trkpt>
      <trkpt lat="46.65954" lon="5.56904">
        <ele>403</ele>
      </trkpt>
      <trkpt lat="46.65952" lon="5.56902">
        <ele>403.2</ele>
      </trkpt>
      <trkpt lat="46.6595" lon="5.56901">
        <ele>403.2</ele>
      </trkpt>
      <trkpt lat="46.65947" lon="5.56899">
        <ele>403.3</ele>
      </trkpt>
      <trkpt lat="46.65944" lon="5.56896">
        <ele>403.3</ele>
      </trkpt>
      <trkpt lat="46.65942" lon="5.56894">
        <ele>403.3</ele>
      </trkpt>
      <trkpt lat="46.65941" lon="5.56891">
        <ele>403.6</ele>
      </trkpt>
      <trkpt lat="46.65939" lon="5.56889">
        <ele>403.6</ele>
      </trkpt>
      <trkpt lat="46.65936" lon="5.56889">
        <ele>403.6</ele>
      </trkpt>
      <trkpt lat="46.65934" lon="5.56888">
        <ele>403.7</ele>
      </trkpt>
      <trkpt lat="46.65931" lon="5.56888">
        <ele>403.7</ele>
      </trkpt>
      <trkpt lat="46.65929" lon="5.56888">
        <ele>404</ele>
      </trkpt>
      <trkpt lat="46.65926" lon="5.56888">
        <ele>404.2</ele>
      </trkpt>
      <trkpt lat="46.65925" lon="5.56889">
        <ele>404.2</ele>
      </trkpt>
      <trkpt lat="46.65923" lon="5.56891">
        <ele>404.3</ele>
      </trkpt>
      <trkpt lat="46.65921" lon="5.56892">
        <ele>404.6</ele>
      </trkpt>
      <trkpt lat="46.65916" lon="5.56894">
        <ele>404.6</ele>
      </trkpt>
      <trkpt lat="46.65914" lon="5.56896">
        <ele>404.7</ele>
      </trkpt>
      <trkpt lat="46.65911" lon="5.56898">
        <ele>404.7</ele>
      </trkpt>
      <trkpt lat="46.65909" lon="5.569">
        <ele>405</ele>
      </trkpt>
      <trkpt lat="46.6591" lon="5.56905">
        <ele>405.2</ele>
      </trkpt>
      <trkpt lat="46.65911" lon="5.56908">
        <ele>405.3</ele>
      </trkpt>
      <trkpt lat="46.65913" lon="5.56911">
        <ele>405.3</ele>
      </trkpt>
      <trkpt lat="46.65915" lon="5.56913">
        <ele>405.6</ele>
      </trkpt>
      <trkpt lat="46.65916" lon="5.56917">
        <ele>405.6</ele>
      </trkpt>
      <trkpt lat="46.65918" lon="5.5692">
        <ele>405.7</ele>
      </trkpt>
      <trkpt lat="46.65919" lon="5.56923">
        <ele>405.7</ele>
      </trkpt>
      <trkpt lat="46.65921" lon="5.56926">
        <ele>406</ele>
      </trkpt>
      <trkpt lat="46.65922" lon="5.56929">
        <ele>406</ele>
      </trkpt>
      <trkpt lat="46.65924" lon="5.56932">
        <ele>406.2</ele>
      </trkpt>
      <trkpt lat="46.65926" lon="5.56935">
        <ele>406.2</ele>
      </trkpt>
      <trkpt lat="46.65926" lon="5.56938">
        <ele>406.3</ele>
      </trkpt>
      <trkpt lat="46.65929" lon="5.56941">
        <ele>406.3</ele>
      </trkpt>
      <trkpt lat="46.6593" lon="5.56946">
        <ele>406.3</ele>
      </trkpt>
      <trkpt lat="46.65932" lon="5.5695">
        <ele>406.6</ele>
      </trkpt>
      <trkpt lat="46.65933" lon="5.56954">
        <ele>406.6</ele>
      </trkpt>
      <trkpt lat="46.65934" lon="5.56957">
        <ele>406.6</ele>
      </trkpt>
      <trkpt lat="46.65934" lon="5.56961">
        <ele>406.6</ele>
      </trkpt>
      <trkpt lat="46.65934" lon="5.56964">
        <ele>406.6</ele>
      </trkpt>
      <trkpt lat="46.65935" lon="5.56969">
        <ele>406.6</ele>
      </trkpt>
      <trkpt lat="46.65936" lon="5.56974">
        <ele>406.7</ele>
      </trkpt>
      <trkpt lat="46.65936" lon="5.56978">
        <ele>406.7</ele>
      </trkpt>
      <trkpt lat="46.65934" lon="5.56984">
        <ele>406.7</ele>
      </trkpt>
      <trkpt lat="46.65931" lon="5.56987">
        <ele>407</ele>
      </trkpt>
      <trkpt lat="46.65928" lon="5.56991">
        <ele>407</ele>
      </trkpt>
      <trkpt lat="46.65926" lon="5.56994">
        <ele>407</ele>
      </trkpt>
      <trkpt lat="46.65926" lon="5.56998">
        <ele>407.2</ele>
      </trkpt>
      <trkpt lat="46.65927" lon="5.57002">
        <ele>407.2</ele>
      </trkpt>
      <trkpt lat="46.65929" lon="5.57005">
        <ele>407.3</ele>
      </trkpt>
      <trkpt lat="46.65929" lon="5.57009">
        <ele>407.3</ele>
      </trkpt>
      <trkpt lat="46.65928" lon="5.57013">
        <ele>407.6</ele>
      </trkpt>
      <trkpt lat="46.65926" lon="5.57016">
        <ele>407.6</ele>
      </trkpt>
      <trkpt lat="46.65924" lon="5.57018">
        <ele>407.6</ele>
      </trkpt>
      <trkpt lat="46.65921" lon="5.57019">
        <ele>407.7</ele>
      </trkpt>
      <trkpt lat="46.65918" lon="5.57021">
        <ele>407.7</ele>
      </trkpt>
      <trkpt lat="46.65916" lon="5.57021">
        <ele>407.7</ele>
      </trkpt>
      <trkpt lat="46.65913" lon="5.57019">
        <ele>408</ele>
      </trkpt>
      <trkpt lat="46.6591" lon="5.57016">
        <ele>408</ele>
      </trkpt>
      <trkpt lat="46.65908" lon="5.57013">
        <ele>408.2</ele>
      </trkpt>
      <trkpt lat="46.65907" lon="5.5701">
        <ele>408.2</ele>
      </trkpt>
      <trkpt lat="46.65905" lon="5.57007">
        <ele>408.3</ele>
      </trkpt>
      <trkpt lat="46.65904" lon="5.57004">
        <ele>408.3</ele>
      </trkpt>
      <trkpt lat="46.65901" lon="5.57002">
        <ele>408.6</ele>
      </trkpt>
      <trkpt lat="46.65899" lon="5.57002">
        <ele>408.7</ele>
      </trkpt>
      <trkpt lat="46.65897" lon="5.57006">
        <ele>409</ele>
      </trkpt>
      <trkpt lat="46.65894" lon="5.57008">
        <ele>409</ele>
      </trkpt>
      <trkpt lat="46.65894" lon="5.57011">
        <ele>409.2</ele>
      </trkpt>
      <trkpt lat="46.65894" lon="5.57016">
        <ele>409.6</ele>
      </trkpt>
      <trkpt lat="46.65894" lon="5.57019">
        <ele>409.6</ele>
      </trkpt>
      <trkpt lat="46.65894" lon="5.57022">
        <ele>409.7</ele>
      </trkpt>
      <trkpt lat="46.65894" lon="5.57026">
        <ele>410</ele>
      </trkpt>
      <trkpt lat="46.65894" lon="5.5703">
        <ele>410.2</ele>
      </trkpt>
      <trkpt lat="46.65895" lon="5.57034">
        <ele>410.2</ele>
      </trkpt>
      <trkpt lat="46.65896" lon="5.57038">
        <ele>410.3</ele>
      </trkpt>
      <trkpt lat="46.65895" lon="5.57043">
        <ele>410.6</ele>
      </trkpt>
      <trkpt lat="46.65894" lon="5.57046">
        <ele>410.6</ele>
      </trkpt>
      <trkpt lat="46.65894" lon="5.57049">
        <ele>410.7</ele>
      </trkpt>
      <trkpt lat="46.65892" lon="5.57052">
        <ele>411</ele>
      </trkpt>
      <trkpt lat="46.65891" lon="5.57055">
        <ele>411</ele>
      </trkpt>
      <trkpt lat="46.65889" lon="5.57057">
        <ele>411.2</ele>
      </trkpt>
      <trkpt lat="46.65887" lon="5.5706">
        <ele>411.3</ele>
      </trkpt>
      <trkpt lat="46.65885" lon="5.57062">
        <ele>411.6</ele>
      </trkpt>
      <trkpt lat="46.65881" lon="5.57064">
        <ele>411.7</ele>
      </trkpt>
      <trkpt lat="46.65877" lon="5.57065">
        <ele>411.7</ele>
      </trkpt>
      <trkpt lat="46.65873" lon="5.57065">
        <ele>412</ele>
      </trkpt>
      <trkpt lat="46.65869" lon="5.57064">
        <ele>412.2</ele>
      </trkpt>
      <trkpt lat="46.65867" lon="5.57064">
        <ele>412.3</ele>
      </trkpt>
      <trkpt lat="46.65865" lon="5.57065">
        <ele>412.6</ele>
      </trkpt>
      <trkpt lat="46.65863" lon="5.57065">
        <ele>412.7</ele>
      </trkpt>
      <trkpt lat="46.6586" lon="5.57066">
        <ele>413</ele>
      </trkpt>
      <trkpt lat="46.65857" lon="5.57067">
        <ele>413</ele>
      </trkpt>
      <trkpt lat="46.65854" lon="5.57068">
        <ele>413.2</ele>
      </trkpt>
      <trkpt lat="46.65852" lon="5.57069">
        <ele>413.2</ele>
      </trkpt>
      <trkpt lat="46.6585" lon="5.5707">
        <ele>413.2</ele>
      </trkpt>
      <trkpt lat="46.65847" lon="5.57072">
        <ele>413.2</ele>
      </trkpt>
      <trkpt lat="46.65844" lon="5.57073">
        <ele>413.3</ele>
      </trkpt>
      <trkpt lat="46.65839" lon="5.57075">
        <ele>413.3</ele>
      </trkpt>
      <trkpt lat="46.65836" lon="5.57077">
        <ele>413.3</ele>
      </trkpt>
      <trkpt lat="46.65833" lon="5.57079">
        <ele>413.6</ele>
      </trkpt>
      <trkpt lat="46.65829" lon="5.57081">
        <ele>413.6</ele>
      </trkpt>
      <trkpt lat="46.65825" lon="5.57082">
        <ele>413.6</ele>
      </trkpt>
      <trkpt lat="46.65822" lon="5.57083">
        <ele>413.6</ele>
      </trkpt>
      <trkpt lat="46.65819" lon="5.57084">
        <ele>413.7</ele>
      </trkpt>
      <trkpt lat="46.65815" lon="5.57086">
        <ele>413.7</ele>
      </trkpt>
      <trkpt lat="46.65812" lon="5.57086">
        <ele>413.7</ele>
      </trkpt>
      <trkpt lat="46.65809" lon="5.57088">
        <ele>413.7</ele>
      </trkpt>
      <trkpt lat="46.65805" lon="5.57089">
        <ele>413.7</ele>
      </trkpt>
      <trkpt lat="46.65803" lon="5.5709">
        <ele>414</ele>
      </trkpt>
      <trkpt lat="46.658" lon="5.57091">
        <ele>414</ele>
      </trkpt>
      <trkpt lat="46.65798" lon="5.57093">
        <ele>414</ele>
      </trkpt>
      <trkpt lat="46.65795" lon="5.57095">
        <ele>414</ele>
      </trkpt>
      <trkpt lat="46.65792" lon="5.57096">
        <ele>414</ele>
      </trkpt>
      <trkpt lat="46.65789" lon="5.57098">
        <ele>414</ele>
      </trkpt>
      <trkpt lat="46.65786" lon="5.57099">
        <ele>414.2</ele>
      </trkpt>
      <trkpt lat="46.65784" lon="5.57101">
        <ele>414.2</ele>
      </trkpt>
      <trkpt lat="46.65781" lon="5.57102">
        <ele>414.2</ele>
      </trkpt>
      <trkpt lat="46.65778" lon="5.57104">
        <ele>414.3</ele>
      </trkpt>
      <trkpt lat="46.65776" lon="5.57105">
        <ele>414.3</ele>
      </trkpt>
      <trkpt lat="46.65773" lon="5.57107">
        <ele>414.3</ele>
      </trkpt>
      <trkpt lat="46.6577" lon="5.57107">
        <ele>414.6</ele>
      </trkpt>
      <trkpt lat="46.65768" lon="5.57108">
        <ele>414.6</ele>
      </trkpt>
      <trkpt lat="46.65765" lon="5.5711">
        <ele>414.6</ele>
      </trkpt>
      <trkpt lat="46.65762" lon="5.57112">
        <ele>414.7</ele>
      </trkpt>
      <trkpt lat="46.6576" lon="5.57114">
        <ele>414.7</ele>
      </trkpt>
      <trkpt lat="46.65758" lon="5.57116">
        <ele>414.7</ele>
      </trkpt>
      <trkpt lat="46.65756" lon="5.57118">
        <ele>414.7</ele>
      </trkpt>
      <trkpt lat="46.65753" lon="5.5712">
        <ele>415</ele>
      </trkpt>
      <trkpt lat="46.65751" lon="5.57123">
        <ele>415</ele>
      </trkpt>
      <trkpt lat="46.65748" lon="5.57125">
        <ele>415</ele>
      </trkpt>
      <trkpt lat="46.65746" lon="5.57127">
        <ele>415.2</ele>
      </trkpt>
      <trkpt lat="46.65744" lon="5.57129">
        <ele>415.2</ele>
      </trkpt>
      <trkpt lat="46.65741" lon="5.57129">
        <ele>415.2</ele>
      </trkpt>
      <trkpt lat="46.65738" lon="5.57131">
        <ele>415.2</ele>
      </trkpt>
      <trkpt lat="46.65736" lon="5.57132">
        <ele>415.2</ele>
      </trkpt>
      <trkpt lat="46.65732" lon="5.57133">
        <ele>415.3</ele>
      </trkpt>
      <trkpt lat="46.6573" lon="5.57135">
        <ele>415.3</ele>
      </trkpt>
      <trkpt lat="46.65728" lon="5.57135">
        <ele>415.6</ele>
      </trkpt>
      <trkpt lat="46.65724" lon="5.57136">
        <ele>415.6</ele>
      </trkpt>
      <trkpt lat="46.65722" lon="5.57136">
        <ele>415.7</ele>
      </trkpt>
      <trkpt lat="46.6572" lon="5.57136">
        <ele>415.7</ele>
      </trkpt>
      <trkpt lat="46.65716" lon="5.57136">
        <ele>416</ele>
      </trkpt>
      <trkpt lat="46.65714" lon="5.57136">
        <ele>416.2</ele>
      </trkpt>
      <trkpt lat="46.65712" lon="5.57136">
        <ele>416.2</ele>
      </trkpt>
      <trkpt lat="46.65708" lon="5.57135">
        <ele>416.3</ele>
      </trkpt>
      <trkpt lat="46.65706" lon="5.57135">
        <ele>416.6</ele>
      </trkpt>
      <trkpt lat="46.65702" lon="5.57135">
        <ele>416.6</ele>
      </trkpt>
      <trkpt lat="46.65699" lon="5.57134">
        <ele>416.7</ele>
      </trkpt>
      <trkpt lat="46.65696" lon="5.57133">
        <ele>416.7</ele>
      </trkpt>
      <trkpt lat="46.65694" lon="5.57132">
        <ele>417</ele>
      </trkpt>
      <trkpt lat="46.65687" lon="5.5713">
        <ele>417.2</ele>
      </trkpt>
      <trkpt lat="46.65684" lon="5.57129">
        <ele>417.3</ele>
      </trkpt>
      <trkpt lat="46.65683" lon="5.57131">
        <ele>417.7</ele>
      </trkpt>
      <trkpt lat="46.65683" lon="5.57134">
        <ele>417.7</ele>
      </trkpt>
      <trkpt lat="46.65683" lon="5.57138">
        <ele>418</ele>
      </trkpt>
      <trkpt lat="46.65685" lon="5.57142">
        <ele>418</ele>
      </trkpt>
      <trkpt lat="46.65686" lon="5.57146">
        <ele>418.2</ele>
      </trkpt>
      <trkpt lat="46.65686" lon="5.5715">
        <ele>418.2</ele>
      </trkpt>
      <trkpt lat="46.65686" lon="5.57154">
        <ele>418.2</ele>
      </trkpt>
      <trkpt lat="46.65686" lon="5.57158">
        <ele>418.2</ele>
      </trkpt>
      <trkpt lat="46.65686" lon="5.57162">
        <ele>418.2</ele>
      </trkpt>
      <trkpt lat="46.65686" lon="5.57165">
        <ele>418.2</ele>
      </trkpt>
      <trkpt lat="46.65687" lon="5.57169">
        <ele>418.2</ele>
      </trkpt>
      <trkpt lat="46.65686" lon="5.57177">
        <ele>418.2</ele>
      </trkpt>
      <trkpt lat="46.65686" lon="5.57182">
        <ele>418.2</ele>
      </trkpt>
      <trkpt lat="46.65686" lon="5.57186">
        <ele>418.2</ele>
      </trkpt>
      <trkpt lat="46.65687" lon="5.5719">
        <ele>418.2</ele>
      </trkpt>
      <trkpt lat="46.65687" lon="5.57194">
        <ele>418.2</ele>
      </trkpt>
      <trkpt lat="46.65686" lon="5.57199">
        <ele>418.2</ele>
      </trkpt>
      <trkpt lat="46.65686" lon="5.57203">
        <ele>418</ele>
      </trkpt>
      <trkpt lat="46.65685" lon="5.57207">
        <ele>418</ele>
      </trkpt>
      <trkpt lat="46.65685" lon="5.57211">
        <ele>418</ele>
      </trkpt>
      <trkpt lat="46.65684" lon="5.57215">
        <ele>418</ele>
      </trkpt>
      <trkpt lat="46.65684" lon="5.5722">
        <ele>417.7</ele>
      </trkpt>
      <trkpt lat="46.65683" lon="5.57224">
        <ele>417.7</ele>
      </trkpt>
      <trkpt lat="46.65683" lon="5.57228">
        <ele>417.7</ele>
      </trkpt>
      <trkpt lat="46.65683" lon="5.57232">
        <ele>417.6</ele>
      </trkpt>
      <trkpt lat="46.65684" lon="5.57236">
        <ele>417.6</ele>
      </trkpt>
      <trkpt lat="46.65684" lon="5.5724">
        <ele>417.6</ele>
      </trkpt>
      <trkpt lat="46.65684" lon="5.57244">
        <ele>417.6</ele>
      </trkpt>
      <trkpt lat="46.65685" lon="5.57248">
        <ele>417.6</ele>
      </trkpt>
      <trkpt lat="46.65685" lon="5.57253">
        <ele>417.6</ele>
      </trkpt>
      <trkpt lat="46.65684" lon="5.57257">
        <ele>417.6</ele>
      </trkpt>
      <trkpt lat="46.65684" lon="5.57261">
        <ele>417.6</ele>
      </trkpt>
      <trkpt lat="46.65683" lon="5.57264">
        <ele>417.6</ele>
      </trkpt>
      <trkpt lat="46.65683" lon="5.57268">
        <ele>417.6</ele>
      </trkpt>
      <trkpt lat="46.65683" lon="5.57272">
        <ele>417.6</ele>
      </trkpt>
      <trkpt lat="46.65682" lon="5.57276">
        <ele>417.6</ele>
      </trkpt>
      <trkpt lat="46.6568" lon="5.57279">
        <ele>417.6</ele>
      </trkpt>
      <trkpt lat="46.65679" lon="5.57282">
        <ele>417.6</ele>
      </trkpt>
      <trkpt lat="46.65677" lon="5.57285">
        <ele>417.3</ele>
      </trkpt>
      <trkpt lat="46.65675" lon="5.57288">
        <ele>417.3</ele>
      </trkpt>
      <trkpt lat="46.65673" lon="5.57291">
        <ele>417.3</ele>
      </trkpt>
      <trkpt lat="46.65671" lon="5.57294">
        <ele>417.3</ele>
      </trkpt>
      <trkpt lat="46.65669" lon="5.57296">
        <ele>417.3</ele>
      </trkpt>
      <trkpt lat="46.65667" lon="5.57297">
        <ele>417.3</ele>
      </trkpt>
      <trkpt lat="46.65664" lon="5.57299">
        <ele>417.2</ele>
      </trkpt>
      <trkpt lat="46.65662" lon="5.57302">
        <ele>417.2</ele>
      </trkpt>
      <trkpt lat="46.65659" lon="5.57303">
        <ele>417.2</ele>
      </trkpt>
      <trkpt lat="46.65657" lon="5.57305">
        <ele>417</ele>
      </trkpt>
      <trkpt lat="46.65653" lon="5.57306">
        <ele>417</ele>
      </trkpt>
      <trkpt lat="46.65649" lon="5.57307">
        <ele>416.7</ele>
      </trkpt>
      <trkpt lat="46.65646" lon="5.57309">
        <ele>416.7</ele>
      </trkpt>
      <trkpt lat="46.65645" lon="5.57312">
        <ele>416.7</ele>
      </trkpt>
      <trkpt lat="46.65643" lon="5.57315">
        <ele>416.7</ele>
      </trkpt>
      <trkpt lat="46.65643" lon="5.57319">
        <ele>416.7</ele>
      </trkpt>
      <trkpt lat="46.65645" lon="5.57321">
        <ele>416.7</ele>
      </trkpt>
      <trkpt lat="46.65647" lon="5.57322">
        <ele>416.7</ele>
      </trkpt>
      <trkpt lat="46.65649" lon="5.57324">
        <ele>416.7</ele>
      </trkpt>
      <trkpt lat="46.65651" lon="5.57324">
        <ele>416.6</ele>
      </trkpt>
      <trkpt lat="46.65654" lon="5.57325">
        <ele>416.7</ele>
      </trkpt>
      <trkpt lat="46.65657" lon="5.57326">
        <ele>416.7</ele>
      </trkpt>
      <trkpt lat="46.65659" lon="5.57327">
        <ele>416.7</ele>
      </trkpt>
      <trkpt lat="46.65662" lon="5.57328">
        <ele>416.7</ele>
      </trkpt>
      <trkpt lat="46.65664" lon="5.57329">
        <ele>416.7</ele>
      </trkpt>
      <trkpt lat="46.65666" lon="5.5733">
        <ele>416.7</ele>
      </trkpt>
      <trkpt lat="46.6567" lon="5.57331">
        <ele>416.7</ele>
      </trkpt>
      <trkpt lat="46.65673" lon="5.57333">
        <ele>416.7</ele>
      </trkpt>
      <trkpt lat="46.65675" lon="5.57334">
        <ele>416.7</ele>
      </trkpt>
      <trkpt lat="46.65678" lon="5.57334">
        <ele>416.7</ele>
      </trkpt>
      <trkpt lat="46.6568" lon="5.57335">
        <ele>417</ele>
      </trkpt>
      <trkpt lat="46.65683" lon="5.57336">
        <ele>417</ele>
      </trkpt>
      <trkpt lat="46.65686" lon="5.57337">
        <ele>417</ele>
      </trkpt>
      <trkpt lat="46.65688" lon="5.57337">
        <ele>417</ele>
      </trkpt>
      <trkpt lat="46.65691" lon="5.57339">
        <ele>417</ele>
      </trkpt>
      <trkpt lat="46.65693" lon="5.5734">
        <ele>417</ele>
      </trkpt>
      <trkpt lat="46.65694" lon="5.57343">
        <ele>417.2</ele>
      </trkpt>
      <trkpt lat="46.65696" lon="5.57346">
        <ele>417.2</ele>
      </trkpt>
      <trkpt lat="46.65698" lon="5.5735">
        <ele>417.2</ele>
      </trkpt>
      <trkpt lat="46.657" lon="5.57353">
        <ele>417.2</ele>
      </trkpt>
      <trkpt lat="46.65702" lon="5.57356">
        <ele>417.3</ele>
      </trkpt>
      <trkpt lat="46.65704" lon="5.5736">
        <ele>417.3</ele>
      </trkpt>
      <trkpt lat="46.65704" lon="5.57363">
        <ele>417.3</ele>
      </trkpt>
      <trkpt lat="46.65704" lon="5.57366">
        <ele>417.3</ele>
      </trkpt>
      <trkpt lat="46.65704" lon="5.5737">
        <ele>417.3</ele>
      </trkpt>
      <trkpt lat="46.65706" lon="5.57374">
        <ele>417.6</ele>
      </trkpt>
      <trkpt lat="46.65707" lon="5.57379">
        <ele>417.6</ele>
      </trkpt>
      <trkpt lat="46.65708" lon="5.57382">
        <ele>417.6</ele>
      </trkpt>
      <trkpt lat="46.65709" lon="5.57386">
        <ele>417.6</ele>
      </trkpt>
      <trkpt lat="46.65712" lon="5.5739">
        <ele>417.6</ele>
      </trkpt>
      <trkpt lat="46.65712" lon="5.57394">
        <ele>417.6</ele>
      </trkpt>
      <trkpt lat="46.65713" lon="5.57399">
        <ele>417.6</ele>
      </trkpt>
      <trkpt lat="46.65714" lon="5.57403">
        <ele>417.6</ele>
      </trkpt>
      <trkpt lat="46.65714" lon="5.57407">
        <ele>417.6</ele>
      </trkpt>
      <trkpt lat="46.65714" lon="5.5741">
        <ele>417.6</ele>
      </trkpt>
      <trkpt lat="46.65714" lon="5.57414">
        <ele>417.7</ele>
      </trkpt>
      <trkpt lat="46.65713" lon="5.57418">
        <ele>417.7</ele>
      </trkpt>
      <trkpt lat="46.65713" lon="5.57421">
        <ele>417.7</ele>
      </trkpt>
      <trkpt lat="46.65713" lon="5.57427">
        <ele>417.7</ele>
      </trkpt>
      <trkpt lat="46.65712" lon="5.57431">
        <ele>417.7</ele>
      </trkpt>
      <trkpt lat="46.65712" lon="5.57435">
        <ele>418</ele>
      </trkpt>
      <trkpt lat="46.65712" lon="5.57438">
        <ele>418</ele>
      </trkpt>
      <trkpt lat="46.65712" lon="5.57442">
        <ele>418</ele>
      </trkpt>
      <trkpt lat="46.6571" lon="5.57446">
        <ele>418</ele>
      </trkpt>
      <trkpt lat="46.65709" lon="5.5745">
        <ele>418.2</ele>
      </trkpt>
      <trkpt lat="46.65709" lon="5.57453">
        <ele>418.2</ele>
      </trkpt>
      <trkpt lat="46.65709" lon="5.57456">
        <ele>418.2</ele>
      </trkpt>
      <trkpt lat="46.6571" lon="5.57459">
        <ele>418.3</ele>
      </trkpt>
      <trkpt lat="46.6571" lon="5.57463">
        <ele>418.3</ele>
      </trkpt>
      <trkpt lat="46.65712" lon="5.57467">
        <ele>418.3</ele>
      </trkpt>
      <trkpt lat="46.65713" lon="5.57472">
        <ele>418.6</ele>
      </trkpt>
      <trkpt lat="46.65714" lon="5.57477">
        <ele>418.6</ele>
      </trkpt>
      <trkpt lat="46.65716" lon="5.57481">
        <ele>418.6</ele>
      </trkpt>
      <trkpt lat="46.65718" lon="5.57486">
        <ele>418.7</ele>
      </trkpt>
      <trkpt lat="46.6572" lon="5.5749">
        <ele>418.7</ele>
      </trkpt>
      <trkpt lat="46.6572" lon="5.57495">
        <ele>419</ele>
      </trkpt>
      <trkpt lat="46.6572" lon="5.57499">
        <ele>419.2</ele>
      </trkpt>
      <trkpt lat="46.6572" lon="5.57504">
        <ele>419.2</ele>
      </trkpt>
      <trkpt lat="46.6572" lon="5.57509">
        <ele>419.3</ele>
      </trkpt>
      <trkpt lat="46.6572" lon="5.57513">
        <ele>419.3</ele>
      </trkpt>
      <trkpt lat="46.65722" lon="5.57518">
        <ele>419.6</ele>
      </trkpt>
      <trkpt lat="46.65722" lon="5.57522">
        <ele>419.7</ele>
      </trkpt>
      <trkpt lat="46.65723" lon="5.57525">
        <ele>419.7</ele>
      </trkpt>
      <trkpt lat="46.65723" lon="5.57529">
        <ele>420</ele>
      </trkpt>
      <trkpt lat="46.65724" lon="5.57532">
        <ele>420</ele>
      </trkpt>
      <trkpt lat="46.65724" lon="5.57537">
        <ele>420.2</ele>
      </trkpt>
      <trkpt lat="46.65725" lon="5.57541">
        <ele>420.2</ele>
      </trkpt>
      <trkpt lat="46.65727" lon="5.57547">
        <ele>420.3</ele>
      </trkpt>
      <trkpt lat="46.65728" lon="5.57553">
        <ele>420.3</ele>
      </trkpt>
      <trkpt lat="46.65728" lon="5.57559">
        <ele>420.3</ele>
      </trkpt>
      <trkpt lat="46.6573" lon="5.57565">
        <ele>420.6</ele>
      </trkpt>
      <trkpt lat="46.65731" lon="5.57577">
        <ele>420.6</ele>
      </trkpt>
      <trkpt lat="46.65733" lon="5.57587">
        <ele>420.6</ele>
      </trkpt>
      <trkpt lat="46.65735" lon="5.57596">
        <ele>420.6</ele>
      </trkpt>
      <trkpt lat="46.65736" lon="5.57604">
        <ele>420.7</ele>
      </trkpt>
      <trkpt lat="46.65736" lon="5.57611">
        <ele>420.7</ele>
      </trkpt>
      <trkpt lat="46.65737" lon="5.57617">
        <ele>420.7</ele>
      </trkpt>
      <trkpt lat="46.65736" lon="5.57621">
        <ele>421</ele>
      </trkpt>
      <trkpt lat="46.65733" lon="5.57623">
        <ele>421</ele>
      </trkpt>
      <trkpt lat="46.65731" lon="5.57625">
        <ele>421</ele>
      </trkpt>
      <trkpt lat="46.6573" lon="5.57628">
        <ele>421</ele>
      </trkpt>
      <trkpt lat="46.65731" lon="5.57631">
        <ele>421</ele>
      </trkpt>
      <trkpt lat="46.65731" lon="5.57634">
        <ele>421</ele>
      </trkpt>
      <trkpt lat="46.65731" lon="5.57637">
        <ele>421</ele>
      </trkpt>
      <trkpt lat="46.65731" lon="5.57641">
        <ele>421</ele>
      </trkpt>
      <trkpt lat="46.6573" lon="5.57644">
        <ele>421.2</ele>
      </trkpt>
      <trkpt lat="46.65728" lon="5.57648">
        <ele>421.2</ele>
      </trkpt>
      <trkpt lat="46.65728" lon="5.57651">
        <ele>421.2</ele>
      </trkpt>
      <trkpt lat="46.65728" lon="5.57656">
        <ele>421</ele>
      </trkpt>
      <trkpt lat="46.65728" lon="5.57658">
        <ele>421</ele>
      </trkpt>
      <trkpt lat="46.65727" lon="5.57663">
        <ele>421</ele>
      </trkpt>
      <trkpt lat="46.65725" lon="5.57666">
        <ele>421</ele>
      </trkpt>
      <trkpt lat="46.65724" lon="5.5767">
        <ele>421</ele>
      </trkpt>
      <trkpt lat="46.65722" lon="5.57673">
        <ele>421</ele>
      </trkpt>
      <trkpt lat="46.6572" lon="5.57677">
        <ele>421</ele>
      </trkpt>
      <trkpt lat="46.65717" lon="5.57682">
        <ele>421</ele>
      </trkpt>
      <trkpt lat="46.65716" lon="5.57685">
        <ele>421</ele>
      </trkpt>
      <trkpt lat="46.65715" lon="5.57689">
        <ele>421</ele>
      </trkpt>
      <trkpt lat="46.65714" lon="5.57692">
        <ele>421</ele>
      </trkpt>
      <trkpt lat="46.65713" lon="5.57696">
        <ele>421</ele>
      </trkpt>
      <trkpt lat="46.65712" lon="5.577">
        <ele>421</ele>
      </trkpt>
      <trkpt lat="46.65713" lon="5.57703">
        <ele>420.7</ele>
      </trkpt>
      <trkpt lat="46.65713" lon="5.57707">
        <ele>420.7</ele>
      </trkpt>
      <trkpt lat="46.65708" lon="5.57712">
        <ele>420.7</ele>
      </trkpt>
      <trkpt lat="46.65703" lon="5.57716">
        <ele>420.7</ele>
      </trkpt>
      <trkpt lat="46.657" lon="5.57719">
        <ele>420.6</ele>
      </trkpt>
      <trkpt lat="46.65698" lon="5.57721">
        <ele>420.6</ele>
      </trkpt>
      <trkpt lat="46.65696" lon="5.57723">
        <ele>420.6</ele>
      </trkpt>
      <trkpt lat="46.65694" lon="5.57724">
        <ele>420.6</ele>
      </trkpt>
      <trkpt lat="46.65692" lon="5.57726">
        <ele>420.6</ele>
      </trkpt>
      <trkpt lat="46.65691" lon="5.57728">
        <ele>420.6</ele>
      </trkpt>
      <trkpt lat="46.6569" lon="5.5773">
        <ele>420.6</ele>
      </trkpt>
      <trkpt lat="46.65688" lon="5.57733">
        <ele>420.6</ele>
      </trkpt>
      <trkpt lat="46.65687" lon="5.57736">
        <ele>420.6</ele>
      </trkpt>
      <trkpt lat="46.65686" lon="5.57739">
        <ele>420.6</ele>
      </trkpt>
      <trkpt lat="46.65685" lon="5.57743">
        <ele>420.6</ele>
      </trkpt>
      <trkpt lat="46.65683" lon="5.57747">
        <ele>420.6</ele>
      </trkpt>
      <trkpt lat="46.65682" lon="5.57754">
        <ele>420.6</ele>
      </trkpt>
      <trkpt lat="46.6568" lon="5.57764">
        <ele>420.6</ele>
      </trkpt>
      <trkpt lat="46.65682" lon="5.57772">
        <ele>420.6</ele>
      </trkpt>
      <trkpt lat="46.65686" lon="5.57777">
        <ele>420.6</ele>
      </trkpt>
      <trkpt lat="46.65687" lon="5.57782">
        <ele>420.6</ele>
      </trkpt>
      <trkpt lat="46.65683" lon="5.57787">
        <ele>420.6</ele>
      </trkpt>
      <trkpt lat="46.65682" lon="5.5779">
        <ele>420.6</ele>
      </trkpt>
      <trkpt lat="46.65682" lon="5.57794">
        <ele>420.3</ele>
      </trkpt>
      <trkpt lat="46.65679" lon="5.57795">
        <ele>420.3</ele>
      </trkpt>
      <trkpt lat="46.65682" lon="5.57794">
        <ele>420.3</ele>
      </trkpt>
      <trkpt lat="46.65683" lon="5.57794">
        <ele>419.7</ele>
      </trkpt>
      <trkpt lat="46.65686" lon="5.57797">
        <ele>419.6</ele>
      </trkpt>
      <trkpt lat="46.65687" lon="5.578">
        <ele>419.6</ele>
      </trkpt>
      <trkpt lat="46.65688" lon="5.57803">
        <ele>419.3</ele>
      </trkpt>
      <trkpt lat="46.65688" lon="5.57806">
        <ele>419.3</ele>
      </trkpt>
      <trkpt lat="46.65688" lon="5.57809">
        <ele>419.2</ele>
      </trkpt>
      <trkpt lat="46.65686" lon="5.57813">
        <ele>419.2</ele>
      </trkpt>
      <trkpt lat="46.65686" lon="5.57816">
        <ele>419</ele>
      </trkpt>
      <trkpt lat="46.65685" lon="5.5782">
        <ele>419</ele>
      </trkpt>
      <trkpt lat="46.65686" lon="5.57823">
        <ele>418.7</ele>
      </trkpt>
      <trkpt lat="46.65688" lon="5.57826">
        <ele>418.7</ele>
      </trkpt>
      <trkpt lat="46.6569" lon="5.5783">
        <ele>418.6</ele>
      </trkpt>
      <trkpt lat="46.65691" lon="5.57832">
        <ele>418.6</ele>
      </trkpt>
      <trkpt lat="46.65691" lon="5.57836">
        <ele>418.3</ele>
      </trkpt>
      <trkpt lat="46.65691" lon="5.57839">
        <ele>418.3</ele>
      </trkpt>
      <trkpt lat="46.6569" lon="5.57842">
        <ele>418.3</ele>
      </trkpt>
      <trkpt lat="46.65688" lon="5.57845">
        <ele>418.2</ele>
      </trkpt>
      <trkpt lat="46.65688" lon="5.57848">
        <ele>418.2</ele>
      </trkpt>
      <trkpt lat="46.65686" lon="5.57851">
        <ele>418.2</ele>
      </trkpt>
      <trkpt lat="46.65686" lon="5.57855">
        <ele>418</ele>
      </trkpt>
      <trkpt lat="46.65684" lon="5.57858">
        <ele>418</ele>
      </trkpt>
      <trkpt lat="46.65683" lon="5.57861">
        <ele>418</ele>
      </trkpt>
      <trkpt lat="46.65682" lon="5.57864">
        <ele>418</ele>
      </trkpt>
      <trkpt lat="46.65682" lon="5.57867">
        <ele>417.7</ele>
      </trkpt>
      <trkpt lat="46.65683" lon="5.5787">
        <ele>417.7</ele>
      </trkpt>
      <trkpt lat="46.65684" lon="5.57873">
        <ele>417.7</ele>
      </trkpt>
      <trkpt lat="46.65685" lon="5.57877">
        <ele>417.7</ele>
      </trkpt>
      <trkpt lat="46.65684" lon="5.57881">
        <ele>417.7</ele>
      </trkpt>
      <trkpt lat="46.65682" lon="5.57885">
        <ele>417.7</ele>
      </trkpt>
      <trkpt lat="46.6568" lon="5.57889">
        <ele>417.7</ele>
      </trkpt>
      <trkpt lat="46.65678" lon="5.57891">
        <ele>417.7</ele>
      </trkpt>
      <trkpt lat="46.65676" lon="5.57893">
        <ele>417.7</ele>
      </trkpt>
      <trkpt lat="46.65673" lon="5.57896">
        <ele>417.7</ele>
      </trkpt>
      <trkpt lat="46.65671" lon="5.57898">
        <ele>417.7</ele>
      </trkpt>
      <trkpt lat="46.6567" lon="5.57901">
        <ele>417.7</ele>
      </trkpt>
      <trkpt lat="46.65667" lon="5.57903">
        <ele>417.7</ele>
      </trkpt>
      <trkpt lat="46.65665" lon="5.57907">
        <ele>418</ele>
      </trkpt>
      <trkpt lat="46.65662" lon="5.57911">
        <ele>418</ele>
      </trkpt>
      <trkpt lat="46.65659" lon="5.57914">
        <ele>418</ele>
      </trkpt>
      <trkpt lat="46.65654" lon="5.57916">
        <ele>418</ele>
      </trkpt>
      <trkpt lat="46.65651" lon="5.57918">
        <ele>418</ele>
      </trkpt>
      <trkpt lat="46.65649" lon="5.5792">
        <ele>418</ele>
      </trkpt>
      <trkpt lat="46.65646" lon="5.57923">
        <ele>418.2</ele>
      </trkpt>
      <trkpt lat="46.65643" lon="5.57926">
        <ele>418.2</ele>
      </trkpt>
      <trkpt lat="46.6564" lon="5.57927">
        <ele>418.2</ele>
      </trkpt>
      <trkpt lat="46.65636" lon="5.57931">
        <ele>418.2</ele>
      </trkpt>
      <trkpt lat="46.65636" lon="5.57933">
        <ele>418.2</ele>
      </trkpt>
      <trkpt lat="46.65636" lon="5.57937">
        <ele>418.2</ele>
      </trkpt>
      <trkpt lat="46.65638" lon="5.57943">
        <ele>418.3</ele>
      </trkpt>
      <trkpt lat="46.65641" lon="5.57946">
        <ele>418.3</ele>
      </trkpt>
      <trkpt lat="46.65642" lon="5.57948">
        <ele>418.3</ele>
      </trkpt>
      <trkpt lat="46.65643" lon="5.57951">
        <ele>418.3</ele>
      </trkpt>
      <trkpt lat="46.65643" lon="5.57954">
        <ele>418.3</ele>
      </trkpt>
      <trkpt lat="46.65644" lon="5.57958">
        <ele>418.3</ele>
      </trkpt>
      <trkpt lat="46.65643" lon="5.57962">
        <ele>418.3</ele>
      </trkpt>
      <trkpt lat="46.65642" lon="5.57966">
        <ele>418.3</ele>
      </trkpt>
      <trkpt lat="46.65641" lon="5.57969">
        <ele>418.3</ele>
      </trkpt>
      <trkpt lat="46.65641" lon="5.57973">
        <ele>418.3</ele>
      </trkpt>
      <trkpt lat="46.6564" lon="5.57975">
        <ele>418.3</ele>
      </trkpt>
      <trkpt lat="46.65639" lon="5.57978">
        <ele>418.3</ele>
      </trkpt>
      <trkpt lat="46.65636" lon="5.57981">
        <ele>418.2</ele>
      </trkpt>
      <trkpt lat="46.65636" lon="5.57985">
        <ele>418.2</ele>
      </trkpt>
      <trkpt lat="46.65636" lon="5.57989">
        <ele>418.2</ele>
      </trkpt>
      <trkpt lat="46.65636" lon="5.57992">
        <ele>418.2</ele>
      </trkpt>
      <trkpt lat="46.65635" lon="5.57996">
        <ele>418.2</ele>
      </trkpt>
      <trkpt lat="46.65633" lon="5.57999">
        <ele>418</ele>
      </trkpt>
      <trkpt lat="46.65632" lon="5.58001">
        <ele>418</ele>
      </trkpt>
      <trkpt lat="46.65631" lon="5.58004">
        <ele>418</ele>
      </trkpt>
      <trkpt lat="46.6563" lon="5.58008">
        <ele>418</ele>
      </trkpt>
      <trkpt lat="46.6563" lon="5.58012">
        <ele>418</ele>
      </trkpt>
      <trkpt lat="46.65629" lon="5.58015">
        <ele>418</ele>
      </trkpt>
      <trkpt lat="46.65628" lon="5.58017">
        <ele>418</ele>
      </trkpt>
      <trkpt lat="46.65626" lon="5.58019">
        <ele>417.7</ele>
      </trkpt>
      <trkpt lat="46.65625" lon="5.58022">
        <ele>417.7</ele>
      </trkpt>
      <trkpt lat="46.65624" lon="5.58025">
        <ele>417.7</ele>
      </trkpt>
      <trkpt lat="46.65622" lon="5.58028">
        <ele>417.7</ele>
      </trkpt>
      <trkpt lat="46.6562" lon="5.58032">
        <ele>417.7</ele>
      </trkpt>
      <trkpt lat="46.65618" lon="5.58036">
        <ele>417.7</ele>
      </trkpt>
      <trkpt lat="46.65617" lon="5.58039">
        <ele>417.6</ele>
      </trkpt>
      <trkpt lat="46.65615" lon="5.58044">
        <ele>417.6</ele>
      </trkpt>
      <trkpt lat="46.65614" lon="5.58048">
        <ele>417.6</ele>
      </trkpt>
      <trkpt lat="46.65612" lon="5.58053">
        <ele>417.6</ele>
      </trkpt>
      <trkpt lat="46.65612" lon="5.58058">
        <ele>417.6</ele>
      </trkpt>
      <trkpt lat="46.65611" lon="5.58061">
        <ele>417.6</ele>
      </trkpt>
      <trkpt lat="46.65611" lon="5.58065">
        <ele>417.6</ele>
      </trkpt>
      <trkpt lat="46.65611" lon="5.58069">
        <ele>417.6</ele>
      </trkpt>
      <trkpt lat="46.65609" lon="5.58071">
        <ele>417.3</ele>
      </trkpt>
      <trkpt lat="46.65609" lon="5.58074">
        <ele>417.3</ele>
      </trkpt>
      <trkpt lat="46.65609" lon="5.58077">
        <ele>417.3</ele>
      </trkpt>
      <trkpt lat="46.65608" lon="5.58081">
        <ele>417.3</ele>
      </trkpt>
      <trkpt lat="46.65608" lon="5.58085">
        <ele>417.3</ele>
      </trkpt>
      <trkpt lat="46.65608" lon="5.58089">
        <ele>417.2</ele>
      </trkpt>
      <trkpt lat="46.65609" lon="5.58096">
        <ele>417.2</ele>
      </trkpt>
      <trkpt lat="46.65611" lon="5.58104">
        <ele>417</ele>
      </trkpt>
      <trkpt lat="46.65611" lon="5.58112">
        <ele>417</ele>
      </trkpt>
      <trkpt lat="46.65612" lon="5.5812">
        <ele>416.7</ele>
      </trkpt>
      <trkpt lat="46.65615" lon="5.58128">
        <ele>416.6</ele>
      </trkpt>
      <trkpt lat="46.65618" lon="5.58137">
        <ele>416.3</ele>
      </trkpt>
      <trkpt lat="46.65621" lon="5.58144">
        <ele>416.3</ele>
      </trkpt>
      <trkpt lat="46.65622" lon="5.58155">
        <ele>416.2</ele>
      </trkpt>
      <trkpt lat="46.65623" lon="5.58163">
        <ele>416</ele>
      </trkpt>
      <trkpt lat="46.65625" lon="5.58169">
        <ele>415.7</ele>
      </trkpt>
      <trkpt lat="46.65626" lon="5.58177">
        <ele>415.6</ele>
      </trkpt>
      <trkpt lat="46.65629" lon="5.58186">
        <ele>415.3</ele>
      </trkpt>
      <trkpt lat="46.65629" lon="5.58192">
        <ele>415.2</ele>
      </trkpt>
      <trkpt lat="46.65631" lon="5.58195">
        <ele>415</ele>
      </trkpt>
      <trkpt lat="46.65633" lon="5.58196">
        <ele>414.3</ele>
      </trkpt>
      <trkpt lat="46.65635" lon="5.58197">
        <ele>414.2</ele>
      </trkpt>
      <trkpt lat="46.65634" lon="5.582">
        <ele>413.7</ele>
      </trkpt>
      <trkpt lat="46.65634" lon="5.58203">
        <ele>413.3</ele>
      </trkpt>
      <trkpt lat="46.65633" lon="5.58207">
        <ele>413</ele>
      </trkpt>
      <trkpt lat="46.65633" lon="5.5821">
        <ele>412.6</ele>
      </trkpt>
      <trkpt lat="46.65634" lon="5.58214">
        <ele>412.3</ele>
      </trkpt>
      <trkpt lat="46.65633" lon="5.58218">
        <ele>411.7</ele>
      </trkpt>
      <trkpt lat="46.65634" lon="5.58221">
        <ele>411.3</ele>
      </trkpt>
      <trkpt lat="46.65636" lon="5.58223">
        <ele>411.2</ele>
      </trkpt>
      <trkpt lat="46.65636" lon="5.58226">
        <ele>410.7</ele>
      </trkpt>
      <trkpt lat="46.65636" lon="5.58229">
        <ele>410.6</ele>
      </trkpt>
      <trkpt lat="46.65636" lon="5.58231">
        <ele>410.2</ele>
      </trkpt>
      <trkpt lat="46.65635" lon="5.58235">
        <ele>409.7</ele>
      </trkpt>
      <trkpt lat="46.65634" lon="5.58238">
        <ele>409.6</ele>
      </trkpt>
      <trkpt lat="46.65633" lon="5.5824">
        <ele>409.2</ele>
      </trkpt>
      <trkpt lat="46.65633" lon="5.58244">
        <ele>408.6</ele>
      </trkpt>
      <trkpt lat="46.65633" lon="5.58247">
        <ele>407.7</ele>
      </trkpt>
      <trkpt lat="46.65636" lon="5.58248">
        <ele>407.2</ele>
      </trkpt>
      <trkpt lat="46.65636" lon="5.58252">
        <ele>406.6</ele>
      </trkpt>
      <trkpt lat="46.65635" lon="5.58256">
        <ele>406.2</ele>
      </trkpt>
      <trkpt lat="46.65633" lon="5.58259">
        <ele>406</ele>
      </trkpt>
      <trkpt lat="46.65631" lon="5.58263">
        <ele>405.6</ele>
      </trkpt>
      <trkpt lat="46.65628" lon="5.58267">
        <ele>405.3</ele>
      </trkpt>
      <trkpt lat="46.65625" lon="5.58271">
        <ele>405</ele>
      </trkpt>
      <trkpt lat="46.65622" lon="5.58275">
        <ele>404.7</ele>
      </trkpt>
      <trkpt lat="46.6562" lon="5.58278">
        <ele>404.3</ele>
      </trkpt>
      <trkpt lat="46.65619" lon="5.58281">
        <ele>404.2</ele>
      </trkpt>
      <trkpt lat="46.65618" lon="5.58284">
        <ele>403.7</ele>
      </trkpt>
      <trkpt lat="46.65617" lon="5.58287">
        <ele>403.6</ele>
      </trkpt>
      <trkpt lat="46.65615" lon="5.5829">
        <ele>403.2</ele>
      </trkpt>
      <trkpt lat="46.65612" lon="5.58294">
        <ele>403</ele>
      </trkpt>
      <trkpt lat="46.65611" lon="5.58297">
        <ele>402.6</ele>
      </trkpt>
      <trkpt lat="46.65609" lon="5.58299">
        <ele>402.3</ele>
      </trkpt>
      <trkpt lat="46.65606" lon="5.58301">
        <ele>402</ele>
      </trkpt>
      <trkpt lat="46.65604" lon="5.58303">
        <ele>401.6</ele>
      </trkpt>
      <trkpt lat="46.65602" lon="5.58306">
        <ele>401</ele>
      </trkpt>
      <trkpt lat="46.65601" lon="5.58311">
        <ele>400</ele>
      </trkpt>
      <trkpt lat="46.656" lon="5.58316">
        <ele>399.2</ele>
      </trkpt>
      <trkpt lat="46.65599" lon="5.58318">
        <ele>398.7</ele>
      </trkpt>
      <trkpt lat="46.65598" lon="5.58321">
        <ele>398.3</ele>
      </trkpt>
      <trkpt lat="46.65596" lon="5.58325">
        <ele>398.2</ele>
      </trkpt>
      <trkpt lat="46.65595" lon="5.58329">
        <ele>397.7</ele>
      </trkpt>
      <trkpt lat="46.65592" lon="5.58333">
        <ele>397.3</ele>
      </trkpt>
      <trkpt lat="46.65591" lon="5.58338">
        <ele>397.2</ele>
      </trkpt>
      <trkpt lat="46.65588" lon="5.58341">
        <ele>396.7</ele>
      </trkpt>
      <trkpt lat="46.65585" lon="5.58345">
        <ele>396.3</ele>
      </trkpt>
      <trkpt lat="46.65583" lon="5.58349">
        <ele>396.2</ele>
      </trkpt>
      <trkpt lat="46.6558" lon="5.58353">
        <ele>395.7</ele>
      </trkpt>
      <trkpt lat="46.65577" lon="5.58356">
        <ele>395.3</ele>
      </trkpt>
      <trkpt lat="46.65575" lon="5.58359">
        <ele>395.2</ele>
      </trkpt>
      <trkpt lat="46.65572" lon="5.58362">
        <ele>394.7</ele>
      </trkpt>
      <trkpt lat="46.6557" lon="5.58365">
        <ele>394.6</ele>
      </trkpt>
      <trkpt lat="46.65571" lon="5.58367">
        <ele>394.2</ele>
      </trkpt>
      <trkpt lat="46.65571" lon="5.58372">
        <ele>393.6</ele>
      </trkpt>
      <trkpt lat="46.6557" lon="5.58375">
        <ele>393.2</ele>
      </trkpt>
      <trkpt lat="46.65567" lon="5.58378">
        <ele>393</ele>
      </trkpt>
      <trkpt lat="46.65563" lon="5.58381">
        <ele>392.6</ele>
      </trkpt>
      <trkpt lat="46.6556" lon="5.58383">
        <ele>392.3</ele>
      </trkpt>
      <trkpt lat="46.65556" lon="5.58386">
        <ele>392</ele>
      </trkpt>
      <trkpt lat="46.65553" lon="5.58388">
        <ele>391.7</ele>
      </trkpt>
      <trkpt lat="46.6555" lon="5.58391">
        <ele>391.3</ele>
      </trkpt>
      <trkpt lat="46.65546" lon="5.58394">
        <ele>391</ele>
      </trkpt>
      <trkpt lat="46.65543" lon="5.58397">
        <ele>390.6</ele>
      </trkpt>
      <trkpt lat="46.6554" lon="5.584">
        <ele>390.3</ele>
      </trkpt>
      <trkpt lat="46.65537" lon="5.58403">
        <ele>390</ele>
      </trkpt>
      <trkpt lat="46.65535" lon="5.58406">
        <ele>389.7</ele>
      </trkpt>
      <trkpt lat="46.65532" lon="5.58409">
        <ele>389.3</ele>
      </trkpt>
      <trkpt lat="46.65529" lon="5.58412">
        <ele>389.2</ele>
      </trkpt>
      <trkpt lat="46.65527" lon="5.58414">
        <ele>388.7</ele>
      </trkpt>
      <trkpt lat="46.65525" lon="5.58418">
        <ele>388.3</ele>
      </trkpt>
      <trkpt lat="46.65525" lon="5.5842">
        <ele>388</ele>
      </trkpt>
      <trkpt lat="46.65525" lon="5.58424">
        <ele>387.7</ele>
      </trkpt>
      <trkpt lat="46.65525" lon="5.58428">
        <ele>387.3</ele>
      </trkpt>
      <trkpt lat="46.65525" lon="5.58433">
        <ele>387.2</ele>
      </trkpt>
      <trkpt lat="46.65525" lon="5.58437">
        <ele>386.7</ele>
      </trkpt>
      <trkpt lat="46.65527" lon="5.58441">
        <ele>386.6</ele>
      </trkpt>
      <trkpt lat="46.65528" lon="5.58445">
        <ele>386.2</ele>
      </trkpt>
      <trkpt lat="46.65529" lon="5.5845">
        <ele>385.6</ele>
      </trkpt>
      <trkpt lat="46.6553" lon="5.58454">
        <ele>385.3</ele>
      </trkpt>
      <trkpt lat="46.6553" lon="5.58457">
        <ele>385</ele>
      </trkpt>
      <trkpt lat="46.6553" lon="5.58461">
        <ele>384.7</ele>
      </trkpt>
      <trkpt lat="46.6553" lon="5.58465">
        <ele>384.6</ele>
      </trkpt>
      <trkpt lat="46.6553" lon="5.58469">
        <ele>384.2</ele>
      </trkpt>
      <trkpt lat="46.6553" lon="5.58473">
        <ele>384</ele>
      </trkpt>
      <trkpt lat="46.6553" lon="5.58477">
        <ele>383.6</ele>
      </trkpt>
      <trkpt lat="46.6553" lon="5.58481">
        <ele>383.3</ele>
      </trkpt>
      <trkpt lat="46.6553" lon="5.58485">
        <ele>383</ele>
      </trkpt>
      <trkpt lat="46.65529" lon="5.58489">
        <ele>382.7</ele>
      </trkpt>
      <trkpt lat="46.65529" lon="5.58494">
        <ele>382.3</ele>
      </trkpt>
      <trkpt lat="46.65529" lon="5.58498">
        <ele>382.2</ele>
      </trkpt>
      <trkpt lat="46.65529" lon="5.58501">
        <ele>382</ele>
      </trkpt>
      <trkpt lat="46.6553" lon="5.58505">
        <ele>381.6</ele>
      </trkpt>
      <trkpt lat="46.6553" lon="5.58509">
        <ele>381.3</ele>
      </trkpt>
      <trkpt lat="46.65531" lon="5.58512">
        <ele>381.2</ele>
      </trkpt>
      <trkpt lat="46.65531" lon="5.58517">
        <ele>380.7</ele>
      </trkpt>
      <trkpt lat="46.65531" lon="5.58521">
        <ele>380.6</ele>
      </trkpt>
      <trkpt lat="46.65531" lon="5.58526">
        <ele>380.3</ele>
      </trkpt>
      <trkpt lat="46.65533" lon="5.58529">
        <ele>380.2</ele>
      </trkpt>
      <trkpt lat="46.65533" lon="5.58533">
        <ele>379.7</ele>
      </trkpt>
      <trkpt lat="46.65535" lon="5.58537">
        <ele>379.6</ele>
      </trkpt>
      <trkpt lat="46.65537" lon="5.58542">
        <ele>379.3</ele>
      </trkpt>
      <trkpt lat="46.6554" lon="5.58548">
        <ele>379.2</ele>
      </trkpt>
      <trkpt lat="46.65543" lon="5.58555">
        <ele>378.7</ele>
      </trkpt>
      <trkpt lat="46.65545" lon="5.58563">
        <ele>378.6</ele>
      </trkpt>
      <trkpt lat="46.65548" lon="5.58572">
        <ele>378.3</ele>
      </trkpt>
      <trkpt lat="46.65551" lon="5.58581">
        <ele>378.2</ele>
      </trkpt>
      <trkpt lat="46.65554" lon="5.58586">
        <ele>378</ele>
      </trkpt>
      <trkpt lat="46.65558" lon="5.58594">
        <ele>377.6</ele>
      </trkpt>
      <trkpt lat="46.65562" lon="5.58599">
        <ele>377.3</ele>
      </trkpt>
      <trkpt lat="46.65566" lon="5.58605">
        <ele>377.2</ele>
      </trkpt>
      <trkpt lat="46.65569" lon="5.58607">
        <ele>376.7</ele>
      </trkpt>
      <trkpt lat="46.65571" lon="5.58609">
        <ele>376.6</ele>
      </trkpt>
      <trkpt lat="46.65574" lon="5.58612">
        <ele>376.3</ele>
      </trkpt>
      <trkpt lat="46.65574" lon="5.58614">
        <ele>376.2</ele>
      </trkpt>
      <trkpt lat="46.65574" lon="5.58619">
        <ele>375.6</ele>
      </trkpt>
      <trkpt lat="46.65572" lon="5.58622">
        <ele>375.3</ele>
      </trkpt>
      <trkpt lat="46.65572" lon="5.58625">
        <ele>375</ele>
      </trkpt>
      <trkpt lat="46.65572" lon="5.58629">
        <ele>374.7</ele>
      </trkpt>
      <trkpt lat="46.65574" lon="5.58633">
        <ele>374.6</ele>
      </trkpt>
      <trkpt lat="46.65577" lon="5.58635">
        <ele>374.2</ele>
      </trkpt>
      <trkpt lat="46.65578" lon="5.58639">
        <ele>374</ele>
      </trkpt>
      <trkpt lat="46.65578" lon="5.58642">
        <ele>373.6</ele>
      </trkpt>
      <trkpt lat="46.65579" lon="5.58646">
        <ele>373.2</ele>
      </trkpt>
      <trkpt lat="46.65581" lon="5.58649">
        <ele>372.6</ele>
      </trkpt>
      <trkpt lat="46.65583" lon="5.58654">
        <ele>372</ele>
      </trkpt>
      <trkpt lat="46.65583" lon="5.58658">
        <ele>371.6</ele>
      </trkpt>
      <trkpt lat="46.65584" lon="5.58661">
        <ele>371.2</ele>
      </trkpt>
      <trkpt lat="46.65585" lon="5.58665">
        <ele>370.6</ele>
      </trkpt>
      <trkpt lat="46.65585" lon="5.58669">
        <ele>370</ele>
      </trkpt>
      <trkpt lat="46.65584" lon="5.58672">
        <ele>369.7</ele>
      </trkpt>
      <trkpt lat="46.65583" lon="5.58677">
        <ele>369.6</ele>
      </trkpt>
      <trkpt lat="46.65581" lon="5.58681">
        <ele>369.2</ele>
      </trkpt>
      <trkpt lat="46.65582" lon="5.58684">
        <ele>369</ele>
      </trkpt>
      <trkpt lat="46.65583" lon="5.58688">
        <ele>368.7</ele>
      </trkpt>
      <trkpt lat="46.65585" lon="5.58691">
        <ele>368.3</ele>
      </trkpt>
      <trkpt lat="46.65586" lon="5.58693">
        <ele>368.2</ele>
      </trkpt>
      <trkpt lat="46.65588" lon="5.58695">
        <ele>367.7</ele>
      </trkpt>
      <trkpt lat="46.65588" lon="5.58698">
        <ele>367.6</ele>
      </trkpt>
      <trkpt lat="46.65588" lon="5.58701">
        <ele>367.2</ele>
      </trkpt>
      <trkpt lat="46.65589" lon="5.58705">
        <ele>367</ele>
      </trkpt>
      <trkpt lat="46.6559" lon="5.58709">
        <ele>366.6</ele>
      </trkpt>
      <trkpt lat="46.65591" lon="5.58714">
        <ele>366.3</ele>
      </trkpt>
      <trkpt lat="46.65593" lon="5.5872">
        <ele>366</ele>
      </trkpt>
      <trkpt lat="46.65595" lon="5.58728">
        <ele>365.7</ele>
      </trkpt>
      <trkpt lat="46.65596" lon="5.58734">
        <ele>365.3</ele>
      </trkpt>
      <trkpt lat="46.65596" lon="5.58741">
        <ele>365</ele>
      </trkpt>
      <trkpt lat="46.65596" lon="5.58747">
        <ele>364.7</ele>
      </trkpt>
      <trkpt lat="46.65596" lon="5.58754">
        <ele>364.3</ele>
      </trkpt>
      <trkpt lat="46.65597" lon="5.58759">
        <ele>364.2</ele>
      </trkpt>
      <trkpt lat="46.65596" lon="5.58765">
        <ele>363.7</ele>
      </trkpt>
      <trkpt lat="46.65596" lon="5.5877">
        <ele>363.6</ele>
      </trkpt>
      <trkpt lat="46.65597" lon="5.58776">
        <ele>363.2</ele>
      </trkpt>
      <trkpt lat="46.65598" lon="5.58781">
        <ele>362.7</ele>
      </trkpt>
      <trkpt lat="46.65599" lon="5.58785">
        <ele>362.6</ele>
      </trkpt>
      <trkpt lat="46.65599" lon="5.5879">
        <ele>362.2</ele>
      </trkpt>
      <trkpt lat="46.65599" lon="5.58794">
        <ele>361.7</ele>
      </trkpt>
      <trkpt lat="46.65601" lon="5.58798">
        <ele>361.2</ele>
      </trkpt>
      <trkpt lat="46.65604" lon="5.58797">
        <ele>360.7</ele>
      </trkpt>
      <trkpt lat="46.65606" lon="5.58794">
        <ele>360.3</ele>
      </trkpt>
      <trkpt lat="46.65608" lon="5.58785">
        <ele>360.2</ele>
      </trkpt>
      <trkpt lat="46.65609" lon="5.58782">
        <ele>359.7</ele>
      </trkpt>
      <trkpt lat="46.65612" lon="5.58781">
        <ele>359.3</ele>
      </trkpt>
      <trkpt lat="46.65615" lon="5.5878">
        <ele>359.2</ele>
      </trkpt>
      <trkpt lat="46.65619" lon="5.5878">
        <ele>358.7</ele>
      </trkpt>
      <trkpt lat="46.65622" lon="5.58779">
        <ele>358.3</ele>
      </trkpt>
      <trkpt lat="46.65626" lon="5.58778">
        <ele>358</ele>
      </trkpt>
      <trkpt lat="46.65629" lon="5.58778">
        <ele>357.7</ele>
      </trkpt>
      <trkpt lat="46.65632" lon="5.58777">
        <ele>357.3</ele>
      </trkpt>
      <trkpt lat="46.65635" lon="5.58777">
        <ele>357</ele>
      </trkpt>
      <trkpt lat="46.65637" lon="5.58776">
        <ele>356.6</ele>
      </trkpt>
      <trkpt lat="46.6564" lon="5.58776">
        <ele>356.2</ele>
      </trkpt>
      <trkpt lat="46.65643" lon="5.58776">
        <ele>356</ele>
      </trkpt>
      <trkpt lat="46.65646" lon="5.58776">
        <ele>355.6</ele>
      </trkpt>
      <trkpt lat="46.6565" lon="5.58777">
        <ele>355.2</ele>
      </trkpt>
      <trkpt lat="46.65653" lon="5.58777">
        <ele>354.7</ele>
      </trkpt>
      <trkpt lat="46.65657" lon="5.58776">
        <ele>354.3</ele>
      </trkpt>
      <trkpt lat="46.65662" lon="5.58776">
        <ele>354</ele>
      </trkpt>
      <trkpt lat="46.65665" lon="5.58775">
        <ele>353.6</ele>
      </trkpt>
      <trkpt lat="46.65667" lon="5.58777">
        <ele>353</ele>
      </trkpt>
      <trkpt lat="46.65669" lon="5.58778">
        <ele>352.6</ele>
      </trkpt>
      <trkpt lat="46.65671" lon="5.5878">
        <ele>352.2</ele>
      </trkpt>
      <trkpt lat="46.65673" lon="5.58783">
        <ele>351.7</ele>
      </trkpt>
      <trkpt lat="46.65677" lon="5.58785">
        <ele>351.3</ele>
      </trkpt>
      <trkpt lat="46.65679" lon="5.58787">
        <ele>351</ele>
      </trkpt>
      <trkpt lat="46.65682" lon="5.58788">
        <ele>350.6</ele>
      </trkpt>
      <trkpt lat="46.65684" lon="5.5879">
        <ele>350.2</ele>
      </trkpt>
      <trkpt lat="46.65686" lon="5.58792">
        <ele>349.7</ele>
      </trkpt>
      <trkpt lat="46.65688" lon="5.58794">
        <ele>349.2</ele>
      </trkpt>
      <trkpt lat="46.65691" lon="5.58797">
        <ele>348.7</ele>
      </trkpt>
      <trkpt lat="46.65692" lon="5.58798">
        <ele>348.3</ele>
      </trkpt>
      <trkpt lat="46.65694" lon="5.588">
        <ele>348</ele>
      </trkpt>
      <trkpt lat="46.65698" lon="5.58803">
        <ele>347.6</ele>
      </trkpt>
      <trkpt lat="46.65699" lon="5.58805">
        <ele>347.2</ele>
      </trkpt>
      <trkpt lat="46.65702" lon="5.58806">
        <ele>346.6</ele>
      </trkpt>
      <trkpt lat="46.65706" lon="5.58808">
        <ele>346.2</ele>
      </trkpt>
      <trkpt lat="46.65709" lon="5.58808">
        <ele>345.7</ele>
      </trkpt>
      <trkpt lat="46.65712" lon="5.5881">
        <ele>345.2</ele>
      </trkpt>
      <trkpt lat="46.65715" lon="5.58812">
        <ele>344.7</ele>
      </trkpt>
      <trkpt lat="46.65717" lon="5.58813">
        <ele>344.3</ele>
      </trkpt>
      <trkpt lat="46.6572" lon="5.58815">
        <ele>344</ele>
      </trkpt>
      <trkpt lat="46.65723" lon="5.58816">
        <ele>343.6</ele>
      </trkpt>
      <trkpt lat="46.65726" lon="5.58817">
        <ele>343</ele>
      </trkpt>
      <trkpt lat="46.65728" lon="5.58818">
        <ele>342.6</ele>
      </trkpt>
      <trkpt lat="46.65731" lon="5.58819">
        <ele>342.2</ele>
      </trkpt>
      <trkpt lat="46.65733" lon="5.5882">
        <ele>341.7</ele>
      </trkpt>
      <trkpt lat="46.65736" lon="5.58821">
        <ele>341.3</ele>
      </trkpt>
      <trkpt lat="46.65738" lon="5.58822">
        <ele>341</ele>
      </trkpt>
      <trkpt lat="46.65741" lon="5.58824">
        <ele>340.6</ele>
      </trkpt>
      <trkpt lat="46.65744" lon="5.58825">
        <ele>340.2</ele>
      </trkpt>
      <trkpt lat="46.65747" lon="5.58827">
        <ele>339.7</ele>
      </trkpt>
      <trkpt lat="46.65749" lon="5.58829">
        <ele>339.3</ele>
      </trkpt>
      <trkpt lat="46.65752" lon="5.58831">
        <ele>339</ele>
      </trkpt>
      <trkpt lat="46.65754" lon="5.58834">
        <ele>338.6</ele>
      </trkpt>
      <trkpt lat="46.65757" lon="5.58838">
        <ele>338.2</ele>
      </trkpt>
      <trkpt lat="46.65757" lon="5.58843">
        <ele>337.7</ele>
      </trkpt>
      <trkpt lat="46.65758" lon="5.58848">
        <ele>337.3</ele>
      </trkpt>
      <trkpt lat="46.65757" lon="5.58853">
        <ele>336.7</ele>
      </trkpt>
      <trkpt lat="46.65756" lon="5.58857">
        <ele>336.3</ele>
      </trkpt>
      <trkpt lat="46.65754" lon="5.58861">
        <ele>336</ele>
      </trkpt>
      <trkpt lat="46.65753" lon="5.58866">
        <ele>335.3</ele>
      </trkpt>
      <trkpt lat="46.65751" lon="5.58869">
        <ele>335</ele>
      </trkpt>
      <trkpt lat="46.65748" lon="5.58874">
        <ele>334.6</ele>
      </trkpt>
      <trkpt lat="46.65746" lon="5.58878">
        <ele>334.2</ele>
      </trkpt>
      <trkpt lat="46.65744" lon="5.58881">
        <ele>333.7</ele>
      </trkpt>
      <trkpt lat="46.65744" lon="5.58886">
        <ele>333.3</ele>
      </trkpt>
      <trkpt lat="46.65741" lon="5.5889">
        <ele>333</ele>
      </trkpt>
      <trkpt lat="46.65739" lon="5.58894">
        <ele>332.3</ele>
      </trkpt>
      <trkpt lat="46.65738" lon="5.58898">
        <ele>332</ele>
      </trkpt>
      <trkpt lat="46.65737" lon="5.58902">
        <ele>331.6</ele>
      </trkpt>
      <trkpt lat="46.65736" lon="5.58906">
        <ele>331</ele>
      </trkpt>
      <trkpt lat="46.65734" lon="5.5891">
        <ele>330.6</ele>
      </trkpt>
      <trkpt lat="46.65732" lon="5.58913">
        <ele>330.2</ele>
      </trkpt>
      <trkpt lat="46.65731" lon="5.58916">
        <ele>329.6</ele>
      </trkpt>
      <trkpt lat="46.65729" lon="5.5892">
        <ele>329.2</ele>
      </trkpt>
      <trkpt lat="46.65727" lon="5.58924">
        <ele>328.7</ele>
      </trkpt>
      <trkpt lat="46.65724" lon="5.58927">
        <ele>328.3</ele>
      </trkpt>
      <trkpt lat="46.65722" lon="5.5893">
        <ele>328</ele>
      </trkpt>
      <trkpt lat="46.65719" lon="5.58935">
        <ele>327.6</ele>
      </trkpt>
      <trkpt lat="46.65716" lon="5.58938">
        <ele>327.3</ele>
      </trkpt>
      <trkpt lat="46.65713" lon="5.58942">
        <ele>327</ele>
      </trkpt>
      <trkpt lat="46.6571" lon="5.58945">
        <ele>326.6</ele>
      </trkpt>
      <trkpt lat="46.65709" lon="5.58948">
        <ele>326.3</ele>
      </trkpt>
      <trkpt lat="46.65707" lon="5.58951">
        <ele>326</ele>
      </trkpt>
      <trkpt lat="46.65706" lon="5.58954">
        <ele>325.7</ele>
      </trkpt>
      <trkpt lat="46.65704" lon="5.58959">
        <ele>325.6</ele>
      </trkpt>
      <trkpt lat="46.65702" lon="5.58962">
        <ele>325.2</ele>
      </trkpt>
      <trkpt lat="46.65701" lon="5.58965">
        <ele>325</ele>
      </trkpt>
      <trkpt lat="46.65699" lon="5.58967">
        <ele>324.7</ele>
      </trkpt>
      <trkpt lat="46.65695" lon="5.58972">
        <ele>324.6</ele>
      </trkpt>
      <trkpt lat="46.65693" lon="5.58974">
        <ele>324.3</ele>
      </trkpt>
      <trkpt lat="46.65691" lon="5.58977">
        <ele>324.2</ele>
      </trkpt>
      <trkpt lat="46.6569" lon="5.5898">
        <ele>324</ele>
      </trkpt>
      <trkpt lat="46.65687" lon="5.58983">
        <ele>323.7</ele>
      </trkpt>
      <trkpt lat="46.65684" lon="5.58986">
        <ele>323.6</ele>
      </trkpt>
      <trkpt lat="46.65683" lon="5.58989">
        <ele>323.3</ele>
      </trkpt>
      <trkpt lat="46.65681" lon="5.58993">
        <ele>323.2</ele>
      </trkpt>
      <trkpt lat="46.65678" lon="5.58996">
        <ele>323</ele>
      </trkpt>
      <trkpt lat="46.65677" lon="5.59">
        <ele>323</ele>
      </trkpt>
      <trkpt lat="46.65675" lon="5.59003">
        <ele>322.7</ele>
      </trkpt>
      <trkpt lat="46.65673" lon="5.59008">
        <ele>322.6</ele>
      </trkpt>
      <trkpt lat="46.65672" lon="5.5901">
        <ele>322.6</ele>
      </trkpt>
      <trkpt lat="46.65669" lon="5.59014">
        <ele>322.3</ele>
      </trkpt>
      <trkpt lat="46.65667" lon="5.59017">
        <ele>322.2</ele>
      </trkpt>
      <trkpt lat="46.65665" lon="5.59021">
        <ele>322.2</ele>
      </trkpt>
      <trkpt lat="46.65662" lon="5.59024">
        <ele>322</ele>
      </trkpt>
      <trkpt lat="46.65659" lon="5.59027">
        <ele>322</ele>
      </trkpt>
      <trkpt lat="46.65657" lon="5.59031">
        <ele>321.7</ele>
      </trkpt>
      <trkpt lat="46.65655" lon="5.59034">
        <ele>321.7</ele>
      </trkpt>
      <trkpt lat="46.65653" lon="5.59038">
        <ele>321.6</ele>
      </trkpt>
      <trkpt lat="46.6565" lon="5.59042">
        <ele>321.6</ele>
      </trkpt>
      <trkpt lat="46.65647" lon="5.59046">
        <ele>321.3</ele>
      </trkpt>
      <trkpt lat="46.65645" lon="5.5905">
        <ele>321.3</ele>
      </trkpt>
      <trkpt lat="46.65644" lon="5.59054">
        <ele>321.2</ele>
      </trkpt>
      <trkpt lat="46.65645" lon="5.59056">
        <ele>321.2</ele>
      </trkpt>
      <trkpt lat="46.65646" lon="5.59059">
        <ele>321</ele>
      </trkpt>
      <trkpt lat="46.65647" lon="5.59061">
        <ele>321</ele>
      </trkpt>
      <trkpt lat="46.65649" lon="5.59064">
        <ele>321</ele>
      </trkpt>
      <trkpt lat="46.65651" lon="5.59068">
        <ele>320.7</ele>
      </trkpt>
      <trkpt lat="46.65651" lon="5.59071">
        <ele>320.7</ele>
      </trkpt>
      <trkpt lat="46.65653" lon="5.59075">
        <ele>320.6</ele>
      </trkpt>
      <trkpt lat="46.65654" lon="5.5908">
        <ele>320.6</ele>
      </trkpt>
      <trkpt lat="46.65655" lon="5.59084">
        <ele>320.3</ele>
      </trkpt>
      <trkpt lat="46.65655" lon="5.59089">
        <ele>320.3</ele>
      </trkpt>
      <trkpt lat="46.65657" lon="5.59093">
        <ele>320.2</ele>
      </trkpt>
      <trkpt lat="46.65657" lon="5.59097">
        <ele>320.2</ele>
      </trkpt>
      <trkpt lat="46.65657" lon="5.59102">
        <ele>320</ele>
      </trkpt>
      <trkpt lat="46.65657" lon="5.59106">
        <ele>319.7</ele>
      </trkpt>
      <trkpt lat="46.65657" lon="5.5911">
        <ele>319.7</ele>
      </trkpt>
      <trkpt lat="46.65657" lon="5.59115">
        <ele>319.6</ele>
      </trkpt>
      <trkpt lat="46.65658" lon="5.5912">
        <ele>319.3</ele>
      </trkpt>
      <trkpt lat="46.65659" lon="5.59124">
        <ele>319.2</ele>
      </trkpt>
      <trkpt lat="46.6566" lon="5.59129">
        <ele>319</ele>
      </trkpt>
      <trkpt lat="46.65662" lon="5.59134">
        <ele>318.7</ele>
      </trkpt>
      <trkpt lat="46.65663" lon="5.59138">
        <ele>318.6</ele>
      </trkpt>
      <trkpt lat="46.65664" lon="5.59142">
        <ele>318.3</ele>
      </trkpt>
      <trkpt lat="46.65665" lon="5.59146">
        <ele>318.2</ele>
      </trkpt>
      <trkpt lat="46.65664" lon="5.59151">
        <ele>318</ele>
      </trkpt>
      <trkpt lat="46.65665" lon="5.59156">
        <ele>317.7</ele>
      </trkpt>
      <trkpt lat="46.65667" lon="5.5916">
        <ele>317.6</ele>
      </trkpt>
      <trkpt lat="46.65667" lon="5.59164">
        <ele>317.6</ele>
      </trkpt>
      <trkpt lat="46.65669" lon="5.59168">
        <ele>317.3</ele>
      </trkpt>
      <trkpt lat="46.6567" lon="5.59172">
        <ele>317.2</ele>
      </trkpt>
      <trkpt lat="46.6567" lon="5.59176">
        <ele>317</ele>
      </trkpt>
      <trkpt lat="46.6567" lon="5.59181">
        <ele>316.7</ele>
      </trkpt>
      <trkpt lat="46.6567" lon="5.59185">
        <ele>316.3</ele>
      </trkpt>
      <trkpt lat="46.65669" lon="5.59191">
        <ele>316.2</ele>
      </trkpt>
      <trkpt lat="46.6567" lon="5.59194">
        <ele>316</ele>
      </trkpt>
      <trkpt lat="46.6567" lon="5.59198">
        <ele>315.6</ele>
      </trkpt>
      <trkpt lat="46.6567" lon="5.59204">
        <ele>315.3</ele>
      </trkpt>
      <trkpt lat="46.65669" lon="5.59207">
        <ele>315.2</ele>
      </trkpt>
      <trkpt lat="46.65667" lon="5.59211">
        <ele>314.7</ele>
      </trkpt>
      <trkpt lat="46.65667" lon="5.59215">
        <ele>314.6</ele>
      </trkpt>
      <trkpt lat="46.65667" lon="5.59219">
        <ele>314.3</ele>
      </trkpt>
      <trkpt lat="46.65667" lon="5.59224">
        <ele>314.2</ele>
      </trkpt>
      <trkpt lat="46.65667" lon="5.59227">
        <ele>314</ele>
      </trkpt>
      <trkpt lat="46.65667" lon="5.59232">
        <ele>313.7</ele>
      </trkpt>
      <trkpt lat="46.65668" lon="5.59236">
        <ele>313.6</ele>
      </trkpt>
      <trkpt lat="46.65668" lon="5.59241">
        <ele>313.6</ele>
      </trkpt>
      <trkpt lat="46.65669" lon="5.59244">
        <ele>313.3</ele>
      </trkpt>
      <trkpt lat="46.65669" lon="5.59249">
        <ele>313.2</ele>
      </trkpt>
      <trkpt lat="46.65669" lon="5.59253">
        <ele>313.2</ele>
      </trkpt>
      <trkpt lat="46.65669" lon="5.59258">
        <ele>313</ele>
      </trkpt>
      <trkpt lat="46.65669" lon="5.59262">
        <ele>312.7</ele>
      </trkpt>
      <trkpt lat="46.65669" lon="5.59266">
        <ele>312.6</ele>
      </trkpt>
      <trkpt lat="46.65669" lon="5.59271">
        <ele>312.3</ele>
      </trkpt>
      <trkpt lat="46.65669" lon="5.59275">
        <ele>312.2</ele>
      </trkpt>
      <trkpt lat="46.65667" lon="5.59279">
        <ele>312</ele>
      </trkpt>
      <trkpt lat="46.65667" lon="5.59283">
        <ele>311.7</ele>
      </trkpt>
      <trkpt lat="46.65667" lon="5.59288">
        <ele>311.6</ele>
      </trkpt>
      <trkpt lat="46.65667" lon="5.59291">
        <ele>311.3</ele>
      </trkpt>
      <trkpt lat="46.65665" lon="5.59296">
        <ele>311.2</ele>
      </trkpt>
      <trkpt lat="46.65664" lon="5.59301">
        <ele>311</ele>
      </trkpt>
      <trkpt lat="46.65662" lon="5.59304">
        <ele>310.7</ele>
      </trkpt>
      <trkpt lat="46.6566" lon="5.59307">
        <ele>310.6</ele>
      </trkpt>
      <trkpt lat="46.65657" lon="5.59311">
        <ele>310.3</ele>
      </trkpt>
      <trkpt lat="46.65655" lon="5.59315">
        <ele>310.2</ele>
      </trkpt>
      <trkpt lat="46.65654" lon="5.59319">
        <ele>310</ele>
      </trkpt>
      <trkpt lat="46.65653" lon="5.59323">
        <ele>310</ele>
      </trkpt>
      <trkpt lat="46.65651" lon="5.59326">
        <ele>309.7</ele>
      </trkpt>
      <trkpt lat="46.65651" lon="5.5933">
        <ele>309.6</ele>
      </trkpt>
      <trkpt lat="46.6565" lon="5.59334">
        <ele>309.3</ele>
      </trkpt>
      <trkpt lat="46.65648" lon="5.59337">
        <ele>309.2</ele>
      </trkpt>
      <trkpt lat="46.65647" lon="5.5934">
        <ele>309</ele>
      </trkpt>
      <trkpt lat="46.65646" lon="5.59343">
        <ele>309</ele>
      </trkpt>
      <trkpt lat="46.65643" lon="5.59346">
        <ele>308.7</ele>
      </trkpt>
      <trkpt lat="46.65641" lon="5.59349">
        <ele>308.7</ele>
      </trkpt>
      <trkpt lat="46.65639" lon="5.59353">
        <ele>308.6</ele>
      </trkpt>
      <trkpt lat="46.65636" lon="5.59356">
        <ele>308.6</ele>
      </trkpt>
      <trkpt lat="46.65636" lon="5.5936">
        <ele>308.3</ele>
      </trkpt>
      <trkpt lat="46.65635" lon="5.59362">
        <ele>308.3</ele>
      </trkpt>
      <trkpt lat="46.65633" lon="5.59366">
        <ele>308.2</ele>
      </trkpt>
      <trkpt lat="46.65631" lon="5.59369">
        <ele>308.2</ele>
      </trkpt>
      <trkpt lat="46.65629" lon="5.59372">
        <ele>308</ele>
      </trkpt>
      <trkpt lat="46.65626" lon="5.59375">
        <ele>307.7</ele>
      </trkpt>
      <trkpt lat="46.65625" lon="5.59378">
        <ele>307.7</ele>
      </trkpt>
      <trkpt lat="46.65622" lon="5.59382">
        <ele>307.6</ele>
      </trkpt>
      <trkpt lat="46.65621" lon="5.59385">
        <ele>307.6</ele>
      </trkpt>
      <trkpt lat="46.65619" lon="5.59389">
        <ele>307.6</ele>
      </trkpt>
      <trkpt lat="46.65617" lon="5.59392">
        <ele>307.2</ele>
      </trkpt>
      <trkpt lat="46.65615" lon="5.59395">
        <ele>307.2</ele>
      </trkpt>
      <trkpt lat="46.65612" lon="5.59397">
        <ele>307</ele>
      </trkpt>
      <trkpt lat="46.65611" lon="5.59401">
        <ele>306.7</ele>
      </trkpt>
      <trkpt lat="46.65607" lon="5.59404">
        <ele>306.7</ele>
      </trkpt>
      <trkpt lat="46.65604" lon="5.59408">
        <ele>306.7</ele>
      </trkpt>
      <trkpt lat="46.65602" lon="5.5941">
        <ele>306.6</ele>
      </trkpt>
      <trkpt lat="46.65601" lon="5.59413">
        <ele>306.6</ele>
      </trkpt>
      <trkpt lat="46.65599" lon="5.59415">
        <ele>306.6</ele>
      </trkpt>
      <trkpt lat="46.65596" lon="5.59418">
        <ele>306.6</ele>
      </trkpt>
      <trkpt lat="46.65595" lon="5.5942">
        <ele>306.6</ele>
      </trkpt>
      <trkpt lat="46.65593" lon="5.59423">
        <ele>306.6</ele>
      </trkpt>
      <trkpt lat="46.65591" lon="5.59425">
        <ele>306.6</ele>
      </trkpt>
      <trkpt lat="46.65591" lon="5.59428">
        <ele>306.3</ele>
      </trkpt>
      <trkpt lat="46.65588" lon="5.5943">
        <ele>306.3</ele>
      </trkpt>
      <trkpt lat="46.65586" lon="5.59433">
        <ele>306.3</ele>
      </trkpt>
      <trkpt lat="46.65585" lon="5.59436">
        <ele>306.3</ele>
      </trkpt>
      <trkpt lat="46.65583" lon="5.5944">
        <ele>306.3</ele>
      </trkpt>
      <trkpt lat="46.65581" lon="5.59443">
        <ele>306.3</ele>
      </trkpt>
      <trkpt lat="46.65579" lon="5.59447">
        <ele>306.3</ele>
      </trkpt>
      <trkpt lat="46.65577" lon="5.5945">
        <ele>306.3</ele>
      </trkpt>
      <trkpt lat="46.65575" lon="5.59453">
        <ele>306.3</ele>
      </trkpt>
      <trkpt lat="46.65572" lon="5.59456">
        <ele>306.6</ele>
      </trkpt>
      <trkpt lat="46.6557" lon="5.59459">
        <ele>306.6</ele>
      </trkpt>
      <trkpt lat="46.65569" lon="5.59462">
        <ele>306.6</ele>
      </trkpt>
      <trkpt lat="46.65567" lon="5.59465">
        <ele>306.6</ele>
      </trkpt>
      <trkpt lat="46.65567" lon="5.59468">
        <ele>306.6</ele>
      </trkpt>
      <trkpt lat="46.65565" lon="5.59472">
        <ele>306.6</ele>
      </trkpt>
      <trkpt lat="46.65562" lon="5.59476">
        <ele>306.6</ele>
      </trkpt>
      <trkpt lat="46.65561" lon="5.59479">
        <ele>306.6</ele>
      </trkpt>
      <trkpt lat="46.65559" lon="5.59481">
        <ele>306.6</ele>
      </trkpt>
      <trkpt lat="46.65558" lon="5.59484">
        <ele>306.6</ele>
      </trkpt>
      <trkpt lat="46.65556" lon="5.59487">
        <ele>306.6</ele>
      </trkpt>
      <trkpt lat="46.65554" lon="5.5949">
        <ele>306.6</ele>
      </trkpt>
      <trkpt lat="46.65551" lon="5.59493">
        <ele>306.6</ele>
      </trkpt>
      <trkpt lat="46.6555" lon="5.59496">
        <ele>306.6</ele>
      </trkpt>
      <trkpt lat="46.65548" lon="5.59498">
        <ele>306.6</ele>
      </trkpt>
      <trkpt lat="46.65546" lon="5.59501">
        <ele>306.6</ele>
      </trkpt>
      <trkpt lat="46.65544" lon="5.59504">
        <ele>306.6</ele>
      </trkpt>
      <trkpt lat="46.65542" lon="5.59507">
        <ele>306.3</ele>
      </trkpt>
      <trkpt lat="46.6554" lon="5.5951">
        <ele>306.3</ele>
      </trkpt>
      <trkpt lat="46.65538" lon="5.59513">
        <ele>306.3</ele>
      </trkpt>
      <trkpt lat="46.65535" lon="5.59517">
        <ele>306.2</ele>
      </trkpt>
      <trkpt lat="46.65533" lon="5.5952">
        <ele>306.2</ele>
      </trkpt>
      <trkpt lat="46.65531" lon="5.59523">
        <ele>306</ele>
      </trkpt>
      <trkpt lat="46.6553" lon="5.59526">
        <ele>306</ele>
      </trkpt>
      <trkpt lat="46.65527" lon="5.59529">
        <ele>306</ele>
      </trkpt>
      <trkpt lat="46.65525" lon="5.59532">
        <ele>305.7</ele>
      </trkpt>
      <trkpt lat="46.65524" lon="5.59535">
        <ele>305.6</ele>
      </trkpt>
      <trkpt lat="46.65522" lon="5.59538">
        <ele>305.6</ele>
      </trkpt>
      <trkpt lat="46.65519" lon="5.5954">
        <ele>305.6</ele>
      </trkpt>
      <trkpt lat="46.65517" lon="5.59543">
        <ele>305.3</ele>
      </trkpt>
      <trkpt lat="46.65515" lon="5.59546">
        <ele>305.3</ele>
      </trkpt>
      <trkpt lat="46.65514" lon="5.59549">
        <ele>305.3</ele>
      </trkpt>
      <trkpt lat="46.65511" lon="5.59552">
        <ele>305.3</ele>
      </trkpt>
      <trkpt lat="46.65509" lon="5.59555">
        <ele>305.3</ele>
      </trkpt>
      <trkpt lat="46.65508" lon="5.59558">
        <ele>305.3</ele>
      </trkpt>
      <trkpt lat="46.65505" lon="5.59561">
        <ele>305.3</ele>
      </trkpt>
      <trkpt lat="46.65503" lon="5.59564">
        <ele>305.3</ele>
      </trkpt>
      <trkpt lat="46.65502" lon="5.59567">
        <ele>305.3</ele>
      </trkpt>
      <trkpt lat="46.655" lon="5.5957">
        <ele>305.3</ele>
      </trkpt>
      <trkpt lat="46.65498" lon="5.59573">
        <ele>305.3</ele>
      </trkpt>
      <trkpt lat="46.65498" lon="5.59576">
        <ele>305.2</ele>
      </trkpt>
      <trkpt lat="46.65496" lon="5.59579">
        <ele>305.2</ele>
      </trkpt>
      <trkpt lat="46.65494" lon="5.59583">
        <ele>305.2</ele>
      </trkpt>
      <trkpt lat="46.65493" lon="5.59587">
        <ele>305.2</ele>
      </trkpt>
      <trkpt lat="46.65491" lon="5.59592">
        <ele>305.2</ele>
      </trkpt>
      <trkpt lat="46.65489" lon="5.59596">
        <ele>305.2</ele>
      </trkpt>
      <trkpt lat="46.65487" lon="5.59599">
        <ele>305.3</ele>
      </trkpt>
      <trkpt lat="46.65484" lon="5.59602">
        <ele>305.3</ele>
      </trkpt>
      <trkpt lat="46.65482" lon="5.59605">
        <ele>305.3</ele>
      </trkpt>
      <trkpt lat="46.6548" lon="5.59607">
        <ele>305.2</ele>
      </trkpt>
      <trkpt lat="46.65478" lon="5.59609">
        <ele>305.2</ele>
      </trkpt>
      <trkpt lat="46.65475" lon="5.59611">
        <ele>305.2</ele>
      </trkpt>
      <trkpt lat="46.65472" lon="5.59612">
        <ele>305</ele>
      </trkpt>
      <trkpt lat="46.6547" lon="5.59614">
        <ele>305</ele>
      </trkpt>
      <trkpt lat="46.65468" lon="5.59616">
        <ele>305</ele>
      </trkpt>
      <trkpt lat="46.65465" lon="5.59618">
        <ele>305</ele>
      </trkpt>
      <trkpt lat="46.65462" lon="5.59619">
        <ele>305</ele>
      </trkpt>
      <trkpt lat="46.65459" lon="5.59621">
        <ele>304.7</ele>
      </trkpt>
      <trkpt lat="46.65458" lon="5.59623">
        <ele>304.7</ele>
      </trkpt>
      <trkpt lat="46.65456" lon="5.59625">
        <ele>304.7</ele>
      </trkpt>
      <trkpt lat="46.65454" lon="5.59628">
        <ele>304.7</ele>
      </trkpt>
      <trkpt lat="46.65452" lon="5.59631">
        <ele>304.7</ele>
      </trkpt>
      <trkpt lat="46.65449" lon="5.59634">
        <ele>304.6</ele>
      </trkpt>
      <trkpt lat="46.65448" lon="5.59636">
        <ele>304.6</ele>
      </trkpt>
      <trkpt lat="46.65446" lon="5.59639">
        <ele>304.6</ele>
      </trkpt>
      <trkpt lat="46.65445" lon="5.5964">
        <ele>304.3</ele>
      </trkpt>
      <trkpt lat="46.65442" lon="5.59643">
        <ele>304.3</ele>
      </trkpt>
      <trkpt lat="46.6544" lon="5.59645">
        <ele>304.3</ele>
      </trkpt>
      <trkpt lat="46.65437" lon="5.59647">
        <ele>304.2</ele>
      </trkpt>
      <trkpt lat="46.65434" lon="5.5965">
        <ele>304.2</ele>
      </trkpt>
      <trkpt lat="46.65433" lon="5.59653">
        <ele>304.2</ele>
      </trkpt>
      <trkpt lat="46.65432" lon="5.59657">
        <ele>304.2</ele>
      </trkpt>
      <trkpt lat="46.65429" lon="5.59661">
        <ele>304.2</ele>
      </trkpt>
      <trkpt lat="46.65429" lon="5.59666">
        <ele>304.2</ele>
      </trkpt>
      <trkpt lat="46.65428" lon="5.59671">
        <ele>304.2</ele>
      </trkpt>
      <trkpt lat="46.65426" lon="5.59675">
        <ele>304.2</ele>
      </trkpt>
      <trkpt lat="46.65424" lon="5.59679">
        <ele>304.2</ele>
      </trkpt>
      <trkpt lat="46.65422" lon="5.59683">
        <ele>304.2</ele>
      </trkpt>
      <trkpt lat="46.65419" lon="5.59687">
        <ele>304.2</ele>
      </trkpt>
      <trkpt lat="46.65418" lon="5.59692">
        <ele>304.2</ele>
      </trkpt>
      <trkpt lat="46.65416" lon="5.59696">
        <ele>304.2</ele>
      </trkpt>
      <trkpt lat="46.65414" lon="5.59699">
        <ele>304.2</ele>
      </trkpt>
      <trkpt lat="46.65413" lon="5.59703">
        <ele>304.2</ele>
      </trkpt>
      <trkpt lat="46.65411" lon="5.59707">
        <ele>304.3</ele>
      </trkpt>
      <trkpt lat="46.65409" lon="5.59712">
        <ele>304.3</ele>
      </trkpt>
      <trkpt lat="46.65406" lon="5.59716">
        <ele>304.3</ele>
      </trkpt>
      <trkpt lat="46.65405" lon="5.5972">
        <ele>304.6</ele>
      </trkpt>
      <trkpt lat="46.65403" lon="5.59723">
        <ele>304.6</ele>
      </trkpt>
      <trkpt lat="46.65402" lon="5.59727">
        <ele>304.6</ele>
      </trkpt>
      <trkpt lat="46.65401" lon="5.59732">
        <ele>304.7</ele>
      </trkpt>
      <trkpt lat="46.654" lon="5.59736">
        <ele>304.7</ele>
      </trkpt>
      <trkpt lat="46.654" lon="5.5974">
        <ele>305</ele>
      </trkpt>
      <trkpt lat="46.654" lon="5.59745">
        <ele>305.2</ele>
      </trkpt>
      <trkpt lat="46.65402" lon="5.5975">
        <ele>305.2</ele>
      </trkpt>
      <trkpt lat="46.65403" lon="5.59753">
        <ele>305.2</ele>
      </trkpt>
      <trkpt lat="46.65404" lon="5.59757">
        <ele>305.3</ele>
      </trkpt>
      <trkpt lat="46.65406" lon="5.59761">
        <ele>305.3</ele>
      </trkpt>
      <trkpt lat="46.65408" lon="5.59765">
        <ele>305.3</ele>
      </trkpt>
      <trkpt lat="46.6541" lon="5.59769">
        <ele>305.3</ele>
      </trkpt>
      <trkpt lat="46.65411" lon="5.59772">
        <ele>305.3</ele>
      </trkpt>
      <trkpt lat="46.65412" lon="5.59775">
        <ele>305.3</ele>
      </trkpt>
      <trkpt lat="46.65414" lon="5.59779">
        <ele>305.3</ele>
      </trkpt>
      <trkpt lat="46.65414" lon="5.59783">
        <ele>305.3</ele>
      </trkpt>
      <trkpt lat="46.65416" lon="5.59787">
        <ele>305.3</ele>
      </trkpt>
      <trkpt lat="46.65416" lon="5.59791">
        <ele>305.3</ele>
      </trkpt>
      <trkpt lat="46.65416" lon="5.59795">
        <ele>305.3</ele>
      </trkpt>
      <trkpt lat="46.65414" lon="5.59798">
        <ele>305.3</ele>
      </trkpt>
      <trkpt lat="46.65413" lon="5.59801">
        <ele>305.3</ele>
      </trkpt>
      <trkpt lat="46.65411" lon="5.59804">
        <ele>305.3</ele>
      </trkpt>
      <trkpt lat="46.65409" lon="5.59806">
        <ele>305.3</ele>
      </trkpt>
      <trkpt lat="46.65406" lon="5.59809">
        <ele>305.3</ele>
      </trkpt>
      <trkpt lat="46.65405" lon="5.59812">
        <ele>305.2</ele>
      </trkpt>
      <trkpt lat="46.65403" lon="5.59815">
        <ele>305.2</ele>
      </trkpt>
      <trkpt lat="46.65401" lon="5.59819">
        <ele>305.2</ele>
      </trkpt>
      <trkpt lat="46.65398" lon="5.59821">
        <ele>305.2</ele>
      </trkpt>
      <trkpt lat="46.65396" lon="5.59824">
        <ele>305.2</ele>
      </trkpt>
      <trkpt lat="46.65393" lon="5.59827">
        <ele>305.2</ele>
      </trkpt>
      <trkpt lat="46.65391" lon="5.5983">
        <ele>305.2</ele>
      </trkpt>
      <trkpt lat="46.65389" lon="5.59832">
        <ele>305.2</ele>
      </trkpt>
      <trkpt lat="46.65387" lon="5.59834">
        <ele>305.2</ele>
      </trkpt>
      <trkpt lat="46.65385" lon="5.59836">
        <ele>305.2</ele>
      </trkpt>
      <trkpt lat="46.65382" lon="5.59838">
        <ele>305.2</ele>
      </trkpt>
      <trkpt lat="46.65381" lon="5.5984">
        <ele>305.3</ele>
      </trkpt>
      <trkpt lat="46.65379" lon="5.59841">
        <ele>305.3</ele>
      </trkpt>
      <trkpt lat="46.65377" lon="5.59842">
        <ele>305.3</ele>
      </trkpt>
      <trkpt lat="46.65374" lon="5.59844">
        <ele>305.3</ele>
      </trkpt>
      <trkpt lat="46.65373" lon="5.59844">
        <ele>305.6</ele>
      </trkpt>
      <trkpt lat="46.6537" lon="5.59845">
        <ele>305.6</ele>
      </trkpt>
      <trkpt lat="46.65368" lon="5.59846">
        <ele>305.6</ele>
      </trkpt>
      <trkpt lat="46.65366" lon="5.59848">
        <ele>305.7</ele>
      </trkpt>
      <trkpt lat="46.65364" lon="5.5985">
        <ele>305.7</ele>
      </trkpt>
      <trkpt lat="46.65361" lon="5.59852">
        <ele>306</ele>
      </trkpt>
      <trkpt lat="46.65358" lon="5.59853">
        <ele>306</ele>
      </trkpt>
      <trkpt lat="46.65355" lon="5.59854">
        <ele>306</ele>
      </trkpt>
      <trkpt lat="46.65352" lon="5.59855">
        <ele>306</ele>
      </trkpt>
      <trkpt lat="46.65348" lon="5.59857">
        <ele>306.2</ele>
      </trkpt>
      <trkpt lat="46.65346" lon="5.59859">
        <ele>306.2</ele>
      </trkpt>
      <trkpt lat="46.65345" lon="5.59862">
        <ele>306.2</ele>
      </trkpt>
      <trkpt lat="46.65343" lon="5.59864">
        <ele>306.2</ele>
      </trkpt>
      <trkpt lat="46.65341" lon="5.59867">
        <ele>306.2</ele>
      </trkpt>
      <trkpt lat="46.65339" lon="5.59869">
        <ele>306.2</ele>
      </trkpt>
      <trkpt lat="46.65337" lon="5.59872">
        <ele>306.2</ele>
      </trkpt>
      <trkpt lat="46.65334" lon="5.59874">
        <ele>306.2</ele>
      </trkpt>
      <trkpt lat="46.65332" lon="5.59876">
        <ele>306.2</ele>
      </trkpt>
      <trkpt lat="46.65329" lon="5.59877">
        <ele>306.2</ele>
      </trkpt>
      <trkpt lat="46.65326" lon="5.5988">
        <ele>306.2</ele>
      </trkpt>
      <trkpt lat="46.65324" lon="5.59883">
        <ele>306.2</ele>
      </trkpt>
      <trkpt lat="46.65321" lon="5.59885">
        <ele>306.2</ele>
      </trkpt>
      <trkpt lat="46.65319" lon="5.59888">
        <ele>306.3</ele>
      </trkpt>
      <trkpt lat="46.65316" lon="5.5989">
        <ele>306.3</ele>
      </trkpt>
      <trkpt lat="46.65313" lon="5.59891">
        <ele>306.3</ele>
      </trkpt>
      <trkpt lat="46.65311" lon="5.59892">
        <ele>306.3</ele>
      </trkpt>
      <trkpt lat="46.65309" lon="5.59894">
        <ele>306.6</ele>
      </trkpt>
      <trkpt lat="46.65307" lon="5.59897">
        <ele>306.6</ele>
      </trkpt>
      <trkpt lat="46.65305" lon="5.59899">
        <ele>306.7</ele>
      </trkpt>
      <trkpt lat="46.65302" lon="5.59902">
        <ele>306.7</ele>
      </trkpt>
      <trkpt lat="46.653" lon="5.59904">
        <ele>306.7</ele>
      </trkpt>
      <trkpt lat="46.65296" lon="5.59906">
        <ele>306.7</ele>
      </trkpt>
      <trkpt lat="46.65293" lon="5.59909">
        <ele>306.7</ele>
      </trkpt>
      <trkpt lat="46.65291" lon="5.59911">
        <ele>307</ele>
      </trkpt>
      <trkpt lat="46.65291" lon="5.59914">
        <ele>307</ele>
      </trkpt>
      <trkpt lat="46.65292" lon="5.59917">
        <ele>307.2</ele>
      </trkpt>
      <trkpt lat="46.65292" lon="5.5992">
        <ele>307.2</ele>
      </trkpt>
      <trkpt lat="46.65289" lon="5.59923">
        <ele>307.3</ele>
      </trkpt>
      <trkpt lat="46.65286" lon="5.59925">
        <ele>307.3</ele>
      </trkpt>
      <trkpt lat="46.65284" lon="5.59927">
        <ele>307.3</ele>
      </trkpt>
      <trkpt lat="46.65281" lon="5.59929">
        <ele>307.3</ele>
      </trkpt>
      <trkpt lat="46.65278" lon="5.5993">
        <ele>307.3</ele>
      </trkpt>
      <trkpt lat="46.65274" lon="5.59933">
        <ele>307.3</ele>
      </trkpt>
      <trkpt lat="46.65272" lon="5.59936">
        <ele>307.3</ele>
      </trkpt>
      <trkpt lat="46.6527" lon="5.59939">
        <ele>307.3</ele>
      </trkpt>
      <trkpt lat="46.65268" lon="5.59943">
        <ele>307.3</ele>
      </trkpt>
      <trkpt lat="46.65265" lon="5.59947">
        <ele>307.3</ele>
      </trkpt>
      <trkpt lat="46.65263" lon="5.59951">
        <ele>307.3</ele>
      </trkpt>
      <trkpt lat="46.65263" lon="5.59954">
        <ele>307.3</ele>
      </trkpt>
      <trkpt lat="46.65262" lon="5.59958">
        <ele>307.3</ele>
      </trkpt>
      <trkpt lat="46.6526" lon="5.59961">
        <ele>307.3</ele>
      </trkpt>
      <trkpt lat="46.6526" lon="5.59964">
        <ele>307.3</ele>
      </trkpt>
      <trkpt lat="46.65258" lon="5.59967">
        <ele>307.3</ele>
      </trkpt>
      <trkpt lat="46.65258" lon="5.59971">
        <ele>307.3</ele>
      </trkpt>
      <trkpt lat="46.65257" lon="5.59974">
        <ele>307.3</ele>
      </trkpt>
      <trkpt lat="46.65255" lon="5.59977">
        <ele>307.3</ele>
      </trkpt>
      <trkpt lat="46.65254" lon="5.5998">
        <ele>307.3</ele>
      </trkpt>
      <trkpt lat="46.65254" lon="5.59984">
        <ele>307.3</ele>
      </trkpt>
      <trkpt lat="46.65254" lon="5.59988">
        <ele>307.3</ele>
      </trkpt>
      <trkpt lat="46.65254" lon="5.59993">
        <ele>307.3</ele>
      </trkpt>
      <trkpt lat="46.65255" lon="5.59998">
        <ele>307.3</ele>
      </trkpt>
      <trkpt lat="46.65255" lon="5.60003">
        <ele>307.3</ele>
      </trkpt>
      <trkpt lat="46.65257" lon="5.60007">
        <ele>307.3</ele>
      </trkpt>
      <trkpt lat="46.65259" lon="5.60011">
        <ele>307.3</ele>
      </trkpt>
      <trkpt lat="46.65261" lon="5.60014">
        <ele>307.3</ele>
      </trkpt>
      <trkpt lat="46.65263" lon="5.60016">
        <ele>307.2</ele>
      </trkpt>
      <trkpt lat="46.65267" lon="5.60017">
        <ele>307.2</ele>
      </trkpt>
      <trkpt lat="46.6527" lon="5.60017">
        <ele>307.2</ele>
      </trkpt>
      <trkpt lat="46.65272" lon="5.60017">
        <ele>307.2</ele>
      </trkpt>
      <trkpt lat="46.65275" lon="5.60016">
        <ele>307.3</ele>
      </trkpt>
      <trkpt lat="46.65277" lon="5.60014">
        <ele>307.3</ele>
      </trkpt>
      <trkpt lat="46.6528" lon="5.60014">
        <ele>307.3</ele>
      </trkpt>
      <trkpt lat="46.65282" lon="5.60012">
        <ele>307.3</ele>
      </trkpt>
      <trkpt lat="46.65284" lon="5.60011">
        <ele>307.6</ele>
      </trkpt>
      <trkpt lat="46.65287" lon="5.6001">
        <ele>307.6</ele>
      </trkpt>
      <trkpt lat="46.65289" lon="5.60009">
        <ele>307.7</ele>
      </trkpt>
      <trkpt lat="46.65291" lon="5.60008">
        <ele>307.7</ele>
      </trkpt>
      <trkpt lat="46.65294" lon="5.60007">
        <ele>308</ele>
      </trkpt>
      <trkpt lat="46.65296" lon="5.60007">
        <ele>308.2</ele>
      </trkpt>
      <trkpt lat="46.653" lon="5.60007">
        <ele>308.2</ele>
      </trkpt>
      <trkpt lat="46.65301" lon="5.60007">
        <ele>308.2</ele>
      </trkpt>
      <trkpt lat="46.65302" lon="5.60009">
        <ele>308.3</ele>
      </trkpt>
      <trkpt lat="46.65303" lon="5.60012">
        <ele>308.3</ele>
      </trkpt>
      <trkpt lat="46.65305" lon="5.60016">
        <ele>308.6</ele>
      </trkpt>
      <trkpt lat="46.65305" lon="5.6002">
        <ele>308.6</ele>
      </trkpt>
      <trkpt lat="46.65305" lon="5.60023">
        <ele>308.6</ele>
      </trkpt>
      <trkpt lat="46.65306" lon="5.60026">
        <ele>308.6</ele>
      </trkpt>
      <trkpt lat="46.65309" lon="5.6003">
        <ele>308.6</ele>
      </trkpt>
      <trkpt lat="46.6531" lon="5.60033">
        <ele>308.6</ele>
      </trkpt>
      <trkpt lat="46.65311" lon="5.60036">
        <ele>308.6</ele>
      </trkpt>
      <trkpt lat="46.65312" lon="5.6004">
        <ele>308.6</ele>
      </trkpt>
      <trkpt lat="46.65313" lon="5.60044">
        <ele>308.6</ele>
      </trkpt>
      <trkpt lat="46.65315" lon="5.60047">
        <ele>308.7</ele>
      </trkpt>
      <trkpt lat="46.65317" lon="5.6005">
        <ele>308.7</ele>
      </trkpt>
      <trkpt lat="46.65321" lon="5.60053">
        <ele>308.7</ele>
      </trkpt>
      <trkpt lat="46.65322" lon="5.60056">
        <ele>309</ele>
      </trkpt>
      <trkpt lat="46.65324" lon="5.60059">
        <ele>309</ele>
      </trkpt>
      <trkpt lat="46.65326" lon="5.60063">
        <ele>309.2</ele>
      </trkpt>
      <trkpt lat="46.65328" lon="5.60066">
        <ele>309.2</ele>
      </trkpt>
      <trkpt lat="46.6533" lon="5.6007">
        <ele>309.3</ele>
      </trkpt>
      <trkpt lat="46.65332" lon="5.60074">
        <ele>309.6</ele>
      </trkpt>
      <trkpt lat="46.65333" lon="5.60078">
        <ele>309.6</ele>
      </trkpt>
      <trkpt lat="46.65334" lon="5.60081">
        <ele>309.7</ele>
      </trkpt>
      <trkpt lat="46.65336" lon="5.60086">
        <ele>309.7</ele>
      </trkpt>
      <trkpt lat="46.65337" lon="5.60089">
        <ele>310</ele>
      </trkpt>
      <trkpt lat="46.65338" lon="5.60093">
        <ele>310.2</ele>
      </trkpt>
      <trkpt lat="46.6534" lon="5.60096">
        <ele>310.3</ele>
      </trkpt>
      <trkpt lat="46.65342" lon="5.601">
        <ele>310.3</ele>
      </trkpt>
      <trkpt lat="46.65345" lon="5.60103">
        <ele>310.6</ele>
      </trkpt>
      <trkpt lat="46.65346" lon="5.60107">
        <ele>310.7</ele>
      </trkpt>
      <trkpt lat="46.65348" lon="5.6011">
        <ele>310.7</ele>
      </trkpt>
      <trkpt lat="46.6535" lon="5.60114">
        <ele>311</ele>
      </trkpt>
      <trkpt lat="46.65352" lon="5.60117">
        <ele>311</ele>
      </trkpt>
      <trkpt lat="46.65353" lon="5.60121">
        <ele>311.2</ele>
      </trkpt>
      <trkpt lat="46.65355" lon="5.60126">
        <ele>311.2</ele>
      </trkpt>
      <trkpt lat="46.65355" lon="5.6013">
        <ele>311.3</ele>
      </trkpt>
      <trkpt lat="46.65356" lon="5.60133">
        <ele>311.6</ele>
      </trkpt>
      <trkpt lat="46.65357" lon="5.60136">
        <ele>311.7</ele>
      </trkpt>
      <trkpt lat="46.65359" lon="5.60141">
        <ele>311.7</ele>
      </trkpt>
      <trkpt lat="46.65361" lon="5.60144">
        <ele>312</ele>
      </trkpt>
      <trkpt lat="46.65361" lon="5.60147">
        <ele>312</ele>
      </trkpt>
      <trkpt lat="46.65361" lon="5.60151">
        <ele>312.2</ele>
      </trkpt>
      <trkpt lat="46.65363" lon="5.60154">
        <ele>312.2</ele>
      </trkpt>
      <trkpt lat="46.65364" lon="5.60158">
        <ele>312.3</ele>
      </trkpt>
      <trkpt lat="46.65365" lon="5.60161">
        <ele>312.6</ele>
      </trkpt>
      <trkpt lat="46.65366" lon="5.60164">
        <ele>312.7</ele>
      </trkpt>
      <trkpt lat="46.65368" lon="5.60167">
        <ele>312.7</ele>
      </trkpt>
      <trkpt lat="46.6537" lon="5.60171">
        <ele>313</ele>
      </trkpt>
      <trkpt lat="46.65371" lon="5.60175">
        <ele>313</ele>
      </trkpt>
      <trkpt lat="46.65373" lon="5.60178">
        <ele>313.2</ele>
      </trkpt>
      <trkpt lat="46.65375" lon="5.60181">
        <ele>313.3</ele>
      </trkpt>
      <trkpt lat="46.65377" lon="5.60185">
        <ele>313.3</ele>
      </trkpt>
      <trkpt lat="46.65377" lon="5.60188">
        <ele>313.6</ele>
      </trkpt>
      <trkpt lat="46.65378" lon="5.60192">
        <ele>313.7</ele>
      </trkpt>
      <trkpt lat="46.65379" lon="5.60195">
        <ele>314</ele>
      </trkpt>
      <trkpt lat="46.65382" lon="5.60199">
        <ele>314</ele>
      </trkpt>
      <trkpt lat="46.65384" lon="5.60202">
        <ele>314.2</ele>
      </trkpt>
      <trkpt lat="46.65386" lon="5.60205">
        <ele>314.3</ele>
      </trkpt>
      <trkpt lat="46.65387" lon="5.60208">
        <ele>314.6</ele>
      </trkpt>
      <trkpt lat="46.6539" lon="5.60211">
        <ele>314.6</ele>
      </trkpt>
      <trkpt lat="46.65392" lon="5.60215">
        <ele>314.6</ele>
      </trkpt>
      <trkpt lat="46.65393" lon="5.60218">
        <ele>314.7</ele>
      </trkpt>
      <trkpt lat="46.65395" lon="5.60222">
        <ele>314.7</ele>
      </trkpt>
      <trkpt lat="46.654" lon="5.60226">
        <ele>315</ele>
      </trkpt>
      <trkpt lat="46.65402" lon="5.60228">
        <ele>315.2</ele>
      </trkpt>
      <trkpt lat="46.65406" lon="5.60231">
        <ele>315.3</ele>
      </trkpt>
      <trkpt lat="46.65408" lon="5.60233">
        <ele>315.6</ele>
      </trkpt>
      <trkpt lat="46.6541" lon="5.60235">
        <ele>315.7</ele>
      </trkpt>
      <trkpt lat="46.65412" lon="5.60238">
        <ele>316</ele>
      </trkpt>
      <trkpt lat="46.65414" lon="5.6024">
        <ele>316</ele>
      </trkpt>
      <trkpt lat="46.65416" lon="5.60242">
        <ele>316.2</ele>
      </trkpt>
      <trkpt lat="46.65419" lon="5.60244">
        <ele>316.3</ele>
      </trkpt>
      <trkpt lat="46.65421" lon="5.60246">
        <ele>316.3</ele>
      </trkpt>
      <trkpt lat="46.65423" lon="5.60248">
        <ele>316.6</ele>
      </trkpt>
      <trkpt lat="46.65425" lon="5.60249">
        <ele>316.7</ele>
      </trkpt>
      <trkpt lat="46.65427" lon="5.60251">
        <ele>316.7</ele>
      </trkpt>
      <trkpt lat="46.65429" lon="5.60252">
        <ele>317</ele>
      </trkpt>
      <trkpt lat="46.6543" lon="5.60254">
        <ele>317.2</ele>
      </trkpt>
      <trkpt lat="46.65432" lon="5.60255">
        <ele>317.2</ele>
      </trkpt>
      <trkpt lat="46.65434" lon="5.60256">
        <ele>317.3</ele>
      </trkpt>
      <trkpt lat="46.65438" lon="5.60258">
        <ele>317.6</ele>
      </trkpt>
      <trkpt lat="46.65442" lon="5.60261">
        <ele>317.6</ele>
      </trkpt>
      <trkpt lat="46.65443" lon="5.60263">
        <ele>317.7</ele>
      </trkpt>
      <trkpt lat="46.65447" lon="5.60265">
        <ele>318</ele>
      </trkpt>
      <trkpt lat="46.65448" lon="5.60266">
        <ele>318</ele>
      </trkpt>
      <trkpt lat="46.65451" lon="5.60268">
        <ele>318.2</ele>
      </trkpt>
      <trkpt lat="46.65453" lon="5.6027">
        <ele>318.2</ele>
      </trkpt>
      <trkpt lat="46.65454" lon="5.60272">
        <ele>318.3</ele>
      </trkpt>
      <trkpt lat="46.65456" lon="5.60274">
        <ele>318.6</ele>
      </trkpt>
      <trkpt lat="46.65458" lon="5.60276">
        <ele>318.7</ele>
      </trkpt>
      <trkpt lat="46.65459" lon="5.60279">
        <ele>319</ele>
      </trkpt>
      <trkpt lat="46.65463" lon="5.60283">
        <ele>319</ele>
      </trkpt>
      <trkpt lat="46.65465" lon="5.60286">
        <ele>319.2</ele>
      </trkpt>
      <trkpt lat="46.65467" lon="5.60289">
        <ele>319.3</ele>
      </trkpt>
      <trkpt lat="46.65469" lon="5.60293">
        <ele>319.6</ele>
      </trkpt>
      <trkpt lat="46.65471" lon="5.60296">
        <ele>319.7</ele>
      </trkpt>
      <trkpt lat="46.65474" lon="5.60301">
        <ele>320</ele>
      </trkpt>
      <trkpt lat="46.65474" lon="5.60303">
        <ele>320.2</ele>
      </trkpt>
      <trkpt lat="46.65476" lon="5.60307">
        <ele>320.2</ele>
      </trkpt>
      <trkpt lat="46.65477" lon="5.60311">
        <ele>320.3</ele>
      </trkpt>
      <trkpt lat="46.65479" lon="5.60314">
        <ele>320.3</ele>
      </trkpt>
      <trkpt lat="46.6548" lon="5.60319">
        <ele>320.3</ele>
      </trkpt>
      <trkpt lat="46.65482" lon="5.60323">
        <ele>320.6</ele>
      </trkpt>
      <trkpt lat="46.65484" lon="5.60327">
        <ele>320.6</ele>
      </trkpt>
      <trkpt lat="46.65485" lon="5.60331">
        <ele>320.6</ele>
      </trkpt>
      <trkpt lat="46.65486" lon="5.60334">
        <ele>320.7</ele>
      </trkpt>
      <trkpt lat="46.65488" lon="5.60339">
        <ele>320.7</ele>
      </trkpt>
      <trkpt lat="46.6549" lon="5.60343">
        <ele>321</ele>
      </trkpt>
      <trkpt lat="46.65492" lon="5.60347">
        <ele>321</ele>
      </trkpt>
      <trkpt lat="46.65493" lon="5.60351">
        <ele>321</ele>
      </trkpt>
      <trkpt lat="46.65494" lon="5.60355">
        <ele>321.2</ele>
      </trkpt>
      <trkpt lat="46.65495" lon="5.60358">
        <ele>321.2</ele>
      </trkpt>
      <trkpt lat="46.65496" lon="5.60361">
        <ele>321.3</ele>
      </trkpt>
      <trkpt lat="46.65498" lon="5.60364">
        <ele>321.3</ele>
      </trkpt>
      <trkpt lat="46.65499" lon="5.60368">
        <ele>321.6</ele>
      </trkpt>
      <trkpt lat="46.65501" lon="5.60372">
        <ele>321.6</ele>
      </trkpt>
      <trkpt lat="46.65502" lon="5.60376">
        <ele>321.7</ele>
      </trkpt>
      <trkpt lat="46.65503" lon="5.6038">
        <ele>322</ele>
      </trkpt>
      <trkpt lat="46.65505" lon="5.60383">
        <ele>322</ele>
      </trkpt>
      <trkpt lat="46.65508" lon="5.60387">
        <ele>322.2</ele>
      </trkpt>
      <trkpt lat="46.65509" lon="5.6039">
        <ele>322.2</ele>
      </trkpt>
      <trkpt lat="46.6551" lon="5.60394">
        <ele>322.2</ele>
      </trkpt>
      <trkpt lat="46.65511" lon="5.60397">
        <ele>322.2</ele>
      </trkpt>
      <trkpt lat="46.65511" lon="5.604">
        <ele>322.3</ele>
      </trkpt>
      <trkpt lat="46.65513" lon="5.60403">
        <ele>322.3</ele>
      </trkpt>
      <trkpt lat="46.65514" lon="5.60406">
        <ele>322.3</ele>
      </trkpt>
      <trkpt lat="46.65516" lon="5.60409">
        <ele>322.3</ele>
      </trkpt>
      <trkpt lat="46.65519" lon="5.60412">
        <ele>322.6</ele>
      </trkpt>
      <trkpt lat="46.6552" lon="5.60416">
        <ele>322.6</ele>
      </trkpt>
      <trkpt lat="46.65522" lon="5.60419">
        <ele>322.6</ele>
      </trkpt>
      <trkpt lat="46.65523" lon="5.60423">
        <ele>322.7</ele>
      </trkpt>
      <trkpt lat="46.65524" lon="5.60427">
        <ele>322.7</ele>
      </trkpt>
      <trkpt lat="46.65525" lon="5.6043">
        <ele>322.7</ele>
      </trkpt>
      <trkpt lat="46.65527" lon="5.60433">
        <ele>323</ele>
      </trkpt>
      <trkpt lat="46.65529" lon="5.60437">
        <ele>323</ele>
      </trkpt>
      <trkpt lat="46.6553" lon="5.60441">
        <ele>323</ele>
      </trkpt>
      <trkpt lat="46.65531" lon="5.60444">
        <ele>323</ele>
      </trkpt>
      <trkpt lat="46.65533" lon="5.60447">
        <ele>323.2</ele>
      </trkpt>
      <trkpt lat="46.65533" lon="5.60451">
        <ele>323.2</ele>
      </trkpt>
      <trkpt lat="46.65535" lon="5.60455">
        <ele>323.2</ele>
      </trkpt>
      <trkpt lat="46.65537" lon="5.6046">
        <ele>323.2</ele>
      </trkpt>
      <trkpt lat="46.65537" lon="5.60462">
        <ele>323.2</ele>
      </trkpt>
      <trkpt lat="46.65539" lon="5.60466">
        <ele>323.2</ele>
      </trkpt>
      <trkpt lat="46.6554" lon="5.6047">
        <ele>323.2</ele>
      </trkpt>
      <trkpt lat="46.65542" lon="5.60474">
        <ele>323.2</ele>
      </trkpt>
      <trkpt lat="46.65544" lon="5.60478">
        <ele>323.2</ele>
      </trkpt>
      <trkpt lat="46.65545" lon="5.60481">
        <ele>323.2</ele>
      </trkpt>
      <trkpt lat="46.65546" lon="5.60484">
        <ele>323.2</ele>
      </trkpt>
      <trkpt lat="46.65548" lon="5.60488">
        <ele>323.2</ele>
      </trkpt>
      <trkpt lat="46.6555" lon="5.60491">
        <ele>323.2</ele>
      </trkpt>
      <trkpt lat="46.65551" lon="5.60493">
        <ele>323.2</ele>
      </trkpt>
      <trkpt lat="46.65554" lon="5.60495">
        <ele>323.2</ele>
      </trkpt>
      <trkpt lat="46.65555" lon="5.60499">
        <ele>323</ele>
      </trkpt>
      <trkpt lat="46.65558" lon="5.60501">
        <ele>323</ele>
      </trkpt>
      <trkpt lat="46.65559" lon="5.60504">
        <ele>323</ele>
      </trkpt>
      <trkpt lat="46.65561" lon="5.60507">
        <ele>323</ele>
      </trkpt>
      <trkpt lat="46.65563" lon="5.6051">
        <ele>323</ele>
      </trkpt>
      <trkpt lat="46.65565" lon="5.60513">
        <ele>323</ele>
      </trkpt>
      <trkpt lat="46.65569" lon="5.60513">
        <ele>323</ele>
      </trkpt>
      <trkpt lat="46.6557" lon="5.60514">
        <ele>323</ele>
      </trkpt>
      <trkpt lat="46.65574" lon="5.60517">
        <ele>323</ele>
      </trkpt>
      <trkpt lat="46.65574" lon="5.60519">
        <ele>323</ele>
      </trkpt>
      <trkpt lat="46.65577" lon="5.60522">
        <ele>323</ele>
      </trkpt>
      <trkpt lat="46.65577" lon="5.60524">
        <ele>323.2</ele>
      </trkpt>
      <trkpt lat="46.65578" lon="5.60527">
        <ele>323.2</ele>
      </trkpt>
      <trkpt lat="46.65579" lon="5.6053">
        <ele>323.2</ele>
      </trkpt>
      <trkpt lat="46.6558" lon="5.60533">
        <ele>323.2</ele>
      </trkpt>
      <trkpt lat="46.6558" lon="5.60536">
        <ele>323.3</ele>
      </trkpt>
      <trkpt lat="46.65581" lon="5.60539">
        <ele>323.3</ele>
      </trkpt>
      <trkpt lat="46.65581" lon="5.60543">
        <ele>323.6</ele>
      </trkpt>
      <trkpt lat="46.65581" lon="5.60545">
        <ele>323.6</ele>
      </trkpt>
      <trkpt lat="46.65581" lon="5.60549">
        <ele>323.7</ele>
      </trkpt>
      <trkpt lat="46.65583" lon="5.60553">
        <ele>323.7</ele>
      </trkpt>
      <trkpt lat="46.65583" lon="5.60556">
        <ele>324</ele>
      </trkpt>
      <trkpt lat="46.65585" lon="5.60558">
        <ele>324</ele>
      </trkpt>
      <trkpt lat="46.65588" lon="5.6056">
        <ele>324.2</ele>
      </trkpt>
      <trkpt lat="46.65589" lon="5.60562">
        <ele>324.3</ele>
      </trkpt>
      <trkpt lat="46.65591" lon="5.60565">
        <ele>324.3</ele>
      </trkpt>
      <trkpt lat="46.65595" lon="5.60566">
        <ele>324.6</ele>
      </trkpt>
      <trkpt lat="46.65596" lon="5.60568">
        <ele>324.6</ele>
      </trkpt>
      <trkpt lat="46.65599" lon="5.60571">
        <ele>324.7</ele>
      </trkpt>
      <trkpt lat="46.656" lon="5.60574">
        <ele>324.7</ele>
      </trkpt>
      <trkpt lat="46.65602" lon="5.60577">
        <ele>325</ele>
      </trkpt>
      <trkpt lat="46.65604" lon="5.60581">
        <ele>325</ele>
      </trkpt>
      <trkpt lat="46.65604" lon="5.60587">
        <ele>325.2</ele>
      </trkpt>
      <trkpt lat="46.65604" lon="5.6059">
        <ele>325.3</ele>
      </trkpt>
      <trkpt lat="46.65604" lon="5.60594">
        <ele>325.6</ele>
      </trkpt>
      <trkpt lat="46.65605" lon="5.60598">
        <ele>325.6</ele>
      </trkpt>
      <trkpt lat="46.65606" lon="5.60601">
        <ele>325.7</ele>
      </trkpt>
      <trkpt lat="46.65607" lon="5.60604">
        <ele>325.7</ele>
      </trkpt>
      <trkpt lat="46.65607" lon="5.60607">
        <ele>326</ele>
      </trkpt>
      <trkpt lat="46.65607" lon="5.60611">
        <ele>326</ele>
      </trkpt>
      <trkpt lat="46.65608" lon="5.60614">
        <ele>326.2</ele>
      </trkpt>
      <trkpt lat="46.65609" lon="5.60617">
        <ele>326.3</ele>
      </trkpt>
      <trkpt lat="46.65609" lon="5.6062">
        <ele>326.6</ele>
      </trkpt>
      <trkpt lat="46.65611" lon="5.60624">
        <ele>326.6</ele>
      </trkpt>
      <trkpt lat="46.65611" lon="5.60628">
        <ele>326.7</ele>
      </trkpt>
      <trkpt lat="46.65612" lon="5.60632">
        <ele>327</ele>
      </trkpt>
      <trkpt lat="46.65612" lon="5.60635">
        <ele>327.2</ele>
      </trkpt>
      <trkpt lat="46.65612" lon="5.6064">
        <ele>327.3</ele>
      </trkpt>
      <trkpt lat="46.65612" lon="5.60644">
        <ele>327.6</ele>
      </trkpt>
      <trkpt lat="46.65612" lon="5.60648">
        <ele>327.7</ele>
      </trkpt>
      <trkpt lat="46.65612" lon="5.60651">
        <ele>327.7</ele>
      </trkpt>
      <trkpt lat="46.65612" lon="5.60654">
        <ele>328</ele>
      </trkpt>
      <trkpt lat="46.65611" lon="5.60658">
        <ele>328.6</ele>
      </trkpt>
      <trkpt lat="46.65611" lon="5.60664">
        <ele>329</ele>
      </trkpt>
      <trkpt lat="46.65611" lon="5.60668">
        <ele>329.6</ele>
      </trkpt>
      <trkpt lat="46.65611" lon="5.60672">
        <ele>330.2</ele>
      </trkpt>
      <trkpt lat="46.65609" lon="5.60675">
        <ele>330.3</ele>
      </trkpt>
      <trkpt lat="46.65609" lon="5.60679">
        <ele>330.7</ele>
      </trkpt>
      <trkpt lat="46.65609" lon="5.60683">
        <ele>331.2</ele>
      </trkpt>
      <trkpt lat="46.65609" lon="5.60686">
        <ele>331.3</ele>
      </trkpt>
      <trkpt lat="46.65609" lon="5.6069">
        <ele>331.6</ele>
      </trkpt>
      <trkpt lat="46.65608" lon="5.60695">
        <ele>331.7</ele>
      </trkpt>
      <trkpt lat="46.65608" lon="5.60699">
        <ele>332</ele>
      </trkpt>
      <trkpt lat="46.65608" lon="5.60703">
        <ele>332.2</ele>
      </trkpt>
      <trkpt lat="46.65606" lon="5.60707">
        <ele>332.3</ele>
      </trkpt>
      <trkpt lat="46.65605" lon="5.60708">
        <ele>332.6</ele>
      </trkpt>
      <trkpt lat="46.65603" lon="5.60712">
        <ele>332.7</ele>
      </trkpt>
      <trkpt lat="46.65603" lon="5.60717">
        <ele>333</ele>
      </trkpt>
      <trkpt lat="46.65602" lon="5.60722">
        <ele>333.2</ele>
      </trkpt>
      <trkpt lat="46.65601" lon="5.60727">
        <ele>333.6</ele>
      </trkpt>
      <trkpt lat="46.65601" lon="5.6073">
        <ele>333.6</ele>
      </trkpt>
      <trkpt lat="46.656" lon="5.60734">
        <ele>334</ele>
      </trkpt>
      <trkpt lat="46.656" lon="5.60738">
        <ele>334.3</ele>
      </trkpt>
      <trkpt lat="46.656" lon="5.60743">
        <ele>334.6</ele>
      </trkpt>
      <trkpt lat="46.65601" lon="5.60746">
        <ele>334.7</ele>
      </trkpt>
      <trkpt lat="46.65602" lon="5.60751">
        <ele>335</ele>
      </trkpt>
      <trkpt lat="46.65601" lon="5.60756">
        <ele>335.3</ele>
      </trkpt>
      <trkpt lat="46.65599" lon="5.60759">
        <ele>335.7</ele>
      </trkpt>
      <trkpt lat="46.65598" lon="5.60762">
        <ele>336</ele>
      </trkpt>
      <trkpt lat="46.65596" lon="5.60765">
        <ele>336.3</ele>
      </trkpt>
      <trkpt lat="46.65595" lon="5.60768">
        <ele>336.6</ele>
      </trkpt>
      <trkpt lat="46.65593" lon="5.60772">
        <ele>336.7</ele>
      </trkpt>
      <trkpt lat="46.65593" lon="5.60775">
        <ele>337.2</ele>
      </trkpt>
      <trkpt lat="46.65591" lon="5.60778">
        <ele>337.6</ele>
      </trkpt>
      <trkpt lat="46.65591" lon="5.60781">
        <ele>338</ele>
      </trkpt>
      <trkpt lat="46.65591" lon="5.60784">
        <ele>338.3</ele>
      </trkpt>
      <trkpt lat="46.6559" lon="5.60788">
        <ele>339.3</ele>
      </trkpt>
      <trkpt lat="46.65588" lon="5.60792">
        <ele>340</ele>
      </trkpt>
      <trkpt lat="46.65587" lon="5.60796">
        <ele>340.6</ele>
      </trkpt>
      <trkpt lat="46.65587" lon="5.60799">
        <ele>341.2</ele>
      </trkpt>
      <trkpt lat="46.65586" lon="5.60803">
        <ele>341.6</ele>
      </trkpt>
      <trkpt lat="46.65585" lon="5.60807">
        <ele>342.2</ele>
      </trkpt>
      <trkpt lat="46.65586" lon="5.60811">
        <ele>342.7</ele>
      </trkpt>
      <trkpt lat="46.65587" lon="5.60815">
        <ele>343.3</ele>
      </trkpt>
      <trkpt lat="46.65587" lon="5.60819">
        <ele>343.7</ele>
      </trkpt>
      <trkpt lat="46.65587" lon="5.60821">
        <ele>344</ele>
      </trkpt>
      <trkpt lat="46.65587" lon="5.60824">
        <ele>344.3</ele>
      </trkpt>
      <trkpt lat="46.65587" lon="5.60827">
        <ele>344.6</ele>
      </trkpt>
      <trkpt lat="46.65585" lon="5.60832">
        <ele>345</ele>
      </trkpt>
      <trkpt lat="46.65584" lon="5.60835">
        <ele>345.3</ele>
      </trkpt>
      <trkpt lat="46.65585" lon="5.60841">
        <ele>346</ele>
      </trkpt>
      <trkpt lat="46.65583" lon="5.60846">
        <ele>346.3</ele>
      </trkpt>
      <trkpt lat="46.65583" lon="5.6085">
        <ele>347</ele>
      </trkpt>
      <trkpt lat="46.65584" lon="5.60854">
        <ele>347.3</ele>
      </trkpt>
      <trkpt lat="46.65585" lon="5.60858">
        <ele>347.7</ele>
      </trkpt>
      <trkpt lat="46.65587" lon="5.60862">
        <ele>348.3</ele>
      </trkpt>
      <trkpt lat="46.65587" lon="5.60867">
        <ele>348.7</ele>
      </trkpt>
      <trkpt lat="46.65587" lon="5.60871">
        <ele>349.3</ele>
      </trkpt>
      <trkpt lat="46.65588" lon="5.60876">
        <ele>350</ele>
      </trkpt>
      <trkpt lat="46.65588" lon="5.60879">
        <ele>350.3</ele>
      </trkpt>
      <trkpt lat="46.65588" lon="5.60882">
        <ele>350.6</ele>
      </trkpt>
      <trkpt lat="46.65587" lon="5.60884">
        <ele>351</ele>
      </trkpt>
      <trkpt lat="46.65585" lon="5.60887">
        <ele>351.2</ele>
      </trkpt>
      <trkpt lat="46.65585" lon="5.60892">
        <ele>351.6</ele>
      </trkpt>
      <trkpt lat="46.65585" lon="5.60896">
        <ele>352</ele>
      </trkpt>
      <trkpt lat="46.65585" lon="5.609">
        <ele>352.3</ele>
      </trkpt>
      <trkpt lat="46.65583" lon="5.60904">
        <ele>352.7</ele>
      </trkpt>
      <trkpt lat="46.65583" lon="5.60908">
        <ele>353.2</ele>
      </trkpt>
      <trkpt lat="46.65582" lon="5.60912">
        <ele>353.6</ele>
      </trkpt>
      <trkpt lat="46.65582" lon="5.60915">
        <ele>353.7</ele>
      </trkpt>
      <trkpt lat="46.65581" lon="5.60918">
        <ele>354</ele>
      </trkpt>
      <trkpt lat="46.65581" lon="5.60922">
        <ele>354.2</ele>
      </trkpt>
      <trkpt lat="46.6558" lon="5.60925">
        <ele>354.3</ele>
      </trkpt>
      <trkpt lat="46.6558" lon="5.60929">
        <ele>354.6</ele>
      </trkpt>
      <trkpt lat="46.65581" lon="5.60934">
        <ele>354.7</ele>
      </trkpt>
      <trkpt lat="46.65581" lon="5.60938">
        <ele>355</ele>
      </trkpt>
      <trkpt lat="46.65581" lon="5.6094">
        <ele>355</ele>
      </trkpt>
      <trkpt lat="46.6558" lon="5.60945">
        <ele>355.2</ele>
      </trkpt>
      <trkpt lat="46.65581" lon="5.60948">
        <ele>355.2</ele>
      </trkpt>
      <trkpt lat="46.65581" lon="5.60953">
        <ele>355.3</ele>
      </trkpt>
      <trkpt lat="46.65581" lon="5.60956">
        <ele>355.6</ele>
      </trkpt>
      <trkpt lat="46.65581" lon="5.60959">
        <ele>355.6</ele>
      </trkpt>
      <trkpt lat="46.6558" lon="5.60962">
        <ele>355.6</ele>
      </trkpt>
      <trkpt lat="46.65579" lon="5.60965">
        <ele>355.7</ele>
      </trkpt>
      <trkpt lat="46.65581" lon="5.60968">
        <ele>356</ele>
      </trkpt>
      <trkpt lat="46.65582" lon="5.60971">
        <ele>356.2</ele>
      </trkpt>
      <trkpt lat="46.65581" lon="5.60974">
        <ele>356.3</ele>
      </trkpt>
      <trkpt lat="46.65581" lon="5.60978">
        <ele>356.6</ele>
      </trkpt>
      <trkpt lat="46.65581" lon="5.60981">
        <ele>356.7</ele>
      </trkpt>
      <trkpt lat="46.65581" lon="5.60986">
        <ele>357</ele>
      </trkpt>
      <trkpt lat="46.6558" lon="5.60988">
        <ele>357</ele>
      </trkpt>
      <trkpt lat="46.65579" lon="5.60993">
        <ele>357.2</ele>
      </trkpt>
      <trkpt lat="46.65579" lon="5.60997">
        <ele>357.3</ele>
      </trkpt>
      <trkpt lat="46.65578" lon="5.61001">
        <ele>357.6</ele>
      </trkpt>
      <trkpt lat="46.65578" lon="5.61005">
        <ele>357.7</ele>
      </trkpt>
      <trkpt lat="46.65579" lon="5.61009">
        <ele>358</ele>
      </trkpt>
      <trkpt lat="46.65579" lon="5.61013">
        <ele>358.2</ele>
      </trkpt>
      <trkpt lat="46.65578" lon="5.61016">
        <ele>358.2</ele>
      </trkpt>
      <trkpt lat="46.65577" lon="5.61018">
        <ele>358.3</ele>
      </trkpt>
      <trkpt lat="46.65575" lon="5.61023">
        <ele>358.6</ele>
      </trkpt>
      <trkpt lat="46.65575" lon="5.61026">
        <ele>358.7</ele>
      </trkpt>
      <trkpt lat="46.65574" lon="5.61029">
        <ele>358.7</ele>
      </trkpt>
      <trkpt lat="46.65574" lon="5.61032">
        <ele>359</ele>
      </trkpt>
      <trkpt lat="46.65574" lon="5.61035">
        <ele>359.2</ele>
      </trkpt>
      <trkpt lat="46.65572" lon="5.61039">
        <ele>359.3</ele>
      </trkpt>
      <trkpt lat="46.65571" lon="5.61042">
        <ele>359.3</ele>
      </trkpt>
      <trkpt lat="46.65569" lon="5.61045">
        <ele>359.7</ele>
      </trkpt>
      <trkpt lat="46.6557" lon="5.61048">
        <ele>360.6</ele>
      </trkpt>
      <trkpt lat="46.65567" lon="5.61052">
        <ele>361</ele>
      </trkpt>
      <trkpt lat="46.65567" lon="5.61055">
        <ele>361.3</ele>
      </trkpt>
      <trkpt lat="46.65566" lon="5.61058">
        <ele>361.6</ele>
      </trkpt>
      <trkpt lat="46.65563" lon="5.61061">
        <ele>362</ele>
      </trkpt>
      <trkpt lat="46.65561" lon="5.61063">
        <ele>362.6</ele>
      </trkpt>
      <trkpt lat="46.65561" lon="5.61067">
        <ele>363.2</ele>
      </trkpt>
      <trkpt lat="46.65562" lon="5.6107">
        <ele>363.3</ele>
      </trkpt>
      <trkpt lat="46.65561" lon="5.61074">
        <ele>363.7</ele>
      </trkpt>
      <trkpt lat="46.6556" lon="5.61076">
        <ele>364.6</ele>
      </trkpt>
      <trkpt lat="46.65558" lon="5.61078">
        <ele>365.2</ele>
      </trkpt>
      <trkpt lat="46.65556" lon="5.61081">
        <ele>365.7</ele>
      </trkpt>
      <trkpt lat="46.65555" lon="5.61084">
        <ele>366.2</ele>
      </trkpt>
      <trkpt lat="46.65554" lon="5.61086">
        <ele>366.7</ele>
      </trkpt>
      <trkpt lat="46.65551" lon="5.6109">
        <ele>367.2</ele>
      </trkpt>
      <trkpt lat="46.6555" lon="5.61093">
        <ele>367.6</ele>
      </trkpt>
      <trkpt lat="46.6555" lon="5.61098">
        <ele>368.2</ele>
      </trkpt>
      <trkpt lat="46.65548" lon="5.611">
        <ele>368.7</ele>
      </trkpt>
      <trkpt lat="46.65548" lon="5.61103">
        <ele>369.2</ele>
      </trkpt>
      <trkpt lat="46.65546" lon="5.61106">
        <ele>370.2</ele>
      </trkpt>
      <trkpt lat="46.65544" lon="5.61108">
        <ele>370.6</ele>
      </trkpt>
      <trkpt lat="46.65543" lon="5.61111">
        <ele>371.2</ele>
      </trkpt>
      <trkpt lat="46.65542" lon="5.61114">
        <ele>372</ele>
      </trkpt>
      <trkpt lat="46.65541" lon="5.61118">
        <ele>372.6</ele>
      </trkpt>
      <trkpt lat="46.65542" lon="5.61121">
        <ele>372.7</ele>
      </trkpt>
      <trkpt lat="46.65541" lon="5.61124">
        <ele>373</ele>
      </trkpt>
      <trkpt lat="46.6554" lon="5.61127">
        <ele>373.3</ele>
      </trkpt>
      <trkpt lat="46.65538" lon="5.61132">
        <ele>373.7</ele>
      </trkpt>
      <trkpt lat="46.65537" lon="5.61136">
        <ele>374.2</ele>
      </trkpt>
      <trkpt lat="46.65537" lon="5.61138">
        <ele>374.3</ele>
      </trkpt>
      <trkpt lat="46.65535" lon="5.61142">
        <ele>375</ele>
      </trkpt>
      <trkpt lat="46.65533" lon="5.61146">
        <ele>375.6</ele>
      </trkpt>
      <trkpt lat="46.65533" lon="5.61149">
        <ele>376.3</ele>
      </trkpt>
      <trkpt lat="46.65532" lon="5.61153">
        <ele>376.7</ele>
      </trkpt>
      <trkpt lat="46.6553" lon="5.61156">
        <ele>377</ele>
      </trkpt>
      <trkpt lat="46.6553" lon="5.61157">
        <ele>377.2</ele>
      </trkpt>
      <trkpt lat="46.6553" lon="5.61161">
        <ele>377.7</ele>
      </trkpt>
      <trkpt lat="46.6553" lon="5.61164">
        <ele>378.6</ele>
      </trkpt>
      <trkpt lat="46.65529" lon="5.61166">
        <ele>379</ele>
      </trkpt>
      <trkpt lat="46.65529" lon="5.6117">
        <ele>379.6</ele>
      </trkpt>
      <trkpt lat="46.65528" lon="5.61173">
        <ele>380</ele>
      </trkpt>
      <trkpt lat="46.65529" lon="5.61177">
        <ele>380.6</ele>
      </trkpt>
      <trkpt lat="46.6553" lon="5.6118">
        <ele>381.2</ele>
      </trkpt>
      <trkpt lat="46.65528" lon="5.61184">
        <ele>381.6</ele>
      </trkpt>
      <trkpt lat="46.65527" lon="5.61187">
        <ele>382</ele>
      </trkpt>
      <trkpt lat="46.65527" lon="5.6119">
        <ele>382.2</ele>
      </trkpt>
      <trkpt lat="46.65527" lon="5.61194">
        <ele>382.6</ele>
      </trkpt>
      <trkpt lat="46.65527" lon="5.61197">
        <ele>383.3</ele>
      </trkpt>
      <trkpt lat="46.65527" lon="5.61199">
        <ele>384</ele>
      </trkpt>
      <trkpt lat="46.65529" lon="5.61201">
        <ele>384.7</ele>
      </trkpt>
      <trkpt lat="46.65529" lon="5.61205">
        <ele>385.2</ele>
      </trkpt>
      <trkpt lat="46.65527" lon="5.61207">
        <ele>385.6</ele>
      </trkpt>
      <trkpt lat="46.65528" lon="5.61211">
        <ele>386</ele>
      </trkpt>
      <trkpt lat="46.6553" lon="5.61215">
        <ele>386.3</ele>
      </trkpt>
      <trkpt lat="46.6553" lon="5.61218">
        <ele>387</ele>
      </trkpt>
      <trkpt lat="46.6553" lon="5.61222">
        <ele>387.3</ele>
      </trkpt>
      <trkpt lat="46.6553" lon="5.61225">
        <ele>388</ele>
      </trkpt>
      <trkpt lat="46.6553" lon="5.61229">
        <ele>388.6</ele>
      </trkpt>
      <trkpt lat="46.6553" lon="5.61234">
        <ele>389.2</ele>
      </trkpt>
      <trkpt lat="46.65532" lon="5.61236">
        <ele>390</ele>
      </trkpt>
      <trkpt lat="46.65531" lon="5.6124">
        <ele>391</ele>
      </trkpt>
      <trkpt lat="46.65529" lon="5.61244">
        <ele>391.6</ele>
      </trkpt>
      <trkpt lat="46.65527" lon="5.61246">
        <ele>392.2</ele>
      </trkpt>
      <trkpt lat="46.65527" lon="5.6125">
        <ele>392.7</ele>
      </trkpt>
      <trkpt lat="46.65525" lon="5.61253">
        <ele>393.2</ele>
      </trkpt>
      <trkpt lat="46.65525" lon="5.61255">
        <ele>393.3</ele>
      </trkpt>
      <trkpt lat="46.65524" lon="5.61258">
        <ele>393.7</ele>
      </trkpt>
      <trkpt lat="46.65523" lon="5.61261">
        <ele>394.3</ele>
      </trkpt>
      <trkpt lat="46.65523" lon="5.61264">
        <ele>395</ele>
      </trkpt>
      <trkpt lat="46.65523" lon="5.61269">
        <ele>395.3</ele>
      </trkpt>
      <trkpt lat="46.65523" lon="5.61272">
        <ele>396</ele>
      </trkpt>
      <trkpt lat="46.65523" lon="5.61276">
        <ele>396.7</ele>
      </trkpt>
      <trkpt lat="46.65524" lon="5.61279">
        <ele>397.7</ele>
      </trkpt>
      <trkpt lat="46.65523" lon="5.61283">
        <ele>398.3</ele>
      </trkpt>
      <trkpt lat="46.65522" lon="5.61286">
        <ele>398.7</ele>
      </trkpt>
      <trkpt lat="46.65521" lon="5.6129">
        <ele>399.3</ele>
      </trkpt>
      <trkpt lat="46.65522" lon="5.61295">
        <ele>400</ele>
      </trkpt>
      <trkpt lat="46.65522" lon="5.61299">
        <ele>400.6</ele>
      </trkpt>
      <trkpt lat="46.65519" lon="5.61302">
        <ele>401.2</ele>
      </trkpt>
      <trkpt lat="46.65518" lon="5.61305">
        <ele>401.7</ele>
      </trkpt>
      <trkpt lat="46.65517" lon="5.61308">
        <ele>402.2</ele>
      </trkpt>
      <trkpt lat="46.65516" lon="5.61311">
        <ele>402.7</ele>
      </trkpt>
      <trkpt lat="46.65517" lon="5.61314">
        <ele>403.3</ele>
      </trkpt>
      <trkpt lat="46.65519" lon="5.61316">
        <ele>403.7</ele>
      </trkpt>
      <trkpt lat="46.65521" lon="5.61318">
        <ele>404.6</ele>
      </trkpt>
      <trkpt lat="46.65522" lon="5.61323">
        <ele>405</ele>
      </trkpt>
      <trkpt lat="46.6552" lon="5.61328">
        <ele>405.3</ele>
      </trkpt>
      <trkpt lat="46.65519" lon="5.61332">
        <ele>405.6</ele>
      </trkpt>
      <trkpt lat="46.65519" lon="5.61336">
        <ele>406</ele>
      </trkpt>
      <trkpt lat="46.65519" lon="5.61339">
        <ele>406.6</ele>
      </trkpt>
      <trkpt lat="46.65519" lon="5.61343">
        <ele>407</ele>
      </trkpt>
      <trkpt lat="46.65522" lon="5.61345">
        <ele>407.3</ele>
      </trkpt>
      <trkpt lat="46.65525" lon="5.61346">
        <ele>407.7</ele>
      </trkpt>
      <trkpt lat="46.65527" lon="5.61348">
        <ele>408</ele>
      </trkpt>
      <trkpt lat="46.65527" lon="5.61351">
        <ele>408.3</ele>
      </trkpt>
      <trkpt lat="46.66299" lon="5.61191">
        <ele>409</ele>
      </trkpt>
      <trkpt lat="46.66302" lon="5.61187">
        <ele>409</ele>
      </trkpt>
      <trkpt lat="46.66303" lon="5.61183">
        <ele>408.2</ele>
      </trkpt>
      <trkpt lat="46.66303" lon="5.61179">
        <ele>408.2</ele>
      </trkpt>
      <trkpt lat="46.66305" lon="5.61176">
        <ele>408</ele>
      </trkpt>
      <trkpt lat="46.66307" lon="5.61173">
        <ele>408</ele>
      </trkpt>
      <trkpt lat="46.66307" lon="5.61169">
        <ele>408</ele>
      </trkpt>
      <trkpt lat="46.66309" lon="5.61164">
        <ele>408</ele>
      </trkpt>
      <trkpt lat="46.6631" lon="5.61159">
        <ele>408</ele>
      </trkpt>
      <trkpt lat="46.6631" lon="5.61153">
        <ele>408</ele>
      </trkpt>
      <trkpt lat="46.66312" lon="5.6115">
        <ele>408</ele>
      </trkpt>
      <trkpt lat="46.66312" lon="5.61146">
        <ele>408.2</ele>
      </trkpt>
      <trkpt lat="46.66313" lon="5.61141">
        <ele>408.2</ele>
      </trkpt>
      <trkpt lat="46.66315" lon="5.61137">
        <ele>408.3</ele>
      </trkpt>
      <trkpt lat="46.66317" lon="5.61133">
        <ele>408.3</ele>
      </trkpt>
      <trkpt lat="46.6632" lon="5.61129">
        <ele>408.6</ele>
      </trkpt>
      <trkpt lat="46.66322" lon="5.61125">
        <ele>408.6</ele>
      </trkpt>
      <trkpt lat="46.66323" lon="5.61121">
        <ele>408.6</ele>
      </trkpt>
      <trkpt lat="46.66324" lon="5.61118">
        <ele>408.6</ele>
      </trkpt>
      <trkpt lat="46.66325" lon="5.61111">
        <ele>408.6</ele>
      </trkpt>
      <trkpt lat="46.66325" lon="5.61106">
        <ele>408.7</ele>
      </trkpt>
      <trkpt lat="46.66327" lon="5.61102">
        <ele>408.7</ele>
      </trkpt>
      <trkpt lat="46.66327" lon="5.61098">
        <ele>408.7</ele>
      </trkpt>
      <trkpt lat="46.66327" lon="5.61093">
        <ele>409</ele>
      </trkpt>
      <trkpt lat="46.66326" lon="5.61089">
        <ele>409</ele>
      </trkpt>
      <trkpt lat="46.66327" lon="5.61084">
        <ele>409.2</ele>
      </trkpt>
      <trkpt lat="46.66327" lon="5.61079">
        <ele>409.3</ele>
      </trkpt>
      <trkpt lat="46.66328" lon="5.61076">
        <ele>409.3</ele>
      </trkpt>
      <trkpt lat="46.66328" lon="5.61072">
        <ele>409.6</ele>
      </trkpt>
      <trkpt lat="46.66329" lon="5.61068">
        <ele>409.7</ele>
      </trkpt>
      <trkpt lat="46.6633" lon="5.61064">
        <ele>410</ele>
      </trkpt>
      <trkpt lat="46.66332" lon="5.6106">
        <ele>410</ele>
      </trkpt>
      <trkpt lat="46.66332" lon="5.61056">
        <ele>410.2</ele>
      </trkpt>
      <trkpt lat="46.66332" lon="5.61052">
        <ele>410.3</ele>
      </trkpt>
      <trkpt lat="46.66332" lon="5.61048">
        <ele>410.3</ele>
      </trkpt>
      <trkpt lat="46.6633" lon="5.61042">
        <ele>410.6</ele>
      </trkpt>
      <trkpt lat="46.6633" lon="5.61038">
        <ele>410.7</ele>
      </trkpt>
      <trkpt lat="46.66329" lon="5.61034">
        <ele>411</ele>
      </trkpt>
      <trkpt lat="46.66329" lon="5.6103">
        <ele>411</ele>
      </trkpt>
      <trkpt lat="46.66329" lon="5.61026">
        <ele>411.2</ele>
      </trkpt>
      <trkpt lat="46.66329" lon="5.61021">
        <ele>411.3</ele>
      </trkpt>
      <trkpt lat="46.66329" lon="5.61016">
        <ele>411.3</ele>
      </trkpt>
      <trkpt lat="46.6633" lon="5.61012">
        <ele>411.6</ele>
      </trkpt>
      <trkpt lat="46.66329" lon="5.61006">
        <ele>411.6</ele>
      </trkpt>
      <trkpt lat="46.66327" lon="5.61">
        <ele>411.7</ele>
      </trkpt>
      <trkpt lat="46.66326" lon="5.60994">
        <ele>411.7</ele>
      </trkpt>
      <trkpt lat="46.66325" lon="5.60988">
        <ele>412</ele>
      </trkpt>
      <trkpt lat="46.66324" lon="5.60981">
        <ele>412</ele>
      </trkpt>
      <trkpt lat="46.66322" lon="5.60976">
        <ele>412.2</ele>
      </trkpt>
      <trkpt lat="46.66322" lon="5.6097">
        <ele>412.2</ele>
      </trkpt>
      <trkpt lat="46.66322" lon="5.60966">
        <ele>412.3</ele>
      </trkpt>
      <trkpt lat="46.66322" lon="5.60962">
        <ele>412.6</ele>
      </trkpt>
      <trkpt lat="46.66321" lon="5.60959">
        <ele>412.7</ele>
      </trkpt>
      <trkpt lat="46.6632" lon="5.60955">
        <ele>412.7</ele>
      </trkpt>
      <trkpt lat="46.66319" lon="5.60952">
        <ele>413</ele>
      </trkpt>
      <trkpt lat="46.66317" lon="5.60948">
        <ele>413.2</ele>
      </trkpt>
      <trkpt lat="46.66316" lon="5.60943">
        <ele>413.2</ele>
      </trkpt>
      <trkpt lat="46.66315" lon="5.60938">
        <ele>413.2</ele>
      </trkpt>
      <trkpt lat="46.66314" lon="5.60934">
        <ele>413.3</ele>
      </trkpt>
      <trkpt lat="46.66314" lon="5.60929">
        <ele>413.3</ele>
      </trkpt>
      <trkpt lat="46.66312" lon="5.60926">
        <ele>413.3</ele>
      </trkpt>
      <trkpt lat="46.66312" lon="5.60921">
        <ele>413.6</ele>
      </trkpt>
      <trkpt lat="46.6631" lon="5.60917">
        <ele>413.6</ele>
      </trkpt>
      <trkpt lat="46.66309" lon="5.60912">
        <ele>413.7</ele>
      </trkpt>
      <trkpt lat="46.66308" lon="5.60908">
        <ele>414</ele>
      </trkpt>
      <trkpt lat="46.66307" lon="5.60903">
        <ele>414</ele>
      </trkpt>
      <trkpt lat="46.66305" lon="5.60897">
        <ele>414.2</ele>
      </trkpt>
      <trkpt lat="46.66302" lon="5.6089">
        <ele>414.2</ele>
      </trkpt>
      <trkpt lat="46.663" lon="5.60886">
        <ele>414.3</ele>
      </trkpt>
      <trkpt lat="46.66299" lon="5.60882">
        <ele>414.6</ele>
      </trkpt>
      <trkpt lat="46.66298" lon="5.60878">
        <ele>414.6</ele>
      </trkpt>
      <trkpt lat="46.66297" lon="5.60874">
        <ele>414.7</ele>
      </trkpt>
      <trkpt lat="46.66296" lon="5.6087">
        <ele>415</ele>
      </trkpt>
      <trkpt lat="46.66296" lon="5.60866">
        <ele>415.2</ele>
      </trkpt>
      <trkpt lat="46.66294" lon="5.60863">
        <ele>415.2</ele>
      </trkpt>
      <trkpt lat="46.66293" lon="5.60859">
        <ele>415.3</ele>
      </trkpt>
      <trkpt lat="46.66291" lon="5.60855">
        <ele>415.3</ele>
      </trkpt>
      <trkpt lat="46.6629" lon="5.60851">
        <ele>415.6</ele>
      </trkpt>
      <trkpt lat="46.66288" lon="5.60847">
        <ele>415.7</ele>
      </trkpt>
      <trkpt lat="46.66285" lon="5.60843">
        <ele>415.7</ele>
      </trkpt>
      <trkpt lat="46.66283" lon="5.60839">
        <ele>416</ele>
      </trkpt>
      <trkpt lat="46.66282" lon="5.60834">
        <ele>416.2</ele>
      </trkpt>
      <trkpt lat="46.6628" lon="5.6083">
        <ele>416.2</ele>
      </trkpt>
      <trkpt lat="46.66278" lon="5.60825">
        <ele>416.3</ele>
      </trkpt>
      <trkpt lat="46.66276" lon="5.60821">
        <ele>416.3</ele>
      </trkpt>
      <trkpt lat="46.66275" lon="5.60818">
        <ele>416.6</ele>
      </trkpt>
      <trkpt lat="46.66274" lon="5.60814">
        <ele>416.7</ele>
      </trkpt>
      <trkpt lat="46.66272" lon="5.60811">
        <ele>417</ele>
      </trkpt>
      <trkpt lat="46.6627" lon="5.60807">
        <ele>417.2</ele>
      </trkpt>
      <trkpt lat="46.66267" lon="5.60801">
        <ele>417.3</ele>
      </trkpt>
      <trkpt lat="46.66264" lon="5.60797">
        <ele>417.6</ele>
      </trkpt>
      <trkpt lat="46.66261" lon="5.60793">
        <ele>417.7</ele>
      </trkpt>
      <trkpt lat="46.66258" lon="5.60789">
        <ele>418</ele>
      </trkpt>
      <trkpt lat="46.66256" lon="5.60786">
        <ele>418.2</ele>
      </trkpt>
      <trkpt lat="46.66254" lon="5.60783">
        <ele>418.3</ele>
      </trkpt>
      <trkpt lat="46.66251" lon="5.60779">
        <ele>418.6</ele>
      </trkpt>
      <trkpt lat="46.66248" lon="5.60776">
        <ele>418.7</ele>
      </trkpt>
      <trkpt lat="46.66246" lon="5.60772">
        <ele>419</ele>
      </trkpt>
      <trkpt lat="46.66245" lon="5.60769">
        <ele>419.2</ele>
      </trkpt>
      <trkpt lat="46.66243" lon="5.60765">
        <ele>419.3</ele>
      </trkpt>
      <trkpt lat="46.66241" lon="5.60761">
        <ele>419.6</ele>
      </trkpt>
      <trkpt lat="46.66238" lon="5.60758">
        <ele>419.7</ele>
      </trkpt>
      <trkpt lat="46.66235" lon="5.60754">
        <ele>419.7</ele>
      </trkpt>
      <trkpt lat="46.66233" lon="5.60751">
        <ele>420</ele>
      </trkpt>
      <trkpt lat="46.6623" lon="5.60747">
        <ele>420</ele>
      </trkpt>
      <trkpt lat="46.66227" lon="5.60743">
        <ele>420</ele>
      </trkpt>
      <trkpt lat="46.66224" lon="5.60741">
        <ele>420.2</ele>
      </trkpt>
      <trkpt lat="46.66221" lon="5.60738">
        <ele>420.2</ele>
      </trkpt>
      <trkpt lat="46.66217" lon="5.60735">
        <ele>420.3</ele>
      </trkpt>
      <trkpt lat="46.66214" lon="5.60732">
        <ele>420.3</ele>
      </trkpt>
      <trkpt lat="46.66212" lon="5.60727">
        <ele>420.3</ele>
      </trkpt>
      <trkpt lat="46.6621" lon="5.60724">
        <ele>420.6</ele>
      </trkpt>
      <trkpt lat="46.66207" lon="5.60721">
        <ele>420.6</ele>
      </trkpt>
      <trkpt lat="46.66205" lon="5.60719">
        <ele>420.6</ele>
      </trkpt>
      <trkpt lat="46.66202" lon="5.60717">
        <ele>420.7</ele>
      </trkpt>
      <trkpt lat="46.66199" lon="5.60714">
        <ele>420.7</ele>
      </trkpt>
      <trkpt lat="46.66196" lon="5.60712">
        <ele>420.7</ele>
      </trkpt>
      <trkpt lat="46.66193" lon="5.60709">
        <ele>420.7</ele>
      </trkpt>
      <trkpt lat="46.6619" lon="5.60707">
        <ele>420.7</ele>
      </trkpt>
      <trkpt lat="46.66187" lon="5.60704">
        <ele>421</ele>
      </trkpt>
      <trkpt lat="46.66185" lon="5.60701">
        <ele>421</ele>
      </trkpt>
      <trkpt lat="46.66181" lon="5.60698">
        <ele>421</ele>
      </trkpt>
      <trkpt lat="46.66178" lon="5.60696">
        <ele>421</ele>
      </trkpt>
      <trkpt lat="46.66176" lon="5.60694">
        <ele>421</ele>
      </trkpt>
      <trkpt lat="46.66172" lon="5.60691">
        <ele>421</ele>
      </trkpt>
      <trkpt lat="46.6617" lon="5.60689">
        <ele>421</ele>
      </trkpt>
      <trkpt lat="46.66167" lon="5.60688">
        <ele>421</ele>
      </trkpt>
      <trkpt lat="46.66164" lon="5.60686">
        <ele>421</ele>
      </trkpt>
      <trkpt lat="46.66161" lon="5.60685">
        <ele>420.7</ele>
      </trkpt>
      <trkpt lat="46.66158" lon="5.60683">
        <ele>420.7</ele>
      </trkpt>
      <trkpt lat="46.66156" lon="5.60681">
        <ele>420.7</ele>
      </trkpt>
      <trkpt lat="46.66155" lon="5.60678">
        <ele>420.7</ele>
      </trkpt>
      <trkpt lat="46.66151" lon="5.60676">
        <ele>420.7</ele>
      </trkpt>
      <trkpt lat="46.66148" lon="5.60674">
        <ele>420.7</ele>
      </trkpt>
      <trkpt lat="46.66145" lon="5.60671">
        <ele>420.7</ele>
      </trkpt>
      <trkpt lat="46.66143" lon="5.6067">
        <ele>420.7</ele>
      </trkpt>
      <trkpt lat="46.66139" lon="5.60668">
        <ele>420.7</ele>
      </trkpt>
      <trkpt lat="46.66134" lon="5.60666">
        <ele>420.7</ele>
      </trkpt>
      <trkpt lat="46.66132" lon="5.60664">
        <ele>420.7</ele>
      </trkpt>
      <trkpt lat="46.66128" lon="5.60662">
        <ele>420.7</ele>
      </trkpt>
      <trkpt lat="46.66124" lon="5.60661">
        <ele>420.7</ele>
      </trkpt>
      <trkpt lat="46.66122" lon="5.60659">
        <ele>420.6</ele>
      </trkpt>
      <trkpt lat="46.66118" lon="5.60657">
        <ele>420.6</ele>
      </trkpt>
      <trkpt lat="46.66114" lon="5.60656">
        <ele>420.6</ele>
      </trkpt>
      <trkpt lat="46.66111" lon="5.60656">
        <ele>420.6</ele>
      </trkpt>
      <trkpt lat="46.66108" lon="5.60654">
        <ele>420.6</ele>
      </trkpt>
      <trkpt lat="46.66105" lon="5.60652">
        <ele>420.6</ele>
      </trkpt>
      <trkpt lat="46.66103" lon="5.60651">
        <ele>420.3</ele>
      </trkpt>
      <trkpt lat="46.66099" lon="5.6065">
        <ele>420.3</ele>
      </trkpt>
      <trkpt lat="46.66095" lon="5.60649">
        <ele>420.3</ele>
      </trkpt>
      <trkpt lat="46.66093" lon="5.60648">
        <ele>420.2</ele>
      </trkpt>
      <trkpt lat="46.66089" lon="5.60648">
        <ele>420.2</ele>
      </trkpt>
      <trkpt lat="46.66086" lon="5.60647">
        <ele>420</ele>
      </trkpt>
      <trkpt lat="46.66084" lon="5.60646">
        <ele>420</ele>
      </trkpt>
      <trkpt lat="46.66081" lon="5.60644">
        <ele>420</ele>
      </trkpt>
      <trkpt lat="46.66078" lon="5.60642">
        <ele>419.7</ele>
      </trkpt>
      <trkpt lat="46.66075" lon="5.6064">
        <ele>419.7</ele>
      </trkpt>
      <trkpt lat="46.66073" lon="5.60637">
        <ele>419.6</ele>
      </trkpt>
      <trkpt lat="46.66071" lon="5.60635">
        <ele>419.3</ele>
      </trkpt>
      <trkpt lat="46.66069" lon="5.60632">
        <ele>419.3</ele>
      </trkpt>
      <trkpt lat="46.66066" lon="5.6063">
        <ele>419.2</ele>
      </trkpt>
      <trkpt lat="46.66063" lon="5.60627">
        <ele>419.2</ele>
      </trkpt>
      <trkpt lat="46.6606" lon="5.60624">
        <ele>419.2</ele>
      </trkpt>
      <trkpt lat="46.66058" lon="5.60622">
        <ele>419</ele>
      </trkpt>
      <trkpt lat="46.66055" lon="5.60621">
        <ele>419</ele>
      </trkpt>
      <trkpt lat="46.66053" lon="5.60619">
        <ele>418.7</ele>
      </trkpt>
      <trkpt lat="46.6605" lon="5.60619">
        <ele>418.7</ele>
      </trkpt>
      <trkpt lat="46.66046" lon="5.60618">
        <ele>418.6</ele>
      </trkpt>
      <trkpt lat="46.66043" lon="5.60616">
        <ele>418.6</ele>
      </trkpt>
      <trkpt lat="46.6604" lon="5.60613">
        <ele>418.3</ele>
      </trkpt>
      <trkpt lat="46.66037" lon="5.60611">
        <ele>418.3</ele>
      </trkpt>
      <trkpt lat="46.66034" lon="5.60609">
        <ele>418.2</ele>
      </trkpt>
      <trkpt lat="46.66032" lon="5.60607">
        <ele>418.2</ele>
      </trkpt>
      <trkpt lat="46.66029" lon="5.60606">
        <ele>418</ele>
      </trkpt>
      <trkpt lat="46.66026" lon="5.60604">
        <ele>418</ele>
      </trkpt>
      <trkpt lat="46.66023" lon="5.60602">
        <ele>417.7</ele>
      </trkpt>
      <trkpt lat="46.6602" lon="5.606">
        <ele>417.6</ele>
      </trkpt>
      <trkpt lat="46.66018" lon="5.60598">
        <ele>417.6</ele>
      </trkpt>
      <trkpt lat="46.66016" lon="5.60597">
        <ele>417.3</ele>
      </trkpt>
      <trkpt lat="46.66014" lon="5.60596">
        <ele>417.2</ele>
      </trkpt>
      <trkpt lat="46.66011" lon="5.60594">
        <ele>417</ele>
      </trkpt>
      <trkpt lat="46.66008" lon="5.60592">
        <ele>417</ele>
      </trkpt>
      <trkpt lat="46.66004" lon="5.6059">
        <ele>416.7</ele>
      </trkpt>
      <trkpt lat="46.66002" lon="5.60588">
        <ele>416.7</ele>
      </trkpt>
      <trkpt lat="46.65998" lon="5.60585">
        <ele>416.6</ele>
      </trkpt>
      <trkpt lat="46.65994" lon="5.60581">
        <ele>416.6</ele>
      </trkpt>
      <trkpt lat="46.6599" lon="5.60578">
        <ele>416.6</ele>
      </trkpt>
      <trkpt lat="46.65988" lon="5.60576">
        <ele>416.3</ele>
      </trkpt>
      <trkpt lat="46.65986" lon="5.60574">
        <ele>416.3</ele>
      </trkpt>
      <trkpt lat="46.65982" lon="5.60573">
        <ele>416.3</ele>
      </trkpt>
      <trkpt lat="46.65978" lon="5.60571">
        <ele>416.2</ele>
      </trkpt>
      <trkpt lat="46.65975" lon="5.60569">
        <ele>416.2</ele>
      </trkpt>
      <trkpt lat="46.65972" lon="5.60567">
        <ele>416.2</ele>
      </trkpt>
      <trkpt lat="46.65969" lon="5.60564">
        <ele>416.2</ele>
      </trkpt>
      <trkpt lat="46.65965" lon="5.60561">
        <ele>416.2</ele>
      </trkpt>
      <trkpt lat="46.65962" lon="5.60558">
        <ele>416.2</ele>
      </trkpt>
      <trkpt lat="46.65958" lon="5.60555">
        <ele>416</ele>
      </trkpt>
      <trkpt lat="46.65955" lon="5.60553">
        <ele>416</ele>
      </trkpt>
      <trkpt lat="46.65952" lon="5.60549">
        <ele>416</ele>
      </trkpt>
      <trkpt lat="46.6595" lon="5.60547">
        <ele>415.7</ele>
      </trkpt>
      <trkpt lat="46.65948" lon="5.60545">
        <ele>415.7</ele>
      </trkpt>
      <trkpt lat="46.65945" lon="5.60543">
        <ele>415.7</ele>
      </trkpt>
      <trkpt lat="46.65942" lon="5.6054">
        <ele>415.6</ele>
      </trkpt>
      <trkpt lat="46.65939" lon="5.60537">
        <ele>415.6</ele>
      </trkpt>
      <trkpt lat="46.65936" lon="5.60534">
        <ele>415.6</ele>
      </trkpt>
      <trkpt lat="46.65933" lon="5.6053">
        <ele>415.3</ele>
      </trkpt>
      <trkpt lat="46.65931" lon="5.60527">
        <ele>415.3</ele>
      </trkpt>
      <trkpt lat="46.65928" lon="5.60525">
        <ele>415.3</ele>
      </trkpt>
      <trkpt lat="46.65925" lon="5.60521">
        <ele>415.2</ele>
      </trkpt>
      <trkpt lat="46.65921" lon="5.60519">
        <ele>415.2</ele>
      </trkpt>
      <trkpt lat="46.65919" lon="5.60516">
        <ele>415</ele>
      </trkpt>
      <trkpt lat="46.65916" lon="5.60513">
        <ele>414.7</ele>
      </trkpt>
      <trkpt lat="46.65913" lon="5.6051">
        <ele>414.6</ele>
      </trkpt>
      <trkpt lat="46.6591" lon="5.60508">
        <ele>414.6</ele>
      </trkpt>
      <trkpt lat="46.65907" lon="5.60504">
        <ele>414.3</ele>
      </trkpt>
      <trkpt lat="46.65905" lon="5.60501">
        <ele>414.2</ele>
      </trkpt>
      <trkpt lat="46.65902" lon="5.60498">
        <ele>414</ele>
      </trkpt>
      <trkpt lat="46.65899" lon="5.60494">
        <ele>413.7</ele>
      </trkpt>
      <trkpt lat="46.65897" lon="5.60491">
        <ele>413.6</ele>
      </trkpt>
      <trkpt lat="46.65895" lon="5.60488">
        <ele>413.3</ele>
      </trkpt>
      <trkpt lat="46.65893" lon="5.60484">
        <ele>413.2</ele>
      </trkpt>
      <trkpt lat="46.65891" lon="5.60481">
        <ele>413.2</ele>
      </trkpt>
      <trkpt lat="46.65889" lon="5.60478">
        <ele>413</ele>
      </trkpt>
      <trkpt lat="46.65886" lon="5.60473">
        <ele>412.7</ele>
      </trkpt>
      <trkpt lat="46.65884" lon="5.6047">
        <ele>412.6</ele>
      </trkpt>
      <trkpt lat="46.65882" lon="5.60467">
        <ele>412.3</ele>
      </trkpt>
      <trkpt lat="46.65881" lon="5.60463">
        <ele>412.2</ele>
      </trkpt>
      <trkpt lat="46.65879" lon="5.6046">
        <ele>412</ele>
      </trkpt>
      <trkpt lat="46.65876" lon="5.60457">
        <ele>411.6</ele>
      </trkpt>
      <trkpt lat="46.65873" lon="5.60454">
        <ele>411.3</ele>
      </trkpt>
      <trkpt lat="46.65872" lon="5.60452">
        <ele>411.2</ele>
      </trkpt>
      <trkpt lat="46.6587" lon="5.60448">
        <ele>411</ele>
      </trkpt>
      <trkpt lat="46.65867" lon="5.60446">
        <ele>410.7</ele>
      </trkpt>
      <trkpt lat="46.65863" lon="5.60443">
        <ele>410.7</ele>
      </trkpt>
      <trkpt lat="46.6586" lon="5.60441">
        <ele>410.6</ele>
      </trkpt>
      <trkpt lat="46.65857" lon="5.60441">
        <ele>410.3</ele>
      </trkpt>
      <trkpt lat="46.65854" lon="5.60438">
        <ele>410.3</ele>
      </trkpt>
      <trkpt lat="46.65852" lon="5.60436">
        <ele>410.2</ele>
      </trkpt>
      <trkpt lat="46.6585" lon="5.60433">
        <ele>410</ele>
      </trkpt>
      <trkpt lat="46.65848" lon="5.6043">
        <ele>409.7</ele>
      </trkpt>
      <trkpt lat="46.65847" lon="5.60427">
        <ele>409.3</ele>
      </trkpt>
      <trkpt lat="46.65844" lon="5.60424">
        <ele>409.2</ele>
      </trkpt>
      <trkpt lat="46.65843" lon="5.60421">
        <ele>408.7</ele>
      </trkpt>
      <trkpt lat="46.65842" lon="5.60418">
        <ele>408.6</ele>
      </trkpt>
      <trkpt lat="46.65841" lon="5.60415">
        <ele>408.2</ele>
      </trkpt>
      <trkpt lat="46.65839" lon="5.60411">
        <ele>408</ele>
      </trkpt>
      <trkpt lat="46.65838" lon="5.60406">
        <ele>407.7</ele>
      </trkpt>
      <trkpt lat="46.65836" lon="5.60403">
        <ele>407.6</ele>
      </trkpt>
      <trkpt lat="46.65834" lon="5.60399">
        <ele>407.3</ele>
      </trkpt>
      <trkpt lat="46.65832" lon="5.60395">
        <ele>407.2</ele>
      </trkpt>
      <trkpt lat="46.6583" lon="5.60392">
        <ele>407</ele>
      </trkpt>
      <trkpt lat="46.65829" lon="5.60387">
        <ele>406.7</ele>
      </trkpt>
      <trkpt lat="46.65828" lon="5.60383">
        <ele>406.7</ele>
      </trkpt>
      <trkpt lat="46.65826" lon="5.60379">
        <ele>406.6</ele>
      </trkpt>
      <trkpt lat="46.65825" lon="5.60374">
        <ele>406.3</ele>
      </trkpt>
      <trkpt lat="46.65824" lon="5.6037">
        <ele>406.2</ele>
      </trkpt>
      <trkpt lat="46.65823" lon="5.60365">
        <ele>406.2</ele>
      </trkpt>
      <trkpt lat="46.65823" lon="5.60361">
        <ele>406</ele>
      </trkpt>
      <trkpt lat="46.65823" lon="5.60356">
        <ele>405.7</ele>
      </trkpt>
      <trkpt lat="46.65822" lon="5.60352">
        <ele>405.6</ele>
      </trkpt>
      <trkpt lat="46.65822" lon="5.60347">
        <ele>405.3</ele>
      </trkpt>
      <trkpt lat="46.65823" lon="5.60343">
        <ele>405.2</ele>
      </trkpt>
      <trkpt lat="46.65824" lon="5.60341">
        <ele>405</ele>
      </trkpt>
      <trkpt lat="46.65827" lon="5.60338">
        <ele>405</ele>
      </trkpt>
      <trkpt lat="46.6583" lon="5.60337">
        <ele>404.7</ele>
      </trkpt>
      <trkpt lat="46.65831" lon="5.60335">
        <ele>404.6</ele>
      </trkpt>
      <trkpt lat="46.65833" lon="5.60331">
        <ele>404.6</ele>
      </trkpt>
      <trkpt lat="46.65833" lon="5.60328">
        <ele>404.3</ele>
      </trkpt>
      <trkpt lat="46.65833" lon="5.60324">
        <ele>404.2</ele>
      </trkpt>
      <trkpt lat="46.65836" lon="5.60321">
        <ele>404</ele>
      </trkpt>
      <trkpt lat="46.65839" lon="5.60319">
        <ele>403.7</ele>
      </trkpt>
      <trkpt lat="46.65841" lon="5.60319">
        <ele>403.6</ele>
      </trkpt>
      <trkpt lat="46.65842" lon="5.60319">
        <ele>403.2</ele>
      </trkpt>
      <trkpt lat="46.65844" lon="5.60318">
        <ele>403</ele>
      </trkpt>
      <trkpt lat="46.65847" lon="5.60319">
        <ele>402.6</ele>
      </trkpt>
      <trkpt lat="46.65849" lon="5.60318">
        <ele>402.2</ele>
      </trkpt>
      <trkpt lat="46.6585" lon="5.60315">
        <ele>401.7</ele>
      </trkpt>
      <trkpt lat="46.6585" lon="5.60312">
        <ele>402</ele>
      </trkpt>
      <trkpt lat="46.65852" lon="5.60308">
        <ele>402</ele>
      </trkpt>
      <trkpt lat="46.65853" lon="5.60305">
        <ele>402.2</ele>
      </trkpt>
      <trkpt lat="46.65853" lon="5.60302">
        <ele>402.2</ele>
      </trkpt>
      <trkpt lat="46.65854" lon="5.60299">
        <ele>402.3</ele>
      </trkpt>
      <trkpt lat="46.65854" lon="5.60296">
        <ele>402.6</ele>
      </trkpt>
      <trkpt lat="46.65853" lon="5.60293">
        <ele>403</ele>
      </trkpt>
      <trkpt lat="46.6585" lon="5.6029">
        <ele>403.2</ele>
      </trkpt>
      <trkpt lat="46.6585" lon="5.60287">
        <ele>403.3</ele>
      </trkpt>
      <trkpt lat="46.6585" lon="5.60282">
        <ele>403.6</ele>
      </trkpt>
      <trkpt lat="46.6585" lon="5.60279">
        <ele>403.7</ele>
      </trkpt>
      <trkpt lat="46.65849" lon="5.60276">
        <ele>404</ele>
      </trkpt>
      <trkpt lat="46.65848" lon="5.60272">
        <ele>404.3</ele>
      </trkpt>
      <trkpt lat="46.65848" lon="5.60269">
        <ele>404.7</ele>
      </trkpt>
      <trkpt lat="46.65848" lon="5.60265">
        <ele>405.3</ele>
      </trkpt>
      <trkpt lat="46.6585" lon="5.60261">
        <ele>406</ele>
      </trkpt>
      <trkpt lat="46.6585" lon="5.60257">
        <ele>406.3</ele>
      </trkpt>
      <trkpt lat="46.6585" lon="5.60254">
        <ele>406.6</ele>
      </trkpt>
      <trkpt lat="46.6585" lon="5.60252">
        <ele>407</ele>
      </trkpt>
      <trkpt lat="46.65851" lon="5.60249">
        <ele>407.3</ele>
      </trkpt>
      <trkpt lat="46.65852" lon="5.60247">
        <ele>407.7</ele>
      </trkpt>
      <trkpt lat="46.65853" lon="5.60243">
        <ele>408.2</ele>
      </trkpt>
      <trkpt lat="46.65854" lon="5.60241">
        <ele>409</ele>
      </trkpt>
      <trkpt lat="46.65856" lon="5.60239">
        <ele>409.6</ele>
      </trkpt>
      <trkpt lat="46.65857" lon="5.60235">
        <ele>410.2</ele>
      </trkpt>
      <trkpt lat="46.65859" lon="5.60232">
        <ele>410.6</ele>
      </trkpt>
      <trkpt lat="46.6586" lon="5.60228">
        <ele>411</ele>
      </trkpt>
      <trkpt lat="46.65861" lon="5.60225">
        <ele>411.7</ele>
      </trkpt>
      <trkpt lat="46.65863" lon="5.60224">
        <ele>412.2</ele>
      </trkpt>
      <trkpt lat="46.65863" lon="5.60221">
        <ele>412.6</ele>
      </trkpt>
      <trkpt lat="46.65865" lon="5.6022">
        <ele>413</ele>
      </trkpt>
      <trkpt lat="46.65867" lon="5.60216">
        <ele>413.6</ele>
      </trkpt>
      <trkpt lat="46.65869" lon="5.60214">
        <ele>413.7</ele>
      </trkpt>
      <trkpt lat="46.65871" lon="5.60211">
        <ele>414.3</ele>
      </trkpt>
      <trkpt lat="46.65873" lon="5.60209">
        <ele>414.6</ele>
      </trkpt>
      <trkpt lat="46.65874" lon="5.60208">
        <ele>415</ele>
      </trkpt>
      <trkpt lat="46.65877" lon="5.60206">
        <ele>415.6</ele>
      </trkpt>
      <trkpt lat="46.65879" lon="5.60204">
        <ele>415.7</ele>
      </trkpt>
      <trkpt lat="46.65881" lon="5.60202">
        <ele>416.3</ele>
      </trkpt>
      <trkpt lat="46.65884" lon="5.60199">
        <ele>417</ele>
      </trkpt>
      <trkpt lat="46.65885" lon="5.60197">
        <ele>417.2</ele>
      </trkpt>
      <trkpt lat="46.65886" lon="5.60194">
        <ele>417.3</ele>
      </trkpt>
      <trkpt lat="46.65889" lon="5.60191">
        <ele>418</ele>
      </trkpt>
      <trkpt lat="46.65889" lon="5.60188">
        <ele>418.2</ele>
      </trkpt>
      <trkpt lat="46.65889" lon="5.60185">
        <ele>418.6</ele>
      </trkpt>
      <trkpt lat="46.65891" lon="5.60184">
        <ele>419.2</ele>
      </trkpt>
      <trkpt lat="46.65894" lon="5.60184">
        <ele>419.3</ele>
      </trkpt>
      <trkpt lat="46.65896" lon="5.60182">
        <ele>419.6</ele>
      </trkpt>
      <trkpt lat="46.65898" lon="5.60178">
        <ele>420</ele>
      </trkpt>
      <trkpt lat="46.659" lon="5.60176">
        <ele>420.2</ele>
      </trkpt>
      <trkpt lat="46.65902" lon="5.60176">
        <ele>420.6</ele>
      </trkpt>
      <trkpt lat="46.65903" lon="5.60172">
        <ele>421</ele>
      </trkpt>
      <trkpt lat="46.65905" lon="5.60169">
        <ele>421.3</ele>
      </trkpt>
      <trkpt lat="46.65906" lon="5.60166">
        <ele>421.7</ele>
      </trkpt>
      <trkpt lat="46.65908" lon="5.60164">
        <ele>422.2</ele>
      </trkpt>
      <trkpt lat="46.6591" lon="5.60163">
        <ele>422.7</ele>
      </trkpt>
      <trkpt lat="46.6591" lon="5.6016">
        <ele>423.2</ele>
      </trkpt>
      <trkpt lat="46.65912" lon="5.60158">
        <ele>423.6</ele>
      </trkpt>
      <trkpt lat="46.65914" lon="5.60156">
        <ele>424</ele>
      </trkpt>
      <trkpt lat="46.65915" lon="5.60154">
        <ele>424.2</ele>
      </trkpt>
      <trkpt lat="46.65917" lon="5.60152">
        <ele>424.6</ele>
      </trkpt>
      <trkpt lat="46.65918" lon="5.6015">
        <ele>424.7</ele>
      </trkpt>
      <trkpt lat="46.6592" lon="5.60148">
        <ele>425</ele>
      </trkpt>
      <trkpt lat="46.65922" lon="5.60147">
        <ele>425.2</ele>
      </trkpt>
      <trkpt lat="46.65924" lon="5.60146">
        <ele>425.6</ele>
      </trkpt>
      <trkpt lat="46.65928" lon="5.60144">
        <ele>426</ele>
      </trkpt>
      <trkpt lat="46.65931" lon="5.60144">
        <ele>426.6</ele>
      </trkpt>
      <trkpt lat="46.65934" lon="5.60144">
        <ele>427.2</ele>
      </trkpt>
      <trkpt lat="46.65937" lon="5.60144">
        <ele>427.6</ele>
      </trkpt>
      <trkpt lat="46.65941" lon="5.60144">
        <ele>428.2</ele>
      </trkpt>
      <trkpt lat="46.65938" lon="5.60145">
        <ele>428.3</ele>
      </trkpt>
      <trkpt lat="46.65936" lon="5.60148">
        <ele>428.7</ele>
      </trkpt>
      <trkpt lat="46.65939" lon="5.60152">
        <ele>429.3</ele>
      </trkpt>
      <trkpt lat="46.65941" lon="5.60156">
        <ele>429.6</ele>
      </trkpt>
      <trkpt lat="46.65944" lon="5.6016">
        <ele>430.2</ele>
      </trkpt>
      <trkpt lat="46.65941" lon="5.60162">
        <ele>430.7</ele>
      </trkpt>
      <trkpt lat="46.65941" lon="5.60165">
        <ele>431.2</ele>
      </trkpt>
      <trkpt lat="46.65942" lon="5.60171">
        <ele>432</ele>
      </trkpt>
      <trkpt lat="46.65942" lon="5.60174">
        <ele>432.2</ele>
      </trkpt>
      <trkpt lat="46.65942" lon="5.60178">
        <ele>432.3</ele>
      </trkpt>
      <trkpt lat="46.65942" lon="5.60181">
        <ele>433</ele>
      </trkpt>
      <trkpt lat="46.65942" lon="5.60185">
        <ele>433.7</ele>
      </trkpt>
      <trkpt lat="46.65942" lon="5.60188">
        <ele>434.3</ele>
      </trkpt>
      <trkpt lat="46.65941" lon="5.60191">
        <ele>435.3</ele>
      </trkpt>
      <trkpt lat="46.65942" lon="5.60188">
        <ele>437.6</ele>
      </trkpt>
      <trkpt lat="46.65942" lon="5.60185">
        <ele>438</ele>
      </trkpt>
      <trkpt lat="46.65944" lon="5.60183">
        <ele>438.6</ele>
      </trkpt>
      <trkpt lat="46.65945" lon="5.6018">
        <ele>439.3</ele>
      </trkpt>
      <trkpt lat="46.65946" lon="5.60177">
        <ele>440</ele>
      </trkpt>
      <trkpt lat="46.65948" lon="5.60174">
        <ele>440.3</ele>
      </trkpt>
      <trkpt lat="46.65949" lon="5.60169">
        <ele>441</ele>
      </trkpt>
      <trkpt lat="46.65949" lon="5.60167">
        <ele>441.3</ele>
      </trkpt>
      <trkpt lat="46.65949" lon="5.60164">
        <ele>441.6</ele>
      </trkpt>
      <trkpt lat="46.6595" lon="5.60162">
        <ele>442</ele>
      </trkpt>
      <trkpt lat="46.65952" lon="5.6016">
        <ele>442.3</ele>
      </trkpt>
      <trkpt lat="46.65955" lon="5.60158">
        <ele>443</ele>
      </trkpt>
      <trkpt lat="46.65957" lon="5.60157">
        <ele>443.3</ele>
      </trkpt>
      <trkpt lat="46.65958" lon="5.60155">
        <ele>444</ele>
      </trkpt>
      <trkpt lat="46.6596" lon="5.60153">
        <ele>444.6</ele>
      </trkpt>
      <trkpt lat="46.65963" lon="5.60151">
        <ele>445.2</ele>
      </trkpt>
      <trkpt lat="46.65966" lon="5.60149">
        <ele>445.6</ele>
      </trkpt>
      <trkpt lat="46.65968" lon="5.60147">
        <ele>446.3</ele>
      </trkpt>
      <trkpt lat="46.6597" lon="5.60146">
        <ele>447</ele>
      </trkpt>
      <trkpt lat="46.65972" lon="5.60144">
        <ele>447.3</ele>
      </trkpt>
      <trkpt lat="46.65974" lon="5.60143">
        <ele>447.6</ele>
      </trkpt>
      <trkpt lat="46.65976" lon="5.60141">
        <ele>447.7</ele>
      </trkpt>
      <trkpt lat="46.65979" lon="5.60138">
        <ele>448.2</ele>
      </trkpt>
      <trkpt lat="46.6598" lon="5.60135">
        <ele>448.6</ele>
      </trkpt>
      <trkpt lat="46.65982" lon="5.60133">
        <ele>448.7</ele>
      </trkpt>
      <trkpt lat="46.65983" lon="5.60131">
        <ele>449.3</ele>
      </trkpt>
      <trkpt lat="46.65986" lon="5.6013">
        <ele>449.7</ele>
      </trkpt>
      <trkpt lat="46.65989" lon="5.60129">
        <ele>450</ele>
      </trkpt>
      <trkpt lat="46.6599" lon="5.60129">
        <ele>450.3</ele>
      </trkpt>
      <trkpt lat="46.65994" lon="5.60129">
        <ele>450.7</ele>
      </trkpt>
      <trkpt lat="46.65995" lon="5.60127">
        <ele>451.2</ele>
      </trkpt>
      <trkpt lat="46.65998" lon="5.60127">
        <ele>451.7</ele>
      </trkpt>
      <trkpt lat="46.66002" lon="5.60127">
        <ele>452.2</ele>
      </trkpt>
      <trkpt lat="46.66003" lon="5.60126">
        <ele>452.6</ele>
      </trkpt>
      <trkpt lat="46.66007" lon="5.60125">
        <ele>453</ele>
      </trkpt>
      <trkpt lat="46.6601" lon="5.60124">
        <ele>453.3</ele>
      </trkpt>
      <trkpt lat="46.66011" lon="5.60121">
        <ele>453.7</ele>
      </trkpt>
      <trkpt lat="46.66013" lon="5.60119">
        <ele>454.3</ele>
      </trkpt>
      <trkpt lat="46.66016" lon="5.60116">
        <ele>455.2</ele>
      </trkpt>
      <trkpt lat="46.66016" lon="5.60113">
        <ele>455.7</ele>
      </trkpt>
      <trkpt lat="46.66018" lon="5.60111">
        <ele>456.3</ele>
      </trkpt>
      <trkpt lat="46.6602" lon="5.60112">
        <ele>457</ele>
      </trkpt>
      <trkpt lat="46.66022" lon="5.60114">
        <ele>457.2</ele>
      </trkpt>
      <trkpt lat="46.66021" lon="5.60117">
        <ele>458.2</ele>
      </trkpt>
      <trkpt lat="46.66019" lon="5.6012">
        <ele>458.6</ele>
      </trkpt>
      <trkpt lat="46.66019" lon="5.60123">
        <ele>459.3</ele>
      </trkpt>
      <trkpt lat="46.66018" lon="5.60125">
        <ele>460</ele>
      </trkpt>
      <trkpt lat="46.66018" lon="5.60128">
        <ele>460.3</ele>
      </trkpt>
      <trkpt lat="46.66018" lon="5.60131">
        <ele>461</ele>
      </trkpt>
      <trkpt lat="46.66016" lon="5.60133">
        <ele>461.3</ele>
      </trkpt>
      <trkpt lat="46.66013" lon="5.60136">
        <ele>462</ele>
      </trkpt>
      <trkpt lat="46.66012" lon="5.60138">
        <ele>462.3</ele>
      </trkpt>
      <trkpt lat="46.66012" lon="5.60142">
        <ele>463</ele>
      </trkpt>
      <trkpt lat="46.66011" lon="5.60146">
        <ele>463.7</ele>
      </trkpt>
      <trkpt lat="46.6601" lon="5.60147">
        <ele>464.2</ele>
      </trkpt>
      <trkpt lat="46.66007" lon="5.6015">
        <ele>464.7</ele>
      </trkpt>
      <trkpt lat="46.66007" lon="5.60153">
        <ele>465.6</ele>
      </trkpt>
      <trkpt lat="46.66003" lon="5.60156">
        <ele>466.2</ele>
      </trkpt>
      <trkpt lat="46.66002" lon="5.60158">
        <ele>466.6</ele>
      </trkpt>
      <trkpt lat="46.66002" lon="5.60162">
        <ele>467</ele>
      </trkpt>
      <trkpt lat="46.65999" lon="5.60165">
        <ele>467.3</ele>
      </trkpt>
      <trkpt lat="46.65998" lon="5.60168">
        <ele>467.6</ele>
      </trkpt>
      <trkpt lat="46.65997" lon="5.60172">
        <ele>468</ele>
      </trkpt>
      <trkpt lat="46.65996" lon="5.60174">
        <ele>468.3</ele>
      </trkpt>
      <trkpt lat="46.65995" lon="5.60177">
        <ele>468.7</ele>
      </trkpt>
      <trkpt lat="46.65992" lon="5.60179">
        <ele>469.3</ele>
      </trkpt>
      <trkpt lat="46.65991" lon="5.60182">
        <ele>469.7</ele>
      </trkpt>
      <trkpt lat="46.65992" lon="5.60186">
        <ele>470.3</ele>
      </trkpt>
      <trkpt lat="46.65992" lon="5.60189">
        <ele>470.7</ele>
      </trkpt>
      <trkpt lat="46.65992" lon="5.60194">
        <ele>471</ele>
      </trkpt>
      <trkpt lat="46.65992" lon="5.60197">
        <ele>471.3</ele>
      </trkpt>
      <trkpt lat="46.65992" lon="5.60202">
        <ele>472</ele>
      </trkpt>
      <trkpt lat="46.65992" lon="5.60204">
        <ele>472.3</ele>
      </trkpt>
      <trkpt lat="46.65992" lon="5.60208">
        <ele>473</ele>
      </trkpt>
      <trkpt lat="46.65992" lon="5.6021">
        <ele>473.6</ele>
      </trkpt>
      <trkpt lat="46.65994" lon="5.60214">
        <ele>474</ele>
      </trkpt>
      <trkpt lat="46.65994" lon="5.60218">
        <ele>474.2</ele>
      </trkpt>
      <trkpt lat="46.65994" lon="5.60221">
        <ele>474.7</ele>
      </trkpt>
      <trkpt lat="46.65995" lon="5.60224">
        <ele>475.2</ele>
      </trkpt>
      <trkpt lat="46.65994" lon="5.60219">
        <ele>477.2</ele>
      </trkpt>
      <trkpt lat="46.65994" lon="5.60216">
        <ele>477.3</ele>
      </trkpt>
      <trkpt lat="46.65994" lon="5.60212">
        <ele>478</ele>
      </trkpt>
      <trkpt lat="46.65992" lon="5.6021">
        <ele>478.3</ele>
      </trkpt>
      <trkpt lat="46.65992" lon="5.60206">
        <ele>479</ele>
      </trkpt>
      <trkpt lat="46.65994" lon="5.60203">
        <ele>479.3</ele>
      </trkpt>
      <trkpt lat="46.65992" lon="5.60197">
        <ele>480</ele>
      </trkpt>
      <trkpt lat="46.65992" lon="5.60194">
        <ele>480.2</ele>
      </trkpt>
      <trkpt lat="46.65992" lon="5.60191">
        <ele>480.6</ele>
      </trkpt>
      <trkpt lat="46.65992" lon="5.60187">
        <ele>481.6</ele>
      </trkpt>
      <trkpt lat="46.65992" lon="5.60182">
        <ele>482</ele>
      </trkpt>
      <trkpt lat="46.65992" lon="5.60179">
        <ele>482.2</ele>
      </trkpt>
      <trkpt lat="46.65995" lon="5.60176">
        <ele>482.7</ele>
      </trkpt>
      <trkpt lat="46.65996" lon="5.60174">
        <ele>483</ele>
      </trkpt>
      <trkpt lat="46.65997" lon="5.60172">
        <ele>483</ele>
      </trkpt>
      <trkpt lat="46.66" lon="5.6017">
        <ele>483.3</ele>
      </trkpt>
      <trkpt lat="46.66002" lon="5.60168">
        <ele>483.6</ele>
      </trkpt>
      <trkpt lat="46.66003" lon="5.60167">
        <ele>483.6</ele>
      </trkpt>
      <trkpt lat="46.66005" lon="5.60165">
        <ele>483.7</ele>
      </trkpt>
      <trkpt lat="46.66008" lon="5.60163">
        <ele>483.7</ele>
      </trkpt>
      <trkpt lat="46.6601" lon="5.60163">
        <ele>484</ele>
      </trkpt>
      <trkpt lat="46.66013" lon="5.60161">
        <ele>484.2</ele>
      </trkpt>
      <trkpt lat="46.66016" lon="5.60158">
        <ele>484.6</ele>
      </trkpt>
      <trkpt lat="46.66018" lon="5.60156">
        <ele>484.7</ele>
      </trkpt>
      <trkpt lat="46.66019" lon="5.60155">
        <ele>484.7</ele>
      </trkpt>
      <trkpt lat="46.6602" lon="5.60152">
        <ele>485.2</ele>
      </trkpt>
      <trkpt lat="46.66022" lon="5.6015">
        <ele>485.7</ele>
      </trkpt>
      <trkpt lat="46.66024" lon="5.60149">
        <ele>486.2</ele>
      </trkpt>
      <trkpt lat="46.66027" lon="5.60147">
        <ele>486.3</ele>
      </trkpt>
      <trkpt lat="46.6603" lon="5.60146">
        <ele>486.7</ele>
      </trkpt>
      <trkpt lat="46.66032" lon="5.60148">
        <ele>487</ele>
      </trkpt>
      <trkpt lat="46.66034" lon="5.60148">
        <ele>487.7</ele>
      </trkpt>
      <trkpt lat="46.66036" lon="5.60147">
        <ele>488.3</ele>
      </trkpt>
      <trkpt lat="46.66038" lon="5.60146">
        <ele>488.7</ele>
      </trkpt>
      <trkpt lat="46.66041" lon="5.60145">
        <ele>489.2</ele>
      </trkpt>
      <trkpt lat="46.66042" lon="5.60145">
        <ele>489.3</ele>
      </trkpt>
      <trkpt lat="46.66045" lon="5.60143">
        <ele>490</ele>
      </trkpt>
      <trkpt lat="46.66046" lon="5.6014">
        <ele>490.3</ele>
      </trkpt>
      <trkpt lat="46.66048" lon="5.60138">
        <ele>491</ele>
      </trkpt>
      <trkpt lat="46.6605" lon="5.60135">
        <ele>491.3</ele>
      </trkpt>
      <trkpt lat="46.66053" lon="5.60133">
        <ele>491.7</ele>
      </trkpt>
      <trkpt lat="46.66054" lon="5.60131">
        <ele>492.2</ele>
      </trkpt>
      <trkpt lat="46.66055" lon="5.60129">
        <ele>493</ele>
      </trkpt>
      <trkpt lat="46.66056" lon="5.60127">
        <ele>493.6</ele>
      </trkpt>
      <trkpt lat="46.66059" lon="5.60126">
        <ele>494</ele>
      </trkpt>
      <trkpt lat="46.66063" lon="5.60125">
        <ele>494.6</ele>
      </trkpt>
      <trkpt lat="46.66064" lon="5.60123">
        <ele>495</ele>
      </trkpt>
      <trkpt lat="46.66065" lon="5.60124">
        <ele>495.3</ele>
      </trkpt>
      <trkpt lat="46.66067" lon="5.60127">
        <ele>495.6</ele>
      </trkpt>
      <trkpt lat="46.66069" lon="5.6013">
        <ele>495.6</ele>
      </trkpt>
      <trkpt lat="46.6607" lon="5.60132">
        <ele>495.6</ele>
      </trkpt>
      <trkpt lat="46.66072" lon="5.60133">
        <ele>496</ele>
      </trkpt>
      <trkpt lat="46.66073" lon="5.60136">
        <ele>496.6</ele>
      </trkpt>
      <trkpt lat="46.66074" lon="5.60139">
        <ele>497.7</ele>
      </trkpt>
      <trkpt lat="46.66076" lon="5.6014">
        <ele>498.6</ele>
      </trkpt>
      <trkpt lat="46.66078" lon="5.60141">
        <ele>500</ele>
      </trkpt>
      <trkpt lat="46.66079" lon="5.6014">
        <ele>500.3</ele>
      </trkpt>
      <trkpt lat="46.66082" lon="5.60138">
        <ele>501</ele>
      </trkpt>
      <trkpt lat="46.66084" lon="5.60138">
        <ele>502.3</ele>
      </trkpt>
      <trkpt lat="46.66085" lon="5.60138">
        <ele>511.2</ele>
      </trkpt>
      <trkpt lat="46.66089" lon="5.60138">
        <ele>512</ele>
      </trkpt>
      <trkpt lat="46.66093" lon="5.60139">
        <ele>512.5</ele>
      </trkpt>
      <trkpt lat="46.66095" lon="5.60139">
        <ele>512.7</ele>
      </trkpt>
      <trkpt lat="46.66096" lon="5.60136">
        <ele>513.4</ele>
      </trkpt>
      <trkpt lat="46.66099" lon="5.60136">
        <ele>514</ele>
      </trkpt>
      <trkpt lat="46.66102" lon="5.60134">
        <ele>514.4</ele>
      </trkpt>
      <trkpt lat="46.66104" lon="5.60134">
        <ele>514.5</ele>
      </trkpt>
      <trkpt lat="46.66107" lon="5.60133">
        <ele>515.2</ele>
      </trkpt>
      <trkpt lat="46.6611" lon="5.60133">
        <ele>515.5</ele>
      </trkpt>
      <trkpt lat="46.66113" lon="5.60131">
        <ele>516</ele>
      </trkpt>
      <trkpt lat="46.66116" lon="5.60131">
        <ele>516.4</ele>
      </trkpt>
      <trkpt lat="46.66119" lon="5.6013">
        <ele>516.5</ele>
      </trkpt>
      <trkpt lat="46.66122" lon="5.6013">
        <ele>517</ele>
      </trkpt>
      <trkpt lat="46.66124" lon="5.60131">
        <ele>517.4</ele>
      </trkpt>
      <trkpt lat="46.66127" lon="5.60131">
        <ele>517.5</ele>
      </trkpt>
      <trkpt lat="46.6613" lon="5.6013">
        <ele>517.7</ele>
      </trkpt>
      <trkpt lat="46.66133" lon="5.60129">
        <ele>518.2</ele>
      </trkpt>
      <trkpt lat="46.66135" lon="5.60129">
        <ele>518.2</ele>
      </trkpt>
      <trkpt lat="46.66137" lon="5.60128">
        <ele>518.4</ele>
      </trkpt>
      <trkpt lat="46.66139" lon="5.60128">
        <ele>518.4</ele>
      </trkpt>
      <trkpt lat="46.66143" lon="5.60126">
        <ele>518.7</ele>
      </trkpt>
      <trkpt lat="46.66145" lon="5.60128">
        <ele>519</ele>
      </trkpt>
      <trkpt lat="46.66147" lon="5.60129">
        <ele>519</ele>
      </trkpt>
      <trkpt lat="46.6615" lon="5.6013">
        <ele>519.5</ele>
      </trkpt>
      <trkpt lat="46.66152" lon="5.6013">
        <ele>520</ele>
      </trkpt>
      <trkpt lat="46.66155" lon="5.60131">
        <ele>520.2</ele>
      </trkpt>
      <trkpt lat="46.66156" lon="5.60131">
        <ele>520.4</ele>
      </trkpt>
      <trkpt lat="46.66159" lon="5.60133">
        <ele>520.5</ele>
      </trkpt>
      <trkpt lat="46.66161" lon="5.60135">
        <ele>520.7</ele>
      </trkpt>
      <trkpt lat="46.66164" lon="5.60135">
        <ele>520.7</ele>
      </trkpt>
      <trkpt lat="46.66166" lon="5.60135">
        <ele>521</ele>
      </trkpt>
      <trkpt lat="46.66169" lon="5.60133">
        <ele>521.4</ele>
      </trkpt>
      <trkpt lat="46.66172" lon="5.60133">
        <ele>521.4</ele>
      </trkpt>
      <trkpt lat="46.66175" lon="5.60132">
        <ele>521.5</ele>
      </trkpt>
      <trkpt lat="46.66176" lon="5.60131">
        <ele>521.5</ele>
      </trkpt>
      <trkpt lat="46.66179" lon="5.60129">
        <ele>521.5</ele>
      </trkpt>
      <trkpt lat="46.66181" lon="5.60126">
        <ele>521.5</ele>
      </trkpt>
      <trkpt lat="46.66184" lon="5.60125">
        <ele>521.5</ele>
      </trkpt>
      <trkpt lat="46.66186" lon="5.60124">
        <ele>521.4</ele>
      </trkpt>
      <trkpt lat="46.66189" lon="5.60123">
        <ele>521.2</ele>
      </trkpt>
      <trkpt lat="46.66192" lon="5.60123">
        <ele>521.2</ele>
      </trkpt>
      <trkpt lat="46.66194" lon="5.60123">
        <ele>521.2</ele>
      </trkpt>
      <trkpt lat="46.66196" lon="5.60121">
        <ele>521.2</ele>
      </trkpt>
      <trkpt lat="46.66198" lon="5.6012">
        <ele>521.2</ele>
      </trkpt>
      <trkpt lat="46.66201" lon="5.60121">
        <ele>521</ele>
      </trkpt>
      <trkpt lat="46.66205" lon="5.60122">
        <ele>521</ele>
      </trkpt>
      <trkpt lat="46.66206" lon="5.60122">
        <ele>521</ele>
      </trkpt>
      <trkpt lat="46.66209" lon="5.60121">
        <ele>521</ele>
      </trkpt>
      <trkpt lat="46.6621" lon="5.60121">
        <ele>521.2</ele>
      </trkpt>
      <trkpt lat="46.66214" lon="5.6012">
        <ele>521.2</ele>
      </trkpt>
      <trkpt lat="46.66218" lon="5.6012">
        <ele>521.2</ele>
      </trkpt>
      <trkpt lat="46.66221" lon="5.60122">
        <ele>521.2</ele>
      </trkpt>
      <trkpt lat="46.66223" lon="5.60123">
        <ele>521.4</ele>
      </trkpt>
      <trkpt lat="46.66226" lon="5.60124">
        <ele>521.2</ele>
      </trkpt>
      <trkpt lat="46.6623" lon="5.60123">
        <ele>521.2</ele>
      </trkpt>
      <trkpt lat="46.66233" lon="5.60123">
        <ele>521.2</ele>
      </trkpt>
      <trkpt lat="46.66235" lon="5.60122">
        <ele>521.2</ele>
      </trkpt>
      <trkpt lat="46.66238" lon="5.6012">
        <ele>521.2</ele>
      </trkpt>
      <trkpt lat="46.6624" lon="5.6012">
        <ele>521.2</ele>
      </trkpt>
      <trkpt lat="46.66242" lon="5.6012">
        <ele>521.2</ele>
      </trkpt>
      <trkpt lat="46.66246" lon="5.6012">
        <ele>521.2</ele>
      </trkpt>
      <trkpt lat="46.66248" lon="5.6012">
        <ele>521.2</ele>
      </trkpt>
      <trkpt lat="46.66251" lon="5.60119">
        <ele>521.2</ele>
      </trkpt>
      <trkpt lat="46.66253" lon="5.60118">
        <ele>521.2</ele>
      </trkpt>
      <trkpt lat="46.66254" lon="5.60117">
        <ele>521.2</ele>
      </trkpt>
      <trkpt lat="46.66258" lon="5.60115">
        <ele>521.2</ele>
      </trkpt>
      <trkpt lat="46.6626" lon="5.60114">
        <ele>521.2</ele>
      </trkpt>
      <trkpt lat="46.66262" lon="5.60112">
        <ele>521</ele>
      </trkpt>
      <trkpt lat="46.66266" lon="5.60111">
        <ele>521</ele>
      </trkpt>
      <trkpt lat="46.66269" lon="5.60109">
        <ele>521</ele>
      </trkpt>
      <trkpt lat="46.66272" lon="5.60106">
        <ele>521</ele>
      </trkpt>
      <trkpt lat="46.66276" lon="5.60103">
        <ele>520.7</ele>
      </trkpt>
      <trkpt lat="46.66279" lon="5.601">
        <ele>520.7</ele>
      </trkpt>
      <trkpt lat="46.66283" lon="5.60098">
        <ele>520.7</ele>
      </trkpt>
      <trkpt lat="46.66286" lon="5.60096">
        <ele>520.5</ele>
      </trkpt>
      <trkpt lat="46.66288" lon="5.60094">
        <ele>520.5</ele>
      </trkpt>
      <trkpt lat="46.66291" lon="5.60093">
        <ele>520.5</ele>
      </trkpt>
      <trkpt lat="46.66294" lon="5.60092">
        <ele>520.4</ele>
      </trkpt>
      <trkpt lat="46.66296" lon="5.60091">
        <ele>520.4</ele>
      </trkpt>
      <trkpt lat="46.66298" lon="5.6009">
        <ele>520.2</ele>
      </trkpt>
      <trkpt lat="46.66301" lon="5.60088">
        <ele>520.2</ele>
      </trkpt>
      <trkpt lat="46.66305" lon="5.60086">
        <ele>520</ele>
      </trkpt>
      <trkpt lat="46.66308" lon="5.60084">
        <ele>520</ele>
      </trkpt>
      <trkpt lat="46.66311" lon="5.60082">
        <ele>519.7</ele>
      </trkpt>
      <trkpt lat="46.66314" lon="5.6008">
        <ele>519.7</ele>
      </trkpt>
      <trkpt lat="46.66317" lon="5.60079">
        <ele>519.5</ele>
      </trkpt>
      <trkpt lat="46.66322" lon="5.60077">
        <ele>519.5</ele>
      </trkpt>
      <trkpt lat="46.66327" lon="5.60075">
        <ele>519.4</ele>
      </trkpt>
      <trkpt lat="46.66332" lon="5.60074">
        <ele>519.4</ele>
      </trkpt>
      <trkpt lat="46.66336" lon="5.60072">
        <ele>519.2</ele>
      </trkpt>
      <trkpt lat="46.6634" lon="5.60071">
        <ele>519.2</ele>
      </trkpt>
      <trkpt lat="46.66343" lon="5.60069">
        <ele>519</ele>
      </trkpt>
      <trkpt lat="46.66346" lon="5.60068">
        <ele>518.7</ele>
      </trkpt>
      <trkpt lat="46.66349" lon="5.60067">
        <ele>518.5</ele>
      </trkpt>
      <trkpt lat="46.66353" lon="5.60066">
        <ele>518.4</ele>
      </trkpt>
      <trkpt lat="46.66357" lon="5.60063">
        <ele>518.2</ele>
      </trkpt>
      <trkpt lat="46.66359" lon="5.60061">
        <ele>518</ele>
      </trkpt>
      <trkpt lat="46.66362" lon="5.60059">
        <ele>518</ele>
      </trkpt>
      <trkpt lat="46.66365" lon="5.60058">
        <ele>517.7</ele>
      </trkpt>
      <trkpt lat="46.66367" lon="5.60057">
        <ele>517.5</ele>
      </trkpt>
      <trkpt lat="46.66372" lon="5.60055">
        <ele>517.4</ele>
      </trkpt>
      <trkpt lat="46.66374" lon="5.60053">
        <ele>517.2</ele>
      </trkpt>
      <trkpt lat="46.66377" lon="5.60051">
        <ele>517.2</ele>
      </trkpt>
      <trkpt lat="46.66379" lon="5.6005">
        <ele>517</ele>
      </trkpt>
      <trkpt lat="46.66383" lon="5.60048">
        <ele>516.7</ele>
      </trkpt>
      <trkpt lat="46.66386" lon="5.60047">
        <ele>516.5</ele>
      </trkpt>
      <trkpt lat="46.66388" lon="5.60046">
        <ele>516.4</ele>
      </trkpt>
      <trkpt lat="46.66391" lon="5.60045">
        <ele>516.2</ele>
      </trkpt>
      <trkpt lat="46.66394" lon="5.60043">
        <ele>516</ele>
      </trkpt>
      <trkpt lat="46.66396" lon="5.60042">
        <ele>515.7</ele>
      </trkpt>
      <trkpt lat="46.66399" lon="5.60041">
        <ele>515.5</ele>
      </trkpt>
      <trkpt lat="46.66402" lon="5.6004">
        <ele>515.4</ele>
      </trkpt>
      <trkpt lat="46.66404" lon="5.6004">
        <ele>515.2</ele>
      </trkpt>
      <trkpt lat="46.66407" lon="5.60038">
        <ele>515.2</ele>
      </trkpt>
      <trkpt lat="46.6641" lon="5.60037">
        <ele>515</ele>
      </trkpt>
      <trkpt lat="46.66413" lon="5.60035">
        <ele>514.7</ele>
      </trkpt>
      <trkpt lat="46.66416" lon="5.60032">
        <ele>514.5</ele>
      </trkpt>
      <trkpt lat="46.66419" lon="5.60028">
        <ele>514.4</ele>
      </trkpt>
      <trkpt lat="46.66423" lon="5.60024">
        <ele>514.2</ele>
      </trkpt>
      <trkpt lat="46.66427" lon="5.60022">
        <ele>514</ele>
      </trkpt>
      <trkpt lat="46.66429" lon="5.60021">
        <ele>513.7</ele>
      </trkpt>
      <trkpt lat="46.66432" lon="5.60019">
        <ele>513.5</ele>
      </trkpt>
      <trkpt lat="46.66435" lon="5.60017">
        <ele>513.4</ele>
      </trkpt>
      <trkpt lat="46.66439" lon="5.60014">
        <ele>513.2</ele>
      </trkpt>
      <trkpt lat="46.66444" lon="5.6001">
        <ele>512.7</ele>
      </trkpt>
      <trkpt lat="46.66449" lon="5.60008">
        <ele>512.5</ele>
      </trkpt>
      <trkpt lat="46.66454" lon="5.60005">
        <ele>512.4</ele>
      </trkpt>
      <trkpt lat="46.6646" lon="5.6">
        <ele>512</ele>
      </trkpt>
      <trkpt lat="46.66465" lon="5.59997">
        <ele>511.7</ele>
      </trkpt>
      <trkpt lat="46.66469" lon="5.59993">
        <ele>511.3</ele>
      </trkpt>
      <trkpt lat="46.66472" lon="5.59991">
        <ele>511.2</ele>
      </trkpt>
      <trkpt lat="46.66475" lon="5.59989">
        <ele>510.7</ele>
      </trkpt>
      <trkpt lat="46.66478" lon="5.59987">
        <ele>510.3</ele>
      </trkpt>
      <trkpt lat="46.66481" lon="5.59984">
        <ele>510.2</ele>
      </trkpt>
      <trkpt lat="46.66485" lon="5.59981">
        <ele>509.7</ele>
      </trkpt>
      <trkpt lat="46.66486" lon="5.59978">
        <ele>509.3</ele>
      </trkpt>
      <trkpt lat="46.66489" lon="5.59977">
        <ele>509.2</ele>
      </trkpt>
      <trkpt lat="46.66492" lon="5.59977">
        <ele>508.7</ele>
      </trkpt>
      <trkpt lat="46.66495" lon="5.59977">
        <ele>508.3</ele>
      </trkpt>
      <trkpt lat="46.66498" lon="5.59976">
        <ele>508.2</ele>
      </trkpt>
      <trkpt lat="46.66502" lon="5.59974">
        <ele>507.7</ele>
      </trkpt>
      <trkpt lat="46.66504" lon="5.59972">
        <ele>507.6</ele>
      </trkpt>
      <trkpt lat="46.66507" lon="5.5997">
        <ele>507.3</ele>
      </trkpt>
      <trkpt lat="46.6651" lon="5.59969">
        <ele>507</ele>
      </trkpt>
      <trkpt lat="46.66512" lon="5.59967">
        <ele>506.7</ele>
      </trkpt>
      <trkpt lat="46.66514" lon="5.59965">
        <ele>506.3</ele>
      </trkpt>
      <trkpt lat="46.66516" lon="5.59962">
        <ele>506.2</ele>
      </trkpt>
      <trkpt lat="46.66519" lon="5.59959">
        <ele>506</ele>
      </trkpt>
      <trkpt lat="46.66522" lon="5.59957">
        <ele>505.6</ele>
      </trkpt>
      <trkpt lat="46.66526" lon="5.59955">
        <ele>505.3</ele>
      </trkpt>
      <trkpt lat="46.66528" lon="5.59953">
        <ele>505.2</ele>
      </trkpt>
      <trkpt lat="46.66531" lon="5.5995">
        <ele>505</ele>
      </trkpt>
      <trkpt lat="46.66534" lon="5.59946">
        <ele>504.7</ele>
      </trkpt>
      <trkpt lat="46.66536" lon="5.59943">
        <ele>504.3</ele>
      </trkpt>
      <trkpt lat="46.66539" lon="5.59939">
        <ele>504.2</ele>
      </trkpt>
      <trkpt lat="46.66542" lon="5.59936">
        <ele>504</ele>
      </trkpt>
      <trkpt lat="46.66544" lon="5.59933">
        <ele>503.7</ele>
      </trkpt>
      <trkpt lat="46.66548" lon="5.59932">
        <ele>503.6</ele>
      </trkpt>
      <trkpt lat="46.6655" lon="5.59931">
        <ele>503.3</ele>
      </trkpt>
      <trkpt lat="46.66552" lon="5.59928">
        <ele>503</ele>
      </trkpt>
      <trkpt lat="46.66554" lon="5.59925">
        <ele>502.7</ele>
      </trkpt>
      <trkpt lat="46.66556" lon="5.59923">
        <ele>502.6</ele>
      </trkpt>
      <trkpt lat="46.66558" lon="5.59921">
        <ele>502.3</ele>
      </trkpt>
      <trkpt lat="46.6656" lon="5.59919">
        <ele>502.2</ele>
      </trkpt>
      <trkpt lat="46.66563" lon="5.59915">
        <ele>502</ele>
      </trkpt>
      <trkpt lat="46.66565" lon="5.59911">
        <ele>501.6</ele>
      </trkpt>
      <trkpt lat="46.66566" lon="5.59909">
        <ele>501.3</ele>
      </trkpt>
      <trkpt lat="46.66568" lon="5.59906">
        <ele>501.2</ele>
      </trkpt>
      <trkpt lat="46.66571" lon="5.59903">
        <ele>500.7</ele>
      </trkpt>
      <trkpt lat="46.66573" lon="5.599">
        <ele>500.6</ele>
      </trkpt>
      <trkpt lat="46.66575" lon="5.59896">
        <ele>500.3</ele>
      </trkpt>
      <trkpt lat="46.66578" lon="5.59893">
        <ele>500</ele>
      </trkpt>
      <trkpt lat="46.6658" lon="5.5989">
        <ele>499.6</ele>
      </trkpt>
      <trkpt lat="46.66581" lon="5.59886">
        <ele>499.3</ele>
      </trkpt>
      <trkpt lat="46.66584" lon="5.59884">
        <ele>499</ele>
      </trkpt>
      <trkpt lat="46.66586" lon="5.59881">
        <ele>498.7</ele>
      </trkpt>
      <trkpt lat="46.66587" lon="5.59877">
        <ele>498.3</ele>
      </trkpt>
      <trkpt lat="46.66587" lon="5.59873">
        <ele>498.2</ele>
      </trkpt>
      <trkpt lat="46.66589" lon="5.59869">
        <ele>497.7</ele>
      </trkpt>
      <trkpt lat="46.66591" lon="5.59864">
        <ele>497.6</ele>
      </trkpt>
      <trkpt lat="46.66593" lon="5.59859">
        <ele>497.2</ele>
      </trkpt>
      <trkpt lat="46.66596" lon="5.59852">
        <ele>497</ele>
      </trkpt>
      <trkpt lat="46.66598" lon="5.59847">
        <ele>496.6</ele>
      </trkpt>
      <trkpt lat="46.66601" lon="5.59843">
        <ele>496.3</ele>
      </trkpt>
      <trkpt lat="46.66604" lon="5.59839">
        <ele>496</ele>
      </trkpt>
      <trkpt lat="46.66606" lon="5.59834">
        <ele>495.6</ele>
      </trkpt>
      <trkpt lat="46.66609" lon="5.59824">
        <ele>495.3</ele>
      </trkpt>
      <trkpt lat="46.6661" lon="5.59818">
        <ele>495</ele>
      </trkpt>
      <trkpt lat="46.66612" lon="5.59811">
        <ele>494.6</ele>
      </trkpt>
      <trkpt lat="46.66614" lon="5.59805">
        <ele>494.3</ele>
      </trkpt>
      <trkpt lat="46.66616" lon="5.59798">
        <ele>494</ele>
      </trkpt>
      <trkpt lat="46.66619" lon="5.59793">
        <ele>493.6</ele>
      </trkpt>
      <trkpt lat="46.66621" lon="5.59785">
        <ele>493.3</ele>
      </trkpt>
      <trkpt lat="46.66622" lon="5.59783">
        <ele>493</ele>
      </trkpt>
      <trkpt lat="46.66624" lon="5.59779">
        <ele>492.3</ele>
      </trkpt>
      <trkpt lat="46.66625" lon="5.59773">
        <ele>491.6</ele>
      </trkpt>
      <trkpt lat="46.66625" lon="5.59769">
        <ele>491.3</ele>
      </trkpt>
      <trkpt lat="46.66626" lon="5.59766">
        <ele>491</ele>
      </trkpt>
      <trkpt lat="46.66627" lon="5.59762">
        <ele>490.6</ele>
      </trkpt>
      <trkpt lat="46.66628" lon="5.59757">
        <ele>490.2</ele>
      </trkpt>
      <trkpt lat="46.66628" lon="5.59753">
        <ele>490</ele>
      </trkpt>
      <trkpt lat="46.66629" lon="5.59749">
        <ele>489.6</ele>
      </trkpt>
      <trkpt lat="46.66631" lon="5.59747">
        <ele>489.2</ele>
      </trkpt>
      <trkpt lat="46.66633" lon="5.59744">
        <ele>488.7</ele>
      </trkpt>
      <trkpt lat="46.66633" lon="5.59741">
        <ele>488.6</ele>
      </trkpt>
      <trkpt lat="46.66634" lon="5.59738">
        <ele>488.2</ele>
      </trkpt>
      <trkpt lat="46.66635" lon="5.59735">
        <ele>488</ele>
      </trkpt>
      <trkpt lat="46.66636" lon="5.5973">
        <ele>487.6</ele>
      </trkpt>
      <trkpt lat="46.66637" lon="5.59727">
        <ele>487.2</ele>
      </trkpt>
      <trkpt lat="46.66637" lon="5.59723">
        <ele>487</ele>
      </trkpt>
      <trkpt lat="46.66639" lon="5.5972">
        <ele>486.6</ele>
      </trkpt>
      <trkpt lat="46.66639" lon="5.59718">
        <ele>486.2</ele>
      </trkpt>
      <trkpt lat="46.6664" lon="5.59715">
        <ele>485.7</ele>
      </trkpt>
      <trkpt lat="46.66642" lon="5.59713">
        <ele>485.3</ele>
      </trkpt>
      <trkpt lat="46.66643" lon="5.59709">
        <ele>485.2</ele>
      </trkpt>
      <trkpt lat="46.66645" lon="5.59704">
        <ele>484.2</ele>
      </trkpt>
      <trkpt lat="46.66645" lon="5.59701">
        <ele>483.7</ele>
      </trkpt>
      <trkpt lat="46.66646" lon="5.59697">
        <ele>483.3</ele>
      </trkpt>
      <trkpt lat="46.66647" lon="5.59694">
        <ele>483</ele>
      </trkpt>
      <trkpt lat="46.66647" lon="5.59691">
        <ele>482.3</ele>
      </trkpt>
      <trkpt lat="46.66647" lon="5.59687">
        <ele>482</ele>
      </trkpt>
      <trkpt lat="46.66646" lon="5.59681">
        <ele>481.3</ele>
      </trkpt>
      <trkpt lat="46.66645" lon="5.59675">
        <ele>481</ele>
      </trkpt>
      <trkpt lat="46.66645" lon="5.59669">
        <ele>480.6</ele>
      </trkpt>
      <trkpt lat="46.66645" lon="5.59664">
        <ele>480</ele>
      </trkpt>
      <trkpt lat="46.66646" lon="5.59659">
        <ele>479.6</ele>
      </trkpt>
      <trkpt lat="46.66647" lon="5.59655">
        <ele>479.2</ele>
      </trkpt>
      <trkpt lat="46.66648" lon="5.5965">
        <ele>478.6</ele>
      </trkpt>
      <trkpt lat="46.66648" lon="5.59646">
        <ele>478.2</ele>
      </trkpt>
      <trkpt lat="46.66649" lon="5.59642">
        <ele>477.7</ele>
      </trkpt>
      <trkpt lat="46.66649" lon="5.59637">
        <ele>477.2</ele>
      </trkpt>
      <trkpt lat="46.66649" lon="5.59633">
        <ele>476.7</ele>
      </trkpt>
      <trkpt lat="46.66649" lon="5.5963">
        <ele>476.2</ele>
      </trkpt>
      <trkpt lat="46.6665" lon="5.59626">
        <ele>475.7</ele>
      </trkpt>
      <trkpt lat="46.6665" lon="5.59623">
        <ele>475.2</ele>
      </trkpt>
      <trkpt lat="46.66651" lon="5.5962">
        <ele>474.7</ele>
      </trkpt>
      <trkpt lat="46.66651" lon="5.59616">
        <ele>474.2</ele>
      </trkpt>
      <trkpt lat="46.66652" lon="5.59612">
        <ele>473.7</ele>
      </trkpt>
      <trkpt lat="46.66652" lon="5.59608">
        <ele>473.2</ele>
      </trkpt>
      <trkpt lat="46.66652" lon="5.59602">
        <ele>472.7</ele>
      </trkpt>
      <trkpt lat="46.66653" lon="5.59596">
        <ele>472.2</ele>
      </trkpt>
      <trkpt lat="46.66652" lon="5.59589">
        <ele>471.7</ele>
      </trkpt>
      <trkpt lat="46.66652" lon="5.5958">
        <ele>471.2</ele>
      </trkpt>
      <trkpt lat="46.66653" lon="5.59572">
        <ele>470.7</ele>
      </trkpt>
      <trkpt lat="46.66653" lon="5.59565">
        <ele>470.3</ele>
      </trkpt>
      <trkpt lat="46.66655" lon="5.59561">
        <ele>469.7</ele>
      </trkpt>
      <trkpt lat="46.66655" lon="5.59556">
        <ele>469.3</ele>
      </trkpt>
      <trkpt lat="46.66653" lon="5.59551">
        <ele>468.7</ele>
      </trkpt>
      <trkpt lat="46.66653" lon="5.59545">
        <ele>468.3</ele>
      </trkpt>
      <trkpt lat="46.66653" lon="5.59539">
        <ele>467.7</ele>
      </trkpt>
      <trkpt lat="46.66653" lon="5.59532">
        <ele>467.3</ele>
      </trkpt>
      <trkpt lat="46.66653" lon="5.59529">
        <ele>466.7</ele>
      </trkpt>
      <trkpt lat="46.66651" lon="5.59528">
        <ele>465.3</ele>
      </trkpt>
      <trkpt lat="46.66649" lon="5.59525">
        <ele>464.7</ele>
      </trkpt>
      <trkpt lat="46.66647" lon="5.5952">
        <ele>464</ele>
      </trkpt>
      <trkpt lat="46.66645" lon="5.59516">
        <ele>463.3</ele>
      </trkpt>
      <trkpt lat="46.66644" lon="5.59513">
        <ele>463</ele>
      </trkpt>
      <trkpt lat="46.66643" lon="5.5951">
        <ele>462.6</ele>
      </trkpt>
      <trkpt lat="46.66642" lon="5.59507">
        <ele>462</ele>
      </trkpt>
      <trkpt lat="46.66639" lon="5.59505">
        <ele>461.6</ele>
      </trkpt>
      <trkpt lat="46.66637" lon="5.59501">
        <ele>461</ele>
      </trkpt>
      <trkpt lat="46.66637" lon="5.59497">
        <ele>460.6</ele>
      </trkpt>
      <trkpt lat="46.66635" lon="5.59493">
        <ele>460.2</ele>
      </trkpt>
      <trkpt lat="46.66633" lon="5.59488">
        <ele>459.6</ele>
      </trkpt>
      <trkpt lat="46.66632" lon="5.59484">
        <ele>459.2</ele>
      </trkpt>
      <trkpt lat="46.66631" lon="5.59481">
        <ele>458.6</ele>
      </trkpt>
      <trkpt lat="46.66629" lon="5.59477">
        <ele>458.2</ele>
      </trkpt>
      <trkpt lat="46.66628" lon="5.59474">
        <ele>457.6</ele>
      </trkpt>
      <trkpt lat="46.66627" lon="5.59469">
        <ele>457.2</ele>
      </trkpt>
      <trkpt lat="46.66626" lon="5.59465">
        <ele>456.7</ele>
      </trkpt>
      <trkpt lat="46.66624" lon="5.59463">
        <ele>456.2</ele>
      </trkpt>
      <trkpt lat="46.66623" lon="5.59459">
        <ele>455.7</ele>
      </trkpt>
      <trkpt lat="46.66622" lon="5.59455">
        <ele>455.3</ele>
      </trkpt>
      <trkpt lat="46.66622" lon="5.59451">
        <ele>455</ele>
      </trkpt>
      <trkpt lat="46.66621" lon="5.59447">
        <ele>454.3</ele>
      </trkpt>
      <trkpt lat="46.66621" lon="5.59443">
        <ele>454</ele>
      </trkpt>
      <trkpt lat="46.6662" lon="5.59439">
        <ele>453.6</ele>
      </trkpt>
      <trkpt lat="46.6662" lon="5.59435">
        <ele>453</ele>
      </trkpt>
      <trkpt lat="46.6662" lon="5.59432">
        <ele>452.6</ele>
      </trkpt>
      <trkpt lat="46.66619" lon="5.59426">
        <ele>452</ele>
      </trkpt>
      <trkpt lat="46.66619" lon="5.5942">
        <ele>451.6</ele>
      </trkpt>
      <trkpt lat="46.66618" lon="5.59415">
        <ele>451</ele>
      </trkpt>
      <trkpt lat="46.66618" lon="5.5941">
        <ele>450.6</ele>
      </trkpt>
      <trkpt lat="46.66616" lon="5.59402">
        <ele>450</ele>
      </trkpt>
      <trkpt lat="46.66616" lon="5.59394">
        <ele>449.3</ele>
      </trkpt>
      <trkpt lat="46.66616" lon="5.59384">
        <ele>449</ele>
      </trkpt>
      <trkpt lat="46.66616" lon="5.59374">
        <ele>448.3</ele>
      </trkpt>
      <trkpt lat="46.66616" lon="5.59367">
        <ele>448</ele>
      </trkpt>
      <trkpt lat="46.66617" lon="5.59361">
        <ele>447.3</ele>
      </trkpt>
      <trkpt lat="46.66621" lon="5.59353">
        <ele>446.7</ele>
      </trkpt>
      <trkpt lat="46.66621" lon="5.59348">
        <ele>446.3</ele>
      </trkpt>
      <trkpt lat="46.66621" lon="5.59345">
        <ele>445.7</ele>
      </trkpt>
      <trkpt lat="46.66621" lon="5.59342">
        <ele>445.2</ele>
      </trkpt>
      <trkpt lat="46.66622" lon="5.5934">
        <ele>444.7</ele>
      </trkpt>
      <trkpt lat="46.66623" lon="5.59337">
        <ele>444.2</ele>
      </trkpt>
      <trkpt lat="46.66624" lon="5.59334">
        <ele>443.7</ele>
      </trkpt>
      <trkpt lat="46.66624" lon="5.59331">
        <ele>443.3</ele>
      </trkpt>
      <trkpt lat="46.66624" lon="5.59327">
        <ele>442.7</ele>
      </trkpt>
      <trkpt lat="46.66624" lon="5.59325">
        <ele>442.3</ele>
      </trkpt>
      <trkpt lat="46.66625" lon="5.59318">
        <ele>441.3</ele>
      </trkpt>
      <trkpt lat="46.66625" lon="5.59314">
        <ele>441</ele>
      </trkpt>
      <trkpt lat="46.66625" lon="5.59309">
        <ele>440.3</ele>
      </trkpt>
      <trkpt lat="46.66624" lon="5.59305">
        <ele>440</ele>
      </trkpt>
      <trkpt lat="46.66624" lon="5.59302">
        <ele>439.6</ele>
      </trkpt>
      <trkpt lat="46.66625" lon="5.59299">
        <ele>439</ele>
      </trkpt>
      <trkpt lat="46.66625" lon="5.59293">
        <ele>438.2</ele>
      </trkpt>
      <trkpt lat="46.66625" lon="5.59289">
        <ele>437.6</ele>
      </trkpt>
      <trkpt lat="46.66626" lon="5.59286">
        <ele>437.2</ele>
      </trkpt>
      <trkpt lat="46.66625" lon="5.59282">
        <ele>436.7</ele>
      </trkpt>
      <trkpt lat="46.66625" lon="5.5928">
        <ele>436.3</ele>
      </trkpt>
      <trkpt lat="46.66625" lon="5.59275">
        <ele>435.7</ele>
      </trkpt>
      <trkpt lat="46.66625" lon="5.59271">
        <ele>435.2</ele>
      </trkpt>
      <trkpt lat="46.66625" lon="5.59267">
        <ele>434.7</ele>
      </trkpt>
      <trkpt lat="46.66626" lon="5.59263">
        <ele>434.2</ele>
      </trkpt>
      <trkpt lat="46.66626" lon="5.59257">
        <ele>433.6</ele>
      </trkpt>
      <trkpt lat="46.66627" lon="5.59252">
        <ele>433.2</ele>
      </trkpt>
      <trkpt lat="46.66628" lon="5.59247">
        <ele>432.6</ele>
      </trkpt>
      <trkpt lat="46.66628" lon="5.59242">
        <ele>432.2</ele>
      </trkpt>
      <trkpt lat="46.66629" lon="5.59237">
        <ele>431.6</ele>
      </trkpt>
      <trkpt lat="46.66631" lon="5.59232">
        <ele>431.2</ele>
      </trkpt>
      <trkpt lat="46.66632" lon="5.59227">
        <ele>430.6</ele>
      </trkpt>
      <trkpt lat="46.66633" lon="5.59224">
        <ele>430.2</ele>
      </trkpt>
      <trkpt lat="46.66634" lon="5.59219">
        <ele>429.6</ele>
      </trkpt>
      <trkpt lat="46.66635" lon="5.59215">
        <ele>429.2</ele>
      </trkpt>
      <trkpt lat="46.66635" lon="5.5921">
        <ele>428.6</ele>
      </trkpt>
      <trkpt lat="46.66637" lon="5.59206">
        <ele>428</ele>
      </trkpt>
      <trkpt lat="46.66637" lon="5.59202">
        <ele>427.6</ele>
      </trkpt>
      <trkpt lat="46.66639" lon="5.59197">
        <ele>427</ele>
      </trkpt>
      <trkpt lat="46.66642" lon="5.59193">
        <ele>426.6</ele>
      </trkpt>
      <trkpt lat="46.66643" lon="5.59189">
        <ele>426</ele>
      </trkpt>
      <trkpt lat="46.66645" lon="5.59184">
        <ele>425.6</ele>
      </trkpt>
      <trkpt lat="46.66646" lon="5.5918">
        <ele>425</ele>
      </trkpt>
      <trkpt lat="46.66648" lon="5.59177">
        <ele>424.6</ele>
      </trkpt>
      <trkpt lat="46.6665" lon="5.59175">
        <ele>424.2</ele>
      </trkpt>
      <trkpt lat="46.66653" lon="5.59172">
        <ele>423.6</ele>
      </trkpt>
      <trkpt lat="46.66653" lon="5.59169">
        <ele>423.2</ele>
      </trkpt>
      <trkpt lat="46.66655" lon="5.59165">
        <ele>422.6</ele>
      </trkpt>
      <trkpt lat="46.66656" lon="5.59162">
        <ele>422.2</ele>
      </trkpt>
      <trkpt lat="46.66658" lon="5.59158">
        <ele>421.7</ele>
      </trkpt>
      <trkpt lat="46.66658" lon="5.59155">
        <ele>421.3</ele>
      </trkpt>
      <trkpt lat="46.6666" lon="5.59152">
        <ele>421</ele>
      </trkpt>
      <trkpt lat="46.66662" lon="5.59149">
        <ele>420.6</ele>
      </trkpt>
      <trkpt lat="46.66663" lon="5.59145">
        <ele>420</ele>
      </trkpt>
      <trkpt lat="46.66663" lon="5.5914">
        <ele>419.6</ele>
      </trkpt>
      <trkpt lat="46.66663" lon="5.59133">
        <ele>419.2</ele>
      </trkpt>
      <trkpt lat="46.66663" lon="5.59124">
        <ele>418.7</ele>
      </trkpt>
      <trkpt lat="46.66664" lon="5.59116">
        <ele>418.3</ele>
      </trkpt>
      <trkpt lat="46.66665" lon="5.59107">
        <ele>417.7</ele>
      </trkpt>
      <trkpt lat="46.66665" lon="5.59098">
        <ele>417.3</ele>
      </trkpt>
      <trkpt lat="46.66668" lon="5.5909">
        <ele>417</ele>
      </trkpt>
      <trkpt lat="46.66671" lon="5.59083">
        <ele>416.6</ele>
      </trkpt>
      <trkpt lat="46.66676" lon="5.59076">
        <ele>416</ele>
      </trkpt>
      <trkpt lat="46.66679" lon="5.5907">
        <ele>415.6</ele>
      </trkpt>
      <trkpt lat="46.66681" lon="5.59064">
        <ele>415.2</ele>
      </trkpt>
      <trkpt lat="46.66682" lon="5.59061">
        <ele>414.6</ele>
      </trkpt>
      <trkpt lat="46.66682" lon="5.59058">
        <ele>414.2</ele>
      </trkpt>
      <trkpt lat="46.66682" lon="5.59056">
        <ele>413.6</ele>
      </trkpt>
      <trkpt lat="46.66684" lon="5.59052">
        <ele>413</ele>
      </trkpt>
      <trkpt lat="46.66684" lon="5.59048">
        <ele>412.3</ele>
      </trkpt>
      <trkpt lat="46.66686" lon="5.59043">
        <ele>411.7</ele>
      </trkpt>
      <trkpt lat="46.66687" lon="5.59038">
        <ele>411.3</ele>
      </trkpt>
      <trkpt lat="46.66688" lon="5.59035">
        <ele>410.7</ele>
      </trkpt>
      <trkpt lat="46.66689" lon="5.59032">
        <ele>410.2</ele>
      </trkpt>
      <trkpt lat="46.6669" lon="5.59029">
        <ele>409.3</ele>
      </trkpt>
      <trkpt lat="46.66693" lon="5.5903">
        <ele>407.3</ele>
      </trkpt>
      <trkpt lat="46.66694" lon="5.59027">
        <ele>406</ele>
      </trkpt>
      <trkpt lat="46.66694" lon="5.59024">
        <ele>404.6</ele>
      </trkpt>
      <trkpt lat="46.66695" lon="5.59021">
        <ele>403.2</ele>
      </trkpt>
      <trkpt lat="46.66695" lon="5.59019">
        <ele>402</ele>
      </trkpt>
      <trkpt lat="46.66697" lon="5.59014">
        <ele>400.7</ele>
      </trkpt>
      <trkpt lat="46.66697" lon="5.5901">
        <ele>400.2</ele>
      </trkpt>
      <trkpt lat="46.66697" lon="5.59005">
        <ele>399.6</ele>
      </trkpt>
      <trkpt lat="46.66698" lon="5.59002">
        <ele>399.2</ele>
      </trkpt>
      <trkpt lat="46.66699" lon="5.58999">
        <ele>398.6</ele>
      </trkpt>
      <trkpt lat="46.667" lon="5.58995">
        <ele>398</ele>
      </trkpt>
      <trkpt lat="46.667" lon="5.58991">
        <ele>397.6</ele>
      </trkpt>
      <trkpt lat="46.66701" lon="5.58986">
        <ele>397</ele>
      </trkpt>
      <trkpt lat="46.66703" lon="5.58981">
        <ele>396.6</ele>
      </trkpt>
      <trkpt lat="46.66704" lon="5.58979">
        <ele>396</ele>
      </trkpt>
      <trkpt lat="46.66706" lon="5.58977">
        <ele>395.6</ele>
      </trkpt>
      <trkpt lat="46.66708" lon="5.58973">
        <ele>395</ele>
      </trkpt>
      <trkpt lat="46.66709" lon="5.58968">
        <ele>394.6</ele>
      </trkpt>
      <trkpt lat="46.6671" lon="5.58964">
        <ele>394.2</ele>
      </trkpt>
      <trkpt lat="46.6671" lon="5.58962">
        <ele>393.6</ele>
      </trkpt>
      <trkpt lat="46.66707" lon="5.58957">
        <ele>392.6</ele>
      </trkpt>
      <trkpt lat="46.66705" lon="5.58954">
        <ele>392</ele>
      </trkpt>
      <trkpt lat="46.66703" lon="5.58951">
        <ele>391.6</ele>
      </trkpt>
      <trkpt lat="46.66699" lon="5.58949">
        <ele>391</ele>
      </trkpt>
      <trkpt lat="46.66697" lon="5.58947">
        <ele>390.6</ele>
      </trkpt>
      <trkpt lat="46.66695" lon="5.58944">
        <ele>390</ele>
      </trkpt>
      <trkpt lat="46.66695" lon="5.58941">
        <ele>389.3</ele>
      </trkpt>
      <trkpt lat="46.66697" lon="5.58937">
        <ele>389</ele>
      </trkpt>
      <trkpt lat="46.66697" lon="5.58932">
        <ele>388.3</ele>
      </trkpt>
      <trkpt lat="46.66697" lon="5.58928">
        <ele>387.7</ele>
      </trkpt>
      <trkpt lat="46.66698" lon="5.58925">
        <ele>387.3</ele>
      </trkpt>
      <trkpt lat="46.66697" lon="5.58922">
        <ele>386.7</ele>
      </trkpt>
      <trkpt lat="46.66697" lon="5.58918">
        <ele>386.3</ele>
      </trkpt>
      <trkpt lat="46.66695" lon="5.58915">
        <ele>386</ele>
      </trkpt>
      <trkpt lat="46.66694" lon="5.58911">
        <ele>385.3</ele>
      </trkpt>
      <trkpt lat="46.66693" lon="5.58907">
        <ele>385</ele>
      </trkpt>
      <trkpt lat="46.66692" lon="5.58903">
        <ele>384.6</ele>
      </trkpt>
      <trkpt lat="46.6669" lon="5.58898">
        <ele>384.2</ele>
      </trkpt>
      <trkpt lat="46.66689" lon="5.58893">
        <ele>383.7</ele>
      </trkpt>
      <trkpt lat="46.66688" lon="5.58889">
        <ele>383.3</ele>
      </trkpt>
      <trkpt lat="46.66688" lon="5.58886">
        <ele>383</ele>
      </trkpt>
      <trkpt lat="46.66687" lon="5.58881">
        <ele>382.6</ele>
      </trkpt>
      <trkpt lat="46.66688" lon="5.58877">
        <ele>382.2</ele>
      </trkpt>
      <trkpt lat="46.66688" lon="5.58873">
        <ele>381.6</ele>
      </trkpt>
      <trkpt lat="46.66688" lon="5.58869">
        <ele>381.2</ele>
      </trkpt>
      <trkpt lat="46.66688" lon="5.58864">
        <ele>380.7</ele>
      </trkpt>
      <trkpt lat="46.66688" lon="5.58857">
        <ele>380.3</ele>
      </trkpt>
      <trkpt lat="46.66689" lon="5.58853">
        <ele>380</ele>
      </trkpt>
      <trkpt lat="46.66689" lon="5.58848">
        <ele>379.6</ele>
      </trkpt>
      <trkpt lat="46.6669" lon="5.58845">
        <ele>379.2</ele>
      </trkpt>
      <trkpt lat="46.66692" lon="5.58841">
        <ele>378.7</ele>
      </trkpt>
      <trkpt lat="46.66692" lon="5.58836">
        <ele>378.3</ele>
      </trkpt>
      <trkpt lat="46.66693" lon="5.58832">
        <ele>378</ele>
      </trkpt>
      <trkpt lat="46.66693" lon="5.58827">
        <ele>377.3</ele>
      </trkpt>
      <trkpt lat="46.66694" lon="5.58823">
        <ele>377</ele>
      </trkpt>
      <trkpt lat="46.66694" lon="5.58819">
        <ele>376.6</ele>
      </trkpt>
      <trkpt lat="46.66695" lon="5.58815">
        <ele>376.2</ele>
      </trkpt>
      <trkpt lat="46.66697" lon="5.58812">
        <ele>375.6</ele>
      </trkpt>
      <trkpt lat="46.66697" lon="5.58808">
        <ele>375.2</ele>
      </trkpt>
      <trkpt lat="46.66697" lon="5.58804">
        <ele>374.7</ele>
      </trkpt>
      <trkpt lat="46.66697" lon="5.58799">
        <ele>374.2</ele>
      </trkpt>
      <trkpt lat="46.66699" lon="5.58794">
        <ele>373.7</ele>
      </trkpt>
      <trkpt lat="46.66699" lon="5.58788">
        <ele>373.2</ele>
      </trkpt>
      <trkpt lat="46.667" lon="5.58784">
        <ele>372.7</ele>
      </trkpt>
      <trkpt lat="46.66701" lon="5.5878">
        <ele>372.2</ele>
      </trkpt>
      <trkpt lat="46.66703" lon="5.58776">
        <ele>371.6</ele>
      </trkpt>
      <trkpt lat="46.66704" lon="5.58772">
        <ele>371.2</ele>
      </trkpt>
      <trkpt lat="46.66706" lon="5.58769">
        <ele>370.6</ele>
      </trkpt>
      <trkpt lat="46.66708" lon="5.58766">
        <ele>370.2</ele>
      </trkpt>
      <trkpt lat="46.66709" lon="5.58763">
        <ele>369.6</ele>
      </trkpt>
      <trkpt lat="46.66711" lon="5.5876">
        <ele>369.2</ele>
      </trkpt>
      <trkpt lat="46.66713" lon="5.58756">
        <ele>368.6</ele>
      </trkpt>
      <trkpt lat="46.66714" lon="5.58752">
        <ele>368.2</ele>
      </trkpt>
      <trkpt lat="46.66716" lon="5.58748">
        <ele>367.7</ele>
      </trkpt>
      <trkpt lat="46.66718" lon="5.58743">
        <ele>367.2</ele>
      </trkpt>
      <trkpt lat="46.6672" lon="5.58739">
        <ele>366.7</ele>
      </trkpt>
      <trkpt lat="46.66721" lon="5.58735">
        <ele>366.3</ele>
      </trkpt>
      <trkpt lat="46.66723" lon="5.58731">
        <ele>366</ele>
      </trkpt>
      <trkpt lat="46.66724" lon="5.58726">
        <ele>365.6</ele>
      </trkpt>
      <trkpt lat="46.66724" lon="5.58721">
        <ele>365</ele>
      </trkpt>
      <trkpt lat="46.66724" lon="5.58716">
        <ele>364.6</ele>
      </trkpt>
      <trkpt lat="46.66725" lon="5.5871">
        <ele>364.2</ele>
      </trkpt>
      <trkpt lat="46.66725" lon="5.58705">
        <ele>363.7</ele>
      </trkpt>
      <trkpt lat="46.66724" lon="5.587">
        <ele>363.2</ele>
      </trkpt>
      <trkpt lat="46.66724" lon="5.58695">
        <ele>362.7</ele>
      </trkpt>
      <trkpt lat="46.66724" lon="5.5869">
        <ele>362.2</ele>
      </trkpt>
      <trkpt lat="46.66724" lon="5.58685">
        <ele>361.7</ele>
      </trkpt>
      <trkpt lat="46.66724" lon="5.58681">
        <ele>361.2</ele>
      </trkpt>
      <trkpt lat="46.66724" lon="5.58676">
        <ele>360.7</ele>
      </trkpt>
      <trkpt lat="46.66724" lon="5.5867">
        <ele>360.2</ele>
      </trkpt>
      <trkpt lat="46.66724" lon="5.58665">
        <ele>359.7</ele>
      </trkpt>
      <trkpt lat="46.66724" lon="5.58661">
        <ele>359.2</ele>
      </trkpt>
      <trkpt lat="46.66724" lon="5.58654">
        <ele>358.6</ele>
      </trkpt>
      <trkpt lat="46.66724" lon="5.58649">
        <ele>358.2</ele>
      </trkpt>
      <trkpt lat="46.66724" lon="5.58645">
        <ele>357.6</ele>
      </trkpt>
      <trkpt lat="46.66726" lon="5.58641">
        <ele>357</ele>
      </trkpt>
      <trkpt lat="46.66727" lon="5.58637">
        <ele>356.3</ele>
      </trkpt>
      <trkpt lat="46.66729" lon="5.58634">
        <ele>356</ele>
      </trkpt>
      <trkpt lat="46.66732" lon="5.58629">
        <ele>355.3</ele>
      </trkpt>
      <trkpt lat="46.66733" lon="5.58625">
        <ele>354.7</ele>
      </trkpt>
      <trkpt lat="46.66735" lon="5.58623">
        <ele>354.2</ele>
      </trkpt>
      <trkpt lat="46.66738" lon="5.58619">
        <ele>353.6</ele>
      </trkpt>
      <trkpt lat="46.6674" lon="5.58615">
        <ele>353</ele>
      </trkpt>
      <trkpt lat="46.66742" lon="5.58611">
        <ele>352.6</ele>
      </trkpt>
      <trkpt lat="46.66745" lon="5.58607">
        <ele>352</ele>
      </trkpt>
      <trkpt lat="46.66749" lon="5.58605">
        <ele>351.3</ele>
      </trkpt>
      <trkpt lat="46.66751" lon="5.58603">
        <ele>350.7</ele>
      </trkpt>
      <trkpt lat="46.66753" lon="5.586">
        <ele>350</ele>
      </trkpt>
      <trkpt lat="46.66756" lon="5.58597">
        <ele>349.3</ele>
      </trkpt>
      <trkpt lat="46.66759" lon="5.58595">
        <ele>348.7</ele>
      </trkpt>
      <trkpt lat="46.66762" lon="5.58591">
        <ele>348</ele>
      </trkpt>
      <trkpt lat="46.66764" lon="5.58588">
        <ele>347.3</ele>
      </trkpt>
      <trkpt lat="46.66766" lon="5.58585">
        <ele>346.7</ele>
      </trkpt>
      <trkpt lat="46.66769" lon="5.58582">
        <ele>346.2</ele>
      </trkpt>
      <trkpt lat="46.66771" lon="5.5858">
        <ele>345.7</ele>
      </trkpt>
      <trkpt lat="46.66774" lon="5.58578">
        <ele>345.2</ele>
      </trkpt>
      <trkpt lat="46.66777" lon="5.58575">
        <ele>344.6</ele>
      </trkpt>
      <trkpt lat="46.66778" lon="5.58571">
        <ele>344.2</ele>
      </trkpt>
      <trkpt lat="46.66778" lon="5.58567">
        <ele>343.6</ele>
      </trkpt>
      <trkpt lat="46.66778" lon="5.58562">
        <ele>343</ele>
      </trkpt>
      <trkpt lat="46.66777" lon="5.58557">
        <ele>342.6</ele>
      </trkpt>
      <trkpt lat="46.66776" lon="5.58554">
        <ele>342</ele>
      </trkpt>
      <trkpt lat="46.66774" lon="5.5855">
        <ele>341.3</ele>
      </trkpt>
      <trkpt lat="46.66771" lon="5.58547">
        <ele>341</ele>
      </trkpt>
      <trkpt lat="46.66769" lon="5.58543">
        <ele>340.3</ele>
      </trkpt>
      <trkpt lat="46.66767" lon="5.5854">
        <ele>340</ele>
      </trkpt>
      <trkpt lat="46.66764" lon="5.58536">
        <ele>339.3</ele>
      </trkpt>
      <trkpt lat="46.66762" lon="5.58533">
        <ele>338.7</ele>
      </trkpt>
      <trkpt lat="46.66759" lon="5.58529">
        <ele>338.3</ele>
      </trkpt>
      <trkpt lat="46.66756" lon="5.58525">
        <ele>337.7</ele>
      </trkpt>
      <trkpt lat="46.66754" lon="5.58522">
        <ele>337.3</ele>
      </trkpt>
      <trkpt lat="46.66753" lon="5.58519">
        <ele>336.7</ele>
      </trkpt>
      <trkpt lat="46.6675" lon="5.58517">
        <ele>336.3</ele>
      </trkpt>
      <trkpt lat="46.66748" lon="5.58514">
        <ele>336</ele>
      </trkpt>
      <trkpt lat="46.66746" lon="5.58511">
        <ele>335.3</ele>
      </trkpt>
      <trkpt lat="46.66744" lon="5.58508">
        <ele>335</ele>
      </trkpt>
      <trkpt lat="46.66741" lon="5.58505">
        <ele>334.6</ele>
      </trkpt>
      <trkpt lat="46.66739" lon="5.58501">
        <ele>334</ele>
      </trkpt>
      <trkpt lat="46.66737" lon="5.58498">
        <ele>333.6</ele>
      </trkpt>
      <trkpt lat="46.66735" lon="5.58496">
        <ele>333</ele>
      </trkpt>
      <trkpt lat="46.66733" lon="5.58492">
        <ele>332.6</ele>
      </trkpt>
      <trkpt lat="46.66731" lon="5.58489">
        <ele>332</ele>
      </trkpt>
      <trkpt lat="46.66727" lon="5.58485">
        <ele>331.6</ele>
      </trkpt>
      <trkpt lat="46.66725" lon="5.58482">
        <ele>331.2</ele>
      </trkpt>
      <trkpt lat="46.66723" lon="5.58478">
        <ele>330.7</ele>
      </trkpt>
      <trkpt lat="46.6672" lon="5.58474">
        <ele>330.3</ele>
      </trkpt>
      <trkpt lat="46.66718" lon="5.5847">
        <ele>330</ele>
      </trkpt>
      <trkpt lat="46.66717" lon="5.58465">
        <ele>329.6</ele>
      </trkpt>
      <trkpt lat="46.66715" lon="5.58462">
        <ele>329.2</ele>
      </trkpt>
      <trkpt lat="46.66713" lon="5.58457">
        <ele>328.7</ele>
      </trkpt>
      <trkpt lat="46.66713" lon="5.58452">
        <ele>328.3</ele>
      </trkpt>
      <trkpt lat="46.66713" lon="5.58446">
        <ele>328</ele>
      </trkpt>
      <trkpt lat="46.66711" lon="5.5844">
        <ele>327.7</ele>
      </trkpt>
      <trkpt lat="46.66711" lon="5.58433">
        <ele>327.3</ele>
      </trkpt>
      <trkpt lat="46.66711" lon="5.58428">
        <ele>327</ele>
      </trkpt>
      <trkpt lat="46.6671" lon="5.58422">
        <ele>326.7</ele>
      </trkpt>
      <trkpt lat="46.6671" lon="5.58416">
        <ele>326.3</ele>
      </trkpt>
      <trkpt lat="46.6671" lon="5.58411">
        <ele>326</ele>
      </trkpt>
      <trkpt lat="46.66711" lon="5.58406">
        <ele>325.6</ele>
      </trkpt>
      <trkpt lat="46.66711" lon="5.58401">
        <ele>325.2</ele>
      </trkpt>
      <trkpt lat="46.66711" lon="5.58396">
        <ele>324.7</ele>
      </trkpt>
      <trkpt lat="46.66713" lon="5.58392">
        <ele>324.3</ele>
      </trkpt>
      <trkpt lat="46.66713" lon="5.58387">
        <ele>324</ele>
      </trkpt>
      <trkpt lat="46.66713" lon="5.58382">
        <ele>323.3</ele>
      </trkpt>
      <trkpt lat="46.66713" lon="5.58377">
        <ele>323</ele>
      </trkpt>
      <trkpt lat="46.66714" lon="5.58372">
        <ele>322.3</ele>
      </trkpt>
      <trkpt lat="46.66715" lon="5.58367">
        <ele>322</ele>
      </trkpt>
      <trkpt lat="46.66715" lon="5.58362">
        <ele>321.6</ele>
      </trkpt>
      <trkpt lat="46.66715" lon="5.58358">
        <ele>321.2</ele>
      </trkpt>
      <trkpt lat="46.66716" lon="5.58353">
        <ele>320.7</ele>
      </trkpt>
      <trkpt lat="46.66716" lon="5.58349">
        <ele>320.3</ele>
      </trkpt>
      <trkpt lat="46.66716" lon="5.58344">
        <ele>320</ele>
      </trkpt>
      <trkpt lat="46.66717" lon="5.58341">
        <ele>319.6</ele>
      </trkpt>
      <trkpt lat="46.66718" lon="5.58339">
        <ele>319.2</ele>
      </trkpt>
      <trkpt lat="46.66721" lon="5.5834">
        <ele>318.7</ele>
      </trkpt>
      <trkpt lat="46.66724" lon="5.58341">
        <ele>318.6</ele>
      </trkpt>
      <trkpt lat="46.66726" lon="5.58342">
        <ele>318.2</ele>
      </trkpt>
      <trkpt lat="46.66731" lon="5.58343">
        <ele>318</ele>
      </trkpt>
      <trkpt lat="46.66734" lon="5.58344">
        <ele>317.6</ele>
      </trkpt>
      <trkpt lat="46.66736" lon="5.58345">
        <ele>317.3</ele>
      </trkpt>
      <trkpt lat="46.66739" lon="5.58347">
        <ele>317</ele>
      </trkpt>
      <trkpt lat="46.66743" lon="5.58348">
        <ele>316.6</ele>
      </trkpt>
      <trkpt lat="46.66745" lon="5.58349">
        <ele>316.3</ele>
      </trkpt>
      <trkpt lat="46.66749" lon="5.58351">
        <ele>316.2</ele>
      </trkpt>
      <trkpt lat="46.66753" lon="5.58352">
        <ele>316</ele>
      </trkpt>
      <trkpt lat="46.66756" lon="5.58352">
        <ele>315.6</ele>
      </trkpt>
      <trkpt lat="46.66759" lon="5.58353">
        <ele>315.3</ele>
      </trkpt>
      <trkpt lat="46.66762" lon="5.58353">
        <ele>315.2</ele>
      </trkpt>
      <trkpt lat="46.66766" lon="5.58353">
        <ele>315</ele>
      </trkpt>
      <trkpt lat="46.66768" lon="5.58353">
        <ele>314.7</ele>
      </trkpt>
      <trkpt lat="46.6677" lon="5.58352">
        <ele>314.6</ele>
      </trkpt>
      <trkpt lat="46.66773" lon="5.58352">
        <ele>314.6</ele>
      </trkpt>
      <trkpt lat="46.66776" lon="5.58352">
        <ele>314.3</ele>
      </trkpt>
      <trkpt lat="46.6678" lon="5.58352">
        <ele>314.3</ele>
      </trkpt>
      <trkpt lat="46.66782" lon="5.58352">
        <ele>314.2</ele>
      </trkpt>
      <trkpt lat="46.66786" lon="5.58354">
        <ele>314</ele>
      </trkpt>
      <trkpt lat="46.6679" lon="5.58354">
        <ele>314</ele>
      </trkpt>
      <trkpt lat="46.66793" lon="5.58354">
        <ele>313.7</ele>
      </trkpt>
      <trkpt lat="46.66795" lon="5.58355">
        <ele>313.7</ele>
      </trkpt>
      <trkpt lat="46.66799" lon="5.58356">
        <ele>313.6</ele>
      </trkpt>
      <trkpt lat="46.66802" lon="5.58357">
        <ele>313.3</ele>
      </trkpt>
      <trkpt lat="46.66806" lon="5.58357">
        <ele>313.3</ele>
      </trkpt>
      <trkpt lat="46.66809" lon="5.58357">
        <ele>313.2</ele>
      </trkpt>
      <trkpt lat="46.66811" lon="5.58356">
        <ele>313</ele>
      </trkpt>
      <trkpt lat="46.66812" lon="5.5835">
        <ele>312.6</ele>
      </trkpt>
      <trkpt lat="46.66813" lon="5.58347">
        <ele>312.3</ele>
      </trkpt>
      <trkpt lat="46.66815" lon="5.58344">
        <ele>312.3</ele>
      </trkpt>
      <trkpt lat="46.66816" lon="5.58343">
        <ele>312.2</ele>
      </trkpt>
      <trkpt lat="46.66819" lon="5.58343">
        <ele>312.2</ele>
      </trkpt>
      <trkpt lat="46.66821" lon="5.58347">
        <ele>312.2</ele>
      </trkpt>
      <trkpt lat="46.66822" lon="5.58349">
        <ele>312.2</ele>
      </trkpt>
      <trkpt lat="46.66826" lon="5.58348">
        <ele>312</ele>
      </trkpt>
      <trkpt lat="46.66828" lon="5.58345">
        <ele>312</ele>
      </trkpt>
      <trkpt lat="46.6683" lon="5.58341">
        <ele>312</ele>
      </trkpt>
      <trkpt lat="46.6683" lon="5.58338">
        <ele>311.7</ele>
      </trkpt>
      <trkpt lat="46.66832" lon="5.58334">
        <ele>311.7</ele>
      </trkpt>
      <trkpt lat="46.66835" lon="5.5833">
        <ele>311.6</ele>
      </trkpt>
      <trkpt lat="46.66835" lon="5.58325">
        <ele>311.6</ele>
      </trkpt>
      <trkpt lat="46.66836" lon="5.58321">
        <ele>311.3</ele>
      </trkpt>
      <trkpt lat="46.66837" lon="5.58317">
        <ele>311.2</ele>
      </trkpt>
      <trkpt lat="46.66838" lon="5.58313">
        <ele>311.2</ele>
      </trkpt>
      <trkpt lat="46.66838" lon="5.58308">
        <ele>311</ele>
      </trkpt>
      <trkpt lat="46.66839" lon="5.58303">
        <ele>311</ele>
      </trkpt>
      <trkpt lat="46.6684" lon="5.58299">
        <ele>310.7</ele>
      </trkpt>
      <trkpt lat="46.66841" lon="5.58295">
        <ele>310.7</ele>
      </trkpt>
      <trkpt lat="46.66842" lon="5.58291">
        <ele>310.6</ele>
      </trkpt>
      <trkpt lat="46.66843" lon="5.58287">
        <ele>310.3</ele>
      </trkpt>
      <trkpt lat="46.66844" lon="5.58284">
        <ele>310.3</ele>
      </trkpt>
      <trkpt lat="46.66845" lon="5.5828">
        <ele>310.2</ele>
      </trkpt>
      <trkpt lat="46.66846" lon="5.58276">
        <ele>310</ele>
      </trkpt>
      <trkpt lat="46.66848" lon="5.58271">
        <ele>310</ele>
      </trkpt>
      <trkpt lat="46.6685" lon="5.58268">
        <ele>309.7</ele>
      </trkpt>
      <trkpt lat="46.66851" lon="5.58266">
        <ele>309.6</ele>
      </trkpt>
      <trkpt lat="46.66852" lon="5.58262">
        <ele>309.6</ele>
      </trkpt>
      <trkpt lat="46.66853" lon="5.58257">
        <ele>309.3</ele>
      </trkpt>
      <trkpt lat="46.66854" lon="5.58252">
        <ele>309.2</ele>
      </trkpt>
      <trkpt lat="46.66856" lon="5.58249">
        <ele>309</ele>
      </trkpt>
      <trkpt lat="46.66859" lon="5.58249">
        <ele>308.6</ele>
      </trkpt>
      <trkpt lat="46.66862" lon="5.5825">
        <ele>308.3</ele>
      </trkpt>
      <trkpt lat="46.66864" lon="5.5825">
        <ele>308.3</ele>
      </trkpt>
      <trkpt lat="46.66867" lon="5.58251">
        <ele>308.2</ele>
      </trkpt>
      <trkpt lat="46.66869" lon="5.58251">
        <ele>308</ele>
      </trkpt>
      <trkpt lat="46.66871" lon="5.58249">
        <ele>307.7</ele>
      </trkpt>
      <trkpt lat="46.66874" lon="5.58248">
        <ele>307.7</ele>
      </trkpt>
      <trkpt lat="46.66876" lon="5.58244">
        <ele>307.6</ele>
      </trkpt>
      <trkpt lat="46.66877" lon="5.58241">
        <ele>307.3</ele>
      </trkpt>
      <trkpt lat="46.6688" lon="5.58238">
        <ele>307.2</ele>
      </trkpt>
      <trkpt lat="46.66882" lon="5.58237">
        <ele>307</ele>
      </trkpt>
      <trkpt lat="46.66884" lon="5.58236">
        <ele>307</ele>
      </trkpt>
      <trkpt lat="46.66887" lon="5.58234">
        <ele>306.7</ele>
      </trkpt>
      <trkpt lat="46.66889" lon="5.58232">
        <ele>306.6</ele>
      </trkpt>
      <trkpt lat="46.66892" lon="5.5823">
        <ele>306.2</ele>
      </trkpt>
      <trkpt lat="46.66894" lon="5.5823">
        <ele>306</ele>
      </trkpt>
      <trkpt lat="46.66896" lon="5.58225">
        <ele>305.3</ele>
      </trkpt>
      <trkpt lat="46.66898" lon="5.58223">
        <ele>305.2</ele>
      </trkpt>
      <trkpt lat="46.66899" lon="5.58221">
        <ele>305</ele>
      </trkpt>
      <trkpt lat="46.66901" lon="5.5822">
        <ele>304.7</ele>
      </trkpt>
      <trkpt lat="46.66904" lon="5.58218">
        <ele>304.3</ele>
      </trkpt>
      <trkpt lat="46.66907" lon="5.58217">
        <ele>304</ele>
      </trkpt>
      <trkpt lat="46.66909" lon="5.58217">
        <ele>303.7</ele>
      </trkpt>
      <trkpt lat="46.66911" lon="5.58217">
        <ele>303.3</ele>
      </trkpt>
      <trkpt lat="46.66915" lon="5.58217">
        <ele>303.2</ele>
      </trkpt>
      <trkpt lat="46.66917" lon="5.58217">
        <ele>303</ele>
      </trkpt>
      <trkpt lat="46.66919" lon="5.58217">
        <ele>302.7</ele>
      </trkpt>
      <trkpt lat="46.66922" lon="5.58217">
        <ele>302.6</ele>
      </trkpt>
      <trkpt lat="46.66925" lon="5.58217">
        <ele>302.6</ele>
      </trkpt>
      <trkpt lat="46.66927" lon="5.58217">
        <ele>302.3</ele>
      </trkpt>
      <trkpt lat="46.66932" lon="5.58217">
        <ele>302.3</ele>
      </trkpt>
      <trkpt lat="46.66935" lon="5.58217">
        <ele>302.2</ele>
      </trkpt>
      <trkpt lat="46.66939" lon="5.58217">
        <ele>302.2</ele>
      </trkpt>
      <trkpt lat="46.66942" lon="5.58216">
        <ele>302</ele>
      </trkpt>
      <trkpt lat="46.66945" lon="5.58215">
        <ele>302</ele>
      </trkpt>
      <trkpt lat="46.66947" lon="5.58215">
        <ele>302</ele>
      </trkpt>
      <trkpt lat="46.66951" lon="5.58214">
        <ele>301.7</ele>
      </trkpt>
      <trkpt lat="46.66953" lon="5.58214">
        <ele>301.7</ele>
      </trkpt>
      <trkpt lat="46.66955" lon="5.58213">
        <ele>301.7</ele>
      </trkpt>
      <trkpt lat="46.66956" lon="5.5821">
        <ele>301.7</ele>
      </trkpt>
      <trkpt lat="46.66956" lon="5.58207">
        <ele>301.7</ele>
      </trkpt>
      <trkpt lat="46.66956" lon="5.58203">
        <ele>301.7</ele>
      </trkpt>
      <trkpt lat="46.66956" lon="5.58201">
        <ele>301.6</ele>
      </trkpt>
      <trkpt lat="46.66954" lon="5.58197">
        <ele>301.6</ele>
      </trkpt>
      <trkpt lat="46.66954" lon="5.58193">
        <ele>301.6</ele>
      </trkpt>
      <trkpt lat="46.66953" lon="5.58188">
        <ele>301.6</ele>
      </trkpt>
      <trkpt lat="46.66953" lon="5.58184">
        <ele>301.6</ele>
      </trkpt>
      <trkpt lat="46.66953" lon="5.58179">
        <ele>301.6</ele>
      </trkpt>
      <trkpt lat="46.66953" lon="5.58174">
        <ele>301.6</ele>
      </trkpt>
      <trkpt lat="46.66953" lon="5.58169">
        <ele>301.6</ele>
      </trkpt>
      <trkpt lat="46.66953" lon="5.58163">
        <ele>301.6</ele>
      </trkpt>
      <trkpt lat="46.66952" lon="5.58159">
        <ele>301.6</ele>
      </trkpt>
      <trkpt lat="46.66953" lon="5.58155">
        <ele>301.6</ele>
      </trkpt>
      <trkpt lat="46.66953" lon="5.58151">
        <ele>301.6</ele>
      </trkpt>
      <trkpt lat="46.66952" lon="5.58147">
        <ele>301.6</ele>
      </trkpt>
      <trkpt lat="46.66951" lon="5.58142">
        <ele>301.6</ele>
      </trkpt>
      <trkpt lat="46.66951" lon="5.58137">
        <ele>301.3</ele>
      </trkpt>
      <trkpt lat="46.6695" lon="5.58133">
        <ele>301.3</ele>
      </trkpt>
      <trkpt lat="46.6695" lon="5.58128">
        <ele>301.3</ele>
      </trkpt>
      <trkpt lat="46.6695" lon="5.58123">
        <ele>301.3</ele>
      </trkpt>
      <trkpt lat="46.66949" lon="5.58119">
        <ele>301.3</ele>
      </trkpt>
      <trkpt lat="46.66948" lon="5.58114">
        <ele>301.3</ele>
      </trkpt>
      <trkpt lat="46.66948" lon="5.58109">
        <ele>301.3</ele>
      </trkpt>
      <trkpt lat="46.66948" lon="5.58105">
        <ele>301.3</ele>
      </trkpt>
      <trkpt lat="46.66947" lon="5.58101">
        <ele>301.3</ele>
      </trkpt>
      <trkpt lat="46.66947" lon="5.58096">
        <ele>301.3</ele>
      </trkpt>
      <trkpt lat="46.66946" lon="5.58092">
        <ele>301.3</ele>
      </trkpt>
      <trkpt lat="46.66946" lon="5.58087">
        <ele>301.2</ele>
      </trkpt>
      <trkpt lat="46.66946" lon="5.58082">
        <ele>301.2</ele>
      </trkpt>
      <trkpt lat="46.66946" lon="5.58077">
        <ele>301.2</ele>
      </trkpt>
      <trkpt lat="46.66946" lon="5.58073">
        <ele>301</ele>
      </trkpt>
      <trkpt lat="46.66946" lon="5.58068">
        <ele>301</ele>
      </trkpt>
      <trkpt lat="46.66946" lon="5.58064">
        <ele>301</ele>
      </trkpt>
      <trkpt lat="46.66947" lon="5.58061">
        <ele>300.7</ele>
      </trkpt>
      <trkpt lat="46.66947" lon="5.58058">
        <ele>300.7</ele>
      </trkpt>
      <trkpt lat="46.66947" lon="5.58055">
        <ele>300.7</ele>
      </trkpt>
      <trkpt lat="46.66945" lon="5.58052">
        <ele>300.6</ele>
      </trkpt>
      <trkpt lat="46.66943" lon="5.58051">
        <ele>300.6</ele>
      </trkpt>
      <trkpt lat="46.66939" lon="5.58049">
        <ele>300.3</ele>
      </trkpt>
      <trkpt lat="46.66937" lon="5.58048">
        <ele>300.3</ele>
      </trkpt>
      <trkpt lat="46.66933" lon="5.58048">
        <ele>300.3</ele>
      </trkpt>
      <trkpt lat="46.66931" lon="5.58047">
        <ele>300.3</ele>
      </trkpt>
      <trkpt lat="46.66927" lon="5.58046">
        <ele>300.3</ele>
      </trkpt>
      <trkpt lat="46.66925" lon="5.58045">
        <ele>300.3</ele>
      </trkpt>
      <trkpt lat="46.66922" lon="5.58043">
        <ele>300.6</ele>
      </trkpt>
      <trkpt lat="46.66919" lon="5.5804">
        <ele>300.6</ele>
      </trkpt>
      <trkpt lat="46.66917" lon="5.58036">
        <ele>300.7</ele>
      </trkpt>
      <trkpt lat="46.66915" lon="5.58031">
        <ele>300.7</ele>
      </trkpt>
      <trkpt lat="46.66914" lon="5.58027">
        <ele>301</ele>
      </trkpt>
      <trkpt lat="46.66913" lon="5.58023">
        <ele>301</ele>
      </trkpt>
      <trkpt lat="46.6691" lon="5.5802">
        <ele>301</ele>
      </trkpt>
      <trkpt lat="46.66908" lon="5.58017">
        <ele>301</ele>
      </trkpt>
      <trkpt lat="46.66906" lon="5.58015">
        <ele>301</ele>
      </trkpt>
      <trkpt lat="46.66906" lon="5.58011">
        <ele>301</ele>
      </trkpt>
      <trkpt lat="46.66904" lon="5.58006">
        <ele>301</ele>
      </trkpt>
      <trkpt lat="46.66903" lon="5.58001">
        <ele>301</ele>
      </trkpt>
      <trkpt lat="46.66901" lon="5.57998">
        <ele>301.2</ele>
      </trkpt>
      <trkpt lat="46.66901" lon="5.57994">
        <ele>301.2</ele>
      </trkpt>
      <trkpt lat="46.669" lon="5.5799">
        <ele>301.2</ele>
      </trkpt>
      <trkpt lat="46.66899" lon="5.57986">
        <ele>301.2</ele>
      </trkpt>
      <trkpt lat="46.66898" lon="5.57982">
        <ele>301.2</ele>
      </trkpt>
      <trkpt lat="46.66898" lon="5.57977">
        <ele>301</ele>
      </trkpt>
      <trkpt lat="46.66897" lon="5.57973">
        <ele>301</ele>
      </trkpt>
      <trkpt lat="46.66896" lon="5.57969">
        <ele>301</ele>
      </trkpt>
      <trkpt lat="46.66896" lon="5.57966">
        <ele>301</ele>
      </trkpt>
      <trkpt lat="46.66896" lon="5.57962">
        <ele>300.7</ele>
      </trkpt>
      <trkpt lat="46.66896" lon="5.57958">
        <ele>300.7</ele>
      </trkpt>
      <trkpt lat="46.66895" lon="5.57954">
        <ele>300.7</ele>
      </trkpt>
      <trkpt lat="46.66894" lon="5.5795">
        <ele>300.6</ele>
      </trkpt>
      <trkpt lat="46.66894" lon="5.57946">
        <ele>300.6</ele>
      </trkpt>
      <trkpt lat="46.66893" lon="5.57942">
        <ele>300.6</ele>
      </trkpt>
      <trkpt lat="46.66893" lon="5.57938">
        <ele>300.3</ele>
      </trkpt>
      <trkpt lat="46.66892" lon="5.57933">
        <ele>300.3</ele>
      </trkpt>
      <trkpt lat="46.66892" lon="5.57929">
        <ele>300.2</ele>
      </trkpt>
      <trkpt lat="46.66891" lon="5.57924">
        <ele>300.2</ele>
      </trkpt>
      <trkpt lat="46.6689" lon="5.5792">
        <ele>300.2</ele>
      </trkpt>
      <trkpt lat="46.6689" lon="5.57915">
        <ele>300.2</ele>
      </trkpt>
      <trkpt lat="46.66889" lon="5.57909">
        <ele>300</ele>
      </trkpt>
      <trkpt lat="46.66888" lon="5.57903">
        <ele>300</ele>
      </trkpt>
      <trkpt lat="46.66889" lon="5.57898">
        <ele>300</ele>
      </trkpt>
      <trkpt lat="46.66889" lon="5.57892">
        <ele>299.7</ele>
      </trkpt>
      <trkpt lat="46.66889" lon="5.57887">
        <ele>299.7</ele>
      </trkpt>
      <trkpt lat="46.66888" lon="5.57882">
        <ele>299.6</ele>
      </trkpt>
      <trkpt lat="46.66888" lon="5.57877">
        <ele>299.3</ele>
      </trkpt>
      <trkpt lat="46.66888" lon="5.57872">
        <ele>299.3</ele>
      </trkpt>
      <trkpt lat="46.66888" lon="5.57868">
        <ele>299.2</ele>
      </trkpt>
      <trkpt lat="46.66888" lon="5.57863">
        <ele>299</ele>
      </trkpt>
      <trkpt lat="46.66888" lon="5.57858">
        <ele>298.7</ele>
      </trkpt>
      <trkpt lat="46.66888" lon="5.57853">
        <ele>298.6</ele>
      </trkpt>
      <trkpt lat="46.66888" lon="5.57848">
        <ele>298.3</ele>
      </trkpt>
      <trkpt lat="46.66887" lon="5.57843">
        <ele>298.2</ele>
      </trkpt>
      <trkpt lat="46.66887" lon="5.57838">
        <ele>298</ele>
      </trkpt>
      <trkpt lat="46.66886" lon="5.57833">
        <ele>298</ele>
      </trkpt>
      <trkpt lat="46.66885" lon="5.57828">
        <ele>297.7</ele>
      </trkpt>
      <trkpt lat="46.66884" lon="5.57824">
        <ele>297.6</ele>
      </trkpt>
      <trkpt lat="46.66882" lon="5.5782">
        <ele>297.3</ele>
      </trkpt>
      <trkpt lat="46.66882" lon="5.57817">
        <ele>297</ele>
      </trkpt>
      <trkpt lat="46.66881" lon="5.57813">
        <ele>296.7</ele>
      </trkpt>
      <trkpt lat="46.6688" lon="5.5781">
        <ele>296.6</ele>
      </trkpt>
      <trkpt lat="46.66879" lon="5.57807">
        <ele>296.3</ele>
      </trkpt>
      <trkpt lat="46.66878" lon="5.57803">
        <ele>296.2</ele>
      </trkpt>
      <trkpt lat="46.66878" lon="5.57798">
        <ele>296</ele>
      </trkpt>
      <trkpt lat="46.66879" lon="5.57794">
        <ele>295.7</ele>
      </trkpt>
      <trkpt lat="46.6688" lon="5.5779">
        <ele>295.6</ele>
      </trkpt>
      <trkpt lat="46.66882" lon="5.57785">
        <ele>295.3</ele>
      </trkpt>
      <trkpt lat="46.66884" lon="5.57782">
        <ele>295.2</ele>
      </trkpt>
      <trkpt lat="46.66886" lon="5.57778">
        <ele>295</ele>
      </trkpt>
      <trkpt lat="46.66888" lon="5.57775">
        <ele>294.7</ele>
      </trkpt>
      <trkpt lat="46.6689" lon="5.57771">
        <ele>294.6</ele>
      </trkpt>
      <trkpt lat="46.66892" lon="5.57766">
        <ele>294.3</ele>
      </trkpt>
      <trkpt lat="46.66893" lon="5.57762">
        <ele>294.2</ele>
      </trkpt>
      <trkpt lat="46.66896" lon="5.57759">
        <ele>294</ele>
      </trkpt>
      <trkpt lat="46.66896" lon="5.57755">
        <ele>293.7</ele>
      </trkpt>
      <trkpt lat="46.66898" lon="5.5775">
        <ele>293.6</ele>
      </trkpt>
      <trkpt lat="46.66899" lon="5.57746">
        <ele>293.3</ele>
      </trkpt>
      <trkpt lat="46.66899" lon="5.57742">
        <ele>293.2</ele>
      </trkpt>
      <trkpt lat="46.66898" lon="5.57738">
        <ele>293</ele>
      </trkpt>
      <trkpt lat="46.66898" lon="5.57734">
        <ele>292.7</ele>
      </trkpt>
      <trkpt lat="46.66896" lon="5.57731">
        <ele>292.6</ele>
      </trkpt>
      <trkpt lat="46.66894" lon="5.57727">
        <ele>292.3</ele>
      </trkpt>
      <trkpt lat="46.66892" lon="5.57722">
        <ele>292</ele>
      </trkpt>
      <trkpt lat="46.66891" lon="5.57718">
        <ele>291.7</ele>
      </trkpt>
      <trkpt lat="46.66889" lon="5.57714">
        <ele>291.6</ele>
      </trkpt>
      <trkpt lat="46.66886" lon="5.57709">
        <ele>291.3</ele>
      </trkpt>
      <trkpt lat="46.66884" lon="5.57705">
        <ele>291.2</ele>
      </trkpt>
      <trkpt lat="46.66883" lon="5.577">
        <ele>291</ele>
      </trkpt>
      <trkpt lat="46.66882" lon="5.57696">
        <ele>290.7</ele>
      </trkpt>
      <trkpt lat="46.66881" lon="5.57692">
        <ele>290.7</ele>
      </trkpt>
      <trkpt lat="46.6688" lon="5.57687">
        <ele>290.6</ele>
      </trkpt>
      <trkpt lat="46.66878" lon="5.57683">
        <ele>290.3</ele>
      </trkpt>
      <trkpt lat="46.66877" lon="5.5768">
        <ele>290</ele>
      </trkpt>
      <trkpt lat="46.66874" lon="5.57679">
        <ele>289.7</ele>
      </trkpt>
      <trkpt lat="46.66871" lon="5.57677">
        <ele>289.6</ele>
      </trkpt>
      <trkpt lat="46.66869" lon="5.57675">
        <ele>289.3</ele>
      </trkpt>
      <trkpt lat="46.66866" lon="5.57674">
        <ele>289.2</ele>
      </trkpt>
      <trkpt lat="46.66864" lon="5.57672">
        <ele>289</ele>
      </trkpt>
      <trkpt lat="46.66861" lon="5.5767">
        <ele>288.7</ele>
      </trkpt>
      <trkpt lat="46.66859" lon="5.57668">
        <ele>288.6</ele>
      </trkpt>
      <trkpt lat="46.66856" lon="5.57666">
        <ele>288.3</ele>
      </trkpt>
      <trkpt lat="46.66853" lon="5.57664">
        <ele>288.2</ele>
      </trkpt>
      <trkpt lat="46.66851" lon="5.57661">
        <ele>288</ele>
      </trkpt>
      <trkpt lat="46.66848" lon="5.57659">
        <ele>287.7</ele>
      </trkpt>
      <trkpt lat="46.66845" lon="5.57658">
        <ele>287.6</ele>
      </trkpt>
      <trkpt lat="46.66842" lon="5.57655">
        <ele>287.3</ele>
      </trkpt>
      <trkpt lat="46.6684" lon="5.57652">
        <ele>287.2</ele>
      </trkpt>
      <trkpt lat="46.66837" lon="5.57649">
        <ele>287</ele>
      </trkpt>
      <trkpt lat="46.66835" lon="5.57648">
        <ele>286.7</ele>
      </trkpt>
      <trkpt lat="46.66833" lon="5.57645">
        <ele>286.6</ele>
      </trkpt>
      <trkpt lat="46.6683" lon="5.57642">
        <ele>286.3</ele>
      </trkpt>
      <trkpt lat="46.6683" lon="5.57639">
        <ele>286.2</ele>
      </trkpt>
      <trkpt lat="46.66829" lon="5.57636">
        <ele>286</ele>
      </trkpt>
      <trkpt lat="46.66829" lon="5.57632">
        <ele>285.7</ele>
      </trkpt>
      <trkpt lat="46.6683" lon="5.57629">
        <ele>285.6</ele>
      </trkpt>
      <trkpt lat="46.6683" lon="5.57625">
        <ele>285.3</ele>
      </trkpt>
      <trkpt lat="46.6683" lon="5.57621">
        <ele>285.2</ele>
      </trkpt>
      <trkpt lat="46.6683" lon="5.57616">
        <ele>285</ele>
      </trkpt>
      <trkpt lat="46.6683" lon="5.57611">
        <ele>284.7</ele>
      </trkpt>
      <trkpt lat="46.6683" lon="5.57607">
        <ele>284.6</ele>
      </trkpt>
      <trkpt lat="46.6683" lon="5.57604">
        <ele>284.3</ele>
      </trkpt>
      <trkpt lat="46.66828" lon="5.576">
        <ele>284.2</ele>
      </trkpt>
      <trkpt lat="46.66826" lon="5.57598">
        <ele>284</ele>
      </trkpt>
      <trkpt lat="46.66824" lon="5.57596">
        <ele>283.7</ele>
      </trkpt>
      <trkpt lat="46.66822" lon="5.57595">
        <ele>283.3</ele>
      </trkpt>
      <trkpt lat="46.6682" lon="5.57593">
        <ele>283.2</ele>
      </trkpt>
      <trkpt lat="46.66818" lon="5.57592">
        <ele>283</ele>
      </trkpt>
      <trkpt lat="46.66816" lon="5.57589">
        <ele>282.7</ele>
      </trkpt>
      <trkpt lat="46.66814" lon="5.57586">
        <ele>282.6</ele>
      </trkpt>
      <trkpt lat="46.66811" lon="5.57584">
        <ele>282.3</ele>
      </trkpt>
      <trkpt lat="46.66808" lon="5.57581">
        <ele>282.2</ele>
      </trkpt>
      <trkpt lat="46.66806" lon="5.57578">
        <ele>282</ele>
      </trkpt>
      <trkpt lat="46.66802" lon="5.57575">
        <ele>282</ele>
      </trkpt>
      <trkpt lat="46.668" lon="5.57572">
        <ele>281.7</ele>
      </trkpt>
      <trkpt lat="46.66797" lon="5.57571">
        <ele>281.7</ele>
      </trkpt>
      <trkpt lat="46.66793" lon="5.57569">
        <ele>282</ele>
      </trkpt>
      <trkpt lat="46.6679" lon="5.57567">
        <ele>282</ele>
      </trkpt>
      <trkpt lat="46.66787" lon="5.57565">
        <ele>282</ele>
      </trkpt>
      <trkpt lat="46.66785" lon="5.57562">
        <ele>282</ele>
      </trkpt>
      <trkpt lat="46.66784" lon="5.57558">
        <ele>282</ele>
      </trkpt>
      <trkpt lat="46.66781" lon="5.57556">
        <ele>282.2</ele>
      </trkpt>
      <trkpt lat="46.66777" lon="5.57553">
        <ele>282.2</ele>
      </trkpt>
      <trkpt lat="46.66774" lon="5.5755">
        <ele>282.2</ele>
      </trkpt>
      <trkpt lat="46.6677" lon="5.57547">
        <ele>282.3</ele>
      </trkpt>
      <trkpt lat="46.66767" lon="5.57545">
        <ele>282.3</ele>
      </trkpt>
      <trkpt lat="46.66764" lon="5.57543">
        <ele>282.6</ele>
      </trkpt>
      <trkpt lat="46.66762" lon="5.57541">
        <ele>282.6</ele>
      </trkpt>
      <trkpt lat="46.66759" lon="5.57539">
        <ele>282.7</ele>
      </trkpt>
      <trkpt lat="46.66757" lon="5.57537">
        <ele>282.7</ele>
      </trkpt>
      <trkpt lat="46.66754" lon="5.57534">
        <ele>282.7</ele>
      </trkpt>
      <trkpt lat="46.66752" lon="5.57532">
        <ele>283</ele>
      </trkpt>
      <trkpt lat="46.6675" lon="5.5753">
        <ele>283</ele>
      </trkpt>
      <trkpt lat="46.66747" lon="5.57528">
        <ele>283.2</ele>
      </trkpt>
      <trkpt lat="46.66745" lon="5.57526">
        <ele>283.2</ele>
      </trkpt>
      <trkpt lat="46.66742" lon="5.57524">
        <ele>283.2</ele>
      </trkpt>
      <trkpt lat="46.6674" lon="5.57522">
        <ele>283.2</ele>
      </trkpt>
      <trkpt lat="46.66738" lon="5.57518">
        <ele>283.2</ele>
      </trkpt>
      <trkpt lat="46.66735" lon="5.57515">
        <ele>283.2</ele>
      </trkpt>
      <trkpt lat="46.66733" lon="5.57512">
        <ele>283.2</ele>
      </trkpt>
      <trkpt lat="46.66733" lon="5.57506">
        <ele>283.2</ele>
      </trkpt>
      <trkpt lat="46.66733" lon="5.575">
        <ele>283</ele>
      </trkpt>
      <trkpt lat="46.66734" lon="5.57495">
        <ele>283</ele>
      </trkpt>
      <trkpt lat="46.66735" lon="5.5749">
        <ele>283</ele>
      </trkpt>
      <trkpt lat="46.66736" lon="5.57485">
        <ele>282.7</ele>
      </trkpt>
      <trkpt lat="46.66737" lon="5.5748">
        <ele>282.7</ele>
      </trkpt>
      <trkpt lat="46.66739" lon="5.57477">
        <ele>282.6</ele>
      </trkpt>
      <trkpt lat="46.66739" lon="5.57472">
        <ele>282.6</ele>
      </trkpt>
      <trkpt lat="46.6674" lon="5.57468">
        <ele>282.3</ele>
      </trkpt>
      <trkpt lat="46.66741" lon="5.57464">
        <ele>282.2</ele>
      </trkpt>
      <trkpt lat="46.66742" lon="5.57459">
        <ele>282</ele>
      </trkpt>
      <trkpt lat="46.66744" lon="5.57454">
        <ele>282</ele>
      </trkpt>
      <trkpt lat="46.66745" lon="5.57451">
        <ele>281.7</ele>
      </trkpt>
      <trkpt lat="46.66745" lon="5.57448">
        <ele>281.6</ele>
      </trkpt>
      <trkpt lat="46.66747" lon="5.57445">
        <ele>281.3</ele>
      </trkpt>
      <trkpt lat="46.66748" lon="5.57441">
        <ele>281.2</ele>
      </trkpt>
      <trkpt lat="46.66749" lon="5.57436">
        <ele>281</ele>
      </trkpt>
      <trkpt lat="46.6675" lon="5.57432">
        <ele>280.7</ele>
      </trkpt>
      <trkpt lat="46.6675" lon="5.57428">
        <ele>280.6</ele>
      </trkpt>
      <trkpt lat="46.6675" lon="5.57424">
        <ele>280.2</ele>
      </trkpt>
      <trkpt lat="46.66751" lon="5.5742">
        <ele>280</ele>
      </trkpt>
      <trkpt lat="46.66753" lon="5.57417">
        <ele>279.7</ele>
      </trkpt>
      <trkpt lat="46.66753" lon="5.57414">
        <ele>279.6</ele>
      </trkpt>
      <trkpt lat="46.66755" lon="5.57409">
        <ele>279.3</ele>
      </trkpt>
      <trkpt lat="46.66756" lon="5.57404">
        <ele>279.2</ele>
      </trkpt>
      <trkpt lat="46.66758" lon="5.574">
        <ele>279</ele>
      </trkpt>
      <trkpt lat="46.66759" lon="5.57396">
        <ele>278.7</ele>
      </trkpt>
      <trkpt lat="46.66761" lon="5.57393">
        <ele>278.6</ele>
      </trkpt>
      <trkpt lat="46.66762" lon="5.5739">
        <ele>278.3</ele>
      </trkpt>
      <trkpt lat="46.66763" lon="5.57388">
        <ele>278.2</ele>
      </trkpt>
      <trkpt lat="46.66764" lon="5.57384">
        <ele>278</ele>
      </trkpt>
      <trkpt lat="46.66766" lon="5.5738">
        <ele>277.7</ele>
      </trkpt>
      <trkpt lat="46.66766" lon="5.57375">
        <ele>277.7</ele>
      </trkpt>
      <trkpt lat="46.66766" lon="5.5737">
        <ele>277.6</ele>
      </trkpt>
      <trkpt lat="46.66766" lon="5.57365">
        <ele>277.3</ele>
      </trkpt>
      <trkpt lat="46.66767" lon="5.57359">
        <ele>277.2</ele>
      </trkpt>
      <trkpt lat="46.66767" lon="5.57354">
        <ele>277</ele>
      </trkpt>
      <trkpt lat="46.66768" lon="5.5735">
        <ele>276.7</ele>
      </trkpt>
      <trkpt lat="46.66769" lon="5.57346">
        <ele>276.7</ele>
      </trkpt>
      <trkpt lat="46.6677" lon="5.57341">
        <ele>276.6</ele>
      </trkpt>
      <trkpt lat="46.6677" lon="5.57337">
        <ele>276.3</ele>
      </trkpt>
      <trkpt lat="46.6677" lon="5.57333">
        <ele>276.3</ele>
      </trkpt>
      <trkpt lat="46.6677" lon="5.57329">
        <ele>276.2</ele>
      </trkpt>
      <trkpt lat="46.66772" lon="5.57325">
        <ele>276</ele>
      </trkpt>
      <trkpt lat="46.66774" lon="5.57321">
        <ele>275.7</ele>
      </trkpt>
      <trkpt lat="46.66775" lon="5.57317">
        <ele>275.6</ele>
      </trkpt>
      <trkpt lat="46.66777" lon="5.57313">
        <ele>275.6</ele>
      </trkpt>
      <trkpt lat="46.66779" lon="5.5731">
        <ele>275.3</ele>
      </trkpt>
      <trkpt lat="46.66781" lon="5.57307">
        <ele>275.2</ele>
      </trkpt>
      <trkpt lat="46.66782" lon="5.57305">
        <ele>275</ele>
      </trkpt>
      <trkpt lat="46.66785" lon="5.57302">
        <ele>275</ele>
      </trkpt>
      <trkpt lat="46.66786" lon="5.57299">
        <ele>274.7</ele>
      </trkpt>
      <trkpt lat="46.66789" lon="5.57295">
        <ele>274.6</ele>
      </trkpt>
      <trkpt lat="46.6679" lon="5.57292">
        <ele>274.6</ele>
      </trkpt>
      <trkpt lat="46.66793" lon="5.57289">
        <ele>274.3</ele>
      </trkpt>
      <trkpt lat="46.66794" lon="5.57287">
        <ele>274.2</ele>
      </trkpt>
      <trkpt lat="46.66797" lon="5.57283">
        <ele>274.2</ele>
      </trkpt>
      <trkpt lat="46.66798" lon="5.5728">
        <ele>274</ele>
      </trkpt>
      <trkpt lat="46.66801" lon="5.57278">
        <ele>274</ele>
      </trkpt>
      <trkpt lat="46.66802" lon="5.57275">
        <ele>273.7</ele>
      </trkpt>
      <trkpt lat="46.66804" lon="5.57272">
        <ele>273.7</ele>
      </trkpt>
      <trkpt lat="46.66806" lon="5.5727">
        <ele>273.6</ele>
      </trkpt>
      <trkpt lat="46.66808" lon="5.57268">
        <ele>273.6</ele>
      </trkpt>
      <trkpt lat="46.6681" lon="5.57266">
        <ele>273.3</ele>
      </trkpt>
      <trkpt lat="46.66811" lon="5.57264">
        <ele>273.3</ele>
      </trkpt>
      <trkpt lat="46.66813" lon="5.57262">
        <ele>273.2</ele>
      </trkpt>
      <trkpt lat="46.66815" lon="5.5726">
        <ele>273.2</ele>
      </trkpt>
      <trkpt lat="46.66818" lon="5.57257">
        <ele>273</ele>
      </trkpt>
      <trkpt lat="46.66819" lon="5.57254">
        <ele>273</ele>
      </trkpt>
      <trkpt lat="46.66822" lon="5.57248">
        <ele>272.7</ele>
      </trkpt>
      <trkpt lat="46.66824" lon="5.57241">
        <ele>272.7</ele>
      </trkpt>
      <trkpt lat="46.66826" lon="5.57236">
        <ele>272.6</ele>
      </trkpt>
      <trkpt lat="46.66827" lon="5.57231">
        <ele>272.6</ele>
      </trkpt>
      <trkpt lat="46.66826" lon="5.57228">
        <ele>272.3</ele>
      </trkpt>
      <trkpt lat="46.66825" lon="5.57226">
        <ele>272.2</ele>
      </trkpt>
      <trkpt lat="46.66824" lon="5.57224">
        <ele>272.2</ele>
      </trkpt>
      <trkpt lat="46.66822" lon="5.57222">
        <ele>272</ele>
      </trkpt>
      <trkpt lat="46.66819" lon="5.57221">
        <ele>272</ele>
      </trkpt>
      <trkpt lat="46.66817" lon="5.57221">
        <ele>272</ele>
      </trkpt>
      <trkpt lat="46.66814" lon="5.5722">
        <ele>271.7</ele>
      </trkpt>
      <trkpt lat="46.66811" lon="5.5722">
        <ele>271.7</ele>
      </trkpt>
      <trkpt lat="46.66809" lon="5.5722">
        <ele>271.7</ele>
      </trkpt>
      <trkpt lat="46.66806" lon="5.57219">
        <ele>271.6</ele>
      </trkpt>
      <trkpt lat="46.66803" lon="5.57218">
        <ele>271.6</ele>
      </trkpt>
      <trkpt lat="46.668" lon="5.57217">
        <ele>271.6</ele>
      </trkpt>
      <trkpt lat="46.66798" lon="5.57216">
        <ele>271.6</ele>
      </trkpt>
      <trkpt lat="46.66794" lon="5.57214">
        <ele>271.6</ele>
      </trkpt>
      <trkpt lat="46.66792" lon="5.57212">
        <ele>271.6</ele>
      </trkpt>
      <trkpt lat="46.66788" lon="5.57211">
        <ele>271.6</ele>
      </trkpt>
      <trkpt lat="46.66785" lon="5.5721">
        <ele>271.6</ele>
      </trkpt>
      <trkpt lat="46.66784" lon="5.57208">
        <ele>271.6</ele>
      </trkpt>
      <trkpt lat="46.6678" lon="5.57208">
        <ele>271.7</ele>
      </trkpt>
      <trkpt lat="46.66777" lon="5.57208">
        <ele>271.7</ele>
      </trkpt>
      <trkpt lat="46.66773" lon="5.57208">
        <ele>271.7</ele>
      </trkpt>
      <trkpt lat="46.6677" lon="5.57209">
        <ele>271.7</ele>
      </trkpt>
      <trkpt lat="46.66766" lon="5.5721">
        <ele>272</ele>
      </trkpt>
      <trkpt lat="46.66764" lon="5.57211">
        <ele>272</ele>
      </trkpt>
      <trkpt lat="46.66761" lon="5.57212">
        <ele>272.2</ele>
      </trkpt>
      <trkpt lat="46.66758" lon="5.57213">
        <ele>272.2</ele>
      </trkpt>
      <trkpt lat="46.66756" lon="5.57214">
        <ele>272.3</ele>
      </trkpt>
      <trkpt lat="46.66754" lon="5.57215">
        <ele>272.3</ele>
      </trkpt>
      <trkpt lat="46.66751" lon="5.57217">
        <ele>272.6</ele>
      </trkpt>
      <trkpt lat="46.66749" lon="5.57218">
        <ele>272.6</ele>
      </trkpt>
      <trkpt lat="46.66747" lon="5.57219">
        <ele>272.7</ele>
      </trkpt>
      <trkpt lat="46.66745" lon="5.5722">
        <ele>272.7</ele>
      </trkpt>
      <trkpt lat="46.66742" lon="5.57221">
        <ele>273</ele>
      </trkpt>
      <trkpt lat="46.66739" lon="5.57222">
        <ele>273</ele>
      </trkpt>
      <trkpt lat="46.66737" lon="5.57224">
        <ele>273</ele>
      </trkpt>
      <trkpt lat="46.66734" lon="5.57225">
        <ele>273</ele>
      </trkpt>
      <trkpt lat="46.66732" lon="5.57226">
        <ele>273</ele>
      </trkpt>
      <trkpt lat="46.66729" lon="5.57226">
        <ele>273</ele>
      </trkpt>
      <trkpt lat="46.66727" lon="5.57226">
        <ele>273</ele>
      </trkpt>
      <trkpt lat="46.66724" lon="5.57227">
        <ele>273</ele>
      </trkpt>
      <trkpt lat="46.66721" lon="5.57228">
        <ele>272.7</ele>
      </trkpt>
      <trkpt lat="46.66718" lon="5.57227">
        <ele>272.7</ele>
      </trkpt>
      <trkpt lat="46.66713" lon="5.57225">
        <ele>272.7</ele>
      </trkpt>
      <trkpt lat="46.66709" lon="5.57223">
        <ele>272.7</ele>
      </trkpt>
      <trkpt lat="46.66707" lon="5.5722">
        <ele>272.7</ele>
      </trkpt>
      <trkpt lat="46.66704" lon="5.57217">
        <ele>273</ele>
      </trkpt>
      <trkpt lat="46.66703" lon="5.57213">
        <ele>273</ele>
      </trkpt>
      <trkpt lat="46.66702" lon="5.57208">
        <ele>273</ele>
      </trkpt>
      <trkpt lat="46.66701" lon="5.57204">
        <ele>273.2</ele>
      </trkpt>
      <trkpt lat="46.66701" lon="5.572">
        <ele>273.2</ele>
      </trkpt>
      <trkpt lat="46.66701" lon="5.57194">
        <ele>273.3</ele>
      </trkpt>
      <trkpt lat="46.66701" lon="5.57191">
        <ele>273.3</ele>
      </trkpt>
      <trkpt lat="46.667" lon="5.57185">
        <ele>273.6</ele>
      </trkpt>
      <trkpt lat="46.667" lon="5.57182">
        <ele>273.6</ele>
      </trkpt>
      <trkpt lat="46.667" lon="5.57178">
        <ele>273.7</ele>
      </trkpt>
      <trkpt lat="46.66699" lon="5.57174">
        <ele>273.7</ele>
      </trkpt>
      <trkpt lat="46.66699" lon="5.57171">
        <ele>273.7</ele>
      </trkpt>
      <trkpt lat="46.66698" lon="5.57168">
        <ele>273.7</ele>
      </trkpt>
      <trkpt lat="46.66697" lon="5.57164">
        <ele>273.7</ele>
      </trkpt>
      <trkpt lat="46.66697" lon="5.57158">
        <ele>273.7</ele>
      </trkpt>
      <trkpt lat="46.66697" lon="5.57155">
        <ele>273.7</ele>
      </trkpt>
      <trkpt lat="46.66699" lon="5.57151">
        <ele>273.7</ele>
      </trkpt>
      <trkpt lat="46.66699" lon="5.57146">
        <ele>273.7</ele>
      </trkpt>
      <trkpt lat="46.667" lon="5.57142">
        <ele>273.7</ele>
      </trkpt>
      <trkpt lat="46.66701" lon="5.57137">
        <ele>273.7</ele>
      </trkpt>
      <trkpt lat="46.66703" lon="5.57132">
        <ele>273.7</ele>
      </trkpt>
      <trkpt lat="46.66704" lon="5.57129">
        <ele>273.7</ele>
      </trkpt>
      <trkpt lat="46.66705" lon="5.57124">
        <ele>273.6</ele>
      </trkpt>
      <trkpt lat="46.66707" lon="5.57121">
        <ele>273.6</ele>
      </trkpt>
      <trkpt lat="46.66708" lon="5.57117">
        <ele>273.6</ele>
      </trkpt>
      <trkpt lat="46.66709" lon="5.57113">
        <ele>273.3</ele>
      </trkpt>
      <trkpt lat="46.66711" lon="5.57108">
        <ele>273.3</ele>
      </trkpt>
      <trkpt lat="46.66713" lon="5.57103">
        <ele>273.3</ele>
      </trkpt>
      <trkpt lat="46.66713" lon="5.57098">
        <ele>273.2</ele>
      </trkpt>
      <trkpt lat="46.66716" lon="5.57094">
        <ele>273.3</ele>
      </trkpt>
      <trkpt lat="46.66718" lon="5.5709">
        <ele>273.3</ele>
      </trkpt>
      <trkpt lat="46.66719" lon="5.57085">
        <ele>273.3</ele>
      </trkpt>
      <trkpt lat="46.66721" lon="5.57081">
        <ele>273.6</ele>
      </trkpt>
      <trkpt lat="46.66722" lon="5.57076">
        <ele>273.6</ele>
      </trkpt>
      <trkpt lat="46.66723" lon="5.57071">
        <ele>273.6</ele>
      </trkpt>
      <trkpt lat="46.66724" lon="5.57066">
        <ele>273.6</ele>
      </trkpt>
      <trkpt lat="46.66724" lon="5.57061">
        <ele>273.6</ele>
      </trkpt>
      <trkpt lat="46.66726" lon="5.57056">
        <ele>273.7</ele>
      </trkpt>
      <trkpt lat="46.66727" lon="5.57053">
        <ele>273.7</ele>
      </trkpt>
      <trkpt lat="46.66729" lon="5.57048">
        <ele>273.7</ele>
      </trkpt>
      <trkpt lat="46.66731" lon="5.57045">
        <ele>273.7</ele>
      </trkpt>
      <trkpt lat="46.66734" lon="5.57042">
        <ele>273.7</ele>
      </trkpt>
      <trkpt lat="46.66736" lon="5.57038">
        <ele>273.7</ele>
      </trkpt>
      <trkpt lat="46.66739" lon="5.57036">
        <ele>273.7</ele>
      </trkpt>
      <trkpt lat="46.66741" lon="5.57034">
        <ele>273.6</ele>
      </trkpt>
      <trkpt lat="46.66744" lon="5.57032">
        <ele>273.6</ele>
      </trkpt>
      <trkpt lat="46.66747" lon="5.5703">
        <ele>273.6</ele>
      </trkpt>
      <trkpt lat="46.66749" lon="5.57028">
        <ele>273.6</ele>
      </trkpt>
      <trkpt lat="46.66752" lon="5.57027">
        <ele>273.3</ele>
      </trkpt>
      <trkpt lat="46.66755" lon="5.57028">
        <ele>273.3</ele>
      </trkpt>
      <trkpt lat="46.66758" lon="5.57028">
        <ele>273.3</ele>
      </trkpt>
      <trkpt lat="46.6676" lon="5.57027">
        <ele>273.3</ele>
      </trkpt>
      <trkpt lat="46.66763" lon="5.57025">
        <ele>273.3</ele>
      </trkpt>
      <trkpt lat="46.66765" lon="5.57025">
        <ele>273.3</ele>
      </trkpt>
      <trkpt lat="46.66766" lon="5.57024">
        <ele>273.3</ele>
      </trkpt>
      <trkpt lat="46.66769" lon="5.57021">
        <ele>273.2</ele>
      </trkpt>
      <trkpt lat="46.6677" lon="5.57018">
        <ele>273.2</ele>
      </trkpt>
      <trkpt lat="46.66771" lon="5.57014">
        <ele>273.2</ele>
      </trkpt>
      <trkpt lat="46.66773" lon="5.57011">
        <ele>273</ele>
      </trkpt>
      <trkpt lat="46.66774" lon="5.57008">
        <ele>273</ele>
      </trkpt>
      <trkpt lat="46.66775" lon="5.57003">
        <ele>273</ele>
      </trkpt>
      <trkpt lat="46.66776" lon="5.56999">
        <ele>273</ele>
      </trkpt>
      <trkpt lat="46.66775" lon="5.56994">
        <ele>272.7</ele>
      </trkpt>
      <trkpt lat="46.66774" lon="5.5699">
        <ele>272.7</ele>
      </trkpt>
      <trkpt lat="46.66774" lon="5.56985">
        <ele>272.7</ele>
      </trkpt>
      <trkpt lat="46.66773" lon="5.56981">
        <ele>272.7</ele>
      </trkpt>
      <trkpt lat="46.66772" lon="5.56977">
        <ele>272.7</ele>
      </trkpt>
      <trkpt lat="46.66772" lon="5.56972">
        <ele>272.7</ele>
      </trkpt>
      <trkpt lat="46.66771" lon="5.56967">
        <ele>272.6</ele>
      </trkpt>
      <trkpt lat="46.6677" lon="5.56963">
        <ele>272.6</ele>
      </trkpt>
      <trkpt lat="46.66768" lon="5.5696">
        <ele>272.6</ele>
      </trkpt>
      <trkpt lat="46.66766" lon="5.56957">
        <ele>272.6</ele>
      </trkpt>
      <trkpt lat="46.66764" lon="5.56954">
        <ele>272.3</ele>
      </trkpt>
      <trkpt lat="46.66763" lon="5.5695">
        <ele>272.3</ele>
      </trkpt>
      <trkpt lat="46.66761" lon="5.56947">
        <ele>272.3</ele>
      </trkpt>
      <trkpt lat="46.66762" lon="5.56942">
        <ele>272.3</ele>
      </trkpt>
      <trkpt lat="46.66761" lon="5.56939">
        <ele>272.3</ele>
      </trkpt>
      <trkpt lat="46.66761" lon="5.56937">
        <ele>272.3</ele>
      </trkpt>
      <trkpt lat="46.6676" lon="5.56934">
        <ele>272.3</ele>
      </trkpt>
      <trkpt lat="46.66759" lon="5.56931">
        <ele>272.3</ele>
      </trkpt>
      <trkpt lat="46.66758" lon="5.56926">
        <ele>272.3</ele>
      </trkpt>
      <trkpt lat="46.66758" lon="5.56923">
        <ele>272.6</ele>
      </trkpt>
      <trkpt lat="46.66758" lon="5.5692">
        <ele>272.6</ele>
      </trkpt>
      <trkpt lat="46.66758" lon="5.56917">
        <ele>272.6</ele>
      </trkpt>
      <trkpt lat="46.66757" lon="5.56914">
        <ele>272.6</ele>
      </trkpt>
      <trkpt lat="46.66756" lon="5.56909">
        <ele>272.6</ele>
      </trkpt>
      <trkpt lat="46.66758" lon="5.56904">
        <ele>272.6</ele>
      </trkpt>
      <trkpt lat="46.6676" lon="5.56901">
        <ele>272.7</ele>
      </trkpt>
      <trkpt lat="46.66763" lon="5.56897">
        <ele>273</ele>
      </trkpt>
      <trkpt lat="46.66765" lon="5.56894">
        <ele>273.2</ele>
      </trkpt>
      <trkpt lat="46.66764" lon="5.56891">
        <ele>273.3</ele>
      </trkpt>
      <trkpt lat="46.66763" lon="5.56889">
        <ele>273.3</ele>
      </trkpt>
      <trkpt lat="46.66763" lon="5.56886">
        <ele>273.6</ele>
      </trkpt>
      <trkpt lat="46.66762" lon="5.56884">
        <ele>273.7</ele>
      </trkpt>
      <trkpt lat="46.66761" lon="5.56881">
        <ele>273.7</ele>
      </trkpt>
      <trkpt lat="46.66761" lon="5.56877">
        <ele>274</ele>
      </trkpt>
      <trkpt lat="46.66758" lon="5.56873">
        <ele>274.3</ele>
      </trkpt>
      <trkpt lat="46.66758" lon="5.56868">
        <ele>274.7</ele>
      </trkpt>
      <trkpt lat="46.6676" lon="5.56864">
        <ele>275</ele>
      </trkpt>
      <trkpt lat="46.6676" lon="5.56861">
        <ele>275.2</ele>
      </trkpt>
      <trkpt lat="46.6676" lon="5.56857">
        <ele>275.3</ele>
      </trkpt>
      <trkpt lat="46.66759" lon="5.56853">
        <ele>275.7</ele>
      </trkpt>
      <trkpt lat="46.66758" lon="5.5685">
        <ele>276</ele>
      </trkpt>
      <trkpt lat="46.66758" lon="5.56847">
        <ele>276</ele>
      </trkpt>
      <trkpt lat="46.66756" lon="5.56844">
        <ele>276.2</ele>
      </trkpt>
      <trkpt lat="46.66756" lon="5.56842">
        <ele>276.2</ele>
      </trkpt>
      <trkpt lat="46.66755" lon="5.56839">
        <ele>276.3</ele>
      </trkpt>
      <trkpt lat="46.66753" lon="5.56835">
        <ele>276.7</ele>
      </trkpt>
      <trkpt lat="46.66753" lon="5.56832">
        <ele>276.7</ele>
      </trkpt>
      <trkpt lat="46.66751" lon="5.5683">
        <ele>277</ele>
      </trkpt>
      <trkpt lat="46.6675" lon="5.56826">
        <ele>277.2</ele>
      </trkpt>
      <trkpt lat="46.6675" lon="5.56822">
        <ele>277.3</ele>
      </trkpt>
      <trkpt lat="46.6675" lon="5.56819">
        <ele>277.6</ele>
      </trkpt>
      <trkpt lat="46.6675" lon="5.56816">
        <ele>278</ele>
      </trkpt>
      <trkpt lat="46.66749" lon="5.56812">
        <ele>278.3</ele>
      </trkpt>
      <trkpt lat="46.66748" lon="5.56808">
        <ele>278.6</ele>
      </trkpt>
      <trkpt lat="46.66748" lon="5.56804">
        <ele>278.6</ele>
      </trkpt>
      <trkpt lat="46.66749" lon="5.56802">
        <ele>278.7</ele>
      </trkpt>
      <trkpt lat="46.6675" lon="5.568">
        <ele>278.7</ele>
      </trkpt>
      <trkpt lat="46.66753" lon="5.56798">
        <ele>279</ele>
      </trkpt>
      <trkpt lat="46.66754" lon="5.56796">
        <ele>279</ele>
      </trkpt>
      <trkpt lat="46.66756" lon="5.56796">
        <ele>279</ele>
      </trkpt>
      <trkpt lat="46.66758" lon="5.56796">
        <ele>279</ele>
      </trkpt>
      <trkpt lat="46.6676" lon="5.56797">
        <ele>279</ele>
      </trkpt>
      <trkpt lat="46.66762" lon="5.56797">
        <ele>279</ele>
      </trkpt>
      <trkpt lat="46.66764" lon="5.56797">
        <ele>279</ele>
      </trkpt>
      <trkpt lat="46.66766" lon="5.56797">
        <ele>279</ele>
      </trkpt>
      <trkpt lat="46.66768" lon="5.56797">
        <ele>279</ele>
      </trkpt>
      <trkpt lat="46.6677" lon="5.56798">
        <ele>279</ele>
      </trkpt>
      <trkpt lat="46.66774" lon="5.56798">
        <ele>279</ele>
      </trkpt>
      <trkpt lat="46.66775" lon="5.56797">
        <ele>278.7</ele>
      </trkpt>
      <trkpt lat="46.66777" lon="5.56795">
        <ele>278.7</ele>
      </trkpt>
      <trkpt lat="46.66778" lon="5.56792">
        <ele>278.7</ele>
      </trkpt>
      <trkpt lat="46.66779" lon="5.5679">
        <ele>278.7</ele>
      </trkpt>
      <trkpt lat="46.66781" lon="5.56788">
        <ele>278.7</ele>
      </trkpt>
      <trkpt lat="46.66784" lon="5.56785">
        <ele>278.6</ele>
      </trkpt>
      <trkpt lat="46.66787" lon="5.56783">
        <ele>278.6</ele>
      </trkpt>
      <trkpt lat="46.6679" lon="5.5678">
        <ele>278.6</ele>
      </trkpt>
      <trkpt lat="46.66793" lon="5.56778">
        <ele>278.3</ele>
      </trkpt>
      <trkpt lat="46.66794" lon="5.56775">
        <ele>278.3</ele>
      </trkpt>
      <trkpt lat="46.66797" lon="5.56772">
        <ele>278.3</ele>
      </trkpt>
      <trkpt lat="46.66799" lon="5.56769">
        <ele>278.3</ele>
      </trkpt>
      <trkpt lat="46.66801" lon="5.56766">
        <ele>278.2</ele>
      </trkpt>
      <trkpt lat="46.66804" lon="5.56763">
        <ele>278.2</ele>
      </trkpt>
      <trkpt lat="46.66806" lon="5.56758">
        <ele>278</ele>
      </trkpt>
      <trkpt lat="46.66806" lon="5.56755">
        <ele>278</ele>
      </trkpt>
      <trkpt lat="46.66808" lon="5.56752">
        <ele>278</ele>
      </trkpt>
      <trkpt lat="46.66808" lon="5.56746">
        <ele>277.7</ele>
      </trkpt>
      <trkpt lat="46.6681" lon="5.56742">
        <ele>277.6</ele>
      </trkpt>
      <trkpt lat="46.66813" lon="5.56738">
        <ele>277.3</ele>
      </trkpt>
      <trkpt lat="46.66816" lon="5.56734">
        <ele>277.2</ele>
      </trkpt>
      <trkpt lat="46.66818" lon="5.56731">
        <ele>277</ele>
      </trkpt>
      <trkpt lat="46.66821" lon="5.56728">
        <ele>277</ele>
      </trkpt>
      <trkpt lat="46.66822" lon="5.56726">
        <ele>276.7</ele>
      </trkpt>
      <trkpt lat="46.66825" lon="5.56724">
        <ele>276.6</ele>
      </trkpt>
      <trkpt lat="46.66895" lon="5.56723">
        <ele>276.2</ele>
      </trkpt>
      <trkpt lat="46.66887" lon="5.56724">
        <ele>276.2</ele>
      </trkpt>
      <trkpt lat="46.66894" lon="5.56725">
        <ele>276</ele>
      </trkpt>
      <trkpt lat="46.66896" lon="5.56727">
        <ele>276</ele>
      </trkpt>
      <trkpt lat="46.66898" lon="5.5673">
        <ele>275.7</ele>
      </trkpt>
      <trkpt lat="46.669" lon="5.56733">
        <ele>275.6</ele>
      </trkpt>
      <trkpt lat="46.66902" lon="5.56736">
        <ele>275.3</ele>
      </trkpt>
      <trkpt lat="46.66904" lon="5.56736">
        <ele>275.2</ele>
      </trkpt>
      <trkpt lat="46.66906" lon="5.56737">
        <ele>275.2</ele>
      </trkpt>
      <trkpt lat="46.66909" lon="5.56738">
        <ele>275</ele>
      </trkpt>
      <trkpt lat="46.66913" lon="5.56739">
        <ele>274.7</ele>
      </trkpt>
      <trkpt lat="46.66915" lon="5.56739">
        <ele>274.6</ele>
      </trkpt>
      <trkpt lat="46.66919" lon="5.56739">
        <ele>274.3</ele>
      </trkpt>
      <trkpt lat="46.66922" lon="5.56739">
        <ele>274.2</ele>
      </trkpt>
      <trkpt lat="46.66925" lon="5.56739">
        <ele>274.2</ele>
      </trkpt>
      <trkpt lat="46.66927" lon="5.56739">
        <ele>274</ele>
      </trkpt>
      <trkpt lat="46.66929" lon="5.56738">
        <ele>273.7</ele>
      </trkpt>
      <trkpt lat="46.66932" lon="5.56738">
        <ele>273.6</ele>
      </trkpt>
      <trkpt lat="46.66935" lon="5.56737">
        <ele>273.3</ele>
      </trkpt>
      <trkpt lat="46.66938" lon="5.56737">
        <ele>273.2</ele>
      </trkpt>
      <trkpt lat="46.66941" lon="5.56737">
        <ele>273.2</ele>
      </trkpt>
      <trkpt lat="46.66945" lon="5.56737">
        <ele>273</ele>
      </trkpt>
      <trkpt lat="46.66948" lon="5.56736">
        <ele>272.7</ele>
      </trkpt>
      <trkpt lat="46.66952" lon="5.56736">
        <ele>272.6</ele>
      </trkpt>
      <trkpt lat="46.66955" lon="5.56736">
        <ele>272.6</ele>
      </trkpt>
      <trkpt lat="46.66957" lon="5.56736">
        <ele>272.3</ele>
      </trkpt>
      <trkpt lat="46.66959" lon="5.56736">
        <ele>272.2</ele>
      </trkpt>
      <trkpt lat="46.66962" lon="5.56737">
        <ele>272</ele>
      </trkpt>
      <trkpt lat="46.66963" lon="5.5674">
        <ele>272</ele>
      </trkpt>
      <trkpt lat="46.66966" lon="5.56743">
        <ele>271.7</ele>
      </trkpt>
      <trkpt lat="46.66969" lon="5.56747">
        <ele>271.6</ele>
      </trkpt>
      <trkpt lat="46.6697" lon="5.5675">
        <ele>271.6</ele>
      </trkpt>
      <trkpt lat="46.66973" lon="5.56753">
        <ele>271.3</ele>
      </trkpt>
      <trkpt lat="46.66975" lon="5.56756">
        <ele>271.2</ele>
      </trkpt>
      <trkpt lat="46.66977" lon="5.5676">
        <ele>271.2</ele>
      </trkpt>
      <trkpt lat="46.6698" lon="5.56763">
        <ele>271</ele>
      </trkpt>
      <trkpt lat="46.66982" lon="5.56766">
        <ele>270.7</ele>
      </trkpt>
      <trkpt lat="46.66985" lon="5.5677">
        <ele>270.7</ele>
      </trkpt>
      <trkpt lat="46.66987" lon="5.56773">
        <ele>270.6</ele>
      </trkpt>
      <trkpt lat="46.66988" lon="5.56776">
        <ele>270.6</ele>
      </trkpt>
      <trkpt lat="46.66991" lon="5.5678">
        <ele>270.3</ele>
      </trkpt>
      <trkpt lat="46.66993" lon="5.56783">
        <ele>270.2</ele>
      </trkpt>
      <trkpt lat="46.66994" lon="5.56786">
        <ele>270.2</ele>
      </trkpt>
      <trkpt lat="46.66996" lon="5.5679">
        <ele>270</ele>
      </trkpt>
      <trkpt lat="46.66998" lon="5.56794">
        <ele>270</ele>
      </trkpt>
      <trkpt lat="46.67001" lon="5.56799">
        <ele>269.7</ele>
      </trkpt>
      <trkpt lat="46.67003" lon="5.56803">
        <ele>269.7</ele>
      </trkpt>
      <trkpt lat="46.67005" lon="5.56807">
        <ele>269.6</ele>
      </trkpt>
      <trkpt lat="46.67007" lon="5.56807">
        <ele>269.3</ele>
      </trkpt>
      <trkpt lat="46.67012" lon="5.56806">
        <ele>269.3</ele>
      </trkpt>
      <trkpt lat="46.67014" lon="5.56803">
        <ele>269.2</ele>
      </trkpt>
      <trkpt lat="46.67017" lon="5.568">
        <ele>269.2</ele>
      </trkpt>
      <trkpt lat="46.67019" lon="5.56797">
        <ele>269</ele>
      </trkpt>
      <trkpt lat="46.67022" lon="5.56795">
        <ele>268.7</ele>
      </trkpt>
      <trkpt lat="46.67024" lon="5.56793">
        <ele>268.6</ele>
      </trkpt>
      <trkpt lat="46.67027" lon="5.5679">
        <ele>268.3</ele>
      </trkpt>
      <trkpt lat="46.67029" lon="5.56787">
        <ele>268.2</ele>
      </trkpt>
      <trkpt lat="46.67032" lon="5.56784">
        <ele>268.2</ele>
      </trkpt>
      <trkpt lat="46.67034" lon="5.56781">
        <ele>268</ele>
      </trkpt>
      <trkpt lat="46.67036" lon="5.56777">
        <ele>267.7</ele>
      </trkpt>
      <trkpt lat="46.67038" lon="5.56774">
        <ele>267.6</ele>
      </trkpt>
      <trkpt lat="46.67039" lon="5.56771">
        <ele>267.6</ele>
      </trkpt>
      <trkpt lat="46.67041" lon="5.56767">
        <ele>267.3</ele>
      </trkpt>
      <trkpt lat="46.67043" lon="5.56763">
        <ele>267.2</ele>
      </trkpt>
      <trkpt lat="46.67044" lon="5.56759">
        <ele>267.2</ele>
      </trkpt>
      <trkpt lat="46.67047" lon="5.56755">
        <ele>267</ele>
      </trkpt>
      <trkpt lat="46.67049" lon="5.56752">
        <ele>267</ele>
      </trkpt>
      <trkpt lat="46.67053" lon="5.56749">
        <ele>266.7</ele>
      </trkpt>
      <trkpt lat="46.67055" lon="5.56746">
        <ele>266.7</ele>
      </trkpt>
      <trkpt lat="46.67058" lon="5.56744">
        <ele>266.6</ele>
      </trkpt>
      <trkpt lat="46.67061" lon="5.56742">
        <ele>266.6</ele>
      </trkpt>
      <trkpt lat="46.67064" lon="5.56738">
        <ele>266.3</ele>
      </trkpt>
      <trkpt lat="46.67067" lon="5.56735">
        <ele>266.2</ele>
      </trkpt>
      <trkpt lat="46.6707" lon="5.56731">
        <ele>266.2</ele>
      </trkpt>
      <trkpt lat="46.67073" lon="5.56727">
        <ele>266</ele>
      </trkpt>
      <trkpt lat="46.67074" lon="5.56724">
        <ele>265.7</ele>
      </trkpt>
      <trkpt lat="46.67077" lon="5.56721">
        <ele>265.7</ele>
      </trkpt>
      <trkpt lat="46.67079" lon="5.56718">
        <ele>265.6</ele>
      </trkpt>
      <trkpt lat="46.67082" lon="5.56715">
        <ele>265.3</ele>
      </trkpt>
      <trkpt lat="46.67084" lon="5.56714">
        <ele>265.3</ele>
      </trkpt>
      <trkpt lat="46.67086" lon="5.56713">
        <ele>265.2</ele>
      </trkpt>
      <trkpt lat="46.67088" lon="5.56711">
        <ele>265.2</ele>
      </trkpt>
      <trkpt lat="46.67089" lon="5.56708">
        <ele>265</ele>
      </trkpt>
      <trkpt lat="46.6709" lon="5.56704">
        <ele>265</ele>
      </trkpt>
      <trkpt lat="46.67092" lon="5.567">
        <ele>264.7</ele>
      </trkpt>
      <trkpt lat="46.67092" lon="5.56697">
        <ele>264.7</ele>
      </trkpt>
      <trkpt lat="46.67093" lon="5.56693">
        <ele>264.6</ele>
      </trkpt>
      <trkpt lat="46.67094" lon="5.56689">
        <ele>264.6</ele>
      </trkpt>
      <trkpt lat="46.67094" lon="5.56686">
        <ele>264.3</ele>
      </trkpt>
      <trkpt lat="46.67095" lon="5.56682">
        <ele>264.3</ele>
      </trkpt>
      <trkpt lat="46.67096" lon="5.56678">
        <ele>264.3</ele>
      </trkpt>
      <trkpt lat="46.67099" lon="5.56674">
        <ele>264.3</ele>
      </trkpt>
      <trkpt lat="46.67101" lon="5.5667">
        <ele>264.3</ele>
      </trkpt>
      <trkpt lat="46.67102" lon="5.56667">
        <ele>264.3</ele>
      </trkpt>
      <trkpt lat="46.67104" lon="5.56663">
        <ele>264.3</ele>
      </trkpt>
      <trkpt lat="46.67106" lon="5.56659">
        <ele>264.3</ele>
      </trkpt>
      <trkpt lat="46.67108" lon="5.56656">
        <ele>264.3</ele>
      </trkpt>
      <trkpt lat="46.6711" lon="5.56654">
        <ele>264.3</ele>
      </trkpt>
      <trkpt lat="46.67112" lon="5.56651">
        <ele>264.3</ele>
      </trkpt>
      <trkpt lat="46.67114" lon="5.56648">
        <ele>264.3</ele>
      </trkpt>
      <trkpt lat="46.67115" lon="5.56645">
        <ele>264.3</ele>
      </trkpt>
      <trkpt lat="46.67117" lon="5.56641">
        <ele>264.2</ele>
      </trkpt>
      <trkpt lat="46.67119" lon="5.56637">
        <ele>264.2</ele>
      </trkpt>
      <trkpt lat="46.6712" lon="5.56633">
        <ele>264.2</ele>
      </trkpt>
      <trkpt lat="46.67122" lon="5.56628">
        <ele>264</ele>
      </trkpt>
      <trkpt lat="46.67123" lon="5.56623">
        <ele>264</ele>
      </trkpt>
      <trkpt lat="46.67124" lon="5.56619">
        <ele>264</ele>
      </trkpt>
      <trkpt lat="46.67126" lon="5.56615">
        <ele>263.7</ele>
      </trkpt>
      <trkpt lat="46.67128" lon="5.5661">
        <ele>263.7</ele>
      </trkpt>
      <trkpt lat="46.6713" lon="5.56605">
        <ele>263.6</ele>
      </trkpt>
      <trkpt lat="46.67131" lon="5.566">
        <ele>263.6</ele>
      </trkpt>
      <trkpt lat="46.67132" lon="5.56595">
        <ele>263.6</ele>
      </trkpt>
      <trkpt lat="46.67133" lon="5.5659">
        <ele>263.6</ele>
      </trkpt>
      <trkpt lat="46.67136" lon="5.56584">
        <ele>263.6</ele>
      </trkpt>
      <trkpt lat="46.67136" lon="5.56579">
        <ele>263.3</ele>
      </trkpt>
      <trkpt lat="46.67139" lon="5.56574">
        <ele>263.3</ele>
      </trkpt>
      <trkpt lat="46.67141" lon="5.56568">
        <ele>263.3</ele>
      </trkpt>
      <trkpt lat="46.67141" lon="5.56562">
        <ele>263.3</ele>
      </trkpt>
      <trkpt lat="46.67142" lon="5.56556">
        <ele>263.3</ele>
      </trkpt>
      <trkpt lat="46.67144" lon="5.56551">
        <ele>263.3</ele>
      </trkpt>
      <trkpt lat="46.67145" lon="5.56546">
        <ele>263.3</ele>
      </trkpt>
      <trkpt lat="46.67147" lon="5.5654">
        <ele>263.6</ele>
      </trkpt>
      <trkpt lat="46.67149" lon="5.56534">
        <ele>263.6</ele>
      </trkpt>
      <trkpt lat="46.67152" lon="5.5653">
        <ele>263.6</ele>
      </trkpt>
      <trkpt lat="46.67154" lon="5.56526">
        <ele>263.6</ele>
      </trkpt>
      <trkpt lat="46.67156" lon="5.56523">
        <ele>263.6</ele>
      </trkpt>
      <trkpt lat="46.67159" lon="5.5652">
        <ele>263.6</ele>
      </trkpt>
      <trkpt lat="46.67162" lon="5.56516">
        <ele>263.6</ele>
      </trkpt>
      <trkpt lat="46.67165" lon="5.56512">
        <ele>263.6</ele>
      </trkpt>
      <trkpt lat="46.67169" lon="5.56508">
        <ele>263.6</ele>
      </trkpt>
      <trkpt lat="46.67172" lon="5.56504">
        <ele>263.6</ele>
      </trkpt>
      <trkpt lat="46.67174" lon="5.565">
        <ele>263.6</ele>
      </trkpt>
      <trkpt lat="46.67177" lon="5.56495">
        <ele>263.6</ele>
      </trkpt>
      <trkpt lat="46.6718" lon="5.56492">
        <ele>263.6</ele>
      </trkpt>
      <trkpt lat="46.67182" lon="5.56488">
        <ele>263.6</ele>
      </trkpt>
      <trkpt lat="46.67185" lon="5.56484">
        <ele>263.6</ele>
      </trkpt>
      <trkpt lat="46.67188" lon="5.56481">
        <ele>263.6</ele>
      </trkpt>
      <trkpt lat="46.67191" lon="5.56477">
        <ele>263.3</ele>
      </trkpt>
      <trkpt lat="46.67193" lon="5.56473">
        <ele>263.3</ele>
      </trkpt>
      <trkpt lat="46.67195" lon="5.56469">
        <ele>263.3</ele>
      </trkpt>
      <trkpt lat="46.67199" lon="5.56466">
        <ele>263.3</ele>
      </trkpt>
      <trkpt lat="46.67202" lon="5.56461">
        <ele>263.2</ele>
      </trkpt>
      <trkpt lat="46.67205" lon="5.56459">
        <ele>263.2</ele>
      </trkpt>
      <trkpt lat="46.67207" lon="5.56455">
        <ele>263.2</ele>
      </trkpt>
      <trkpt lat="46.6721" lon="5.56451">
        <ele>263</ele>
      </trkpt>
      <trkpt lat="46.67213" lon="5.56447">
        <ele>263</ele>
      </trkpt>
      <trkpt lat="46.67215" lon="5.56443">
        <ele>263</ele>
      </trkpt>
      <trkpt lat="46.67218" lon="5.56439">
        <ele>263</ele>
      </trkpt>
      <trkpt lat="46.6722" lon="5.56436">
        <ele>263</ele>
      </trkpt>
      <trkpt lat="46.67223" lon="5.56433">
        <ele>263</ele>
      </trkpt>
      <trkpt lat="46.67225" lon="5.5643">
        <ele>263</ele>
      </trkpt>
      <trkpt lat="46.67226" lon="5.56427">
        <ele>262.7</ele>
      </trkpt>
      <trkpt lat="46.67228" lon="5.56422">
        <ele>262.7</ele>
      </trkpt>
      <trkpt lat="46.6723" lon="5.56418">
        <ele>262.7</ele>
      </trkpt>
      <trkpt lat="46.67231" lon="5.56415">
        <ele>262.7</ele>
      </trkpt>
      <trkpt lat="46.67231" lon="5.5641">
        <ele>262.7</ele>
      </trkpt>
      <trkpt lat="46.67233" lon="5.56405">
        <ele>262.7</ele>
      </trkpt>
      <trkpt lat="46.67233" lon="5.56401">
        <ele>262.6</ele>
      </trkpt>
      <trkpt lat="46.67233" lon="5.56396">
        <ele>262.6</ele>
      </trkpt>
      <trkpt lat="46.67233" lon="5.56392">
        <ele>262.6</ele>
      </trkpt>
      <trkpt lat="46.67233" lon="5.56387">
        <ele>262.6</ele>
      </trkpt>
      <trkpt lat="46.67236" lon="5.56382">
        <ele>262.3</ele>
      </trkpt>
      <trkpt lat="46.67236" lon="5.56377">
        <ele>262.3</ele>
      </trkpt>
      <trkpt lat="46.67237" lon="5.56372">
        <ele>262.3</ele>
      </trkpt>
      <trkpt lat="46.67237" lon="5.56367">
        <ele>262.3</ele>
      </trkpt>
      <trkpt lat="46.67239" lon="5.56362">
        <ele>262.6</ele>
      </trkpt>
      <trkpt lat="46.67242" lon="5.56357">
        <ele>262.6</ele>
      </trkpt>
      <trkpt lat="46.67242" lon="5.56352">
        <ele>262.6</ele>
      </trkpt>
      <trkpt lat="46.67242" lon="5.56347">
        <ele>262.6</ele>
      </trkpt>
      <trkpt lat="46.67242" lon="5.56343">
        <ele>262.3</ele>
      </trkpt>
      <trkpt lat="46.67242" lon="5.56337">
        <ele>262.3</ele>
      </trkpt>
      <trkpt lat="46.67242" lon="5.5633">
        <ele>262.3</ele>
      </trkpt>
      <trkpt lat="46.67244" lon="5.56326">
        <ele>262.3</ele>
      </trkpt>
      <trkpt lat="46.67245" lon="5.56321">
        <ele>262.3</ele>
      </trkpt>
      <trkpt lat="46.67246" lon="5.56318">
        <ele>262.2</ele>
      </trkpt>
      <trkpt lat="46.67247" lon="5.56315">
        <ele>262.2</ele>
      </trkpt>
      <trkpt lat="46.67247" lon="5.56312">
        <ele>262.2</ele>
      </trkpt>
      <trkpt lat="46.67249" lon="5.56308">
        <ele>262.2</ele>
      </trkpt>
      <trkpt lat="46.67249" lon="5.56303">
        <ele>262.2</ele>
      </trkpt>
      <trkpt lat="46.6725" lon="5.56298">
        <ele>262.2</ele>
      </trkpt>
      <trkpt lat="46.6725" lon="5.56291">
        <ele>262.2</ele>
      </trkpt>
      <trkpt lat="46.6725" lon="5.56285">
        <ele>262.3</ele>
      </trkpt>
      <trkpt lat="46.6725" lon="5.56279">
        <ele>262.2</ele>
      </trkpt>
      <trkpt lat="46.6725" lon="5.56273">
        <ele>262.2</ele>
      </trkpt>
      <trkpt lat="46.67252" lon="5.56267">
        <ele>262.2</ele>
      </trkpt>
      <trkpt lat="46.67253" lon="5.56261">
        <ele>262.2</ele>
      </trkpt>
      <trkpt lat="46.67254" lon="5.56256">
        <ele>262.2</ele>
      </trkpt>
      <trkpt lat="46.67255" lon="5.5625">
        <ele>262.2</ele>
      </trkpt>
      <trkpt lat="46.67255" lon="5.56244">
        <ele>262.2</ele>
      </trkpt>
      <trkpt lat="46.67257" lon="5.56238">
        <ele>262.2</ele>
      </trkpt>
      <trkpt lat="46.67257" lon="5.56232">
        <ele>262.2</ele>
      </trkpt>
      <trkpt lat="46.67257" lon="5.56227">
        <ele>262.2</ele>
      </trkpt>
      <trkpt lat="46.67257" lon="5.56221">
        <ele>262.2</ele>
      </trkpt>
      <trkpt lat="46.67259" lon="5.56217">
        <ele>262.2</ele>
      </trkpt>
      <trkpt lat="46.67257" lon="5.56211">
        <ele>262</ele>
      </trkpt>
      <trkpt lat="46.67259" lon="5.56205">
        <ele>262</ele>
      </trkpt>
      <trkpt lat="46.67257" lon="5.56199">
        <ele>262</ele>
      </trkpt>
      <trkpt lat="46.67257" lon="5.56194">
        <ele>262</ele>
      </trkpt>
      <trkpt lat="46.67257" lon="5.56187">
        <ele>262</ele>
      </trkpt>
      <trkpt lat="46.67259" lon="5.56181">
        <ele>261.7</ele>
      </trkpt>
      <trkpt lat="46.6726" lon="5.56175">
        <ele>261.7</ele>
      </trkpt>
      <trkpt lat="46.6726" lon="5.56169">
        <ele>261.7</ele>
      </trkpt>
      <trkpt lat="46.6726" lon="5.56164">
        <ele>261.7</ele>
      </trkpt>
      <trkpt lat="46.67261" lon="5.56157">
        <ele>261.7</ele>
      </trkpt>
      <trkpt lat="46.67262" lon="5.56151">
        <ele>261.6</ele>
      </trkpt>
      <trkpt lat="46.67262" lon="5.56145">
        <ele>261.6</ele>
      </trkpt>
      <trkpt lat="46.67261" lon="5.56138">
        <ele>261.6</ele>
      </trkpt>
      <trkpt lat="46.67261" lon="5.56133">
        <ele>261.6</ele>
      </trkpt>
      <trkpt lat="46.67261" lon="5.56127">
        <ele>261.3</ele>
      </trkpt>
      <trkpt lat="46.67262" lon="5.56121">
        <ele>261.3</ele>
      </trkpt>
      <trkpt lat="46.67262" lon="5.56115">
        <ele>261.2</ele>
      </trkpt>
      <trkpt lat="46.67263" lon="5.5611">
        <ele>261.2</ele>
      </trkpt>
      <trkpt lat="46.67264" lon="5.56104">
        <ele>261.2</ele>
      </trkpt>
      <trkpt lat="46.67265" lon="5.56098">
        <ele>261</ele>
      </trkpt>
      <trkpt lat="46.67265" lon="5.56092">
        <ele>261</ele>
      </trkpt>
      <trkpt lat="46.67265" lon="5.56086">
        <ele>261</ele>
      </trkpt>
      <trkpt lat="46.67267" lon="5.5608">
        <ele>260.7</ele>
      </trkpt>
      <trkpt lat="46.67267" lon="5.56076">
        <ele>260.7</ele>
      </trkpt>
      <trkpt lat="46.67268" lon="5.56071">
        <ele>260.6</ele>
      </trkpt>
      <trkpt lat="46.67269" lon="5.56066">
        <ele>260.6</ele>
      </trkpt>
      <trkpt lat="46.67271" lon="5.5606">
        <ele>260.3</ele>
      </trkpt>
      <trkpt lat="46.67271" lon="5.56055">
        <ele>260.3</ele>
      </trkpt>
      <trkpt lat="46.67273" lon="5.5605">
        <ele>260.3</ele>
      </trkpt>
      <trkpt lat="46.67273" lon="5.56045">
        <ele>260.2</ele>
      </trkpt>
      <trkpt lat="46.67273" lon="5.5604">
        <ele>260.2</ele>
      </trkpt>
      <trkpt lat="46.67273" lon="5.56035">
        <ele>260.2</ele>
      </trkpt>
      <trkpt lat="46.67273" lon="5.5603">
        <ele>260</ele>
      </trkpt>
      <trkpt lat="46.67273" lon="5.56025">
        <ele>260</ele>
      </trkpt>
      <trkpt lat="46.67274" lon="5.56021">
        <ele>260</ele>
      </trkpt>
      <trkpt lat="46.67275" lon="5.56015">
        <ele>259.7</ele>
      </trkpt>
      <trkpt lat="46.67276" lon="5.56011">
        <ele>259.7</ele>
      </trkpt>
      <trkpt lat="46.67276" lon="5.56006">
        <ele>259.7</ele>
      </trkpt>
      <trkpt lat="46.67276" lon="5.56002">
        <ele>259.6</ele>
      </trkpt>
      <trkpt lat="46.67276" lon="5.55998">
        <ele>259.6</ele>
      </trkpt>
      <trkpt lat="46.67276" lon="5.55993">
        <ele>259.6</ele>
      </trkpt>
      <trkpt lat="46.67275" lon="5.55988">
        <ele>259.3</ele>
      </trkpt>
      <trkpt lat="46.67275" lon="5.55984">
        <ele>259.3</ele>
      </trkpt>
      <trkpt lat="46.67275" lon="5.55978">
        <ele>259.2</ele>
      </trkpt>
      <trkpt lat="46.67275" lon="5.55974">
        <ele>259.2</ele>
      </trkpt>
      <trkpt lat="46.67275" lon="5.5597">
        <ele>259</ele>
      </trkpt>
      <trkpt lat="46.67276" lon="5.55967">
        <ele>259</ele>
        <extensions>
          <visugpx:TrkExtension xmlns:visugpx="https://www.visugpx.com/editgpx/">
            <visugpx:node>1</visugpx:node>
            </visugpx:TrkExtension>
        </extensions>
      </trkpt>
      <trkpt lat="46.6728" lon="5.55953">
        <ele>259.1</ele>
      </trkpt>
      <trkpt lat="46.67281" lon="5.5595">
        <ele>259</ele>
        <time>2018-07-17T07:19:58.000Z</time>
        <extensions>
          <visugpx:TrkExtension xmlns:visugpx="https://www.visugpx.com/editgpx/">
            <visugpx:node>15</visugpx:node>
            </visugpx:TrkExtension>
        </extensions>
      </trkpt>
      <trkpt lat="46.67286" lon="5.55934">
        <ele>259.4</ele>
        <time>2018-07-17T07:20:08.000Z</time>
      </trkpt>
      <trkpt lat="46.67286" lon="5.55919">
        <ele>259</ele>
        <time>2018-07-17T07:20:06.000Z</time>
      </trkpt>
      <trkpt lat="46.67276" lon="5.55892">
        <ele>259</ele>
        <time>2018-07-17T07:20:14.000Z</time>
      </trkpt>
      <trkpt lat="46.67276" lon="5.55866">
        <ele>259.2</ele>
        <time>2018-07-17T07:20:24.000Z</time>
      </trkpt>
      <trkpt lat="46.67277" lon="5.55851">
        <ele>258</ele>
        <time>2018-07-17T07:20:34.000Z</time>
      </trkpt>
      <trkpt lat="46.67275" lon="5.55813">
        <ele>257</ele>
        <time>2018-07-17T07:20:44.000Z</time>
      </trkpt>
      <trkpt lat="46.67273" lon="5.5579">
        <ele>258</ele>
        <time>2018-07-17T07:20:54.000Z</time>
      </trkpt>
      <trkpt lat="46.67275" lon="5.55778">
        <ele>257</ele>
        <time>2018-07-17T07:21:04.000Z</time>
      </trkpt>
      <trkpt lat="46.67274" lon="5.55748">
        <ele>257</ele>
        <time>2018-07-17T07:21:14.000Z</time>
      </trkpt>
      <trkpt lat="46.67274" lon="5.55732">
        <ele>257</ele>
        <time>2018-07-17T07:21:24.000Z</time>
      </trkpt>
      <trkpt lat="46.67272" lon="5.5571">
        <ele>256</ele>
        <time>2018-07-17T07:21:34.000Z</time>
      </trkpt>
      <trkpt lat="46.67275" lon="5.55696">
        <ele>257</ele>
        <time>2018-07-17T07:21:44.000Z</time>
      </trkpt>
      <trkpt lat="46.67279" lon="5.55681">
        <ele>256</ele>
        <time>2018-07-17T07:21:54.000Z</time>
      </trkpt>
      <trkpt lat="46.67289" lon="5.55676">
        <ele>257.4</ele>
        <time>2018-07-17T07:22:04.000Z</time>
      </trkpt>
      <trkpt lat="46.67296" lon="5.55667">
        <ele>257</ele>
        <time>2018-07-17T07:22:14.000Z</time>
      </trkpt>
      <trkpt lat="46.67299" lon="5.55652">
        <ele>257.2</ele>
        <time>2018-07-17T07:22:24.000Z</time>
      </trkpt>
      <trkpt lat="46.67302" lon="5.55625">
        <ele>257</ele>
        <time>2018-07-17T07:22:34.000Z</time>
      </trkpt>
      <trkpt lat="46.67301" lon="5.55612">
        <ele>256.8</ele>
        <time>2018-07-17T07:22:44.000Z</time>
      </trkpt>
      <trkpt lat="46.67303" lon="5.55591">
        <ele>256</ele>
        <time>2018-07-17T07:21:44.000Z</time>
      </trkpt>
      <trkpt lat="46.67307" lon="5.55554">
        <ele>256</ele>
        <time>2018-07-17T07:21:54.000Z</time>
      </trkpt>
      <trkpt lat="46.67313" lon="5.55509">
        <ele>256</ele>
        <time>2018-07-17T07:22:03.000Z</time>
      </trkpt>
      <trkpt lat="46.6732" lon="5.55496">
        <ele>256</ele>
        <time>2018-07-17T07:22:13.000Z</time>
      </trkpt>
      <trkpt lat="46.67328" lon="5.55489">
        <ele>255</ele>
        <time>2018-07-17T07:22:09.000Z</time>
      </trkpt>
      <trkpt lat="46.67337" lon="5.55484">
        <ele>256.1</ele>
        <time>2018-07-17T07:22:19.000Z</time>
      </trkpt>
      <trkpt lat="46.6736" lon="5.5548">
        <ele>255</ele>
        <time>2018-07-17T07:22:21.000Z</time>
      </trkpt>
      <trkpt lat="46.67379" lon="5.55486">
        <ele>256</ele>
        <time>2018-07-17T07:22:28.000Z</time>
      </trkpt>
      <trkpt lat="46.67397" lon="5.55489">
        <ele>256.6</ele>
        <time>2018-07-17T07:22:38.000Z</time>
      </trkpt>
      <trkpt lat="46.67409" lon="5.55496">
        <ele>256</ele>
        <time>2018-07-17T07:22:48.000Z</time>
      </trkpt>
      <trkpt lat="46.67416" lon="5.55486">
        <ele>256.5</ele>
        <time>2018-07-17T07:22:58.000Z</time>
      </trkpt>
      <trkpt lat="46.67422" lon="5.55473">
        <ele>255</ele>
        <time>2018-07-17T07:22:53.000Z</time>
      </trkpt>
      <trkpt lat="46.67427" lon="5.55458">
        <ele>255.5</ele>
        <time>2018-07-17T07:23:03.000Z</time>
      </trkpt>
      <trkpt lat="46.67432" lon="5.55445">
        <ele>255</ele>
        <time>2018-07-17T07:23:01.000Z</time>
      </trkpt>
      <trkpt lat="46.67441" lon="5.55435">
        <ele>255</ele>
        <time>2018-07-17T07:23:11.000Z</time>
      </trkpt>
      <trkpt lat="46.67448" lon="5.55424">
        <ele>255</ele>
        <time>2018-07-17T07:23:21.000Z</time>
      </trkpt>
      <trkpt lat="46.67452" lon="5.55411">
        <ele>255</ele>
        <time>2018-07-17T07:23:31.000Z</time>
      </trkpt>
      <trkpt lat="46.67468" lon="5.55374">
        <ele>254</ele>
        <time>2018-07-17T07:23:41.000Z</time>
      </trkpt>
      <trkpt lat="46.67476" lon="5.55357">
        <ele>255</ele>
        <time>2018-07-17T07:23:51.000Z</time>
      </trkpt>
      <trkpt lat="46.67466" lon="5.55352">
        <ele>254</ele>
        <time>2018-07-17T07:23:27.000Z</time>
      </trkpt>
      <trkpt lat="46.67456" lon="5.55342">
        <ele>254.6</ele>
        <time>2018-07-17T07:23:37.000Z</time>
      </trkpt>
      <trkpt lat="46.67447" lon="5.5533">
        <ele>254</ele>
        <time>2018-07-17T07:23:35.000Z</time>
      </trkpt>
      <trkpt lat="46.67431" lon="5.55305">
        <ele>254</ele>
        <time>2018-07-17T07:23:45.000Z</time>
      </trkpt>
      <trkpt lat="46.67416" lon="5.5528">
        <ele>254</ele>
        <time>2018-07-17T07:23:55.000Z</time>
      </trkpt>
      <trkpt lat="46.67405" lon="5.5526">
        <ele>254</ele>
        <time>2018-07-17T07:24:05.000Z</time>
      </trkpt>
      <trkpt lat="46.67387" lon="5.5525">
        <ele>254</ele>
        <time>2018-07-17T07:24:15.000Z</time>
        <extensions>
          <visugpx:TrkExtension xmlns:visugpx="https://www.visugpx.com/editgpx/">
            <visugpx:node>14</visugpx:node>
            </visugpx:TrkExtension>
        </extensions>
      </trkpt>
    </trkseg>
  </trk>
</gpx>